<?xml version="1.0" encoding="UTF-8" ?>
<gpx version="1.1" xmlns:xsi="http://www.w3.org/2001/XMLSchema-instance" 
    xmlns="http://www.topografix.com/GPX/1/1" 
    xsi:schemaLocation="http://www.topografix.com/GPX/1/1 http://www.topografix.com/GPX/1/1/gpx.xsd" 
    creator="Openrunner - https://www.openrunner.com" >	<trk>
						<name>Retour Mers via petites routes 192 Km-19091067</name>
						<trkseg>
					<trkpt lat="50.067590" lon="1.384510">
						<ele>6</ele>
						<time>2024-05-28T08:00:39Z</time>
					</trkpt>
					<trkpt lat="50.067110" lon="1.383880">
						<ele>6</ele>
						<time>2024-05-28T08:00:50Z</time>
					</trkpt>
					<trkpt lat="50.066980" lon="1.383650">
						<ele>7</ele>
						<time>2024-05-28T08:00:54Z</time>
					</trkpt>
					<trkpt lat="50.066790" lon="1.383430">
						<ele>9</ele>
						<time>2024-05-28T08:00:58Z</time>
					</trkpt>
					<trkpt lat="50.066480" lon="1.382990">
						<ele>9</ele>
						<time>2024-05-28T08:01:05Z</time>
					</trkpt>
					<trkpt lat="50.066200" lon="1.382550">
						<ele>9</ele>
						<time>2024-05-28T08:01:12Z</time>
					</trkpt>
					<trkpt lat="50.066040" lon="1.382250">
						<ele>9</ele>
						<time>2024-05-28T08:01:17Z</time>
					</trkpt>
					<trkpt lat="50.065430" lon="1.381220">
						<ele>8</ele>
						<time>2024-05-28T08:01:33Z</time>
					</trkpt>
					<trkpt lat="50.064500" lon="1.379510">
						<ele>3</ele>
						<time>2024-05-28T08:01:58Z</time>
					</trkpt>
					<trkpt lat="50.064410" lon="1.379430">
						<ele>3</ele>
						<time>2024-05-28T08:02:00Z</time>
					</trkpt>
					<trkpt lat="50.064360" lon="1.379410">
						<ele>3</ele>
						<time>2024-05-28T08:02:01Z</time>
					</trkpt>
					<trkpt lat="50.064290" lon="1.379440">
						<ele>3</ele>
						<time>2024-05-28T08:02:03Z</time>
					</trkpt>
					<trkpt lat="50.063190" lon="1.375920">
						<ele>2</ele>
						<time>2024-05-28T08:02:47Z</time>
					</trkpt>
					<trkpt lat="50.063080" lon="1.375630">
						<ele>3</ele>
						<time>2024-05-28T08:02:51Z</time>
					</trkpt>
					<trkpt lat="50.062940" lon="1.375360">
						<ele>3</ele>
						<time>2024-05-28T08:02:55Z</time>
					</trkpt>
					<trkpt lat="50.062860" lon="1.375250">
						<ele>3</ele>
						<time>2024-05-28T08:02:57Z</time>
					</trkpt>
					<trkpt lat="50.062730" lon="1.375150">
						<ele>3</ele>
						<time>2024-05-28T08:03:00Z</time>
					</trkpt>
					<trkpt lat="50.062610" lon="1.375120">
						<ele>4</ele>
						<time>2024-05-28T08:03:02Z</time>
					</trkpt>
					<trkpt lat="50.062470" lon="1.375140">
						<ele>4</ele>
						<time>2024-05-28T08:03:04Z</time>
					</trkpt>
					<trkpt lat="50.062350" lon="1.375230">
						<ele>3</ele>
						<time>2024-05-28T08:03:07Z</time>
					</trkpt>
					<trkpt lat="50.062240" lon="1.375370">
						<ele>2</ele>
						<time>2024-05-28T08:03:09Z</time>
					</trkpt>
					<trkpt lat="50.062190" lon="1.375460">
						<ele>1</ele>
						<time>2024-05-28T08:03:10Z</time>
					</trkpt>
					<trkpt lat="50.062130" lon="1.375640">
						<ele>1</ele>
						<time>2024-05-28T08:03:13Z</time>
					</trkpt>
					<trkpt lat="50.062090" lon="1.375940">
						<ele>2</ele>
						<time>2024-05-28T08:03:16Z</time>
					</trkpt>
					<trkpt lat="50.062390" lon="1.377500">
						<ele>4</ele>
						<time>2024-05-28T08:03:35Z</time>
					</trkpt>
					<trkpt lat="50.062450" lon="1.377680">
						<ele>4</ele>
						<time>2024-05-28T08:03:37Z</time>
					</trkpt>
					<trkpt lat="50.062550" lon="1.377920">
						<ele>3</ele>
						<time>2024-05-28T08:03:40Z</time>
					</trkpt>
					<trkpt lat="50.062710" lon="1.378210">
						<ele>3</ele>
						<time>2024-05-28T08:03:45Z</time>
					</trkpt>
					<trkpt lat="50.062890" lon="1.378580">
						<ele>2</ele>
						<time>2024-05-28T08:03:50Z</time>
					</trkpt>
					<trkpt lat="50.062970" lon="1.378800">
						<ele>2</ele>
						<time>2024-05-28T08:03:53Z</time>
					</trkpt>
					<trkpt lat="50.063030" lon="1.379070">
						<ele>2</ele>
						<time>2024-05-28T08:03:56Z</time>
					</trkpt>
					<trkpt lat="50.063170" lon="1.379870">
						<ele>4</ele>
						<time>2024-05-28T08:04:06Z</time>
					</trkpt>
					<trkpt lat="50.063350" lon="1.380690">
						<ele>3</ele>
						<time>2024-05-28T08:04:16Z</time>
					</trkpt>
					<trkpt lat="50.063420" lon="1.381130">
						<ele>3</ele>
						<time>2024-05-28T08:04:21Z</time>
					</trkpt>
					<trkpt lat="50.063600" lon="1.382710">
						<ele>5</ele>
						<time>2024-05-28T08:04:39Z</time>
					</trkpt>
					<trkpt lat="50.063630" lon="1.383320">
						<ele>4</ele>
						<time>2024-05-28T08:04:46Z</time>
					</trkpt>
					<trkpt lat="50.063610" lon="1.383630">
						<ele>4</ele>
						<time>2024-05-28T08:04:50Z</time>
					</trkpt>
					<trkpt lat="50.063530" lon="1.384020">
						<ele>4</ele>
						<time>2024-05-28T08:04:54Z</time>
					</trkpt>
					<trkpt lat="50.063410" lon="1.384360">
						<ele>3</ele>
						<time>2024-05-28T08:04:59Z</time>
					</trkpt>
					<trkpt lat="50.063250" lon="1.384620">
						<ele>3</ele>
						<time>2024-05-28T08:05:03Z</time>
					</trkpt>
					<trkpt lat="50.063110" lon="1.384780">
						<ele>3</ele>
						<time>2024-05-28T08:05:06Z</time>
					</trkpt>
					<trkpt lat="50.062930" lon="1.384920">
						<ele>3</ele>
						<time>2024-05-28T08:05:10Z</time>
					</trkpt>
					<trkpt lat="50.062790" lon="1.385000">
						<ele>4</ele>
						<time>2024-05-28T08:05:12Z</time>
					</trkpt>
					<trkpt lat="50.062570" lon="1.385060">
						<ele>4</ele>
						<time>2024-05-28T08:05:16Z</time>
					</trkpt>
					<trkpt lat="50.062120" lon="1.385080">
						<ele>4</ele>
						<time>2024-05-28T08:05:24Z</time>
					</trkpt>
					<trkpt lat="50.061620" lon="1.385000">
						<ele>4</ele>
						<time>2024-05-28T08:05:33Z</time>
					</trkpt>
					<trkpt lat="50.061460" lon="1.384960">
						<ele>4</ele>
						<time>2024-05-28T08:05:36Z</time>
					</trkpt>
					<trkpt lat="50.061050" lon="1.384850">
						<ele>5</ele>
						<time>2024-05-28T08:05:43Z</time>
					</trkpt>
					<trkpt lat="50.060790" lon="1.384740">
						<ele>5</ele>
						<time>2024-05-28T08:05:48Z</time>
					</trkpt>
					<trkpt lat="50.060520" lon="1.384600">
						<ele>4</ele>
						<time>2024-05-28T08:05:53Z</time>
					</trkpt>
					<trkpt lat="50.060130" lon="1.384320">
						<ele>3</ele>
						<time>2024-05-28T08:06:01Z</time>
					</trkpt>
					<trkpt lat="50.059810" lon="1.384060">
						<ele>3</ele>
						<time>2024-05-28T08:06:07Z</time>
					</trkpt>
					<trkpt lat="50.059580" lon="1.383880">
						<ele>4</ele>
						<time>2024-05-28T08:06:12Z</time>
					</trkpt>
					<trkpt lat="50.059490" lon="1.383760">
						<ele>4</ele>
						<time>2024-05-28T08:06:14Z</time>
					</trkpt>
					<trkpt lat="50.059510" lon="1.383720">
						<ele>4</ele>
						<time>2024-05-28T08:06:15Z</time>
					</trkpt>
					<trkpt lat="50.059540" lon="1.383630">
						<ele>4</ele>
						<time>2024-05-28T08:06:16Z</time>
					</trkpt>
					<trkpt lat="50.059510" lon="1.383530">
						<ele>4</ele>
						<time>2024-05-28T08:06:17Z</time>
					</trkpt>
					<trkpt lat="50.059490" lon="1.383490">
						<ele>4</ele>
						<time>2024-05-28T08:06:18Z</time>
					</trkpt>
					<trkpt lat="50.059490" lon="1.383290">
						<ele>4</ele>
						<time>2024-05-28T08:06:20Z</time>
					</trkpt>
					<trkpt lat="50.059550" lon="1.382260">
						<ele>4</ele>
						<time>2024-05-28T08:06:32Z</time>
					</trkpt>
					<trkpt lat="50.059670" lon="1.380800">
						<ele>4</ele>
						<time>2024-05-28T08:06:49Z</time>
					</trkpt>
					<trkpt lat="50.059640" lon="1.380740">
						<ele>4</ele>
						<time>2024-05-28T08:06:49Z</time>
					</trkpt>
					<trkpt lat="50.059530" lon="1.380700">
						<ele>5</ele>
						<time>2024-05-28T08:06:51Z</time>
					</trkpt>
					<trkpt lat="50.059110" lon="1.381510">
						<ele>6</ele>
						<time>2024-05-28T08:07:03Z</time>
					</trkpt>
					<trkpt lat="50.056970" lon="1.385520">
						<ele>7</ele>
						<time>2024-05-28T08:08:03Z</time>
					</trkpt>
					<trkpt lat="50.056450" lon="1.386660">
						<ele>6</ele>
						<time>2024-05-28T08:08:19Z</time>
					</trkpt>
					<trkpt lat="50.056350" lon="1.386640">
						<ele>7</ele>
						<time>2024-05-28T08:08:21Z</time>
					</trkpt>
					<trkpt lat="50.056290" lon="1.386680">
						<ele>8</ele>
						<time>2024-05-28T08:08:22Z</time>
					</trkpt>
					<trkpt lat="50.056240" lon="1.386800">
						<ele>8</ele>
						<time>2024-05-28T08:08:23Z</time>
					</trkpt>
					<trkpt lat="50.056240" lon="1.386940">
						<ele>8</ele>
						<time>2024-05-28T08:08:25Z</time>
					</trkpt>
					<trkpt lat="50.056210" lon="1.387070">
						<ele>8</ele>
						<time>2024-05-28T08:08:27Z</time>
					</trkpt>
					<trkpt lat="50.055960" lon="1.387630">
						<ele>9</ele>
						<time>2024-05-28T08:08:34Z</time>
					</trkpt>
					<trkpt lat="50.055900" lon="1.387880">
						<ele>10</ele>
						<time>2024-05-28T08:08:37Z</time>
					</trkpt>
					<trkpt lat="50.054850" lon="1.391300">
						<ele>9</ele>
						<time>2024-05-28T08:09:21Z</time>
					</trkpt>
					<trkpt lat="50.054300" lon="1.393450">
						<ele>7</ele>
						<time>2024-05-28T08:09:47Z</time>
					</trkpt>
					<trkpt lat="50.053950" lon="1.394680">
						<ele>7</ele>
						<time>2024-05-28T08:10:03Z</time>
					</trkpt>
					<trkpt lat="50.053600" lon="1.396000">
						<ele>6</ele>
						<time>2024-05-28T08:10:19Z</time>
					</trkpt>
					<trkpt lat="50.053480" lon="1.396540">
						<ele>7</ele>
						<time>2024-05-28T08:10:25Z</time>
					</trkpt>
					<trkpt lat="50.053350" lon="1.397410">
						<ele>7</ele>
						<time>2024-05-28T08:10:36Z</time>
					</trkpt>
					<trkpt lat="50.053270" lon="1.398170">
						<ele>7</ele>
						<time>2024-05-28T08:10:44Z</time>
					</trkpt>
					<trkpt lat="50.053200" lon="1.398510">
						<ele>7</ele>
						<time>2024-05-28T08:10:49Z</time>
					</trkpt>
					<trkpt lat="50.053140" lon="1.398690">
						<ele>8</ele>
						<time>2024-05-28T08:10:51Z</time>
					</trkpt>
					<trkpt lat="50.053030" lon="1.398760">
						<ele>9</ele>
						<time>2024-05-28T08:10:53Z</time>
					</trkpt>
					<trkpt lat="50.052960" lon="1.398890">
						<ele>9</ele>
						<time>2024-05-28T08:10:55Z</time>
					</trkpt>
					<trkpt lat="50.052920" lon="1.399050">
						<ele>9</ele>
						<time>2024-05-28T08:10:57Z</time>
					</trkpt>
					<trkpt lat="50.052920" lon="1.399150">
						<ele>9</ele>
						<time>2024-05-28T08:10:58Z</time>
					</trkpt>
					<trkpt lat="50.052870" lon="1.399340">
						<ele>10</ele>
						<time>2024-05-28T08:11:00Z</time>
					</trkpt>
					<trkpt lat="50.052640" lon="1.399720">
						<ele>13</ele>
						<time>2024-05-28T08:11:06Z</time>
					</trkpt>
					<trkpt lat="50.052550" lon="1.400000">
						<ele>14</ele>
						<time>2024-05-28T08:11:10Z</time>
					</trkpt>
					<trkpt lat="50.052160" lon="1.401430">
						<ele>20</ele>
						<time>2024-05-28T08:11:28Z</time>
					</trkpt>
					<trkpt lat="50.052040" lon="1.401760">
						<ele>21</ele>
						<time>2024-05-28T08:11:32Z</time>
					</trkpt>
					<trkpt lat="50.051880" lon="1.402010">
						<ele>22</ele>
						<time>2024-05-28T08:11:36Z</time>
					</trkpt>
					<trkpt lat="50.051730" lon="1.402170">
						<ele>23</ele>
						<time>2024-05-28T08:11:39Z</time>
					</trkpt>
					<trkpt lat="50.051640" lon="1.402240">
						<ele>23</ele>
						<time>2024-05-28T08:11:41Z</time>
					</trkpt>
					<trkpt lat="50.051550" lon="1.402290">
						<ele>23</ele>
						<time>2024-05-28T08:11:43Z</time>
					</trkpt>
					<trkpt lat="50.051360" lon="1.402360">
						<ele>22</ele>
						<time>2024-05-28T08:11:46Z</time>
					</trkpt>
					<trkpt lat="50.051230" lon="1.402370">
						<ele>21</ele>
						<time>2024-05-28T08:11:49Z</time>
					</trkpt>
					<trkpt lat="50.050720" lon="1.402340">
						<ele>19</ele>
						<time>2024-05-28T08:11:58Z</time>
					</trkpt>
					<trkpt lat="50.050560" lon="1.402370">
						<ele>18</ele>
						<time>2024-05-28T08:12:00Z</time>
					</trkpt>
					<trkpt lat="50.050360" lon="1.402440">
						<ele>18</ele>
						<time>2024-05-28T08:12:04Z</time>
					</trkpt>
					<trkpt lat="50.050180" lon="1.402540">
						<ele>17</ele>
						<time>2024-05-28T08:12:08Z</time>
					</trkpt>
					<trkpt lat="50.049930" lon="1.402770">
						<ele>18</ele>
						<time>2024-05-28T08:12:13Z</time>
					</trkpt>
					<trkpt lat="50.049710" lon="1.403040">
						<ele>21</ele>
						<time>2024-05-28T08:12:18Z</time>
					</trkpt>
					<trkpt lat="50.049570" lon="1.403280">
						<ele>24</ele>
						<time>2024-05-28T08:12:21Z</time>
					</trkpt>
					<trkpt lat="50.049480" lon="1.403550">
						<ele>26</ele>
						<time>2024-05-28T08:12:25Z</time>
					</trkpt>
					<trkpt lat="50.049410" lon="1.403870">
						<ele>29</ele>
						<time>2024-05-28T08:12:29Z</time>
					</trkpt>
					<trkpt lat="50.049360" lon="1.404310">
						<ele>31</ele>
						<time>2024-05-28T08:12:34Z</time>
					</trkpt>
					<trkpt lat="50.049090" lon="1.406990">
						<ele>52</ele>
						<time>2024-05-28T08:13:05Z</time>
					</trkpt>
					<trkpt lat="50.048790" lon="1.409920">
						<ele>52</ele>
						<time>2024-05-28T08:13:39Z</time>
					</trkpt>
					<trkpt lat="50.048410" lon="1.413710">
						<ele>38</ele>
						<time>2024-05-28T08:14:23Z</time>
					</trkpt>
					<trkpt lat="50.048380" lon="1.413900">
						<ele>37</ele>
						<time>2024-05-28T08:14:25Z</time>
					</trkpt>
					<trkpt lat="50.048360" lon="1.414310">
						<ele>35</ele>
						<time>2024-05-28T08:14:29Z</time>
					</trkpt>
					<trkpt lat="50.048390" lon="1.414440">
						<ele>34</ele>
						<time>2024-05-28T08:14:31Z</time>
					</trkpt>
					<trkpt lat="50.048580" lon="1.414790">
						<ele>30</ele>
						<time>2024-05-28T08:14:36Z</time>
					</trkpt>
					<trkpt lat="50.048610" lon="1.414940">
						<ele>28</ele>
						<time>2024-05-28T08:14:38Z</time>
					</trkpt>
					<trkpt lat="50.048480" lon="1.416000">
						<ele>27</ele>
						<time>2024-05-28T08:14:50Z</time>
					</trkpt>
					<trkpt lat="50.048440" lon="1.416800">
						<ele>25</ele>
						<time>2024-05-28T08:15:00Z</time>
					</trkpt>
					<trkpt lat="50.048380" lon="1.419080">
						<ele>22</ele>
						<time>2024-05-28T08:15:26Z</time>
					</trkpt>
					<trkpt lat="50.048330" lon="1.419920">
						<ele>20</ele>
						<time>2024-05-28T08:15:35Z</time>
					</trkpt>
					<trkpt lat="50.048120" lon="1.420070">
						<ele>20</ele>
						<time>2024-05-28T08:15:39Z</time>
					</trkpt>
					<trkpt lat="50.047760" lon="1.420090">
						<ele>20</ele>
						<time>2024-05-28T08:15:46Z</time>
					</trkpt>
					<trkpt lat="50.047640" lon="1.420010">
						<ele>21</ele>
						<time>2024-05-28T08:15:48Z</time>
					</trkpt>
					<trkpt lat="50.047570" lon="1.419920">
						<ele>21</ele>
						<time>2024-05-28T08:15:50Z</time>
					</trkpt>
					<trkpt lat="50.047510" lon="1.419920">
						<ele>21</ele>
						<time>2024-05-28T08:15:51Z</time>
					</trkpt>
					<trkpt lat="50.047420" lon="1.420070">
						<ele>21</ele>
						<time>2024-05-28T08:15:53Z</time>
					</trkpt>
					<trkpt lat="50.047240" lon="1.420070">
						<ele>20</ele>
						<time>2024-05-28T08:15:56Z</time>
					</trkpt>
					<trkpt lat="50.047130" lon="1.420100">
						<ele>20</ele>
						<time>2024-05-28T08:15:58Z</time>
					</trkpt>
					<trkpt lat="50.046910" lon="1.420260">
						<ele>19</ele>
						<time>2024-05-28T08:16:03Z</time>
					</trkpt>
					<trkpt lat="50.046540" lon="1.420780">
						<ele>14</ele>
						<time>2024-05-28T08:16:12Z</time>
					</trkpt>
					<trkpt lat="50.046290" lon="1.421200">
						<ele>12</ele>
						<time>2024-05-28T08:16:18Z</time>
					</trkpt>
					<trkpt lat="50.046230" lon="1.421150">
						<ele>13</ele>
						<time>2024-05-28T08:16:19Z</time>
					</trkpt>
					<trkpt lat="50.045910" lon="1.421800">
						<ele>11</ele>
						<time>2024-05-28T08:16:29Z</time>
					</trkpt>
					<trkpt lat="50.045410" lon="1.422720">
						<ele>11</ele>
						<time>2024-05-28T08:16:42Z</time>
					</trkpt>
					<trkpt lat="50.044970" lon="1.423600">
						<ele>12</ele>
						<time>2024-05-28T08:16:55Z</time>
					</trkpt>
					<trkpt lat="50.044650" lon="1.423400">
						<ele>12</ele>
						<time>2024-05-28T08:17:01Z</time>
					</trkpt>
					<trkpt lat="50.044550" lon="1.424390">
						<ele>15</ele>
						<time>2024-05-28T08:17:13Z</time>
					</trkpt>
					<trkpt lat="50.044560" lon="1.424540">
						<ele>16</ele>
						<time>2024-05-28T08:17:14Z</time>
					</trkpt>
					<trkpt lat="50.044650" lon="1.424700">
						<ele>16</ele>
						<time>2024-05-28T08:17:17Z</time>
					</trkpt>
					<trkpt lat="50.045010" lon="1.425080">
						<ele>17</ele>
						<time>2024-05-28T08:17:25Z</time>
					</trkpt>
					<trkpt lat="50.045080" lon="1.425220">
						<ele>18</ele>
						<time>2024-05-28T08:17:27Z</time>
					</trkpt>
					<trkpt lat="50.045050" lon="1.425810">
						<ele>20</ele>
						<time>2024-05-28T08:17:33Z</time>
					</trkpt>
					<trkpt lat="50.045080" lon="1.425880">
						<ele>20</ele>
						<time>2024-05-28T08:17:34Z</time>
					</trkpt>
					<trkpt lat="50.045360" lon="1.426100">
						<ele>18</ele>
						<time>2024-05-28T08:17:40Z</time>
					</trkpt>
					<trkpt lat="50.045020" lon="1.426690">
						<ele>20</ele>
						<time>2024-05-28T08:17:49Z</time>
					</trkpt>
					<trkpt lat="50.044650" lon="1.426420">
						<ele>22</ele>
						<time>2024-05-28T08:17:56Z</time>
					</trkpt>
					<trkpt lat="50.044160" lon="1.426230">
						<ele>25</ele>
						<time>2024-05-28T08:18:05Z</time>
					</trkpt>
					<trkpt lat="50.043730" lon="1.426270">
						<ele>28</ele>
						<time>2024-05-28T08:18:13Z</time>
					</trkpt>
					<trkpt lat="50.042940" lon="1.426610">
						<ele>36</ele>
						<time>2024-05-28T08:18:28Z</time>
					</trkpt>
					<trkpt lat="50.042750" lon="1.426820">
						<ele>39</ele>
						<time>2024-05-28T08:18:32Z</time>
					</trkpt>
					<trkpt lat="50.042570" lon="1.427190">
						<ele>41</ele>
						<time>2024-05-28T08:18:37Z</time>
					</trkpt>
					<trkpt lat="50.041750" lon="1.427840">
						<ele>47</ele>
						<time>2024-05-28T08:18:53Z</time>
					</trkpt>
					<trkpt lat="50.041240" lon="1.428210">
						<ele>51</ele>
						<time>2024-05-28T08:19:03Z</time>
					</trkpt>
					<trkpt lat="50.040940" lon="1.428430">
						<ele>54</ele>
						<time>2024-05-28T08:19:09Z</time>
					</trkpt>
					<trkpt lat="50.040280" lon="1.428760">
						<ele>55</ele>
						<time>2024-05-28T08:19:22Z</time>
					</trkpt>
					<trkpt lat="50.039980" lon="1.428970">
						<ele>56</ele>
						<time>2024-05-28T08:19:27Z</time>
					</trkpt>
					<trkpt lat="50.039130" lon="1.429640">
						<ele>65</ele>
						<time>2024-05-28T08:19:44Z</time>
					</trkpt>
					<trkpt lat="50.038960" lon="1.429670">
						<ele>66</ele>
						<time>2024-05-28T08:19:47Z</time>
					</trkpt>
					<trkpt lat="50.038480" lon="1.429850">
						<ele>70</ele>
						<time>2024-05-28T08:19:56Z</time>
					</trkpt>
					<trkpt lat="50.038320" lon="1.429970">
						<ele>73</ele>
						<time>2024-05-28T08:19:59Z</time>
					</trkpt>
					<trkpt lat="50.037960" lon="1.430300">
						<ele>74</ele>
						<time>2024-05-28T08:20:07Z</time>
					</trkpt>
					<trkpt lat="50.036870" lon="1.431430">
						<ele>80</ele>
						<time>2024-05-28T08:20:30Z</time>
					</trkpt>
					<trkpt lat="50.036350" lon="1.432010">
						<ele>85</ele>
						<time>2024-05-28T08:20:42Z</time>
					</trkpt>
					<trkpt lat="50.035760" lon="1.432620">
						<ele>92</ele>
						<time>2024-05-28T08:20:54Z</time>
					</trkpt>
					<trkpt lat="50.034860" lon="1.433420">
						<ele>98</ele>
						<time>2024-05-28T08:21:13Z</time>
					</trkpt>
					<trkpt lat="50.033700" lon="1.434780">
						<ele>96</ele>
						<time>2024-05-28T08:21:38Z</time>
					</trkpt>
					<trkpt lat="50.032760" lon="1.436990">
						<ele>100</ele>
						<time>2024-05-28T08:22:09Z</time>
					</trkpt>
					<trkpt lat="50.031390" lon="1.440300">
						<ele>98</ele>
						<time>2024-05-28T08:22:54Z</time>
					</trkpt>
					<trkpt lat="50.031270" lon="1.440360">
						<ele>99</ele>
						<time>2024-05-28T08:22:56Z</time>
					</trkpt>
					<trkpt lat="50.030500" lon="1.441920">
						<ele>106</ele>
						<time>2024-05-28T08:23:18Z</time>
					</trkpt>
					<trkpt lat="50.028680" lon="1.445800">
						<ele>124</ele>
						<time>2024-05-28T08:24:13Z</time>
					</trkpt>
					<trkpt lat="50.028370" lon="1.446710">
						<ele>126</ele>
						<time>2024-05-28T08:24:25Z</time>
					</trkpt>
					<trkpt lat="50.027510" lon="1.448050">
						<ele>129</ele>
						<time>2024-05-28T08:24:47Z</time>
					</trkpt>
					<trkpt lat="50.027160" lon="1.448340">
						<ele>129</ele>
						<time>2024-05-28T08:24:54Z</time>
					</trkpt>
					<trkpt lat="50.026750" lon="1.448810">
						<ele>130</ele>
						<time>2024-05-28T08:25:03Z</time>
					</trkpt>
					<trkpt lat="50.026070" lon="1.450190">
						<ele>129</ele>
						<time>2024-05-28T08:25:23Z</time>
					</trkpt>
					<trkpt lat="50.025760" lon="1.450830">
						<ele>131</ele>
						<time>2024-05-28T08:25:32Z</time>
					</trkpt>
					<trkpt lat="50.024950" lon="1.452150">
						<ele>136</ele>
						<time>2024-05-28T08:25:53Z</time>
					</trkpt>
					<trkpt lat="50.024530" lon="1.452560">
						<ele>136</ele>
						<time>2024-05-28T08:26:02Z</time>
					</trkpt>
					<trkpt lat="50.024330" lon="1.452860">
						<ele>137</ele>
						<time>2024-05-28T08:26:07Z</time>
					</trkpt>
					<trkpt lat="50.024130" lon="1.453560">
						<ele>138</ele>
						<time>2024-05-28T08:26:15Z</time>
					</trkpt>
					<trkpt lat="50.022580" lon="1.460180">
						<ele>136</ele>
						<time>2024-05-28T08:27:36Z</time>
					</trkpt>
					<trkpt lat="50.022470" lon="1.460550">
						<ele>135</ele>
						<time>2024-05-28T08:27:40Z</time>
					</trkpt>
					<trkpt lat="50.022360" lon="1.460780">
						<ele>134</ele>
						<time>2024-05-28T08:27:44Z</time>
					</trkpt>
					<trkpt lat="50.021200" lon="1.462190">
						<ele>129</ele>
						<time>2024-05-28T08:28:10Z</time>
					</trkpt>
					<trkpt lat="50.019180" lon="1.464580">
						<ele>107</ele>
						<time>2024-05-28T08:28:55Z</time>
					</trkpt>
					<trkpt lat="50.017330" lon="1.466770">
						<ele>115</ele>
						<time>2024-05-28T08:29:36Z</time>
					</trkpt>
					<trkpt lat="50.014520" lon="1.470210">
						<ele>134</ele>
						<time>2024-05-28T08:30:40Z</time>
					</trkpt>
					<trkpt lat="50.011890" lon="1.473360">
						<ele>148</ele>
						<time>2024-05-28T08:31:39Z</time>
					</trkpt>
					<trkpt lat="50.010210" lon="1.473400">
						<ele>147</ele>
						<time>2024-05-28T08:32:09Z</time>
					</trkpt>
					<trkpt lat="50.005440" lon="1.473520">
						<ele>128</ele>
						<time>2024-05-28T08:33:34Z</time>
					</trkpt>
					<trkpt lat="49.996300" lon="1.473710">
						<ele>114</ele>
						<time>2024-05-28T08:36:17Z</time>
					</trkpt>
					<trkpt lat="49.995860" lon="1.473190">
						<ele>113</ele>
						<time>2024-05-28T08:36:26Z</time>
					</trkpt>
					<trkpt lat="49.994490" lon="1.472240">
						<ele>110</ele>
						<time>2024-05-28T08:36:53Z</time>
					</trkpt>
					<trkpt lat="49.994380" lon="1.472080">
						<ele>109</ele>
						<time>2024-05-28T08:36:56Z</time>
					</trkpt>
					<trkpt lat="49.994230" lon="1.471790">
						<ele>108</ele>
						<time>2024-05-28T08:37:00Z</time>
					</trkpt>
					<trkpt lat="49.994150" lon="1.471530">
						<ele>107</ele>
						<time>2024-05-28T08:37:03Z</time>
					</trkpt>
					<trkpt lat="49.994090" lon="1.471590">
						<ele>107</ele>
						<time>2024-05-28T08:37:05Z</time>
					</trkpt>
					<trkpt lat="49.994070" lon="1.471820">
						<ele>108</ele>
						<time>2024-05-28T08:37:07Z</time>
					</trkpt>
					<trkpt lat="49.994100" lon="1.472310">
						<ele>109</ele>
						<time>2024-05-28T08:37:13Z</time>
					</trkpt>
					<trkpt lat="49.994450" lon="1.473770">
						<ele>115</ele>
						<time>2024-05-28T08:37:31Z</time>
					</trkpt>
					<trkpt lat="49.994490" lon="1.475370">
						<ele>118</ele>
						<time>2024-05-28T08:37:49Z</time>
					</trkpt>
					<trkpt lat="49.994440" lon="1.475650">
						<ele>118</ele>
						<time>2024-05-28T08:37:52Z</time>
					</trkpt>
					<trkpt lat="49.992840" lon="1.478490">
						<ele>124</ele>
						<time>2024-05-28T08:38:36Z</time>
					</trkpt>
					<trkpt lat="49.991840" lon="1.480250">
						<ele>117</ele>
						<time>2024-05-28T08:39:02Z</time>
					</trkpt>
					<trkpt lat="49.991660" lon="1.480450">
						<ele>115</ele>
						<time>2024-05-28T08:39:06Z</time>
					</trkpt>
					<trkpt lat="49.991510" lon="1.480500">
						<ele>112</ele>
						<time>2024-05-28T08:39:09Z</time>
					</trkpt>
					<trkpt lat="49.991330" lon="1.480470">
						<ele>110</ele>
						<time>2024-05-28T08:39:12Z</time>
					</trkpt>
					<trkpt lat="49.987170" lon="1.477780">
						<ele>78</ele>
						<time>2024-05-28T08:40:32Z</time>
					</trkpt>
					<trkpt lat="49.985740" lon="1.476380">
						<ele>78</ele>
						<time>2024-05-28T08:41:02Z</time>
					</trkpt>
					<trkpt lat="49.985280" lon="1.476060">
						<ele>79</ele>
						<time>2024-05-28T08:41:11Z</time>
					</trkpt>
					<trkpt lat="49.984400" lon="1.475680">
						<ele>83</ele>
						<time>2024-05-28T08:41:28Z</time>
					</trkpt>
					<trkpt lat="49.984170" lon="1.475700">
						<ele>86</ele>
						<time>2024-05-28T08:41:32Z</time>
					</trkpt>
					<trkpt lat="49.983820" lon="1.475900">
						<ele>86</ele>
						<time>2024-05-28T08:41:38Z</time>
					</trkpt>
					<trkpt lat="49.983470" lon="1.476130">
						<ele>87</ele>
						<time>2024-05-28T08:41:45Z</time>
					</trkpt>
					<trkpt lat="49.982920" lon="1.476450">
						<ele>89</ele>
						<time>2024-05-28T08:41:56Z</time>
					</trkpt>
					<trkpt lat="49.982390" lon="1.476810">
						<ele>93</ele>
						<time>2024-05-28T08:42:06Z</time>
					</trkpt>
					<trkpt lat="49.981930" lon="1.477020">
						<ele>99</ele>
						<time>2024-05-28T08:42:14Z</time>
					</trkpt>
					<trkpt lat="49.981680" lon="1.477100">
						<ele>102</ele>
						<time>2024-05-28T08:42:19Z</time>
					</trkpt>
					<trkpt lat="49.981440" lon="1.477150">
						<ele>105</ele>
						<time>2024-05-28T08:42:23Z</time>
					</trkpt>
					<trkpt lat="49.981160" lon="1.477150">
						<ele>107</ele>
						<time>2024-05-28T08:42:28Z</time>
					</trkpt>
					<trkpt lat="49.980880" lon="1.477040">
						<ele>105</ele>
						<time>2024-05-28T08:42:33Z</time>
					</trkpt>
					<trkpt lat="49.980590" lon="1.476900">
						<ele>101</ele>
						<time>2024-05-28T08:42:39Z</time>
					</trkpt>
					<trkpt lat="49.980440" lon="1.476870">
						<ele>101</ele>
						<time>2024-05-28T08:42:42Z</time>
					</trkpt>
					<trkpt lat="49.980290" lon="1.476870">
						<ele>101</ele>
						<time>2024-05-28T08:42:44Z</time>
					</trkpt>
					<trkpt lat="49.980020" lon="1.476990">
						<ele>106</ele>
						<time>2024-05-28T08:42:49Z</time>
					</trkpt>
					<trkpt lat="49.979740" lon="1.477260">
						<ele>110</ele>
						<time>2024-05-28T08:42:55Z</time>
					</trkpt>
					<trkpt lat="49.979500" lon="1.477560">
						<ele>112</ele>
						<time>2024-05-28T08:43:01Z</time>
					</trkpt>
					<trkpt lat="49.978870" lon="1.478630">
						<ele>121</ele>
						<time>2024-05-28T08:43:17Z</time>
					</trkpt>
					<trkpt lat="49.978540" lon="1.479360">
						<ele>122</ele>
						<time>2024-05-28T08:43:27Z</time>
					</trkpt>
					<trkpt lat="49.978420" lon="1.479770">
						<ele>123</ele>
						<time>2024-05-28T08:43:33Z</time>
					</trkpt>
					<trkpt lat="49.978310" lon="1.480190">
						<ele>126</ele>
						<time>2024-05-28T08:43:38Z</time>
					</trkpt>
					<trkpt lat="49.977810" lon="1.481680">
						<ele>130</ele>
						<time>2024-05-28T08:43:57Z</time>
					</trkpt>
					<trkpt lat="49.977640" lon="1.482400">
						<ele>134</ele>
						<time>2024-05-28T08:44:06Z</time>
					</trkpt>
					<trkpt lat="49.977490" lon="1.483130">
						<ele>138</ele>
						<time>2024-05-28T08:44:14Z</time>
					</trkpt>
					<trkpt lat="49.977150" lon="1.484590">
						<ele>133</ele>
						<time>2024-05-28T08:44:32Z</time>
					</trkpt>
					<trkpt lat="49.977070" lon="1.485010">
						<ele>133</ele>
						<time>2024-05-28T08:44:37Z</time>
					</trkpt>
					<trkpt lat="49.977030" lon="1.486120">
						<ele>136</ele>
						<time>2024-05-28T08:44:50Z</time>
					</trkpt>
					<trkpt lat="49.976980" lon="1.486590">
						<ele>138</ele>
						<time>2024-05-28T08:44:55Z</time>
					</trkpt>
					<trkpt lat="49.976850" lon="1.486990">
						<ele>139</ele>
						<time>2024-05-28T08:45:01Z</time>
					</trkpt>
					<trkpt lat="49.976640" lon="1.487450">
						<ele>139</ele>
						<time>2024-05-28T08:45:07Z</time>
					</trkpt>
					<trkpt lat="49.975780" lon="1.489050">
						<ele>139</ele>
						<time>2024-05-28T08:45:31Z</time>
					</trkpt>
					<trkpt lat="49.975640" lon="1.489390">
						<ele>139</ele>
						<time>2024-05-28T08:45:35Z</time>
					</trkpt>
					<trkpt lat="49.975400" lon="1.490090">
						<ele>139</ele>
						<time>2024-05-28T08:45:45Z</time>
					</trkpt>
					<trkpt lat="49.975300" lon="1.490270">
						<ele>139</ele>
						<time>2024-05-28T08:45:47Z</time>
					</trkpt>
					<trkpt lat="49.975120" lon="1.490490">
						<ele>139</ele>
						<time>2024-05-28T08:45:51Z</time>
					</trkpt>
					<trkpt lat="49.974770" lon="1.490840">
						<ele>139</ele>
						<time>2024-05-28T08:45:59Z</time>
					</trkpt>
					<trkpt lat="49.974660" lon="1.490900">
						<ele>139</ele>
						<time>2024-05-28T08:46:01Z</time>
					</trkpt>
					<trkpt lat="49.974550" lon="1.490920">
						<ele>139</ele>
						<time>2024-05-28T08:46:03Z</time>
					</trkpt>
					<trkpt lat="49.974330" lon="1.490840">
						<ele>140</ele>
						<time>2024-05-28T08:46:07Z</time>
					</trkpt>
					<trkpt lat="49.974000" lon="1.490580">
						<ele>139</ele>
						<time>2024-05-28T08:46:13Z</time>
					</trkpt>
					<trkpt lat="49.973480" lon="1.491120">
						<ele>139</ele>
						<time>2024-05-28T08:46:25Z</time>
					</trkpt>
					<trkpt lat="49.972860" lon="1.491620">
						<ele>140</ele>
						<time>2024-05-28T08:46:37Z</time>
					</trkpt>
					<trkpt lat="49.972480" lon="1.491960">
						<ele>141</ele>
						<time>2024-05-28T08:46:45Z</time>
					</trkpt>
					<trkpt lat="49.972300" lon="1.492170">
						<ele>141</ele>
						<time>2024-05-28T08:46:49Z</time>
					</trkpt>
					<trkpt lat="49.972130" lon="1.492410">
						<ele>142</ele>
						<time>2024-05-28T08:46:53Z</time>
					</trkpt>
					<trkpt lat="49.971700" lon="1.493180">
						<ele>143</ele>
						<time>2024-05-28T08:47:05Z</time>
					</trkpt>
					<trkpt lat="49.971190" lon="1.493770">
						<ele>144</ele>
						<time>2024-05-28T08:47:16Z</time>
					</trkpt>
					<trkpt lat="49.970550" lon="1.494890">
						<ele>146</ele>
						<time>2024-05-28T08:47:33Z</time>
					</trkpt>
					<trkpt lat="49.970340" lon="1.495140">
						<ele>146</ele>
						<time>2024-05-28T08:47:38Z</time>
					</trkpt>
					<trkpt lat="49.969710" lon="1.495820">
						<ele>148</ele>
						<time>2024-05-28T08:47:51Z</time>
					</trkpt>
					<trkpt lat="49.969290" lon="1.497220">
						<ele>148</ele>
						<time>2024-05-28T08:48:09Z</time>
					</trkpt>
					<trkpt lat="49.968630" lon="1.498850">
						<ele>152</ele>
						<time>2024-05-28T08:48:31Z</time>
					</trkpt>
					<trkpt lat="49.968360" lon="1.499700">
						<ele>153</ele>
						<time>2024-05-28T08:48:42Z</time>
					</trkpt>
					<trkpt lat="49.967810" lon="1.500900">
						<ele>154</ele>
						<time>2024-05-28T08:48:59Z</time>
					</trkpt>
					<trkpt lat="49.967690" lon="1.501120">
						<ele>154</ele>
						<time>2024-05-28T08:49:02Z</time>
					</trkpt>
					<trkpt lat="49.967550" lon="1.501300">
						<ele>154</ele>
						<time>2024-05-28T08:49:05Z</time>
					</trkpt>
					<trkpt lat="49.966550" lon="1.502240">
						<ele>155</ele>
						<time>2024-05-28T08:49:26Z</time>
					</trkpt>
					<trkpt lat="49.965850" lon="1.502820">
						<ele>156</ele>
						<time>2024-05-28T08:49:40Z</time>
					</trkpt>
					<trkpt lat="49.963860" lon="1.504190">
						<ele>155</ele>
						<time>2024-05-28T08:50:19Z</time>
					</trkpt>
					<trkpt lat="49.963550" lon="1.504330">
						<ele>155</ele>
						<time>2024-05-28T08:50:25Z</time>
					</trkpt>
					<trkpt lat="49.961780" lon="1.504840">
						<ele>156</ele>
						<time>2024-05-28T08:50:57Z</time>
					</trkpt>
					<trkpt lat="49.961090" lon="1.505090">
						<ele>158</ele>
						<time>2024-05-28T08:51:09Z</time>
					</trkpt>
					<trkpt lat="49.960580" lon="1.505370">
						<ele>159</ele>
						<time>2024-05-28T08:51:19Z</time>
					</trkpt>
					<trkpt lat="49.959240" lon="1.506250">
						<ele>163</ele>
						<time>2024-05-28T08:51:45Z</time>
					</trkpt>
					<trkpt lat="49.958230" lon="1.506680">
						<ele>166</ele>
						<time>2024-05-28T08:52:03Z</time>
					</trkpt>
					<trkpt lat="49.958190" lon="1.506610">
						<ele>166</ele>
						<time>2024-05-28T08:52:05Z</time>
					</trkpt>
					<trkpt lat="49.958130" lon="1.506620">
						<ele>166</ele>
						<time>2024-05-28T08:52:06Z</time>
					</trkpt>
					<trkpt lat="49.958100" lon="1.506700">
						<ele>166</ele>
						<time>2024-05-28T08:52:07Z</time>
					</trkpt>
					<trkpt lat="49.956150" lon="1.506500">
						<ele>163</ele>
						<time>2024-05-28T08:52:41Z</time>
					</trkpt>
					<trkpt lat="49.954990" lon="1.506250">
						<ele>160</ele>
						<time>2024-05-28T08:53:02Z</time>
					</trkpt>
					<trkpt lat="49.953920" lon="1.505970">
						<ele>160</ele>
						<time>2024-05-28T08:53:22Z</time>
					</trkpt>
					<trkpt lat="49.953210" lon="1.505660">
						<ele>162</ele>
						<time>2024-05-28T08:53:35Z</time>
					</trkpt>
					<trkpt lat="49.952800" lon="1.505460">
						<ele>164</ele>
						<time>2024-05-28T08:53:42Z</time>
					</trkpt>
					<trkpt lat="49.952530" lon="1.505270">
						<ele>165</ele>
						<time>2024-05-28T08:53:48Z</time>
					</trkpt>
					<trkpt lat="49.952030" lon="1.504840">
						<ele>167</ele>
						<time>2024-05-28T08:53:58Z</time>
					</trkpt>
					<trkpt lat="49.950630" lon="1.503920">
						<ele>171</ele>
						<time>2024-05-28T08:54:25Z</time>
					</trkpt>
					<trkpt lat="49.949150" lon="1.503040">
						<ele>174</ele>
						<time>2024-05-28T08:54:53Z</time>
					</trkpt>
					<trkpt lat="49.948200" lon="1.502380">
						<ele>177</ele>
						<time>2024-05-28T08:55:12Z</time>
					</trkpt>
					<trkpt lat="49.946380" lon="1.501510">
						<ele>191</ele>
						<time>2024-05-28T08:55:45Z</time>
					</trkpt>
					<trkpt lat="49.946310" lon="1.501470">
						<ele>191</ele>
						<time>2024-05-28T08:55:47Z</time>
					</trkpt>
					<trkpt lat="49.945410" lon="1.501410">
						<ele>200</ele>
						<time>2024-05-28T08:56:03Z</time>
					</trkpt>
					<trkpt lat="49.944280" lon="1.501400">
						<ele>203</ele>
						<time>2024-05-28T08:56:23Z</time>
					</trkpt>
					<trkpt lat="49.938150" lon="1.503410">
						<ele>204</ele>
						<time>2024-05-28T08:58:14Z</time>
					</trkpt>
					<trkpt lat="49.937950" lon="1.503590">
						<ele>205</ele>
						<time>2024-05-28T08:58:18Z</time>
					</trkpt>
					<trkpt lat="49.936180" lon="1.506940">
						<ele>207</ele>
						<time>2024-05-28T08:59:08Z</time>
					</trkpt>
					<trkpt lat="49.935990" lon="1.507270">
						<ele>208</ele>
						<time>2024-05-28T08:59:13Z</time>
					</trkpt>
					<trkpt lat="49.933990" lon="1.511020">
						<ele>208</ele>
						<time>2024-05-28T09:00:09Z</time>
					</trkpt>
					<trkpt lat="49.929320" lon="1.519740">
						<ele>205</ele>
						<time>2024-05-28T09:02:19Z</time>
					</trkpt>
					<trkpt lat="49.926140" lon="1.525690">
						<ele>218</ele>
						<time>2024-05-28T09:03:47Z</time>
					</trkpt>
					<trkpt lat="49.923600" lon="1.530350">
						<ele>210</ele>
						<time>2024-05-28T09:04:57Z</time>
					</trkpt>
					<trkpt lat="49.919060" lon="1.538980">
						<ele>202</ele>
						<time>2024-05-28T09:07:05Z</time>
					</trkpt>
					<trkpt lat="49.916850" lon="1.543170">
						<ele>201</ele>
						<time>2024-05-28T09:08:07Z</time>
					</trkpt>
					<trkpt lat="49.915250" lon="1.546060">
						<ele>206</ele>
						<time>2024-05-28T09:08:51Z</time>
					</trkpt>
					<trkpt lat="49.911380" lon="1.554420">
						<ele>213</ele>
						<time>2024-05-28T09:10:49Z</time>
					</trkpt>
					<trkpt lat="49.911260" lon="1.555380">
						<ele>211</ele>
						<time>2024-05-28T09:11:00Z</time>
					</trkpt>
					<trkpt lat="49.911250" lon="1.555680">
						<ele>210</ele>
						<time>2024-05-28T09:11:03Z</time>
					</trkpt>
					<trkpt lat="49.911290" lon="1.556030">
						<ele>210</ele>
						<time>2024-05-28T09:11:07Z</time>
					</trkpt>
					<trkpt lat="49.911370" lon="1.556340">
						<ele>209</ele>
						<time>2024-05-28T09:11:11Z</time>
					</trkpt>
					<trkpt lat="49.911490" lon="1.556600">
						<ele>208</ele>
						<time>2024-05-28T09:11:15Z</time>
					</trkpt>
					<trkpt lat="49.911790" lon="1.556930">
						<ele>207</ele>
						<time>2024-05-28T09:11:21Z</time>
					</trkpt>
					<trkpt lat="49.911940" lon="1.558010">
						<ele>206</ele>
						<time>2024-05-28T09:11:34Z</time>
					</trkpt>
					<trkpt lat="49.912500" lon="1.562370">
						<ele>212</ele>
						<time>2024-05-28T09:12:25Z</time>
					</trkpt>
					<trkpt lat="49.912540" lon="1.562910">
						<ele>212</ele>
						<time>2024-05-28T09:12:31Z</time>
					</trkpt>
					<trkpt lat="49.910570" lon="1.566540">
						<ele>217</ele>
						<time>2024-05-28T09:13:26Z</time>
					</trkpt>
					<trkpt lat="49.908780" lon="1.569840">
						<ele>216</ele>
						<time>2024-05-28T09:14:15Z</time>
					</trkpt>
					<trkpt lat="49.908700" lon="1.570380">
						<ele>215</ele>
						<time>2024-05-28T09:14:22Z</time>
					</trkpt>
					<trkpt lat="49.908720" lon="1.571570">
						<ele>217</ele>
						<time>2024-05-28T09:14:35Z</time>
					</trkpt>
					<trkpt lat="49.908610" lon="1.572050">
						<ele>217</ele>
						<time>2024-05-28T09:14:41Z</time>
					</trkpt>
					<trkpt lat="49.904690" lon="1.579110">
						<ele>223</ele>
						<time>2024-05-28T09:16:28Z</time>
					</trkpt>
					<trkpt lat="49.904550" lon="1.579240">
						<ele>222</ele>
						<time>2024-05-28T09:16:31Z</time>
					</trkpt>
					<trkpt lat="49.903480" lon="1.579690">
						<ele>223</ele>
						<time>2024-05-28T09:16:50Z</time>
					</trkpt>
					<trkpt lat="49.901350" lon="1.583550">
						<ele>212</ele>
						<time>2024-05-28T09:17:49Z</time>
					</trkpt>
					<trkpt lat="49.900040" lon="1.586100">
						<ele>206</ele>
						<time>2024-05-28T09:18:26Z</time>
					</trkpt>
					<trkpt lat="49.899940" lon="1.587870">
						<ele>210</ele>
						<time>2024-05-28T09:18:46Z</time>
					</trkpt>
					<trkpt lat="49.899850" lon="1.588100">
						<ele>211</ele>
						<time>2024-05-28T09:18:50Z</time>
					</trkpt>
					<trkpt lat="49.899530" lon="1.588680">
						<ele>212</ele>
						<time>2024-05-28T09:18:58Z</time>
					</trkpt>
					<trkpt lat="49.898600" lon="1.588980">
						<ele>215</ele>
						<time>2024-05-28T09:19:15Z</time>
					</trkpt>
					<trkpt lat="49.898330" lon="1.589200">
						<ele>214</ele>
						<time>2024-05-28T09:19:21Z</time>
					</trkpt>
					<trkpt lat="49.897760" lon="1.590280">
						<ele>215</ele>
						<time>2024-05-28T09:19:37Z</time>
					</trkpt>
					<trkpt lat="49.893360" lon="1.598410">
						<ele>221</ele>
						<time>2024-05-28T09:21:38Z</time>
					</trkpt>
					<trkpt lat="49.892690" lon="1.599700">
						<ele>217</ele>
						<time>2024-05-28T09:21:57Z</time>
					</trkpt>
					<trkpt lat="49.891970" lon="1.600970">
						<ele>224</ele>
						<time>2024-05-28T09:22:17Z</time>
					</trkpt>
					<trkpt lat="49.891250" lon="1.602300">
						<ele>222</ele>
						<time>2024-05-28T09:22:37Z</time>
					</trkpt>
					<trkpt lat="49.890940" lon="1.603050">
						<ele>216</ele>
						<time>2024-05-28T09:22:47Z</time>
					</trkpt>
					<trkpt lat="49.890760" lon="1.603760">
						<ele>218</ele>
						<time>2024-05-28T09:22:56Z</time>
					</trkpt>
					<trkpt lat="49.890700" lon="1.603830">
						<ele>219</ele>
						<time>2024-05-28T09:22:57Z</time>
					</trkpt>
					<trkpt lat="49.890640" lon="1.603840">
						<ele>219</ele>
						<time>2024-05-28T09:22:58Z</time>
					</trkpt>
					<trkpt lat="49.890420" lon="1.603680">
						<ele>220</ele>
						<time>2024-05-28T09:23:02Z</time>
					</trkpt>
					<trkpt lat="49.879820" lon="1.605280">
						<ele>218</ele>
						<time>2024-05-28T09:26:12Z</time>
					</trkpt>
					<trkpt lat="49.867350" lon="1.607100">
						<ele>207</ele>
						<time>2024-05-28T09:29:55Z</time>
					</trkpt>
					<trkpt lat="49.865650" lon="1.607360">
						<ele>213</ele>
						<time>2024-05-28T09:30:25Z</time>
					</trkpt>
					<trkpt lat="49.864230" lon="1.607640">
						<ele>214</ele>
						<time>2024-05-28T09:30:50Z</time>
					</trkpt>
					<trkpt lat="49.863880" lon="1.607870">
						<ele>213</ele>
						<time>2024-05-28T09:30:57Z</time>
					</trkpt>
					<trkpt lat="49.863240" lon="1.608840">
						<ele>211</ele>
						<time>2024-05-28T09:31:13Z</time>
					</trkpt>
					<trkpt lat="49.863090" lon="1.609150">
						<ele>210</ele>
						<time>2024-05-28T09:31:18Z</time>
					</trkpt>
					<trkpt lat="49.862880" lon="1.609310">
						<ele>210</ele>
						<time>2024-05-28T09:31:22Z</time>
					</trkpt>
					<trkpt lat="49.862590" lon="1.609260">
						<ele>211</ele>
						<time>2024-05-28T09:31:27Z</time>
					</trkpt>
					<trkpt lat="49.861400" lon="1.608060">
						<ele>220</ele>
						<time>2024-05-28T09:31:52Z</time>
					</trkpt>
					<trkpt lat="49.859960" lon="1.608250">
						<ele>217</ele>
						<time>2024-05-28T09:32:18Z</time>
					</trkpt>
					<trkpt lat="49.857520" lon="1.608750">
						<ele>207</ele>
						<time>2024-05-28T09:33:02Z</time>
					</trkpt>
					<trkpt lat="49.857330" lon="1.608890">
						<ele>207</ele>
						<time>2024-05-28T09:33:05Z</time>
					</trkpt>
					<trkpt lat="49.856560" lon="1.609630">
						<ele>209</ele>
						<time>2024-05-28T09:33:22Z</time>
					</trkpt>
					<trkpt lat="49.855380" lon="1.610830">
						<ele>211</ele>
						<time>2024-05-28T09:33:47Z</time>
					</trkpt>
					<trkpt lat="49.855240" lon="1.611080">
						<ele>210</ele>
						<time>2024-05-28T09:33:51Z</time>
					</trkpt>
					<trkpt lat="49.855300" lon="1.611350">
						<ele>210</ele>
						<time>2024-05-28T09:33:54Z</time>
					</trkpt>
					<trkpt lat="49.855410" lon="1.612510">
						<ele>211</ele>
						<time>2024-05-28T09:34:07Z</time>
					</trkpt>
					<trkpt lat="49.855380" lon="1.613170">
						<ele>212</ele>
						<time>2024-05-28T09:34:15Z</time>
					</trkpt>
					<trkpt lat="49.855330" lon="1.613490">
						<ele>212</ele>
						<time>2024-05-28T09:34:19Z</time>
					</trkpt>
					<trkpt lat="49.855250" lon="1.613740">
						<ele>212</ele>
						<time>2024-05-28T09:34:22Z</time>
					</trkpt>
					<trkpt lat="49.855140" lon="1.613930">
						<ele>213</ele>
						<time>2024-05-28T09:34:25Z</time>
					</trkpt>
					<trkpt lat="49.854600" lon="1.614580">
						<ele>213</ele>
						<time>2024-05-28T09:34:37Z</time>
					</trkpt>
					<trkpt lat="49.854430" lon="1.615040">
						<ele>213</ele>
						<time>2024-05-28T09:34:43Z</time>
					</trkpt>
					<trkpt lat="49.853760" lon="1.619350">
						<ele>213</ele>
						<time>2024-05-28T09:35:34Z</time>
					</trkpt>
					<trkpt lat="49.853670" lon="1.619760">
						<ele>213</ele>
						<time>2024-05-28T09:35:39Z</time>
					</trkpt>
					<trkpt lat="49.853570" lon="1.620090">
						<ele>213</ele>
						<time>2024-05-28T09:35:43Z</time>
					</trkpt>
					<trkpt lat="49.852080" lon="1.623300">
						<ele>212</ele>
						<time>2024-05-28T09:36:28Z</time>
					</trkpt>
					<trkpt lat="49.851330" lon="1.625320">
						<ele>212</ele>
						<time>2024-05-28T09:36:55Z</time>
					</trkpt>
					<trkpt lat="49.850630" lon="1.627770">
						<ele>212</ele>
						<time>2024-05-28T09:37:26Z</time>
					</trkpt>
					<trkpt lat="49.850270" lon="1.629460">
						<ele>212</ele>
						<time>2024-05-28T09:37:46Z</time>
					</trkpt>
					<trkpt lat="49.849960" lon="1.631720">
						<ele>210</ele>
						<time>2024-05-28T09:38:13Z</time>
					</trkpt>
					<trkpt lat="49.849030" lon="1.631780">
						<ele>209</ele>
						<time>2024-05-28T09:38:29Z</time>
					</trkpt>
					<trkpt lat="49.848120" lon="1.631720">
						<ele>207</ele>
						<time>2024-05-28T09:38:46Z</time>
					</trkpt>
					<trkpt lat="49.847400" lon="1.631500">
						<ele>208</ele>
						<time>2024-05-28T09:38:59Z</time>
					</trkpt>
					<trkpt lat="49.846610" lon="1.631470">
						<ele>209</ele>
						<time>2024-05-28T09:39:13Z</time>
					</trkpt>
					<trkpt lat="49.846470" lon="1.631480">
						<ele>209</ele>
						<time>2024-05-28T09:39:15Z</time>
					</trkpt>
					<trkpt lat="49.846360" lon="1.631520">
						<ele>209</ele>
						<time>2024-05-28T09:39:17Z</time>
					</trkpt>
					<trkpt lat="49.846290" lon="1.631580">
						<ele>209</ele>
						<time>2024-05-28T09:39:19Z</time>
					</trkpt>
					<trkpt lat="49.846240" lon="1.631670">
						<ele>209</ele>
						<time>2024-05-28T09:39:20Z</time>
					</trkpt>
					<trkpt lat="49.846050" lon="1.632170">
						<ele>209</ele>
						<time>2024-05-28T09:39:27Z</time>
					</trkpt>
					<trkpt lat="49.845350" lon="1.631970">
						<ele>209</ele>
						<time>2024-05-28T09:39:39Z</time>
					</trkpt>
					<trkpt lat="49.844750" lon="1.631860">
						<ele>209</ele>
						<time>2024-05-28T09:39:50Z</time>
					</trkpt>
					<trkpt lat="49.843970" lon="1.631390">
						<ele>209</ele>
						<time>2024-05-28T09:40:05Z</time>
					</trkpt>
					<trkpt lat="49.842040" lon="1.630900">
						<ele>211</ele>
						<time>2024-05-28T09:40:40Z</time>
					</trkpt>
					<trkpt lat="49.841440" lon="1.630830">
						<ele>211</ele>
						<time>2024-05-28T09:40:50Z</time>
					</trkpt>
					<trkpt lat="49.841020" lon="1.630810">
						<ele>211</ele>
						<time>2024-05-28T09:40:58Z</time>
					</trkpt>
					<trkpt lat="49.840200" lon="1.630840">
						<ele>211</ele>
						<time>2024-05-28T09:41:12Z</time>
					</trkpt>
					<trkpt lat="49.835980" lon="1.630670">
						<ele>210</ele>
						<time>2024-05-28T09:42:28Z</time>
					</trkpt>
					<trkpt lat="49.835310" lon="1.630520">
						<ele>212</ele>
						<time>2024-05-28T09:42:40Z</time>
					</trkpt>
					<trkpt lat="49.834550" lon="1.630190">
						<ele>213</ele>
						<time>2024-05-28T09:42:54Z</time>
					</trkpt>
					<trkpt lat="49.833870" lon="1.630050">
						<ele>213</ele>
						<time>2024-05-28T09:43:06Z</time>
					</trkpt>
					<trkpt lat="49.832670" lon="1.630760">
						<ele>210</ele>
						<time>2024-05-28T09:43:29Z</time>
					</trkpt>
					<trkpt lat="49.832200" lon="1.630970">
						<ele>210</ele>
						<time>2024-05-28T09:43:37Z</time>
					</trkpt>
					<trkpt lat="49.831860" lon="1.631090">
						<ele>211</ele>
						<time>2024-05-28T09:43:44Z</time>
					</trkpt>
					<trkpt lat="49.831520" lon="1.631080">
						<ele>211</ele>
						<time>2024-05-28T09:43:50Z</time>
					</trkpt>
					<trkpt lat="49.829640" lon="1.630760">
						<ele>212</ele>
						<time>2024-05-28T09:44:23Z</time>
					</trkpt>
					<trkpt lat="49.826870" lon="1.630420">
						<ele>211</ele>
						<time>2024-05-28T09:45:13Z</time>
					</trkpt>
					<trkpt lat="49.825650" lon="1.630130">
						<ele>214</ele>
						<time>2024-05-28T09:45:35Z</time>
					</trkpt>
					<trkpt lat="49.824970" lon="1.629930">
						<ele>215</ele>
						<time>2024-05-28T09:45:47Z</time>
					</trkpt>
					<trkpt lat="49.822380" lon="1.629110">
						<ele>214</ele>
						<time>2024-05-28T09:46:34Z</time>
					</trkpt>
					<trkpt lat="49.821570" lon="1.628630">
						<ele>214</ele>
						<time>2024-05-28T09:46:50Z</time>
					</trkpt>
					<trkpt lat="49.820900" lon="1.628320">
						<ele>214</ele>
						<time>2024-05-28T09:47:02Z</time>
					</trkpt>
					<trkpt lat="49.820510" lon="1.628110">
						<ele>214</ele>
						<time>2024-05-28T09:47:09Z</time>
					</trkpt>
					<trkpt lat="49.820100" lon="1.627840">
						<ele>215</ele>
						<time>2024-05-28T09:47:17Z</time>
					</trkpt>
					<trkpt lat="49.819890" lon="1.627740">
						<ele>215</ele>
						<time>2024-05-28T09:47:21Z</time>
					</trkpt>
					<trkpt lat="49.819590" lon="1.627690">
						<ele>215</ele>
						<time>2024-05-28T09:47:27Z</time>
					</trkpt>
					<trkpt lat="49.817340" lon="1.627410">
						<ele>217</ele>
						<time>2024-05-28T09:48:07Z</time>
					</trkpt>
					<trkpt lat="49.816970" lon="1.627420">
						<ele>218</ele>
						<time>2024-05-28T09:48:13Z</time>
					</trkpt>
					<trkpt lat="49.816400" lon="1.627510">
						<ele>218</ele>
						<time>2024-05-28T09:48:23Z</time>
					</trkpt>
					<trkpt lat="49.815780" lon="1.627560">
						<ele>216</ele>
						<time>2024-05-28T09:48:35Z</time>
					</trkpt>
					<trkpt lat="49.815140" lon="1.627560">
						<ele>217</ele>
						<time>2024-05-28T09:48:46Z</time>
					</trkpt>
					<trkpt lat="49.814270" lon="1.627470">
						<ele>226</ele>
						<time>2024-05-28T09:49:01Z</time>
					</trkpt>
					<trkpt lat="49.814070" lon="1.627500">
						<ele>228</ele>
						<time>2024-05-28T09:49:05Z</time>
					</trkpt>
					<trkpt lat="49.813780" lon="1.627620">
						<ele>230</ele>
						<time>2024-05-28T09:49:10Z</time>
					</trkpt>
					<trkpt lat="49.811600" lon="1.628840">
						<ele>227</ele>
						<time>2024-05-28T09:49:52Z</time>
					</trkpt>
					<trkpt lat="49.810830" lon="1.629240">
						<ele>226</ele>
						<time>2024-05-28T09:50:06Z</time>
					</trkpt>
					<trkpt lat="49.810000" lon="1.629000">
						<ele>228</ele>
						<time>2024-05-28T09:50:21Z</time>
					</trkpt>
					<trkpt lat="49.808520" lon="1.628440">
						<ele>229</ele>
						<time>2024-05-28T09:50:48Z</time>
					</trkpt>
					<trkpt lat="49.807360" lon="1.628140">
						<ele>234</ele>
						<time>2024-05-28T09:51:09Z</time>
					</trkpt>
					<trkpt lat="49.806010" lon="1.627720">
						<ele>234</ele>
						<time>2024-05-28T09:51:34Z</time>
					</trkpt>
					<trkpt lat="49.804770" lon="1.627250">
						<ele>229</ele>
						<time>2024-05-28T09:51:56Z</time>
					</trkpt>
					<trkpt lat="49.803290" lon="1.626830">
						<ele>229</ele>
						<time>2024-05-28T09:52:23Z</time>
					</trkpt>
					<trkpt lat="49.802780" lon="1.626710">
						<ele>233</ele>
						<time>2024-05-28T09:52:32Z</time>
					</trkpt>
					<trkpt lat="49.801430" lon="1.626470">
						<ele>233</ele>
						<time>2024-05-28T09:52:56Z</time>
					</trkpt>
					<trkpt lat="49.799130" lon="1.625980">
						<ele>233</ele>
						<time>2024-05-28T09:53:38Z</time>
					</trkpt>
					<trkpt lat="49.797870" lon="1.625800">
						<ele>236</ele>
						<time>2024-05-28T09:54:00Z</time>
					</trkpt>
					<trkpt lat="49.797320" lon="1.625680">
						<ele>237</ele>
						<time>2024-05-28T09:54:10Z</time>
					</trkpt>
					<trkpt lat="49.796420" lon="1.625550">
						<ele>234</ele>
						<time>2024-05-28T09:54:26Z</time>
					</trkpt>
					<trkpt lat="49.794610" lon="1.625090">
						<ele>226</ele>
						<time>2024-05-28T09:54:59Z</time>
					</trkpt>
					<trkpt lat="49.793320" lon="1.625020">
						<ele>221</ele>
						<time>2024-05-28T09:55:22Z</time>
					</trkpt>
					<trkpt lat="49.792800" lon="1.624880">
						<ele>221</ele>
						<time>2024-05-28T09:55:31Z</time>
					</trkpt>
					<trkpt lat="49.792200" lon="1.624610">
						<ele>222</ele>
						<time>2024-05-28T09:55:42Z</time>
					</trkpt>
					<trkpt lat="49.791310" lon="1.624070">
						<ele>225</ele>
						<time>2024-05-28T09:55:59Z</time>
					</trkpt>
					<trkpt lat="49.791070" lon="1.623870">
						<ele>227</ele>
						<time>2024-05-28T09:56:04Z</time>
					</trkpt>
					<trkpt lat="49.790740" lon="1.624960">
						<ele>228</ele>
						<time>2024-05-28T09:56:18Z</time>
					</trkpt>
					<trkpt lat="49.790490" lon="1.626150">
						<ele>227</ele>
						<time>2024-05-28T09:56:32Z</time>
					</trkpt>
					<trkpt lat="49.790230" lon="1.627130">
						<ele>225</ele>
						<time>2024-05-28T09:56:45Z</time>
					</trkpt>
					<trkpt lat="49.790040" lon="1.627520">
						<ele>224</ele>
						<time>2024-05-28T09:56:50Z</time>
					</trkpt>
					<trkpt lat="49.789700" lon="1.627900">
						<ele>221</ele>
						<time>2024-05-28T09:56:58Z</time>
					</trkpt>
					<trkpt lat="49.789130" lon="1.628640">
						<ele>216</ele>
						<time>2024-05-28T09:57:11Z</time>
					</trkpt>
					<trkpt lat="49.787820" lon="1.630220">
						<ele>219</ele>
						<time>2024-05-28T09:57:40Z</time>
					</trkpt>
					<trkpt lat="49.787510" lon="1.630520">
						<ele>218</ele>
						<time>2024-05-28T09:57:47Z</time>
					</trkpt>
					<trkpt lat="49.787330" lon="1.630640">
						<ele>218</ele>
						<time>2024-05-28T09:57:50Z</time>
					</trkpt>
					<trkpt lat="49.787210" lon="1.630680">
						<ele>218</ele>
						<time>2024-05-28T09:57:53Z</time>
					</trkpt>
					<trkpt lat="49.787090" lon="1.630690">
						<ele>218</ele>
						<time>2024-05-28T09:57:55Z</time>
					</trkpt>
					<trkpt lat="49.787010" lon="1.630650">
						<ele>218</ele>
						<time>2024-05-28T09:57:56Z</time>
					</trkpt>
					<trkpt lat="49.786900" lon="1.630530">
						<ele>218</ele>
						<time>2024-05-28T09:57:59Z</time>
					</trkpt>
					<trkpt lat="49.786890" lon="1.630380">
						<ele>219</ele>
						<time>2024-05-28T09:58:00Z</time>
					</trkpt>
					<trkpt lat="49.786900" lon="1.629000">
						<ele>220</ele>
						<time>2024-05-28T09:58:16Z</time>
					</trkpt>
					<trkpt lat="49.786880" lon="1.628840">
						<ele>220</ele>
						<time>2024-05-28T09:58:18Z</time>
					</trkpt>
					<trkpt lat="49.786810" lon="1.628690">
						<ele>220</ele>
						<time>2024-05-28T09:58:20Z</time>
					</trkpt>
					<trkpt lat="49.786750" lon="1.628630">
						<ele>219</ele>
						<time>2024-05-28T09:58:21Z</time>
					</trkpt>
					<trkpt lat="49.786670" lon="1.628590">
						<ele>219</ele>
						<time>2024-05-28T09:58:23Z</time>
					</trkpt>
					<trkpt lat="49.786230" lon="1.628600">
						<ele>219</ele>
						<time>2024-05-28T09:58:31Z</time>
					</trkpt>
					<trkpt lat="49.786020" lon="1.628550">
						<ele>218</ele>
						<time>2024-05-28T09:58:35Z</time>
					</trkpt>
					<trkpt lat="49.785350" lon="1.628240">
						<ele>219</ele>
						<time>2024-05-28T09:58:47Z</time>
					</trkpt>
					<trkpt lat="49.784650" lon="1.627870">
						<ele>218</ele>
						<time>2024-05-28T09:59:00Z</time>
					</trkpt>
					<trkpt lat="49.784270" lon="1.627720">
						<ele>218</ele>
						<time>2024-05-28T09:59:07Z</time>
					</trkpt>
					<trkpt lat="49.783830" lon="1.627520">
						<ele>216</ele>
						<time>2024-05-28T09:59:15Z</time>
					</trkpt>
					<trkpt lat="49.783360" lon="1.627230">
						<ele>213</ele>
						<time>2024-05-28T09:59:24Z</time>
					</trkpt>
					<trkpt lat="49.783090" lon="1.627020">
						<ele>212</ele>
						<time>2024-05-28T09:59:30Z</time>
					</trkpt>
					<trkpt lat="49.782750" lon="1.626700">
						<ele>212</ele>
						<time>2024-05-28T09:59:37Z</time>
					</trkpt>
					<trkpt lat="49.782540" lon="1.626560">
						<ele>212</ele>
						<time>2024-05-28T09:59:41Z</time>
					</trkpt>
					<trkpt lat="49.782240" lon="1.626510">
						<ele>214</ele>
						<time>2024-05-28T09:59:46Z</time>
					</trkpt>
					<trkpt lat="49.781590" lon="1.626530">
						<ele>218</ele>
						<time>2024-05-28T09:59:58Z</time>
					</trkpt>
					<trkpt lat="49.779530" lon="1.626790">
						<ele>216</ele>
						<time>2024-05-28T10:00:35Z</time>
					</trkpt>
					<trkpt lat="49.779110" lon="1.626910">
						<ele>217</ele>
						<time>2024-05-28T10:00:42Z</time>
					</trkpt>
					<trkpt lat="49.778660" lon="1.627170">
						<ele>219</ele>
						<time>2024-05-28T10:00:51Z</time>
					</trkpt>
					<trkpt lat="49.778190" lon="1.627470">
						<ele>219</ele>
						<time>2024-05-28T10:01:00Z</time>
					</trkpt>
					<trkpt lat="49.774750" lon="1.629200">
						<ele>218</ele>
						<time>2024-05-28T10:02:04Z</time>
					</trkpt>
					<trkpt lat="49.772660" lon="1.629950">
						<ele>214</ele>
						<time>2024-05-28T10:02:42Z</time>
					</trkpt>
					<trkpt lat="49.771070" lon="1.630860">
						<ele>220</ele>
						<time>2024-05-28T10:03:12Z</time>
					</trkpt>
					<trkpt lat="49.768460" lon="1.632480">
						<ele>216</ele>
						<time>2024-05-28T10:04:02Z</time>
					</trkpt>
					<trkpt lat="49.767330" lon="1.632250">
						<ele>219</ele>
						<time>2024-05-28T10:04:23Z</time>
					</trkpt>
					<trkpt lat="49.766740" lon="1.632500">
						<ele>222</ele>
						<time>2024-05-28T10:04:34Z</time>
					</trkpt>
					<trkpt lat="49.765330" lon="1.633650">
						<ele>220</ele>
						<time>2024-05-28T10:05:02Z</time>
					</trkpt>
					<trkpt lat="49.765480" lon="1.634090">
						<ele>220</ele>
						<time>2024-05-28T10:05:08Z</time>
					</trkpt>
					<trkpt lat="49.766500" lon="1.636640">
						<ele>220</ele>
						<time>2024-05-28T10:05:42Z</time>
					</trkpt>
					<trkpt lat="49.766430" lon="1.636760">
						<ele>220</ele>
						<time>2024-05-28T10:05:44Z</time>
					</trkpt>
					<trkpt lat="49.765810" lon="1.637340">
						<ele>217</ele>
						<time>2024-05-28T10:05:57Z</time>
					</trkpt>
					<trkpt lat="49.765690" lon="1.637470">
						<ele>216</ele>
						<time>2024-05-28T10:06:00Z</time>
					</trkpt>
					<trkpt lat="49.765610" lon="1.637660">
						<ele>215</ele>
						<time>2024-05-28T10:06:02Z</time>
					</trkpt>
					<trkpt lat="49.765580" lon="1.637870">
						<ele>214</ele>
						<time>2024-05-28T10:06:05Z</time>
					</trkpt>
					<trkpt lat="49.765570" lon="1.638110">
						<ele>213</ele>
						<time>2024-05-28T10:06:07Z</time>
					</trkpt>
					<trkpt lat="49.765630" lon="1.638540">
						<ele>212</ele>
						<time>2024-05-28T10:06:12Z</time>
					</trkpt>
					<trkpt lat="49.765640" lon="1.638780">
						<ele>211</ele>
						<time>2024-05-28T10:06:15Z</time>
					</trkpt>
					<trkpt lat="49.765570" lon="1.638990">
						<ele>209</ele>
						<time>2024-05-28T10:06:18Z</time>
					</trkpt>
					<trkpt lat="49.765480" lon="1.639120">
						<ele>207</ele>
						<time>2024-05-28T10:06:20Z</time>
					</trkpt>
					<trkpt lat="49.765390" lon="1.639170">
						<ele>206</ele>
						<time>2024-05-28T10:06:22Z</time>
					</trkpt>
					<trkpt lat="49.765240" lon="1.639180">
						<ele>204</ele>
						<time>2024-05-28T10:06:24Z</time>
					</trkpt>
					<trkpt lat="49.765110" lon="1.639100">
						<ele>204</ele>
						<time>2024-05-28T10:06:27Z</time>
					</trkpt>
					<trkpt lat="49.764910" lon="1.638920">
						<ele>203</ele>
						<time>2024-05-28T10:06:31Z</time>
					</trkpt>
					<trkpt lat="49.764750" lon="1.638730">
						<ele>202</ele>
						<time>2024-05-28T10:06:35Z</time>
					</trkpt>
					<trkpt lat="49.764230" lon="1.637760">
						<ele>199</ele>
						<time>2024-05-28T10:06:49Z</time>
					</trkpt>
					<trkpt lat="49.764000" lon="1.637440">
						<ele>198</ele>
						<time>2024-05-28T10:06:55Z</time>
					</trkpt>
					<trkpt lat="49.763110" lon="1.636710">
						<ele>196</ele>
						<time>2024-05-28T10:07:13Z</time>
					</trkpt>
					<trkpt lat="49.762870" lon="1.636580">
						<ele>195</ele>
						<time>2024-05-28T10:07:17Z</time>
					</trkpt>
					<trkpt lat="49.762720" lon="1.636570">
						<ele>194</ele>
						<time>2024-05-28T10:07:20Z</time>
					</trkpt>
					<trkpt lat="49.762540" lon="1.636730">
						<ele>193</ele>
						<time>2024-05-28T10:07:23Z</time>
					</trkpt>
					<trkpt lat="49.762480" lon="1.636900">
						<ele>193</ele>
						<time>2024-05-28T10:07:26Z</time>
					</trkpt>
					<trkpt lat="49.762470" lon="1.637120">
						<ele>195</ele>
						<time>2024-05-28T10:07:28Z</time>
					</trkpt>
					<trkpt lat="49.762580" lon="1.637560">
						<ele>196</ele>
						<time>2024-05-28T10:07:34Z</time>
					</trkpt>
					<trkpt lat="49.764120" lon="1.642640">
						<ele>215</ele>
						<time>2024-05-28T10:08:38Z</time>
					</trkpt>
					<trkpt lat="49.764140" lon="1.642800">
						<ele>216</ele>
						<time>2024-05-28T10:08:40Z</time>
					</trkpt>
					<trkpt lat="49.764120" lon="1.642960">
						<ele>217</ele>
						<time>2024-05-28T10:08:42Z</time>
					</trkpt>
					<trkpt lat="49.763930" lon="1.643240">
						<ele>219</ele>
						<time>2024-05-28T10:08:47Z</time>
					</trkpt>
					<trkpt lat="49.764000" lon="1.643480">
						<ele>220</ele>
						<time>2024-05-28T10:08:50Z</time>
					</trkpt>
					<trkpt lat="49.764020" lon="1.643950">
						<ele>221</ele>
						<time>2024-05-28T10:08:55Z</time>
					</trkpt>
					<trkpt lat="49.763980" lon="1.644490">
						<ele>220</ele>
						<time>2024-05-28T10:09:01Z</time>
					</trkpt>
					<trkpt lat="49.763840" lon="1.645450">
						<ele>220</ele>
						<time>2024-05-28T10:09:13Z</time>
					</trkpt>
					<trkpt lat="49.763840" lon="1.645640">
						<ele>220</ele>
						<time>2024-05-28T10:09:15Z</time>
					</trkpt>
					<trkpt lat="49.763880" lon="1.645830">
						<ele>220</ele>
						<time>2024-05-28T10:09:17Z</time>
					</trkpt>
					<trkpt lat="49.764190" lon="1.646890">
						<ele>218</ele>
						<time>2024-05-28T10:09:30Z</time>
					</trkpt>
					<trkpt lat="49.764310" lon="1.647120">
						<ele>218</ele>
						<time>2024-05-28T10:09:34Z</time>
					</trkpt>
					<trkpt lat="49.765740" lon="1.649410">
						<ele>213</ele>
						<time>2024-05-28T10:10:10Z</time>
					</trkpt>
					<trkpt lat="49.766100" lon="1.650050">
						<ele>210</ele>
						<time>2024-05-28T10:10:20Z</time>
					</trkpt>
					<trkpt lat="49.766430" lon="1.650700">
						<ele>209</ele>
						<time>2024-05-28T10:10:30Z</time>
					</trkpt>
					<trkpt lat="49.766790" lon="1.651340">
						<ele>207</ele>
						<time>2024-05-28T10:10:39Z</time>
					</trkpt>
					<trkpt lat="49.767000" lon="1.651610">
						<ele>206</ele>
						<time>2024-05-28T10:10:44Z</time>
					</trkpt>
					<trkpt lat="49.767110" lon="1.651880">
						<ele>206</ele>
						<time>2024-05-28T10:10:48Z</time>
					</trkpt>
					<trkpt lat="49.767170" lon="1.652150">
						<ele>206</ele>
						<time>2024-05-28T10:10:51Z</time>
					</trkpt>
					<trkpt lat="49.767240" lon="1.652900">
						<ele>208</ele>
						<time>2024-05-28T10:11:00Z</time>
					</trkpt>
					<trkpt lat="49.767510" lon="1.654170">
						<ele>211</ele>
						<time>2024-05-28T10:11:15Z</time>
					</trkpt>
					<trkpt lat="49.767530" lon="1.654660">
						<ele>212</ele>
						<time>2024-05-28T10:11:21Z</time>
					</trkpt>
					<trkpt lat="49.767420" lon="1.655910">
						<ele>214</ele>
						<time>2024-05-28T10:11:35Z</time>
					</trkpt>
					<trkpt lat="49.767460" lon="1.656080">
						<ele>213</ele>
						<time>2024-05-28T10:11:37Z</time>
					</trkpt>
					<trkpt lat="49.767890" lon="1.657170">
						<ele>206</ele>
						<time>2024-05-28T10:11:52Z</time>
					</trkpt>
					<trkpt lat="49.767930" lon="1.657530">
						<ele>205</ele>
						<time>2024-05-28T10:11:56Z</time>
					</trkpt>
					<trkpt lat="49.767980" lon="1.658140">
						<ele>207</ele>
						<time>2024-05-28T10:12:03Z</time>
					</trkpt>
					<trkpt lat="49.768110" lon="1.658710">
						<ele>208</ele>
						<time>2024-05-28T10:12:10Z</time>
					</trkpt>
					<trkpt lat="49.768590" lon="1.660480">
						<ele>205</ele>
						<time>2024-05-28T10:12:32Z</time>
					</trkpt>
					<trkpt lat="49.768580" lon="1.661070">
						<ele>209</ele>
						<time>2024-05-28T10:12:39Z</time>
					</trkpt>
					<trkpt lat="49.768730" lon="1.661540">
						<ele>212</ele>
						<time>2024-05-28T10:12:45Z</time>
					</trkpt>
					<trkpt lat="49.768580" lon="1.661070">
						<ele>209</ele>
						<time>2024-05-28T10:12:51Z</time>
					</trkpt>
					<trkpt lat="49.768540" lon="1.661510">
						<ele>213</ele>
						<time>2024-05-28T10:12:56Z</time>
					</trkpt>
					<trkpt lat="49.768400" lon="1.662330">
						<ele>215</ele>
						<time>2024-05-28T10:13:06Z</time>
					</trkpt>
					<trkpt lat="49.768400" lon="1.662460">
						<ele>215</ele>
						<time>2024-05-28T10:13:08Z</time>
					</trkpt>
					<trkpt lat="49.768500" lon="1.663090">
						<ele>215</ele>
						<time>2024-05-28T10:13:15Z</time>
					</trkpt>
					<trkpt lat="49.768590" lon="1.664030">
						<ele>216</ele>
						<time>2024-05-28T10:13:26Z</time>
					</trkpt>
					<trkpt lat="49.768760" lon="1.665340">
						<ele>213</ele>
						<time>2024-05-28T10:13:41Z</time>
					</trkpt>
					<trkpt lat="49.768760" lon="1.665540">
						<ele>212</ele>
						<time>2024-05-28T10:13:44Z</time>
					</trkpt>
					<trkpt lat="49.768720" lon="1.665910">
						<ele>211</ele>
						<time>2024-05-28T10:13:48Z</time>
					</trkpt>
					<trkpt lat="49.768450" lon="1.667260">
						<ele>209</ele>
						<time>2024-05-28T10:14:04Z</time>
					</trkpt>
					<trkpt lat="49.768280" lon="1.668340">
						<ele>206</ele>
						<time>2024-05-28T10:14:17Z</time>
					</trkpt>
					<trkpt lat="49.768150" lon="1.669370">
						<ele>203</ele>
						<time>2024-05-28T10:14:29Z</time>
					</trkpt>
					<trkpt lat="49.768190" lon="1.670250">
						<ele>203</ele>
						<time>2024-05-28T10:14:39Z</time>
					</trkpt>
					<trkpt lat="49.768150" lon="1.671010">
						<ele>202</ele>
						<time>2024-05-28T10:14:48Z</time>
					</trkpt>
					<trkpt lat="49.768160" lon="1.671350">
						<ele>201</ele>
						<time>2024-05-28T10:14:52Z</time>
					</trkpt>
					<trkpt lat="49.768210" lon="1.671840">
						<ele>201</ele>
						<time>2024-05-28T10:14:58Z</time>
					</trkpt>
					<trkpt lat="49.768280" lon="1.672350">
						<ele>201</ele>
						<time>2024-05-28T10:15:04Z</time>
					</trkpt>
					<trkpt lat="49.768370" lon="1.672730">
						<ele>200</ele>
						<time>2024-05-28T10:15:08Z</time>
					</trkpt>
					<trkpt lat="49.768400" lon="1.672940">
						<ele>199</ele>
						<time>2024-05-28T10:15:11Z</time>
					</trkpt>
					<trkpt lat="49.768360" lon="1.673210">
						<ele>196</ele>
						<time>2024-05-28T10:15:14Z</time>
					</trkpt>
					<trkpt lat="49.768270" lon="1.673420">
						<ele>193</ele>
						<time>2024-05-28T10:15:17Z</time>
					</trkpt>
					<trkpt lat="49.768240" lon="1.673590">
						<ele>192</ele>
						<time>2024-05-28T10:15:19Z</time>
					</trkpt>
					<trkpt lat="49.768270" lon="1.673820">
						<ele>191</ele>
						<time>2024-05-28T10:15:21Z</time>
					</trkpt>
					<trkpt lat="49.769500" lon="1.677600">
						<ele>190</ele>
						<time>2024-05-28T10:16:10Z</time>
					</trkpt>
					<trkpt lat="49.769940" lon="1.678810">
						<ele>190</ele>
						<time>2024-05-28T10:16:26Z</time>
					</trkpt>
					<trkpt lat="49.770010" lon="1.679080">
						<ele>190</ele>
						<time>2024-05-28T10:16:29Z</time>
					</trkpt>
					<trkpt lat="49.770230" lon="1.680070">
						<ele>187</ele>
						<time>2024-05-28T10:16:41Z</time>
					</trkpt>
					<trkpt lat="49.770630" lon="1.681650">
						<ele>186</ele>
						<time>2024-05-28T10:17:01Z</time>
					</trkpt>
					<trkpt lat="49.771440" lon="1.684630">
						<ele>177</ele>
						<time>2024-05-28T10:17:38Z</time>
					</trkpt>
					<trkpt lat="49.771540" lon="1.684880">
						<ele>177</ele>
						<time>2024-05-28T10:17:41Z</time>
					</trkpt>
					<trkpt lat="49.771650" lon="1.685090">
						<ele>177</ele>
						<time>2024-05-28T10:17:45Z</time>
					</trkpt>
					<trkpt lat="49.772130" lon="1.685780">
						<ele>177</ele>
						<time>2024-05-28T10:17:56Z</time>
					</trkpt>
					<trkpt lat="49.772230" lon="1.686030">
						<ele>176</ele>
						<time>2024-05-28T10:18:00Z</time>
					</trkpt>
					<trkpt lat="49.772230" lon="1.686150">
						<ele>175</ele>
						<time>2024-05-28T10:18:01Z</time>
					</trkpt>
					<trkpt lat="49.772190" lon="1.686340">
						<ele>174</ele>
						<time>2024-05-28T10:18:03Z</time>
					</trkpt>
					<trkpt lat="49.771970" lon="1.686910">
						<ele>168</ele>
						<time>2024-05-28T10:18:11Z</time>
					</trkpt>
					<trkpt lat="49.771870" lon="1.687050">
						<ele>167</ele>
						<time>2024-05-28T10:18:13Z</time>
					</trkpt>
					<trkpt lat="49.771800" lon="1.687120">
						<ele>166</ele>
						<time>2024-05-28T10:18:15Z</time>
					</trkpt>
					<trkpt lat="49.771570" lon="1.687210">
						<ele>163</ele>
						<time>2024-05-28T10:18:19Z</time>
					</trkpt>
					<trkpt lat="49.771370" lon="1.687350">
						<ele>161</ele>
						<time>2024-05-28T10:18:23Z</time>
					</trkpt>
					<trkpt lat="49.771220" lon="1.687550">
						<ele>158</ele>
						<time>2024-05-28T10:18:26Z</time>
					</trkpt>
					<trkpt lat="49.771080" lon="1.687780">
						<ele>155</ele>
						<time>2024-05-28T10:18:30Z</time>
					</trkpt>
					<trkpt lat="49.770940" lon="1.688050">
						<ele>151</ele>
						<time>2024-05-28T10:18:34Z</time>
					</trkpt>
					<trkpt lat="49.770830" lon="1.688450">
						<ele>148</ele>
						<time>2024-05-28T10:18:39Z</time>
					</trkpt>
					<trkpt lat="49.770740" lon="1.688670">
						<ele>148</ele>
						<time>2024-05-28T10:18:42Z</time>
					</trkpt>
					<trkpt lat="49.770540" lon="1.689000">
						<ele>149</ele>
						<time>2024-05-28T10:18:47Z</time>
					</trkpt>
					<trkpt lat="49.770440" lon="1.689030">
						<ele>149</ele>
						<time>2024-05-28T10:18:49Z</time>
					</trkpt>
					<trkpt lat="49.770350" lon="1.689210">
						<ele>150</ele>
						<time>2024-05-28T10:18:52Z</time>
					</trkpt>
					<trkpt lat="49.770330" lon="1.691230">
						<ele>152</ele>
						<time>2024-05-28T10:19:15Z</time>
					</trkpt>
					<trkpt lat="49.770350" lon="1.691440">
						<ele>153</ele>
						<time>2024-05-28T10:19:17Z</time>
					</trkpt>
					<trkpt lat="49.770420" lon="1.691720">
						<ele>154</ele>
						<time>2024-05-28T10:19:21Z</time>
					</trkpt>
					<trkpt lat="49.770540" lon="1.691970">
						<ele>155</ele>
						<time>2024-05-28T10:19:24Z</time>
					</trkpt>
					<trkpt lat="49.771020" lon="1.692590">
						<ele>157</ele>
						<time>2024-05-28T10:19:35Z</time>
					</trkpt>
					<trkpt lat="49.771300" lon="1.692880">
						<ele>161</ele>
						<time>2024-05-28T10:19:41Z</time>
					</trkpt>
					<trkpt lat="49.771590" lon="1.693090">
						<ele>164</ele>
						<time>2024-05-28T10:19:47Z</time>
					</trkpt>
					<trkpt lat="49.772310" lon="1.693490">
						<ele>165</ele>
						<time>2024-05-28T10:20:01Z</time>
					</trkpt>
					<trkpt lat="49.772810" lon="1.693820">
						<ele>167</ele>
						<time>2024-05-28T10:20:10Z</time>
					</trkpt>
					<trkpt lat="49.773640" lon="1.694470">
						<ele>171</ele>
						<time>2024-05-28T10:20:27Z</time>
					</trkpt>
					<trkpt lat="49.773890" lon="1.694700">
						<ele>172</ele>
						<time>2024-05-28T10:20:32Z</time>
					</trkpt>
					<trkpt lat="49.774000" lon="1.694830">
						<ele>172</ele>
						<time>2024-05-28T10:20:35Z</time>
					</trkpt>
					<trkpt lat="49.774070" lon="1.694980">
						<ele>174</ele>
						<time>2024-05-28T10:20:37Z</time>
					</trkpt>
					<trkpt lat="49.774110" lon="1.695130">
						<ele>174</ele>
						<time>2024-05-28T10:20:39Z</time>
					</trkpt>
					<trkpt lat="49.774130" lon="1.695300">
						<ele>174</ele>
						<time>2024-05-28T10:20:41Z</time>
					</trkpt>
					<trkpt lat="49.774110" lon="1.695460">
						<ele>174</ele>
						<time>2024-05-28T10:20:42Z</time>
					</trkpt>
					<trkpt lat="49.774080" lon="1.695650">
						<ele>175</ele>
						<time>2024-05-28T10:20:45Z</time>
					</trkpt>
					<trkpt lat="49.773940" lon="1.695920">
						<ele>177</ele>
						<time>2024-05-28T10:20:49Z</time>
					</trkpt>
					<trkpt lat="49.773230" lon="1.696730">
						<ele>184</ele>
						<time>2024-05-28T10:21:04Z</time>
					</trkpt>
					<trkpt lat="49.773040" lon="1.697060">
						<ele>186</ele>
						<time>2024-05-28T10:21:09Z</time>
					</trkpt>
					<trkpt lat="49.772770" lon="1.697760">
						<ele>189</ele>
						<time>2024-05-28T10:21:19Z</time>
					</trkpt>
					<trkpt lat="49.772740" lon="1.697880">
						<ele>190</ele>
						<time>2024-05-28T10:21:20Z</time>
					</trkpt>
					<trkpt lat="49.772680" lon="1.698130">
						<ele>190</ele>
						<time>2024-05-28T10:21:23Z</time>
					</trkpt>
					<trkpt lat="49.772600" lon="1.698690">
						<ele>191</ele>
						<time>2024-05-28T10:21:30Z</time>
					</trkpt>
					<trkpt lat="49.772580" lon="1.699220">
						<ele>191</ele>
						<time>2024-05-28T10:21:36Z</time>
					</trkpt>
					<trkpt lat="49.772590" lon="1.699640">
						<ele>192</ele>
						<time>2024-05-28T10:21:41Z</time>
					</trkpt>
					<trkpt lat="49.772680" lon="1.700120">
						<ele>191</ele>
						<time>2024-05-28T10:21:47Z</time>
					</trkpt>
					<trkpt lat="49.772930" lon="1.701290">
						<ele>193</ele>
						<time>2024-05-28T10:22:01Z</time>
					</trkpt>
					<trkpt lat="49.773350" lon="1.703060">
						<ele>198</ele>
						<time>2024-05-28T10:22:23Z</time>
					</trkpt>
					<trkpt lat="49.773530" lon="1.703610">
						<ele>199</ele>
						<time>2024-05-28T10:22:30Z</time>
					</trkpt>
					<trkpt lat="49.773740" lon="1.704000">
						<ele>199</ele>
						<time>2024-05-28T10:22:35Z</time>
					</trkpt>
					<trkpt lat="49.774470" lon="1.704960">
						<ele>202</ele>
						<time>2024-05-28T10:22:52Z</time>
					</trkpt>
					<trkpt lat="49.774720" lon="1.705200">
						<ele>203</ele>
						<time>2024-05-28T10:22:58Z</time>
					</trkpt>
					<trkpt lat="49.775290" lon="1.705690">
						<ele>204</ele>
						<time>2024-05-28T10:23:09Z</time>
					</trkpt>
					<trkpt lat="49.776090" lon="1.706300">
						<ele>205</ele>
						<time>2024-05-28T10:23:25Z</time>
					</trkpt>
					<trkpt lat="49.776850" lon="1.706940">
						<ele>206</ele>
						<time>2024-05-28T10:23:41Z</time>
					</trkpt>
					<trkpt lat="49.777250" lon="1.707070">
						<ele>208</ele>
						<time>2024-05-28T10:23:48Z</time>
					</trkpt>
					<trkpt lat="49.777960" lon="1.707070">
						<ele>209</ele>
						<time>2024-05-28T10:24:00Z</time>
					</trkpt>
					<trkpt lat="49.778620" lon="1.707000">
						<ele>210</ele>
						<time>2024-05-28T10:24:12Z</time>
					</trkpt>
					<trkpt lat="49.778760" lon="1.707000">
						<ele>209</ele>
						<time>2024-05-28T10:24:15Z</time>
					</trkpt>
					<trkpt lat="49.779260" lon="1.707020">
						<ele>209</ele>
						<time>2024-05-28T10:24:24Z</time>
					</trkpt>
					<trkpt lat="49.780260" lon="1.707140">
						<ele>210</ele>
						<time>2024-05-28T10:24:41Z</time>
					</trkpt>
					<trkpt lat="49.779540" lon="1.708340">
						<ele>209</ele>
						<time>2024-05-28T10:25:00Z</time>
					</trkpt>
					<trkpt lat="49.779140" lon="1.709450">
						<ele>210</ele>
						<time>2024-05-28T10:25:15Z</time>
					</trkpt>
					<trkpt lat="49.778750" lon="1.710320">
						<ele>209</ele>
						<time>2024-05-28T10:25:27Z</time>
					</trkpt>
					<trkpt lat="49.778430" lon="1.710970">
						<ele>208</ele>
						<time>2024-05-28T10:25:36Z</time>
					</trkpt>
					<trkpt lat="49.778250" lon="1.711290">
						<ele>208</ele>
						<time>2024-05-28T10:25:41Z</time>
					</trkpt>
					<trkpt lat="49.777790" lon="1.711750">
						<ele>208</ele>
						<time>2024-05-28T10:25:51Z</time>
					</trkpt>
					<trkpt lat="49.777160" lon="1.712280">
						<ele>209</ele>
						<time>2024-05-28T10:26:04Z</time>
					</trkpt>
					<trkpt lat="49.776680" lon="1.712770">
						<ele>209</ele>
						<time>2024-05-28T10:26:14Z</time>
					</trkpt>
					<trkpt lat="49.776350" lon="1.713110">
						<ele>210</ele>
						<time>2024-05-28T10:26:21Z</time>
					</trkpt>
					<trkpt lat="49.775620" lon="1.713780">
						<ele>208</ele>
						<time>2024-05-28T10:26:36Z</time>
					</trkpt>
					<trkpt lat="49.775190" lon="1.714210">
						<ele>207</ele>
						<time>2024-05-28T10:26:45Z</time>
					</trkpt>
					<trkpt lat="49.774920" lon="1.714680">
						<ele>206</ele>
						<time>2024-05-28T10:26:53Z</time>
					</trkpt>
					<trkpt lat="49.774120" lon="1.717010">
						<ele>205</ele>
						<time>2024-05-28T10:27:23Z</time>
					</trkpt>
					<trkpt lat="49.773940" lon="1.717500">
						<ele>205</ele>
						<time>2024-05-28T10:27:29Z</time>
					</trkpt>
					<trkpt lat="49.772580" lon="1.721200">
						<ele>206</ele>
						<time>2024-05-28T10:28:18Z</time>
					</trkpt>
					<trkpt lat="49.772390" lon="1.721850">
						<ele>205</ele>
						<time>2024-05-28T10:28:26Z</time>
					</trkpt>
					<trkpt lat="49.772250" lon="1.722380">
						<ele>205</ele>
						<time>2024-05-28T10:28:33Z</time>
					</trkpt>
					<trkpt lat="49.772190" lon="1.722680">
						<ele>206</ele>
						<time>2024-05-28T10:28:37Z</time>
					</trkpt>
					<trkpt lat="49.772120" lon="1.723380">
						<ele>207</ele>
						<time>2024-05-28T10:28:45Z</time>
					</trkpt>
					<trkpt lat="49.772090" lon="1.724010">
						<ele>205</ele>
						<time>2024-05-28T10:28:52Z</time>
					</trkpt>
					<trkpt lat="49.771930" lon="1.725490">
						<ele>205</ele>
						<time>2024-05-28T10:29:09Z</time>
					</trkpt>
					<trkpt lat="49.771800" lon="1.726940">
						<ele>207</ele>
						<time>2024-05-28T10:29:26Z</time>
					</trkpt>
					<trkpt lat="49.771790" lon="1.727170">
						<ele>206</ele>
						<time>2024-05-28T10:29:29Z</time>
					</trkpt>
					<trkpt lat="49.771830" lon="1.727900">
						<ele>205</ele>
						<time>2024-05-28T10:29:37Z</time>
					</trkpt>
					<trkpt lat="49.771840" lon="1.728320">
						<ele>205</ele>
						<time>2024-05-28T10:29:42Z</time>
					</trkpt>
					<trkpt lat="49.771820" lon="1.728660">
						<ele>204</ele>
						<time>2024-05-28T10:29:46Z</time>
					</trkpt>
					<trkpt lat="49.771740" lon="1.729090">
						<ele>204</ele>
						<time>2024-05-28T10:29:51Z</time>
					</trkpt>
					<trkpt lat="49.771590" lon="1.729710">
						<ele>205</ele>
						<time>2024-05-28T10:29:59Z</time>
					</trkpt>
					<trkpt lat="49.771290" lon="1.730560">
						<ele>206</ele>
						<time>2024-05-28T10:30:10Z</time>
					</trkpt>
					<trkpt lat="49.771130" lon="1.731150">
						<ele>206</ele>
						<time>2024-05-28T10:30:17Z</time>
					</trkpt>
					<trkpt lat="49.771040" lon="1.731550">
						<ele>206</ele>
						<time>2024-05-28T10:30:22Z</time>
					</trkpt>
					<trkpt lat="49.770750" lon="1.733740">
						<ele>204</ele>
						<time>2024-05-28T10:30:48Z</time>
					</trkpt>
					<trkpt lat="49.770610" lon="1.734440">
						<ele>203</ele>
						<time>2024-05-28T10:30:56Z</time>
					</trkpt>
					<trkpt lat="49.770470" lon="1.734950">
						<ele>203</ele>
						<time>2024-05-28T10:31:03Z</time>
					</trkpt>
					<trkpt lat="49.770300" lon="1.735450">
						<ele>202</ele>
						<time>2024-05-28T10:31:09Z</time>
					</trkpt>
					<trkpt lat="49.769580" lon="1.737140">
						<ele>197</ele>
						<time>2024-05-28T10:31:32Z</time>
					</trkpt>
					<trkpt lat="49.769420" lon="1.737660">
						<ele>196</ele>
						<time>2024-05-28T10:31:39Z</time>
					</trkpt>
					<trkpt lat="49.769170" lon="1.739510">
						<ele>193</ele>
						<time>2024-05-28T10:32:01Z</time>
					</trkpt>
					<trkpt lat="49.768950" lon="1.740260">
						<ele>194</ele>
						<time>2024-05-28T10:32:10Z</time>
					</trkpt>
					<trkpt lat="49.768810" lon="1.740860">
						<ele>196</ele>
						<time>2024-05-28T10:32:17Z</time>
					</trkpt>
					<trkpt lat="49.768770" lon="1.741370">
						<ele>194</ele>
						<time>2024-05-28T10:32:23Z</time>
					</trkpt>
					<trkpt lat="49.768690" lon="1.743000">
						<ele>187</ele>
						<time>2024-05-28T10:32:42Z</time>
					</trkpt>
					<trkpt lat="49.768660" lon="1.743930">
						<ele>183</ele>
						<time>2024-05-28T10:32:53Z</time>
					</trkpt>
					<trkpt lat="49.768670" lon="1.744780">
						<ele>177</ele>
						<time>2024-05-28T10:33:03Z</time>
					</trkpt>
					<trkpt lat="49.768650" lon="1.745270">
						<ele>174</ele>
						<time>2024-05-28T10:33:08Z</time>
					</trkpt>
					<trkpt lat="49.768510" lon="1.746080">
						<ele>166</ele>
						<time>2024-05-28T10:33:18Z</time>
					</trkpt>
					<trkpt lat="49.768440" lon="1.747040">
						<ele>159</ele>
						<time>2024-05-28T10:33:29Z</time>
					</trkpt>
					<trkpt lat="49.768400" lon="1.747400">
						<ele>156</ele>
						<time>2024-05-28T10:33:33Z</time>
					</trkpt>
					<trkpt lat="49.768240" lon="1.748380">
						<ele>153</ele>
						<time>2024-05-28T10:33:45Z</time>
					</trkpt>
					<trkpt lat="49.768060" lon="1.749170">
						<ele>150</ele>
						<time>2024-05-28T10:33:54Z</time>
					</trkpt>
					<trkpt lat="49.768030" lon="1.749410">
						<ele>148</ele>
						<time>2024-05-28T10:33:57Z</time>
					</trkpt>
					<trkpt lat="49.768030" lon="1.749710">
						<ele>146</ele>
						<time>2024-05-28T10:34:01Z</time>
					</trkpt>
					<trkpt lat="49.768080" lon="1.750430">
						<ele>142</ele>
						<time>2024-05-28T10:34:09Z</time>
					</trkpt>
					<trkpt lat="49.768080" lon="1.750690">
						<ele>141</ele>
						<time>2024-05-28T10:34:12Z</time>
					</trkpt>
					<trkpt lat="49.767970" lon="1.751040">
						<ele>138</ele>
						<time>2024-05-28T10:34:16Z</time>
					</trkpt>
					<trkpt lat="49.767950" lon="1.751120">
						<ele>137</ele>
						<time>2024-05-28T10:34:17Z</time>
					</trkpt>
					<trkpt lat="49.767890" lon="1.751870">
						<ele>131</ele>
						<time>2024-05-28T10:34:26Z</time>
					</trkpt>
					<trkpt lat="49.767820" lon="1.751980">
						<ele>130</ele>
						<time>2024-05-28T10:34:28Z</time>
					</trkpt>
					<trkpt lat="49.767640" lon="1.752130">
						<ele>128</ele>
						<time>2024-05-28T10:34:32Z</time>
					</trkpt>
					<trkpt lat="49.767310" lon="1.752360">
						<ele>125</ele>
						<time>2024-05-28T10:34:38Z</time>
					</trkpt>
					<trkpt lat="49.767570" lon="1.752730">
						<ele>125</ele>
						<time>2024-05-28T10:34:44Z</time>
					</trkpt>
					<trkpt lat="49.767450" lon="1.752790">
						<ele>124</ele>
						<time>2024-05-28T10:34:46Z</time>
					</trkpt>
					<trkpt lat="49.767180" lon="1.753110">
						<ele>123</ele>
						<time>2024-05-28T10:34:53Z</time>
					</trkpt>
					<trkpt lat="49.767090" lon="1.753210">
						<ele>122</ele>
						<time>2024-05-28T10:34:55Z</time>
					</trkpt>
					<trkpt lat="49.766570" lon="1.753840">
						<ele>122</ele>
						<time>2024-05-28T10:35:06Z</time>
					</trkpt>
					<trkpt lat="49.766090" lon="1.754460">
						<ele>122</ele>
						<time>2024-05-28T10:35:17Z</time>
					</trkpt>
					<trkpt lat="49.766020" lon="1.754540">
						<ele>122</ele>
						<time>2024-05-28T10:35:19Z</time>
					</trkpt>
					<trkpt lat="49.765590" lon="1.755050">
						<ele>121</ele>
						<time>2024-05-28T10:35:29Z</time>
					</trkpt>
					<trkpt lat="49.765400" lon="1.755170">
						<ele>121</ele>
						<time>2024-05-28T10:35:32Z</time>
					</trkpt>
					<trkpt lat="49.765260" lon="1.755200">
						<ele>121</ele>
						<time>2024-05-28T10:35:35Z</time>
					</trkpt>
					<trkpt lat="49.765210" lon="1.755050">
						<ele>121</ele>
						<time>2024-05-28T10:35:37Z</time>
					</trkpt>
					<trkpt lat="49.765150" lon="1.755090">
						<ele>121</ele>
						<time>2024-05-28T10:35:38Z</time>
					</trkpt>
					<trkpt lat="49.765010" lon="1.755070">
						<ele>121</ele>
						<time>2024-05-28T10:35:40Z</time>
					</trkpt>
					<trkpt lat="49.762180" lon="1.753260">
						<ele>124</ele>
						<time>2024-05-28T10:36:35Z</time>
					</trkpt>
					<trkpt lat="49.761930" lon="1.753160">
						<ele>124</ele>
						<time>2024-05-28T10:36:39Z</time>
					</trkpt>
					<trkpt lat="49.761660" lon="1.753120">
						<ele>124</ele>
						<time>2024-05-28T10:36:44Z</time>
					</trkpt>
					<trkpt lat="49.761450" lon="1.753150">
						<ele>124</ele>
						<time>2024-05-28T10:36:48Z</time>
					</trkpt>
					<trkpt lat="49.758700" lon="1.753860">
						<ele>125</ele>
						<time>2024-05-28T10:37:38Z</time>
					</trkpt>
					<trkpt lat="49.758080" lon="1.753990">
						<ele>126</ele>
						<time>2024-05-28T10:37:49Z</time>
					</trkpt>
					<trkpt lat="49.757910" lon="1.754060">
						<ele>127</ele>
						<time>2024-05-28T10:37:52Z</time>
					</trkpt>
					<trkpt lat="49.757770" lon="1.754210">
						<ele>128</ele>
						<time>2024-05-28T10:37:55Z</time>
					</trkpt>
					<trkpt lat="49.757650" lon="1.754390">
						<ele>128</ele>
						<time>2024-05-28T10:37:58Z</time>
					</trkpt>
					<trkpt lat="49.757150" lon="1.755180">
						<ele>127</ele>
						<time>2024-05-28T10:38:11Z</time>
					</trkpt>
					<trkpt lat="49.756890" lon="1.755380">
						<ele>128</ele>
						<time>2024-05-28T10:38:16Z</time>
					</trkpt>
					<trkpt lat="49.756850" lon="1.755590">
						<ele>128</ele>
						<time>2024-05-28T10:38:18Z</time>
					</trkpt>
					<trkpt lat="49.756140" lon="1.756510">
						<ele>129</ele>
						<time>2024-05-28T10:38:35Z</time>
					</trkpt>
					<trkpt lat="49.755630" lon="1.757510">
						<ele>128</ele>
						<time>2024-05-28T10:38:49Z</time>
					</trkpt>
					<trkpt lat="49.755460" lon="1.757950">
						<ele>129</ele>
						<time>2024-05-28T10:38:55Z</time>
					</trkpt>
					<trkpt lat="49.755090" lon="1.758710">
						<ele>131</ele>
						<time>2024-05-28T10:39:06Z</time>
					</trkpt>
					<trkpt lat="49.754750" lon="1.759200">
						<ele>131</ele>
						<time>2024-05-28T10:39:14Z</time>
					</trkpt>
					<trkpt lat="49.752270" lon="1.762080">
						<ele>135</ele>
						<time>2024-05-28T10:40:10Z</time>
					</trkpt>
					<trkpt lat="49.752130" lon="1.762240">
						<ele>135</ele>
						<time>2024-05-28T10:40:13Z</time>
					</trkpt>
					<trkpt lat="49.751850" lon="1.762730">
						<ele>135</ele>
						<time>2024-05-28T10:40:20Z</time>
					</trkpt>
					<trkpt lat="49.750770" lon="1.764980">
						<ele>135</ele>
						<time>2024-05-28T10:40:52Z</time>
					</trkpt>
					<trkpt lat="49.749240" lon="1.768010">
						<ele>138</ele>
						<time>2024-05-28T10:41:37Z</time>
					</trkpt>
					<trkpt lat="49.747980" lon="1.770150">
						<ele>139</ele>
						<time>2024-05-28T10:42:10Z</time>
					</trkpt>
					<trkpt lat="49.747410" lon="1.770930">
						<ele>140</ele>
						<time>2024-05-28T10:42:24Z</time>
					</trkpt>
					<trkpt lat="49.747370" lon="1.770990">
						<ele>140</ele>
						<time>2024-05-28T10:42:25Z</time>
					</trkpt>
					<trkpt lat="49.746660" lon="1.771910">
						<ele>142</ele>
						<time>2024-05-28T10:42:41Z</time>
					</trkpt>
					<trkpt lat="49.745310" lon="1.773560">
						<ele>143</ele>
						<time>2024-05-28T10:43:12Z</time>
					</trkpt>
					<trkpt lat="49.744520" lon="1.774740">
						<ele>145</ele>
						<time>2024-05-28T10:43:31Z</time>
					</trkpt>
					<trkpt lat="49.744450" lon="1.774950">
						<ele>145</ele>
						<time>2024-05-28T10:43:34Z</time>
					</trkpt>
					<trkpt lat="49.744330" lon="1.775610">
						<ele>144</ele>
						<time>2024-05-28T10:43:42Z</time>
					</trkpt>
					<trkpt lat="49.743820" lon="1.776660">
						<ele>145</ele>
						<time>2024-05-28T10:43:57Z</time>
					</trkpt>
					<trkpt lat="49.743510" lon="1.777160">
						<ele>146</ele>
						<time>2024-05-28T10:44:05Z</time>
					</trkpt>
					<trkpt lat="49.743270" lon="1.777500">
						<ele>146</ele>
						<time>2024-05-28T10:44:11Z</time>
					</trkpt>
					<trkpt lat="49.742960" lon="1.777730">
						<ele>146</ele>
						<time>2024-05-28T10:44:17Z</time>
					</trkpt>
					<trkpt lat="49.742020" lon="1.778300">
						<ele>147</ele>
						<time>2024-05-28T10:44:35Z</time>
					</trkpt>
					<trkpt lat="49.741760" lon="1.778540">
						<ele>149</ele>
						<time>2024-05-28T10:44:40Z</time>
					</trkpt>
					<trkpt lat="49.739710" lon="1.780900">
						<ele>150</ele>
						<time>2024-05-28T10:45:26Z</time>
					</trkpt>
					<trkpt lat="49.737390" lon="1.783600">
						<ele>155</ele>
						<time>2024-05-28T10:46:17Z</time>
					</trkpt>
					<trkpt lat="49.737120" lon="1.783890">
						<ele>157</ele>
						<time>2024-05-28T10:46:23Z</time>
					</trkpt>
					<trkpt lat="49.736960" lon="1.784000">
						<ele>157</ele>
						<time>2024-05-28T10:46:26Z</time>
					</trkpt>
					<trkpt lat="49.736670" lon="1.784130">
						<ele>158</ele>
						<time>2024-05-28T10:46:31Z</time>
					</trkpt>
					<trkpt lat="49.736250" lon="1.784240">
						<ele>158</ele>
						<time>2024-05-28T10:46:39Z</time>
					</trkpt>
					<trkpt lat="49.735840" lon="1.784300">
						<ele>157</ele>
						<time>2024-05-28T10:46:46Z</time>
					</trkpt>
					<trkpt lat="49.735540" lon="1.784210">
						<ele>157</ele>
						<time>2024-05-28T10:46:52Z</time>
					</trkpt>
					<trkpt lat="49.735220" lon="1.784060">
						<ele>158</ele>
						<time>2024-05-28T10:46:58Z</time>
					</trkpt>
					<trkpt lat="49.734970" lon="1.783870">
						<ele>159</ele>
						<time>2024-05-28T10:47:03Z</time>
					</trkpt>
					<trkpt lat="49.734620" lon="1.783460">
						<ele>160</ele>
						<time>2024-05-28T10:47:11Z</time>
					</trkpt>
					<trkpt lat="49.733100" lon="1.781670">
						<ele>166</ele>
						<time>2024-05-28T10:47:45Z</time>
					</trkpt>
					<trkpt lat="49.732950" lon="1.781530">
						<ele>166</ele>
						<time>2024-05-28T10:47:48Z</time>
					</trkpt>
					<trkpt lat="49.732220" lon="1.781020">
						<ele>167</ele>
						<time>2024-05-28T10:48:02Z</time>
					</trkpt>
					<trkpt lat="49.731810" lon="1.780790">
						<ele>167</ele>
						<time>2024-05-28T10:48:10Z</time>
					</trkpt>
					<trkpt lat="49.730970" lon="1.780440">
						<ele>167</ele>
						<time>2024-05-28T10:48:25Z</time>
					</trkpt>
					<trkpt lat="49.730130" lon="1.780150">
						<ele>169</ele>
						<time>2024-05-28T10:48:40Z</time>
					</trkpt>
					<trkpt lat="49.729950" lon="1.780210">
						<ele>169</ele>
						<time>2024-05-28T10:48:44Z</time>
					</trkpt>
					<trkpt lat="49.729340" lon="1.780590">
						<ele>167</ele>
						<time>2024-05-28T10:48:55Z</time>
					</trkpt>
					<trkpt lat="49.729140" lon="1.780620">
						<ele>167</ele>
						<time>2024-05-28T10:48:59Z</time>
					</trkpt>
					<trkpt lat="49.729000" lon="1.780550">
						<ele>167</ele>
						<time>2024-05-28T10:49:02Z</time>
					</trkpt>
					<trkpt lat="49.728590" lon="1.780110">
						<ele>166</ele>
						<time>2024-05-28T10:49:11Z</time>
					</trkpt>
					<trkpt lat="49.728380" lon="1.779930">
						<ele>166</ele>
						<time>2024-05-28T10:49:15Z</time>
					</trkpt>
					<trkpt lat="49.727910" lon="1.779610">
						<ele>167</ele>
						<time>2024-05-28T10:49:24Z</time>
					</trkpt>
					<trkpt lat="49.727800" lon="1.779600">
						<ele>167</ele>
						<time>2024-05-28T10:49:26Z</time>
					</trkpt>
					<trkpt lat="49.727690" lon="1.779610">
						<ele>167</ele>
						<time>2024-05-28T10:49:28Z</time>
					</trkpt>
					<trkpt lat="49.727460" lon="1.779730">
						<ele>168</ele>
						<time>2024-05-28T10:49:32Z</time>
					</trkpt>
					<trkpt lat="49.726620" lon="1.779740">
						<ele>171</ele>
						<time>2024-05-28T10:49:47Z</time>
					</trkpt>
					<trkpt lat="49.726260" lon="1.779800">
						<ele>172</ele>
						<time>2024-05-28T10:49:54Z</time>
					</trkpt>
					<trkpt lat="49.726000" lon="1.779900">
						<ele>172</ele>
						<time>2024-05-28T10:49:58Z</time>
					</trkpt>
					<trkpt lat="49.725790" lon="1.780010">
						<ele>173</ele>
						<time>2024-05-28T10:50:02Z</time>
					</trkpt>
					<trkpt lat="49.725600" lon="1.780160">
						<ele>174</ele>
						<time>2024-05-28T10:50:06Z</time>
					</trkpt>
					<trkpt lat="49.725200" lon="1.780520">
						<ele>177</ele>
						<time>2024-05-28T10:50:14Z</time>
					</trkpt>
					<trkpt lat="49.724790" lon="1.780940">
						<ele>181</ele>
						<time>2024-05-28T10:50:23Z</time>
					</trkpt>
					<trkpt lat="49.724510" lon="1.781170">
						<ele>184</ele>
						<time>2024-05-28T10:50:29Z</time>
					</trkpt>
					<trkpt lat="49.724240" lon="1.781350">
						<ele>187</ele>
						<time>2024-05-28T10:50:34Z</time>
					</trkpt>
					<trkpt lat="49.722200" lon="1.782130">
						<ele>196</ele>
						<time>2024-05-28T10:51:11Z</time>
					</trkpt>
					<trkpt lat="49.721870" lon="1.782390">
						<ele>197</ele>
						<time>2024-05-28T10:51:18Z</time>
					</trkpt>
					<trkpt lat="49.721680" lon="1.782650">
						<ele>199</ele>
						<time>2024-05-28T10:51:22Z</time>
					</trkpt>
					<trkpt lat="49.721540" lon="1.783020">
						<ele>201</ele>
						<time>2024-05-28T10:51:27Z</time>
					</trkpt>
					<trkpt lat="49.721480" lon="1.783400">
						<ele>204</ele>
						<time>2024-05-28T10:51:32Z</time>
					</trkpt>
					<trkpt lat="49.721460" lon="1.783920">
						<ele>206</ele>
						<time>2024-05-28T10:51:38Z</time>
					</trkpt>
					<trkpt lat="49.721460" lon="1.784490">
						<ele>207</ele>
						<time>2024-05-28T10:51:44Z</time>
					</trkpt>
					<trkpt lat="49.721510" lon="1.784790">
						<ele>207</ele>
						<time>2024-05-28T10:51:48Z</time>
					</trkpt>
					<trkpt lat="49.721890" lon="1.785760">
						<ele>205</ele>
						<time>2024-05-28T10:52:01Z</time>
					</trkpt>
					<trkpt lat="49.721950" lon="1.786080">
						<ele>206</ele>
						<time>2024-05-28T10:52:05Z</time>
					</trkpt>
					<trkpt lat="49.721930" lon="1.786360">
						<ele>207</ele>
						<time>2024-05-28T10:52:08Z</time>
					</trkpt>
					<trkpt lat="49.721850" lon="1.786660">
						<ele>207</ele>
						<time>2024-05-28T10:52:12Z</time>
					</trkpt>
					<trkpt lat="49.720000" lon="1.789000">
						<ele>209</ele>
						<time>2024-05-28T10:52:54Z</time>
					</trkpt>
					<trkpt lat="49.718930" lon="1.790050">
						<ele>210</ele>
						<time>2024-05-28T10:53:17Z</time>
					</trkpt>
					<trkpt lat="49.717000" lon="1.791910">
						<ele>211</ele>
						<time>2024-05-28T10:53:57Z</time>
					</trkpt>
					<trkpt lat="49.716650" lon="1.792170">
						<ele>211</ele>
						<time>2024-05-28T10:54:04Z</time>
					</trkpt>
					<trkpt lat="49.716110" lon="1.792530">
						<ele>210</ele>
						<time>2024-05-28T10:54:15Z</time>
					</trkpt>
					<trkpt lat="49.715220" lon="1.793040">
						<ele>210</ele>
						<time>2024-05-28T10:54:32Z</time>
					</trkpt>
					<trkpt lat="49.714930" lon="1.793230">
						<ele>210</ele>
						<time>2024-05-28T10:54:37Z</time>
					</trkpt>
					<trkpt lat="49.712110" lon="1.795270">
						<ele>210</ele>
						<time>2024-05-28T10:55:33Z</time>
					</trkpt>
					<trkpt lat="49.711000" lon="1.796150">
						<ele>212</ele>
						<time>2024-05-28T10:55:55Z</time>
					</trkpt>
					<trkpt lat="49.710800" lon="1.796200">
						<ele>212</ele>
						<time>2024-05-28T10:55:58Z</time>
					</trkpt>
					<trkpt lat="49.710570" lon="1.796130">
						<ele>213</ele>
						<time>2024-05-28T10:56:03Z</time>
					</trkpt>
					<trkpt lat="49.710090" lon="1.795790">
						<ele>213</ele>
						<time>2024-05-28T10:56:12Z</time>
					</trkpt>
					<trkpt lat="49.710030" lon="1.795710">
						<ele>213</ele>
						<time>2024-05-28T10:56:13Z</time>
					</trkpt>
					<trkpt lat="49.709940" lon="1.795670">
						<ele>213</ele>
						<time>2024-05-28T10:56:15Z</time>
					</trkpt>
					<trkpt lat="49.709780" lon="1.795700">
						<ele>213</ele>
						<time>2024-05-28T10:56:18Z</time>
					</trkpt>
					<trkpt lat="49.709810" lon="1.795880">
						<ele>213</ele>
						<time>2024-05-28T10:56:20Z</time>
					</trkpt>
					<trkpt lat="49.709820" lon="1.795950">
						<ele>213</ele>
						<time>2024-05-28T10:56:21Z</time>
					</trkpt>
					<trkpt lat="49.709770" lon="1.796150">
						<ele>213</ele>
						<time>2024-05-28T10:56:23Z</time>
					</trkpt>
					<trkpt lat="49.709470" lon="1.797160">
						<ele>213</ele>
						<time>2024-05-28T10:56:36Z</time>
					</trkpt>
					<trkpt lat="49.709430" lon="1.797370">
						<ele>214</ele>
						<time>2024-05-28T10:56:39Z</time>
					</trkpt>
					<trkpt lat="49.709430" lon="1.797630">
						<ele>214</ele>
						<time>2024-05-28T10:56:42Z</time>
					</trkpt>
					<trkpt lat="49.709280" lon="1.797770">
						<ele>214</ele>
						<time>2024-05-28T10:56:45Z</time>
					</trkpt>
					<trkpt lat="49.709070" lon="1.798030">
						<ele>214</ele>
						<time>2024-05-28T10:56:50Z</time>
					</trkpt>
					<trkpt lat="49.705620" lon="1.801040">
						<ele>212</ele>
						<time>2024-05-28T10:58:00Z</time>
					</trkpt>
					<trkpt lat="49.703710" lon="1.802660">
						<ele>214</ele>
						<time>2024-05-28T10:58:39Z</time>
					</trkpt>
					<trkpt lat="49.702170" lon="1.803780">
						<ele>213</ele>
						<time>2024-05-28T10:59:09Z</time>
					</trkpt>
					<trkpt lat="49.701910" lon="1.804000">
						<ele>212</ele>
						<time>2024-05-28T10:59:14Z</time>
					</trkpt>
					<trkpt lat="49.700950" lon="1.804940">
						<ele>211</ele>
						<time>2024-05-28T10:59:35Z</time>
					</trkpt>
					<trkpt lat="49.699880" lon="1.805900">
						<ele>213</ele>
						<time>2024-05-28T10:59:57Z</time>
					</trkpt>
					<trkpt lat="49.699600" lon="1.806100">
						<ele>214</ele>
						<time>2024-05-28T11:00:02Z</time>
					</trkpt>
					<trkpt lat="49.699330" lon="1.806260">
						<ele>214</ele>
						<time>2024-05-28T11:00:07Z</time>
					</trkpt>
					<trkpt lat="49.699080" lon="1.806340">
						<ele>214</ele>
						<time>2024-05-28T11:00:12Z</time>
					</trkpt>
					<trkpt lat="49.698810" lon="1.806370">
						<ele>214</ele>
						<time>2024-05-28T11:00:17Z</time>
					</trkpt>
					<trkpt lat="49.695960" lon="1.806060">
						<ele>214</ele>
						<time>2024-05-28T11:01:07Z</time>
					</trkpt>
					<trkpt lat="49.692720" lon="1.805840">
						<ele>214</ele>
						<time>2024-05-28T11:02:05Z</time>
					</trkpt>
					<trkpt lat="49.692200" lon="1.805850">
						<ele>215</ele>
						<time>2024-05-28T11:02:14Z</time>
					</trkpt>
					<trkpt lat="49.691040" lon="1.806050">
						<ele>217</ele>
						<time>2024-05-28T11:02:35Z</time>
					</trkpt>
					<trkpt lat="49.690550" lon="1.806080">
						<ele>217</ele>
						<time>2024-05-28T11:02:44Z</time>
					</trkpt>
					<trkpt lat="49.690290" lon="1.806150">
						<ele>216</ele>
						<time>2024-05-28T11:02:49Z</time>
					</trkpt>
					<trkpt lat="49.690050" lon="1.806310">
						<ele>216</ele>
						<time>2024-05-28T11:02:53Z</time>
					</trkpt>
					<trkpt lat="49.689720" lon="1.806570">
						<ele>216</ele>
						<time>2024-05-28T11:03:00Z</time>
					</trkpt>
					<trkpt lat="49.689460" lon="1.806860">
						<ele>215</ele>
						<time>2024-05-28T11:03:05Z</time>
					</trkpt>
					<trkpt lat="49.688090" lon="1.808920">
						<ele>214</ele>
						<time>2024-05-28T11:03:39Z</time>
					</trkpt>
					<trkpt lat="49.687820" lon="1.809130">
						<ele>215</ele>
						<time>2024-05-28T11:03:45Z</time>
					</trkpt>
					<trkpt lat="49.687350" lon="1.809280">
						<ele>216</ele>
						<time>2024-05-28T11:03:53Z</time>
					</trkpt>
					<trkpt lat="49.686490" lon="1.809380">
						<ele>216</ele>
						<time>2024-05-28T11:04:09Z</time>
					</trkpt>
					<trkpt lat="49.686320" lon="1.809470">
						<ele>216</ele>
						<time>2024-05-28T11:04:12Z</time>
					</trkpt>
					<trkpt lat="49.686100" lon="1.809630">
						<ele>216</ele>
						<time>2024-05-28T11:04:16Z</time>
					</trkpt>
					<trkpt lat="49.684430" lon="1.810900">
						<ele>214</ele>
						<time>2024-05-28T11:04:49Z</time>
					</trkpt>
					<trkpt lat="49.682550" lon="1.811830">
						<ele>216</ele>
						<time>2024-05-28T11:05:25Z</time>
					</trkpt>
					<trkpt lat="49.680630" lon="1.813170">
						<ele>217</ele>
						<time>2024-05-28T11:06:02Z</time>
					</trkpt>
					<trkpt lat="49.680190" lon="1.813400">
						<ele>217</ele>
						<time>2024-05-28T11:06:10Z</time>
					</trkpt>
					<trkpt lat="49.679690" lon="1.813550">
						<ele>217</ele>
						<time>2024-05-28T11:06:19Z</time>
					</trkpt>
					<trkpt lat="49.679090" lon="1.813680">
						<ele>217</ele>
						<time>2024-05-28T11:06:30Z</time>
					</trkpt>
					<trkpt lat="49.678610" lon="1.813920">
						<ele>216</ele>
						<time>2024-05-28T11:06:39Z</time>
					</trkpt>
					<trkpt lat="49.678160" lon="1.814240">
						<ele>215</ele>
						<time>2024-05-28T11:06:48Z</time>
					</trkpt>
					<trkpt lat="49.677830" lon="1.814390">
						<ele>215</ele>
						<time>2024-05-28T11:06:54Z</time>
					</trkpt>
					<trkpt lat="49.676280" lon="1.814780">
						<ele>217</ele>
						<time>2024-05-28T11:07:22Z</time>
					</trkpt>
					<trkpt lat="49.675880" lon="1.814920">
						<ele>217</ele>
						<time>2024-05-28T11:07:29Z</time>
					</trkpt>
					<trkpt lat="49.675630" lon="1.815050">
						<ele>216</ele>
						<time>2024-05-28T11:07:34Z</time>
					</trkpt>
					<trkpt lat="49.675170" lon="1.815410">
						<ele>215</ele>
						<time>2024-05-28T11:07:43Z</time>
					</trkpt>
					<trkpt lat="49.673920" lon="1.816770">
						<ele>214</ele>
						<time>2024-05-28T11:08:10Z</time>
					</trkpt>
					<trkpt lat="49.672940" lon="1.817750">
						<ele>214</ele>
						<time>2024-05-28T11:08:31Z</time>
					</trkpt>
					<trkpt lat="49.670540" lon="1.820330">
						<ele>215</ele>
						<time>2024-05-28T11:09:23Z</time>
					</trkpt>
					<trkpt lat="49.669760" lon="1.821130">
						<ele>214</ele>
						<time>2024-05-28T11:09:40Z</time>
					</trkpt>
					<trkpt lat="49.669110" lon="1.821760">
						<ele>214</ele>
						<time>2024-05-28T11:09:53Z</time>
					</trkpt>
					<trkpt lat="49.668170" lon="1.822520">
						<ele>215</ele>
						<time>2024-05-28T11:10:12Z</time>
					</trkpt>
					<trkpt lat="49.667710" lon="1.822850">
						<ele>214</ele>
						<time>2024-05-28T11:10:21Z</time>
					</trkpt>
					<trkpt lat="49.667020" lon="1.823300">
						<ele>214</ele>
						<time>2024-05-28T11:10:35Z</time>
					</trkpt>
					<trkpt lat="49.665930" lon="1.823610">
						<ele>214</ele>
						<time>2024-05-28T11:10:54Z</time>
					</trkpt>
					<trkpt lat="49.663790" lon="1.824120">
						<ele>210</ele>
						<time>2024-05-28T11:11:33Z</time>
					</trkpt>
					<trkpt lat="49.663430" lon="1.824460">
						<ele>209</ele>
						<time>2024-05-28T11:11:40Z</time>
					</trkpt>
					<trkpt lat="49.661990" lon="1.826290">
						<ele>206</ele>
						<time>2024-05-28T11:12:14Z</time>
					</trkpt>
					<trkpt lat="49.661650" lon="1.826660">
						<ele>207</ele>
						<time>2024-05-28T11:12:21Z</time>
					</trkpt>
					<trkpt lat="49.660980" lon="1.827080">
						<ele>206</ele>
						<time>2024-05-28T11:12:34Z</time>
					</trkpt>
					<trkpt lat="49.660530" lon="1.827410">
						<ele>206</ele>
						<time>2024-05-28T11:12:43Z</time>
					</trkpt>
					<trkpt lat="49.660030" lon="1.827860">
						<ele>206</ele>
						<time>2024-05-28T11:12:53Z</time>
					</trkpt>
					<trkpt lat="49.659750" lon="1.828260">
						<ele>206</ele>
						<time>2024-05-28T11:13:00Z</time>
					</trkpt>
					<trkpt lat="49.658870" lon="1.829940">
						<ele>205</ele>
						<time>2024-05-28T11:13:25Z</time>
					</trkpt>
					<trkpt lat="49.658190" lon="1.831380">
						<ele>204</ele>
						<time>2024-05-28T11:13:45Z</time>
					</trkpt>
					<trkpt lat="49.658070" lon="1.831570">
						<ele>203</ele>
						<time>2024-05-28T11:13:48Z</time>
					</trkpt>
					<trkpt lat="49.657970" lon="1.831540">
						<ele>203</ele>
						<time>2024-05-28T11:13:50Z</time>
					</trkpt>
					<trkpt lat="49.656260" lon="1.829860">
						<ele>201</ele>
						<time>2024-05-28T11:14:26Z</time>
					</trkpt>
					<trkpt lat="49.655660" lon="1.829130">
						<ele>202</ele>
						<time>2024-05-28T11:14:40Z</time>
					</trkpt>
					<trkpt lat="49.655450" lon="1.828830">
						<ele>203</ele>
						<time>2024-05-28T11:14:45Z</time>
					</trkpt>
					<trkpt lat="49.655350" lon="1.829080">
						<ele>203</ele>
						<time>2024-05-28T11:14:48Z</time>
					</trkpt>
					<trkpt lat="49.655270" lon="1.829440">
						<ele>202</ele>
						<time>2024-05-28T11:14:53Z</time>
					</trkpt>
					<trkpt lat="49.654940" lon="1.831550">
						<ele>200</ele>
						<time>2024-05-28T11:15:18Z</time>
					</trkpt>
					<trkpt lat="49.654870" lon="1.831890">
						<ele>201</ele>
						<time>2024-05-28T11:15:22Z</time>
					</trkpt>
					<trkpt lat="49.654820" lon="1.831990">
						<ele>201</ele>
						<time>2024-05-28T11:15:23Z</time>
					</trkpt>
					<trkpt lat="49.654780" lon="1.832060">
						<ele>201</ele>
						<time>2024-05-28T11:15:24Z</time>
					</trkpt>
					<trkpt lat="49.654680" lon="1.832140">
						<ele>201</ele>
						<time>2024-05-28T11:15:26Z</time>
					</trkpt>
					<trkpt lat="49.654540" lon="1.832140">
						<ele>202</ele>
						<time>2024-05-28T11:15:29Z</time>
					</trkpt>
					<trkpt lat="49.654110" lon="1.832010">
						<ele>203</ele>
						<time>2024-05-28T11:15:37Z</time>
					</trkpt>
					<trkpt lat="49.653910" lon="1.831970">
						<ele>203</ele>
						<time>2024-05-28T11:15:40Z</time>
					</trkpt>
					<trkpt lat="49.653890" lon="1.831870">
						<ele>203</ele>
						<time>2024-05-28T11:15:41Z</time>
					</trkpt>
					<trkpt lat="49.653850" lon="1.831840">
						<ele>203</ele>
						<time>2024-05-28T11:15:42Z</time>
					</trkpt>
					<trkpt lat="49.653800" lon="1.831860">
						<ele>203</ele>
						<time>2024-05-28T11:15:43Z</time>
					</trkpt>
					<trkpt lat="49.653770" lon="1.831910">
						<ele>203</ele>
						<time>2024-05-28T11:15:44Z</time>
					</trkpt>
					<trkpt lat="49.653770" lon="1.831980">
						<ele>203</ele>
						<time>2024-05-28T11:15:45Z</time>
					</trkpt>
					<trkpt lat="49.653820" lon="1.832050">
						<ele>203</ele>
						<time>2024-05-28T11:15:46Z</time>
					</trkpt>
					<trkpt lat="49.653690" lon="1.832140">
						<ele>204</ele>
						<time>2024-05-28T11:15:48Z</time>
					</trkpt>
					<trkpt lat="49.652450" lon="1.834290">
						<ele>203</ele>
						<time>2024-05-28T11:16:22Z</time>
					</trkpt>
					<trkpt lat="49.650770" lon="1.836930">
						<ele>201</ele>
						<time>2024-05-28T11:17:04Z</time>
					</trkpt>
					<trkpt lat="49.650490" lon="1.837670">
						<ele>201</ele>
						<time>2024-05-28T11:17:14Z</time>
					</trkpt>
					<trkpt lat="49.650220" lon="1.838290">
						<ele>201</ele>
						<time>2024-05-28T11:17:23Z</time>
					</trkpt>
					<trkpt lat="49.650010" lon="1.838750">
						<ele>200</ele>
						<time>2024-05-28T11:17:29Z</time>
					</trkpt>
					<trkpt lat="49.649420" lon="1.840660">
						<ele>200</ele>
						<time>2024-05-28T11:17:54Z</time>
					</trkpt>
					<trkpt lat="49.649220" lon="1.841120">
						<ele>200</ele>
						<time>2024-05-28T11:18:00Z</time>
					</trkpt>
					<trkpt lat="49.648120" lon="1.843010">
						<ele>199</ele>
						<time>2024-05-28T11:18:29Z</time>
					</trkpt>
					<trkpt lat="49.647820" lon="1.843590">
						<ele>200</ele>
						<time>2024-05-28T11:18:38Z</time>
					</trkpt>
					<trkpt lat="49.647710" lon="1.843870">
						<ele>200</ele>
						<time>2024-05-28T11:18:41Z</time>
					</trkpt>
					<trkpt lat="49.647430" lon="1.844430">
						<ele>200</ele>
						<time>2024-05-28T11:18:50Z</time>
					</trkpt>
					<trkpt lat="49.647170" lon="1.844870">
						<ele>199</ele>
						<time>2024-05-28T11:18:57Z</time>
					</trkpt>
					<trkpt lat="49.646620" lon="1.846000">
						<ele>197</ele>
						<time>2024-05-28T11:19:13Z</time>
					</trkpt>
					<trkpt lat="49.646380" lon="1.845760">
						<ele>198</ele>
						<time>2024-05-28T11:19:18Z</time>
					</trkpt>
					<trkpt lat="49.645940" lon="1.845380">
						<ele>198</ele>
						<time>2024-05-28T11:19:27Z</time>
					</trkpt>
					<trkpt lat="49.645810" lon="1.845290">
						<ele>198</ele>
						<time>2024-05-28T11:19:29Z</time>
					</trkpt>
					<trkpt lat="49.645330" lon="1.845150">
						<ele>198</ele>
						<time>2024-05-28T11:19:38Z</time>
					</trkpt>
					<trkpt lat="49.644770" lon="1.844890">
						<ele>197</ele>
						<time>2024-05-28T11:19:48Z</time>
					</trkpt>
					<trkpt lat="49.644480" lon="1.844860">
						<ele>197</ele>
						<time>2024-05-28T11:19:54Z</time>
					</trkpt>
					<trkpt lat="49.644270" lon="1.844960">
						<ele>197</ele>
						<time>2024-05-28T11:19:58Z</time>
					</trkpt>
					<trkpt lat="49.643670" lon="1.845690">
						<ele>198</ele>
						<time>2024-05-28T11:20:11Z</time>
					</trkpt>
					<trkpt lat="49.643570" lon="1.845720">
						<ele>198</ele>
						<time>2024-05-28T11:20:13Z</time>
					</trkpt>
					<trkpt lat="49.643460" lon="1.845720">
						<ele>198</ele>
						<time>2024-05-28T11:20:15Z</time>
					</trkpt>
					<trkpt lat="49.642830" lon="1.845610">
						<ele>197</ele>
						<time>2024-05-28T11:20:26Z</time>
					</trkpt>
					<trkpt lat="49.642470" lon="1.845630">
						<ele>196</ele>
						<time>2024-05-28T11:20:33Z</time>
					</trkpt>
					<trkpt lat="49.641900" lon="1.845730">
						<ele>196</ele>
						<time>2024-05-28T11:20:43Z</time>
					</trkpt>
					<trkpt lat="49.640050" lon="1.846330">
						<ele>198</ele>
						<time>2024-05-28T11:21:16Z</time>
					</trkpt>
					<trkpt lat="49.639530" lon="1.846860">
						<ele>198</ele>
						<time>2024-05-28T11:21:28Z</time>
					</trkpt>
					<trkpt lat="49.639040" lon="1.847490">
						<ele>198</ele>
						<time>2024-05-28T11:21:39Z</time>
					</trkpt>
					<trkpt lat="49.638650" lon="1.848090">
						<ele>196</ele>
						<time>2024-05-28T11:21:49Z</time>
					</trkpt>
					<trkpt lat="49.638570" lon="1.848250">
						<ele>196</ele>
						<time>2024-05-28T11:21:51Z</time>
					</trkpt>
					<trkpt lat="49.638360" lon="1.848510">
						<ele>196</ele>
						<time>2024-05-28T11:21:56Z</time>
					</trkpt>
					<trkpt lat="49.635780" lon="1.851020">
						<ele>190</ele>
						<time>2024-05-28T11:22:50Z</time>
					</trkpt>
					<trkpt lat="49.634410" lon="1.852100">
						<ele>191</ele>
						<time>2024-05-28T11:23:17Z</time>
					</trkpt>
					<trkpt lat="49.633240" lon="1.853170">
						<ele>191</ele>
						<time>2024-05-28T11:23:42Z</time>
					</trkpt>
					<trkpt lat="49.632360" lon="1.854030">
						<ele>190</ele>
						<time>2024-05-28T11:24:00Z</time>
					</trkpt>
					<trkpt lat="49.631720" lon="1.854790">
						<ele>189</ele>
						<time>2024-05-28T11:24:15Z</time>
					</trkpt>
					<trkpt lat="49.631190" lon="1.855340">
						<ele>189</ele>
						<time>2024-05-28T11:24:26Z</time>
					</trkpt>
					<trkpt lat="49.630720" lon="1.856180">
						<ele>188</ele>
						<time>2024-05-28T11:24:39Z</time>
					</trkpt>
					<trkpt lat="49.630490" lon="1.856440">
						<ele>187</ele>
						<time>2024-05-28T11:24:44Z</time>
					</trkpt>
					<trkpt lat="49.629490" lon="1.857200">
						<ele>186</ele>
						<time>2024-05-28T11:25:04Z</time>
					</trkpt>
					<trkpt lat="49.628180" lon="1.858020">
						<ele>186</ele>
						<time>2024-05-28T11:25:29Z</time>
					</trkpt>
					<trkpt lat="49.627510" lon="1.858580">
						<ele>186</ele>
						<time>2024-05-28T11:25:42Z</time>
					</trkpt>
					<trkpt lat="49.627210" lon="1.858950">
						<ele>189</ele>
						<time>2024-05-28T11:25:49Z</time>
					</trkpt>
					<trkpt lat="49.627060" lon="1.859510">
						<ele>189</ele>
						<time>2024-05-28T11:25:56Z</time>
					</trkpt>
					<trkpt lat="49.626420" lon="1.860040">
						<ele>191</ele>
						<time>2024-05-28T11:26:09Z</time>
					</trkpt>
					<trkpt lat="49.624500" lon="1.861150">
						<ele>193</ele>
						<time>2024-05-28T11:26:46Z</time>
					</trkpt>
					<trkpt lat="49.624190" lon="1.861430">
						<ele>194</ele>
						<time>2024-05-28T11:26:52Z</time>
					</trkpt>
					<trkpt lat="49.623670" lon="1.862040">
						<ele>193</ele>
						<time>2024-05-28T11:27:04Z</time>
					</trkpt>
					<trkpt lat="49.622140" lon="1.863530">
						<ele>187</ele>
						<time>2024-05-28T11:27:36Z</time>
					</trkpt>
					<trkpt lat="49.620340" lon="1.864260">
						<ele>179</ele>
						<time>2024-05-28T11:28:09Z</time>
					</trkpt>
					<trkpt lat="49.614850" lon="1.867350">
						<ele>158</ele>
						<time>2024-05-28T11:29:53Z</time>
					</trkpt>
					<trkpt lat="49.614670" lon="1.867310">
						<ele>158</ele>
						<time>2024-05-28T11:29:56Z</time>
					</trkpt>
					<trkpt lat="49.613770" lon="1.867000">
						<ele>163</ele>
						<time>2024-05-28T11:30:12Z</time>
					</trkpt>
					<trkpt lat="49.613460" lon="1.867000">
						<ele>165</ele>
						<time>2024-05-28T11:30:18Z</time>
					</trkpt>
					<trkpt lat="49.613250" lon="1.867130">
						<ele>165</ele>
						<time>2024-05-28T11:30:22Z</time>
					</trkpt>
					<trkpt lat="49.612790" lon="1.867580">
						<ele>168</ele>
						<time>2024-05-28T11:30:32Z</time>
					</trkpt>
					<trkpt lat="49.612270" lon="1.868130">
						<ele>173</ele>
						<time>2024-05-28T11:30:43Z</time>
					</trkpt>
					<trkpt lat="49.612070" lon="1.868270">
						<ele>175</ele>
						<time>2024-05-28T11:30:47Z</time>
					</trkpt>
					<trkpt lat="49.611750" lon="1.868370">
						<ele>177</ele>
						<time>2024-05-28T11:30:53Z</time>
					</trkpt>
					<trkpt lat="49.611120" lon="1.868360">
						<ele>175</ele>
						<time>2024-05-28T11:31:04Z</time>
					</trkpt>
					<trkpt lat="49.610920" lon="1.868300">
						<ele>174</ele>
						<time>2024-05-28T11:31:07Z</time>
					</trkpt>
					<trkpt lat="49.610300" lon="1.868010">
						<ele>173</ele>
						<time>2024-05-28T11:31:19Z</time>
					</trkpt>
					<trkpt lat="49.610090" lon="1.868020">
						<ele>173</ele>
						<time>2024-05-28T11:31:23Z</time>
					</trkpt>
					<trkpt lat="49.609360" lon="1.868300">
						<ele>169</ele>
						<time>2024-05-28T11:31:36Z</time>
					</trkpt>
					<trkpt lat="49.609000" lon="1.869070">
						<ele>165</ele>
						<time>2024-05-28T11:31:47Z</time>
					</trkpt>
					<trkpt lat="49.608990" lon="1.869640">
						<ele>163</ele>
						<time>2024-05-28T11:31:54Z</time>
					</trkpt>
					<trkpt lat="49.608920" lon="1.871390">
						<ele>160</ele>
						<time>2024-05-28T11:32:14Z</time>
					</trkpt>
					<trkpt lat="49.608840" lon="1.872290">
						<ele>158</ele>
						<time>2024-05-28T11:32:24Z</time>
					</trkpt>
					<trkpt lat="49.608650" lon="1.873150">
						<ele>156</ele>
						<time>2024-05-28T11:32:35Z</time>
					</trkpt>
					<trkpt lat="49.607930" lon="1.876050">
						<ele>156</ele>
						<time>2024-05-28T11:33:11Z</time>
					</trkpt>
					<trkpt lat="49.607010" lon="1.879640">
						<ele>157</ele>
						<time>2024-05-28T11:33:55Z</time>
					</trkpt>
					<trkpt lat="49.606830" lon="1.881170">
						<ele>159</ele>
						<time>2024-05-28T11:34:13Z</time>
					</trkpt>
					<trkpt lat="49.606630" lon="1.882150">
						<ele>160</ele>
						<time>2024-05-28T11:34:25Z</time>
					</trkpt>
					<trkpt lat="49.606380" lon="1.883150">
						<ele>159</ele>
						<time>2024-05-28T11:34:37Z</time>
					</trkpt>
					<trkpt lat="49.606050" lon="1.884070">
						<ele>159</ele>
						<time>2024-05-28T11:34:49Z</time>
					</trkpt>
					<trkpt lat="49.605690" lon="1.885220">
						<ele>160</ele>
						<time>2024-05-28T11:35:04Z</time>
					</trkpt>
					<trkpt lat="49.605300" lon="1.886350">
						<ele>157</ele>
						<time>2024-05-28T11:35:19Z</time>
					</trkpt>
					<trkpt lat="49.604960" lon="1.887180">
						<ele>154</ele>
						<time>2024-05-28T11:35:30Z</time>
					</trkpt>
					<trkpt lat="49.604500" lon="1.888200">
						<ele>148</ele>
						<time>2024-05-28T11:35:44Z</time>
					</trkpt>
					<trkpt lat="49.604140" lon="1.889210">
						<ele>147</ele>
						<time>2024-05-28T11:35:58Z</time>
					</trkpt>
					<trkpt lat="49.603550" lon="1.890930">
						<ele>145</ele>
						<time>2024-05-28T11:36:20Z</time>
					</trkpt>
					<trkpt lat="49.603500" lon="1.891270">
						<ele>145</ele>
						<time>2024-05-28T11:36:24Z</time>
					</trkpt>
					<trkpt lat="49.603470" lon="1.891610">
						<ele>145</ele>
						<time>2024-05-28T11:36:28Z</time>
					</trkpt>
					<trkpt lat="49.603460" lon="1.892220">
						<ele>145</ele>
						<time>2024-05-28T11:36:35Z</time>
					</trkpt>
					<trkpt lat="49.603420" lon="1.892800">
						<ele>144</ele>
						<time>2024-05-28T11:36:42Z</time>
					</trkpt>
					<trkpt lat="49.603430" lon="1.892990">
						<ele>143</ele>
						<time>2024-05-28T11:36:44Z</time>
					</trkpt>
					<trkpt lat="49.602720" lon="1.892860">
						<ele>138</ele>
						<time>2024-05-28T11:36:57Z</time>
					</trkpt>
					<trkpt lat="49.602360" lon="1.892890">
						<ele>136</ele>
						<time>2024-05-28T11:37:03Z</time>
					</trkpt>
					<trkpt lat="49.601470" lon="1.893360">
						<ele>135</ele>
						<time>2024-05-28T11:37:20Z</time>
					</trkpt>
					<trkpt lat="49.601370" lon="1.893370">
						<ele>135</ele>
						<time>2024-05-28T11:37:22Z</time>
					</trkpt>
					<trkpt lat="49.601010" lon="1.893210">
						<ele>138</ele>
						<time>2024-05-28T11:37:28Z</time>
					</trkpt>
					<trkpt lat="49.600760" lon="1.894340">
						<ele>138</ele>
						<time>2024-05-28T11:37:42Z</time>
					</trkpt>
					<trkpt lat="49.600670" lon="1.894290">
						<ele>139</ele>
						<time>2024-05-28T11:37:44Z</time>
					</trkpt>
					<trkpt lat="49.600290" lon="1.895090">
						<ele>139</ele>
						<time>2024-05-28T11:37:55Z</time>
					</trkpt>
					<trkpt lat="49.600070" lon="1.895490">
						<ele>139</ele>
						<time>2024-05-28T11:38:01Z</time>
					</trkpt>
					<trkpt lat="49.599530" lon="1.896280">
						<ele>140</ele>
						<time>2024-05-28T11:38:15Z</time>
					</trkpt>
					<trkpt lat="49.598940" lon="1.897090">
						<ele>142</ele>
						<time>2024-05-28T11:38:29Z</time>
					</trkpt>
					<trkpt lat="49.598610" lon="1.897730">
						<ele>143</ele>
						<time>2024-05-28T11:38:38Z</time>
					</trkpt>
					<trkpt lat="49.598180" lon="1.899100">
						<ele>141</ele>
						<time>2024-05-28T11:38:56Z</time>
					</trkpt>
					<trkpt lat="49.597690" lon="1.900130">
						<ele>139</ele>
						<time>2024-05-28T11:39:10Z</time>
					</trkpt>
					<trkpt lat="49.597420" lon="1.900640">
						<ele>139</ele>
						<time>2024-05-28T11:39:18Z</time>
					</trkpt>
					<trkpt lat="49.597230" lon="1.901580">
						<ele>137</ele>
						<time>2024-05-28T11:39:29Z</time>
					</trkpt>
					<trkpt lat="49.596750" lon="1.902420">
						<ele>134</ele>
						<time>2024-05-28T11:39:42Z</time>
					</trkpt>
					<trkpt lat="49.596680" lon="1.902500">
						<ele>134</ele>
						<time>2024-05-28T11:39:44Z</time>
					</trkpt>
					<trkpt lat="49.596300" lon="1.902590">
						<ele>134</ele>
						<time>2024-05-28T11:39:51Z</time>
					</trkpt>
					<trkpt lat="49.595930" lon="1.902720">
						<ele>134</ele>
						<time>2024-05-28T11:39:57Z</time>
					</trkpt>
					<trkpt lat="49.594340" lon="1.903450">
						<ele>133</ele>
						<time>2024-05-28T11:40:27Z</time>
					</trkpt>
					<trkpt lat="49.593680" lon="1.903990">
						<ele>133</ele>
						<time>2024-05-28T11:40:40Z</time>
					</trkpt>
					<trkpt lat="49.593210" lon="1.904410">
						<ele>132</ele>
						<time>2024-05-28T11:40:50Z</time>
					</trkpt>
					<trkpt lat="49.593020" lon="1.904900">
						<ele>131</ele>
						<time>2024-05-28T11:40:57Z</time>
					</trkpt>
					<trkpt lat="49.592280" lon="1.905800">
						<ele>129</ele>
						<time>2024-05-28T11:41:13Z</time>
					</trkpt>
					<trkpt lat="49.591560" lon="1.907020">
						<ele>130</ele>
						<time>2024-05-28T11:41:32Z</time>
					</trkpt>
					<trkpt lat="49.591300" lon="1.907380">
						<ele>130</ele>
						<time>2024-05-28T11:41:39Z</time>
					</trkpt>
					<trkpt lat="49.590960" lon="1.907680">
						<ele>130</ele>
						<time>2024-05-28T11:41:46Z</time>
					</trkpt>
					<trkpt lat="49.590530" lon="1.908370">
						<ele>130</ele>
						<time>2024-05-28T11:41:57Z</time>
					</trkpt>
					<trkpt lat="49.589760" lon="1.909690">
						<ele>130</ele>
						<time>2024-05-28T11:42:17Z</time>
					</trkpt>
					<trkpt lat="49.589310" lon="1.910290">
						<ele>130</ele>
						<time>2024-05-28T11:42:28Z</time>
					</trkpt>
					<trkpt lat="49.588990" lon="1.910470">
						<ele>130</ele>
						<time>2024-05-28T11:42:34Z</time>
					</trkpt>
					<trkpt lat="49.588440" lon="1.910480">
						<ele>128</ele>
						<time>2024-05-28T11:42:43Z</time>
					</trkpt>
					<trkpt lat="49.588230" lon="1.910920">
						<ele>129</ele>
						<time>2024-05-28T11:42:50Z</time>
					</trkpt>
					<trkpt lat="49.587560" lon="1.911860">
						<ele>127</ele>
						<time>2024-05-28T11:43:06Z</time>
					</trkpt>
					<trkpt lat="49.586420" lon="1.913510">
						<ele>125</ele>
						<time>2024-05-28T11:43:34Z</time>
					</trkpt>
					<trkpt lat="49.585950" lon="1.914600">
						<ele>125</ele>
						<time>2024-05-28T11:43:49Z</time>
					</trkpt>
					<trkpt lat="49.585620" lon="1.915670">
						<ele>127</ele>
						<time>2024-05-28T11:44:02Z</time>
					</trkpt>
					<trkpt lat="49.585270" lon="1.916320">
						<ele>129</ele>
						<time>2024-05-28T11:44:12Z</time>
					</trkpt>
					<trkpt lat="49.584930" lon="1.916660">
						<ele>132</ele>
						<time>2024-05-28T11:44:19Z</time>
					</trkpt>
					<trkpt lat="49.584800" lon="1.917610">
						<ele>131</ele>
						<time>2024-05-28T11:44:31Z</time>
					</trkpt>
					<trkpt lat="49.584570" lon="1.918890">
						<ele>128</ele>
						<time>2024-05-28T11:44:46Z</time>
					</trkpt>
					<trkpt lat="49.584240" lon="1.919670">
						<ele>128</ele>
						<time>2024-05-28T11:44:57Z</time>
					</trkpt>
					<trkpt lat="49.583860" lon="1.920250">
						<ele>128</ele>
						<time>2024-05-28T11:45:06Z</time>
					</trkpt>
					<trkpt lat="49.583330" lon="1.920990">
						<ele>128</ele>
						<time>2024-05-28T11:45:19Z</time>
					</trkpt>
					<trkpt lat="49.583440" lon="1.921800">
						<ele>126</ele>
						<time>2024-05-28T11:45:28Z</time>
					</trkpt>
					<trkpt lat="49.583340" lon="1.922400">
						<ele>125</ele>
						<time>2024-05-28T11:45:36Z</time>
					</trkpt>
					<trkpt lat="49.583280" lon="1.922910">
						<ele>124</ele>
						<time>2024-05-28T11:45:42Z</time>
					</trkpt>
					<trkpt lat="49.583300" lon="1.923060">
						<ele>123</ele>
						<time>2024-05-28T11:45:43Z</time>
					</trkpt>
					<trkpt lat="49.583310" lon="1.923220">
						<ele>122</ele>
						<time>2024-05-28T11:45:45Z</time>
					</trkpt>
					<trkpt lat="49.583240" lon="1.923460">
						<ele>122</ele>
						<time>2024-05-28T11:45:48Z</time>
					</trkpt>
					<trkpt lat="49.583180" lon="1.923630">
						<ele>122</ele>
						<time>2024-05-28T11:45:50Z</time>
					</trkpt>
					<trkpt lat="49.582890" lon="1.923750">
						<ele>122</ele>
						<time>2024-05-28T11:45:56Z</time>
					</trkpt>
					<trkpt lat="49.582580" lon="1.923850">
						<ele>122</ele>
						<time>2024-05-28T11:46:01Z</time>
					</trkpt>
					<trkpt lat="49.581910" lon="1.924390">
						<ele>122</ele>
						<time>2024-05-28T11:46:15Z</time>
					</trkpt>
					<trkpt lat="49.580270" lon="1.925070">
						<ele>133</ele>
						<time>2024-05-28T11:46:45Z</time>
					</trkpt>
					<trkpt lat="49.579750" lon="1.925490">
						<ele>140</ele>
						<time>2024-05-28T11:46:56Z</time>
					</trkpt>
					<trkpt lat="49.579230" lon="1.926350">
						<ele>141</ele>
						<time>2024-05-28T11:47:09Z</time>
					</trkpt>
					<trkpt lat="49.578530" lon="1.927920">
						<ele>137</ele>
						<time>2024-05-28T11:47:31Z</time>
					</trkpt>
					<trkpt lat="49.578190" lon="1.929070">
						<ele>131</ele>
						<time>2024-05-28T11:47:46Z</time>
					</trkpt>
					<trkpt lat="49.577950" lon="1.930070">
						<ele>126</ele>
						<time>2024-05-28T11:47:58Z</time>
					</trkpt>
					<trkpt lat="49.577830" lon="1.930710">
						<ele>123</ele>
						<time>2024-05-28T11:48:06Z</time>
					</trkpt>
					<trkpt lat="49.577730" lon="1.931450">
						<ele>121</ele>
						<time>2024-05-28T11:48:14Z</time>
					</trkpt>
					<trkpt lat="49.577770" lon="1.932500">
						<ele>120</ele>
						<time>2024-05-28T11:48:27Z</time>
					</trkpt>
					<trkpt lat="49.577730" lon="1.933360">
						<ele>119</ele>
						<time>2024-05-28T11:48:36Z</time>
					</trkpt>
					<trkpt lat="49.577400" lon="1.934950">
						<ele>122</ele>
						<time>2024-05-28T11:48:56Z</time>
					</trkpt>
					<trkpt lat="49.576730" lon="1.936350">
						<ele>122</ele>
						<time>2024-05-28T11:49:16Z</time>
					</trkpt>
					<trkpt lat="49.576290" lon="1.937120">
						<ele>119</ele>
						<time>2024-05-28T11:49:28Z</time>
					</trkpt>
					<trkpt lat="49.576090" lon="1.937500">
						<ele>118</ele>
						<time>2024-05-28T11:49:33Z</time>
					</trkpt>
					<trkpt lat="49.575540" lon="1.937980">
						<ele>118</ele>
						<time>2024-05-28T11:49:45Z</time>
					</trkpt>
					<trkpt lat="49.575110" lon="1.938290">
						<ele>117</ele>
						<time>2024-05-28T11:49:53Z</time>
					</trkpt>
					<trkpt lat="49.574610" lon="1.938680">
						<ele>117</ele>
						<time>2024-05-28T11:50:03Z</time>
					</trkpt>
					<trkpt lat="49.574100" lon="1.939320">
						<ele>117</ele>
						<time>2024-05-28T11:50:15Z</time>
					</trkpt>
					<trkpt lat="49.573410" lon="1.940390">
						<ele>125</ele>
						<time>2024-05-28T11:50:32Z</time>
					</trkpt>
					<trkpt lat="49.573330" lon="1.940550">
						<ele>125</ele>
						<time>2024-05-28T11:50:34Z</time>
					</trkpt>
					<trkpt lat="49.572810" lon="1.943130">
						<ele>128</ele>
						<time>2024-05-28T11:51:06Z</time>
					</trkpt>
					<trkpt lat="49.572640" lon="1.944040">
						<ele>131</ele>
						<time>2024-05-28T11:51:17Z</time>
					</trkpt>
					<trkpt lat="49.572680" lon="1.945700">
						<ele>129</ele>
						<time>2024-05-28T11:51:36Z</time>
					</trkpt>
					<trkpt lat="49.572740" lon="1.946860">
						<ele>128</ele>
						<time>2024-05-28T11:51:49Z</time>
					</trkpt>
					<trkpt lat="49.572810" lon="1.950770">
						<ele>119</ele>
						<time>2024-05-28T11:52:34Z</time>
					</trkpt>
					<trkpt lat="49.572770" lon="1.950980">
						<ele>119</ele>
						<time>2024-05-28T11:52:37Z</time>
					</trkpt>
					<trkpt lat="49.572690" lon="1.951150">
						<ele>118</ele>
						<time>2024-05-28T11:52:39Z</time>
					</trkpt>
					<trkpt lat="49.572540" lon="1.951260">
						<ele>118</ele>
						<time>2024-05-28T11:52:42Z</time>
					</trkpt>
					<trkpt lat="49.571880" lon="1.951680">
						<ele>118</ele>
						<time>2024-05-28T11:52:55Z</time>
					</trkpt>
					<trkpt lat="49.571420" lon="1.952060">
						<ele>118</ele>
						<time>2024-05-28T11:53:04Z</time>
					</trkpt>
					<trkpt lat="49.571140" lon="1.952240">
						<ele>118</ele>
						<time>2024-05-28T11:53:10Z</time>
					</trkpt>
					<trkpt lat="49.571340" lon="1.952380">
						<ele>117</ele>
						<time>2024-05-28T11:53:13Z</time>
					</trkpt>
					<trkpt lat="49.571470" lon="1.952510">
						<ele>116</ele>
						<time>2024-05-28T11:53:16Z</time>
					</trkpt>
					<trkpt lat="49.571940" lon="1.953080">
						<ele>114</ele>
						<time>2024-05-28T11:53:27Z</time>
					</trkpt>
					<trkpt lat="49.573290" lon="1.954800">
						<ele>111</ele>
						<time>2024-05-28T11:53:58Z</time>
					</trkpt>
					<trkpt lat="49.573410" lon="1.954960">
						<ele>112</ele>
						<time>2024-05-28T11:54:01Z</time>
					</trkpt>
					<trkpt lat="49.573820" lon="1.955470">
						<ele>112</ele>
						<time>2024-05-28T11:54:10Z</time>
					</trkpt>
					<trkpt lat="49.574030" lon="1.955700">
						<ele>112</ele>
						<time>2024-05-28T11:54:15Z</time>
					</trkpt>
					<trkpt lat="49.574070" lon="1.955780">
						<ele>112</ele>
						<time>2024-05-28T11:54:16Z</time>
					</trkpt>
					<trkpt lat="49.574100" lon="1.955960">
						<ele>113</ele>
						<time>2024-05-28T11:54:18Z</time>
					</trkpt>
					<trkpt lat="49.574070" lon="1.955960">
						<ele>113</ele>
						<time>2024-05-28T11:54:19Z</time>
					</trkpt>
					<trkpt lat="49.574000" lon="1.956020">
						<ele>113</ele>
						<time>2024-05-28T11:54:20Z</time>
					</trkpt>
					<trkpt lat="49.573990" lon="1.956070">
						<ele>114</ele>
						<time>2024-05-28T11:54:21Z</time>
					</trkpt>
					<trkpt lat="49.573990" lon="1.956170">
						<ele>114</ele>
						<time>2024-05-28T11:54:22Z</time>
					</trkpt>
					<trkpt lat="49.573880" lon="1.956280">
						<ele>115</ele>
						<time>2024-05-28T11:54:24Z</time>
					</trkpt>
					<trkpt lat="49.572990" lon="1.956630">
						<ele>119</ele>
						<time>2024-05-28T11:54:40Z</time>
					</trkpt>
					<trkpt lat="49.572820" lon="1.956710">
						<ele>120</ele>
						<time>2024-05-28T11:54:44Z</time>
					</trkpt>
					<trkpt lat="49.572590" lon="1.956940">
						<ele>121</ele>
						<time>2024-05-28T11:54:49Z</time>
					</trkpt>
					<trkpt lat="49.570150" lon="1.960430">
						<ele>131</ele>
						<time>2024-05-28T11:55:48Z</time>
					</trkpt>
					<trkpt lat="49.569720" lon="1.961050">
						<ele>129</ele>
						<time>2024-05-28T11:55:58Z</time>
					</trkpt>
					<trkpt lat="49.569360" lon="1.961710">
						<ele>128</ele>
						<time>2024-05-28T11:56:08Z</time>
					</trkpt>
					<trkpt lat="49.568530" lon="1.963180">
						<ele>122</ele>
						<time>2024-05-28T11:56:31Z</time>
					</trkpt>
					<trkpt lat="49.568040" lon="1.964090">
						<ele>122</ele>
						<time>2024-05-28T11:56:44Z</time>
					</trkpt>
					<trkpt lat="49.568000" lon="1.964040">
						<ele>122</ele>
						<time>2024-05-28T11:56:45Z</time>
					</trkpt>
					<trkpt lat="49.567910" lon="1.963960">
						<ele>121</ele>
						<time>2024-05-28T11:56:47Z</time>
					</trkpt>
					<trkpt lat="49.567840" lon="1.963960">
						<ele>121</ele>
						<time>2024-05-28T11:56:48Z</time>
					</trkpt>
					<trkpt lat="49.567780" lon="1.964000">
						<ele>120</ele>
						<time>2024-05-28T11:56:49Z</time>
					</trkpt>
					<trkpt lat="49.567690" lon="1.964100">
						<ele>121</ele>
						<time>2024-05-28T11:56:51Z</time>
					</trkpt>
					<trkpt lat="49.567090" lon="1.965110">
						<ele>121</ele>
						<time>2024-05-28T11:57:07Z</time>
					</trkpt>
					<trkpt lat="49.566930" lon="1.965240">
						<ele>120</ele>
						<time>2024-05-28T11:57:10Z</time>
					</trkpt>
					<trkpt lat="49.566610" lon="1.965290">
						<ele>117</ele>
						<time>2024-05-28T11:57:16Z</time>
					</trkpt>
					<trkpt lat="49.566340" lon="1.965200">
						<ele>114</ele>
						<time>2024-05-28T11:57:21Z</time>
					</trkpt>
					<trkpt lat="49.565970" lon="1.964900">
						<ele>111</ele>
						<time>2024-05-28T11:57:29Z</time>
					</trkpt>
					<trkpt lat="49.565560" lon="1.964440">
						<ele>108</ele>
						<time>2024-05-28T11:57:38Z</time>
					</trkpt>
					<trkpt lat="49.565280" lon="1.964200">
						<ele>107</ele>
						<time>2024-05-28T11:57:43Z</time>
					</trkpt>
					<trkpt lat="49.565190" lon="1.964150">
						<ele>107</ele>
						<time>2024-05-28T11:57:45Z</time>
					</trkpt>
					<trkpt lat="49.565040" lon="1.964100">
						<ele>107</ele>
						<time>2024-05-28T11:57:48Z</time>
					</trkpt>
					<trkpt lat="49.564270" lon="1.964080">
						<ele>106</ele>
						<time>2024-05-28T11:58:01Z</time>
					</trkpt>
					<trkpt lat="49.563880" lon="1.963990">
						<ele>108</ele>
						<time>2024-05-28T11:58:08Z</time>
					</trkpt>
					<trkpt lat="49.563740" lon="1.963900">
						<ele>110</ele>
						<time>2024-05-28T11:58:11Z</time>
					</trkpt>
					<trkpt lat="49.563380" lon="1.963520">
						<ele>115</ele>
						<time>2024-05-28T11:58:19Z</time>
					</trkpt>
					<trkpt lat="49.563320" lon="1.963490">
						<ele>116</ele>
						<time>2024-05-28T11:58:20Z</time>
					</trkpt>
					<trkpt lat="49.563200" lon="1.963560">
						<ele>117</ele>
						<time>2024-05-28T11:58:22Z</time>
					</trkpt>
					<trkpt lat="49.563080" lon="1.963830">
						<ele>117</ele>
						<time>2024-05-28T11:58:26Z</time>
					</trkpt>
					<trkpt lat="49.562950" lon="1.964230">
						<ele>116</ele>
						<time>2024-05-28T11:58:31Z</time>
					</trkpt>
					<trkpt lat="49.562590" lon="1.965050">
						<ele>116</ele>
						<time>2024-05-28T11:58:43Z</time>
					</trkpt>
					<trkpt lat="49.562420" lon="1.965400">
						<ele>114</ele>
						<time>2024-05-28T11:58:48Z</time>
					</trkpt>
					<trkpt lat="49.562050" lon="1.966430">
						<ele>110</ele>
						<time>2024-05-28T11:59:01Z</time>
					</trkpt>
					<trkpt lat="49.561890" lon="1.966820">
						<ele>109</ele>
						<time>2024-05-28T11:59:07Z</time>
					</trkpt>
					<trkpt lat="49.561700" lon="1.967020">
						<ele>109</ele>
						<time>2024-05-28T11:59:11Z</time>
					</trkpt>
					<trkpt lat="49.561280" lon="1.967230">
						<ele>109</ele>
						<time>2024-05-28T11:59:19Z</time>
					</trkpt>
					<trkpt lat="49.560960" lon="1.967270">
						<ele>110</ele>
						<time>2024-05-28T11:59:24Z</time>
					</trkpt>
					<trkpt lat="49.560680" lon="1.967330">
						<ele>110</ele>
						<time>2024-05-28T11:59:29Z</time>
					</trkpt>
					<trkpt lat="49.560430" lon="1.967330">
						<ele>111</ele>
						<time>2024-05-28T11:59:34Z</time>
					</trkpt>
					<trkpt lat="49.560290" lon="1.967210">
						<ele>112</ele>
						<time>2024-05-28T11:59:37Z</time>
					</trkpt>
					<trkpt lat="49.560160" lon="1.966830">
						<ele>114</ele>
						<time>2024-05-28T11:59:42Z</time>
					</trkpt>
					<trkpt lat="49.560070" lon="1.966320">
						<ele>117</ele>
						<time>2024-05-28T11:59:48Z</time>
					</trkpt>
					<trkpt lat="49.559980" lon="1.965950">
						<ele>119</ele>
						<time>2024-05-28T11:59:52Z</time>
					</trkpt>
					<trkpt lat="49.559800" lon="1.965590">
						<ele>123</ele>
						<time>2024-05-28T11:59:57Z</time>
					</trkpt>
					<trkpt lat="49.559320" lon="1.965050">
						<ele>130</ele>
						<time>2024-05-28T12:00:08Z</time>
					</trkpt>
					<trkpt lat="49.558780" lon="1.964550">
						<ele>141</ele>
						<time>2024-05-28T12:00:19Z</time>
					</trkpt>
					<trkpt lat="49.558880" lon="1.964140">
						<ele>142</ele>
						<time>2024-05-28T12:00:24Z</time>
					</trkpt>
					<trkpt lat="49.558990" lon="1.963810">
						<ele>143</ele>
						<time>2024-05-28T12:00:29Z</time>
					</trkpt>
					<trkpt lat="49.559020" lon="1.963500">
						<ele>146</ele>
						<time>2024-05-28T12:00:32Z</time>
					</trkpt>
					<trkpt lat="49.558980" lon="1.963060">
						<ele>149</ele>
						<time>2024-05-28T12:00:37Z</time>
					</trkpt>
					<trkpt lat="49.558550" lon="1.961330">
						<ele>158</ele>
						<time>2024-05-28T12:00:59Z</time>
					</trkpt>
					<trkpt lat="49.558190" lon="1.960150">
						<ele>159</ele>
						<time>2024-05-28T12:01:14Z</time>
					</trkpt>
					<trkpt lat="49.558090" lon="1.959720">
						<ele>158</ele>
						<time>2024-05-28T12:01:19Z</time>
					</trkpt>
					<trkpt lat="49.558000" lon="1.959580">
						<ele>159</ele>
						<time>2024-05-28T12:01:21Z</time>
					</trkpt>
					<trkpt lat="49.557900" lon="1.959520">
						<ele>159</ele>
						<time>2024-05-28T12:01:23Z</time>
					</trkpt>
					<trkpt lat="49.557320" lon="1.959380">
						<ele>162</ele>
						<time>2024-05-28T12:01:34Z</time>
					</trkpt>
					<trkpt lat="49.557110" lon="1.959410">
						<ele>163</ele>
						<time>2024-05-28T12:01:37Z</time>
					</trkpt>
					<trkpt lat="49.556900" lon="1.959520">
						<ele>163</ele>
						<time>2024-05-28T12:01:41Z</time>
					</trkpt>
					<trkpt lat="49.556740" lon="1.959690">
						<ele>163</ele>
						<time>2024-05-28T12:01:45Z</time>
					</trkpt>
					<trkpt lat="49.556570" lon="1.959690">
						<ele>163</ele>
						<time>2024-05-28T12:01:48Z</time>
					</trkpt>
					<trkpt lat="49.556320" lon="1.959650">
						<ele>163</ele>
						<time>2024-05-28T12:01:52Z</time>
					</trkpt>
					<trkpt lat="49.555720" lon="1.958700">
						<ele>163</ele>
						<time>2024-05-28T12:02:08Z</time>
					</trkpt>
					<trkpt lat="49.555310" lon="1.958260">
						<ele>163</ele>
						<time>2024-05-28T12:02:17Z</time>
					</trkpt>
					<trkpt lat="49.554820" lon="1.957600">
						<ele>163</ele>
						<time>2024-05-28T12:02:28Z</time>
					</trkpt>
					<trkpt lat="49.554580" lon="1.957200">
						<ele>163</ele>
						<time>2024-05-28T12:02:34Z</time>
					</trkpt>
					<trkpt lat="49.554290" lon="1.956650">
						<ele>164</ele>
						<time>2024-05-28T12:02:43Z</time>
					</trkpt>
					<trkpt lat="49.554200" lon="1.956400">
						<ele>164</ele>
						<time>2024-05-28T12:02:46Z</time>
					</trkpt>
					<trkpt lat="49.554100" lon="1.956480">
						<ele>164</ele>
						<time>2024-05-28T12:02:48Z</time>
					</trkpt>
					<trkpt lat="49.553680" lon="1.957430">
						<ele>162</ele>
						<time>2024-05-28T12:03:01Z</time>
					</trkpt>
					<trkpt lat="49.553300" lon="1.958220">
						<ele>160</ele>
						<time>2024-05-28T12:03:12Z</time>
					</trkpt>
					<trkpt lat="49.553060" lon="1.958990">
						<ele>159</ele>
						<time>2024-05-28T12:03:22Z</time>
					</trkpt>
					<trkpt lat="49.552850" lon="1.959350">
						<ele>159</ele>
						<time>2024-05-28T12:03:28Z</time>
					</trkpt>
					<trkpt lat="49.552460" lon="1.959860">
						<ele>157</ele>
						<time>2024-05-28T12:03:37Z</time>
					</trkpt>
					<trkpt lat="49.552280" lon="1.960140">
						<ele>156</ele>
						<time>2024-05-28T12:03:42Z</time>
					</trkpt>
					<trkpt lat="49.551980" lon="1.960700">
						<ele>154</ele>
						<time>2024-05-28T12:03:50Z</time>
					</trkpt>
					<trkpt lat="49.551740" lon="1.961250">
						<ele>153</ele>
						<time>2024-05-28T12:03:58Z</time>
					</trkpt>
					<trkpt lat="49.551030" lon="1.962670">
						<ele>151</ele>
						<time>2024-05-28T12:04:18Z</time>
					</trkpt>
					<trkpt lat="49.550660" lon="1.963330">
						<ele>152</ele>
						<time>2024-05-28T12:04:28Z</time>
					</trkpt>
					<trkpt lat="49.549840" lon="1.964930">
						<ele>152</ele>
						<time>2024-05-28T12:04:52Z</time>
					</trkpt>
					<trkpt lat="49.549380" lon="1.965780">
						<ele>153</ele>
						<time>2024-05-28T12:05:05Z</time>
					</trkpt>
					<trkpt lat="49.547630" lon="1.969260">
						<ele>152</ele>
						<time>2024-05-28T12:05:56Z</time>
					</trkpt>
					<trkpt lat="49.545880" lon="1.971790">
						<ele>150</ele>
						<time>2024-05-28T12:06:38Z</time>
					</trkpt>
					<trkpt lat="49.545730" lon="1.972200">
						<ele>149</ele>
						<time>2024-05-28T12:06:44Z</time>
					</trkpt>
					<trkpt lat="49.545370" lon="1.973570">
						<ele>147</ele>
						<time>2024-05-28T12:07:01Z</time>
					</trkpt>
					<trkpt lat="49.544070" lon="1.977320">
						<ele>136</ele>
						<time>2024-05-28T12:07:50Z</time>
					</trkpt>
					<trkpt lat="49.542550" lon="1.982010">
						<ele>115</ele>
						<time>2024-05-28T12:08:50Z</time>
					</trkpt>
					<trkpt lat="49.541750" lon="1.984450">
						<ele>104</ele>
						<time>2024-05-28T12:09:22Z</time>
					</trkpt>
					<trkpt lat="49.540880" lon="1.985810">
						<ele>101</ele>
						<time>2024-05-28T12:09:44Z</time>
					</trkpt>
					<trkpt lat="49.540330" lon="1.986990">
						<ele>98</ele>
						<time>2024-05-28T12:10:01Z</time>
					</trkpt>
					<trkpt lat="49.539780" lon="1.988040">
						<ele>96</ele>
						<time>2024-05-28T12:10:16Z</time>
					</trkpt>
					<trkpt lat="49.539530" lon="1.988440">
						<ele>95</ele>
						<time>2024-05-28T12:10:23Z</time>
					</trkpt>
					<trkpt lat="49.538890" lon="1.989010">
						<ele>95</ele>
						<time>2024-05-28T12:10:36Z</time>
					</trkpt>
					<trkpt lat="49.538250" lon="1.989670">
						<ele>96</ele>
						<time>2024-05-28T12:10:50Z</time>
					</trkpt>
					<trkpt lat="49.536410" lon="1.991820">
						<ele>95</ele>
						<time>2024-05-28T12:11:31Z</time>
					</trkpt>
					<trkpt lat="49.536140" lon="1.992240">
						<ele>94</ele>
						<time>2024-05-28T12:11:37Z</time>
					</trkpt>
					<trkpt lat="49.535910" lon="1.992750">
						<ele>93</ele>
						<time>2024-05-28T12:11:45Z</time>
					</trkpt>
					<trkpt lat="49.535620" lon="1.993700">
						<ele>94</ele>
						<time>2024-05-28T12:11:57Z</time>
					</trkpt>
					<trkpt lat="49.535510" lon="1.993980">
						<ele>95</ele>
						<time>2024-05-28T12:12:01Z</time>
					</trkpt>
					<trkpt lat="49.534440" lon="1.995200">
						<ele>95</ele>
						<time>2024-05-28T12:12:24Z</time>
					</trkpt>
					<trkpt lat="49.533400" lon="1.996120">
						<ele>94</ele>
						<time>2024-05-28T12:12:46Z</time>
					</trkpt>
					<trkpt lat="49.532420" lon="1.997380">
						<ele>94</ele>
						<time>2024-05-28T12:13:08Z</time>
					</trkpt>
					<trkpt lat="49.532250" lon="1.997550">
						<ele>94</ele>
						<time>2024-05-28T12:13:12Z</time>
					</trkpt>
					<trkpt lat="49.531980" lon="1.997620">
						<ele>93</ele>
						<time>2024-05-28T12:13:17Z</time>
					</trkpt>
					<trkpt lat="49.531910" lon="1.997620">
						<ele>93</ele>
						<time>2024-05-28T12:13:18Z</time>
					</trkpt>
					<trkpt lat="49.531630" lon="1.999310">
						<ele>92</ele>
						<time>2024-05-28T12:13:38Z</time>
					</trkpt>
					<trkpt lat="49.531620" lon="1.999420">
						<ele>92</ele>
						<time>2024-05-28T12:13:39Z</time>
					</trkpt>
					<trkpt lat="49.531500" lon="2.000140">
						<ele>92</ele>
						<time>2024-05-28T12:13:48Z</time>
					</trkpt>
					<trkpt lat="49.531510" lon="2.000980">
						<ele>92</ele>
						<time>2024-05-28T12:13:58Z</time>
					</trkpt>
					<trkpt lat="49.531640" lon="2.002600">
						<ele>99</ele>
						<time>2024-05-28T12:14:17Z</time>
					</trkpt>
					<trkpt lat="49.531650" lon="2.002880">
						<ele>101</ele>
						<time>2024-05-28T12:14:20Z</time>
					</trkpt>
					<trkpt lat="49.528240" lon="2.004330">
						<ele>106</ele>
						<time>2024-05-28T12:15:23Z</time>
					</trkpt>
					<trkpt lat="49.527920" lon="2.004200">
						<ele>105</ele>
						<time>2024-05-28T12:15:29Z</time>
					</trkpt>
					<trkpt lat="49.525570" lon="2.002900">
						<ele>104</ele>
						<time>2024-05-28T12:16:13Z</time>
					</trkpt>
					<trkpt lat="49.524420" lon="2.002400">
						<ele>102</ele>
						<time>2024-05-28T12:16:34Z</time>
					</trkpt>
					<trkpt lat="49.523340" lon="2.001920">
						<ele>100</ele>
						<time>2024-05-28T12:16:54Z</time>
					</trkpt>
					<trkpt lat="49.522400" lon="2.001620">
						<ele>99</ele>
						<time>2024-05-28T12:17:11Z</time>
					</trkpt>
					<trkpt lat="49.522000" lon="2.001420">
						<ele>98</ele>
						<time>2024-05-28T12:17:19Z</time>
					</trkpt>
					<trkpt lat="49.521830" lon="2.001220">
						<ele>97</ele>
						<time>2024-05-28T12:17:23Z</time>
					</trkpt>
					<trkpt lat="49.521520" lon="2.000790">
						<ele>95</ele>
						<time>2024-05-28T12:17:30Z</time>
					</trkpt>
					<trkpt lat="49.521320" lon="2.000640">
						<ele>94</ele>
						<time>2024-05-28T12:17:34Z</time>
					</trkpt>
					<trkpt lat="49.520820" lon="2.000470">
						<ele>93</ele>
						<time>2024-05-28T12:17:43Z</time>
					</trkpt>
					<trkpt lat="49.520380" lon="2.000350">
						<ele>92</ele>
						<time>2024-05-28T12:17:51Z</time>
					</trkpt>
					<trkpt lat="49.519800" lon="2.000320">
						<ele>92</ele>
						<time>2024-05-28T12:18:01Z</time>
					</trkpt>
					<trkpt lat="49.519430" lon="2.000350">
						<ele>91</ele>
						<time>2024-05-28T12:18:08Z</time>
					</trkpt>
					<trkpt lat="49.518650" lon="2.000470">
						<ele>91</ele>
						<time>2024-05-28T12:18:22Z</time>
					</trkpt>
					<trkpt lat="49.517550" lon="2.000570">
						<ele>90</ele>
						<time>2024-05-28T12:18:42Z</time>
					</trkpt>
					<trkpt lat="49.516870" lon="2.000610">
						<ele>91</ele>
						<time>2024-05-28T12:18:54Z</time>
					</trkpt>
					<trkpt lat="49.516500" lon="2.000580">
						<ele>90</ele>
						<time>2024-05-28T12:19:00Z</time>
					</trkpt>
					<trkpt lat="49.516160" lon="2.000490">
						<ele>90</ele>
						<time>2024-05-28T12:19:06Z</time>
					</trkpt>
					<trkpt lat="49.515260" lon="2.000390">
						<ele>90</ele>
						<time>2024-05-28T12:19:22Z</time>
					</trkpt>
					<trkpt lat="49.514450" lon="2.000110">
						<ele>90</ele>
						<time>2024-05-28T12:19:37Z</time>
					</trkpt>
					<trkpt lat="49.513360" lon="1.999830">
						<ele>90</ele>
						<time>2024-05-28T12:19:57Z</time>
					</trkpt>
					<trkpt lat="49.511340" lon="1.999430">
						<ele>90</ele>
						<time>2024-05-28T12:20:33Z</time>
					</trkpt>
					<trkpt lat="49.511010" lon="1.999400">
						<ele>90</ele>
						<time>2024-05-28T12:20:39Z</time>
					</trkpt>
					<trkpt lat="49.510270" lon="1.999410">
						<ele>92</ele>
						<time>2024-05-28T12:20:52Z</time>
					</trkpt>
					<trkpt lat="49.509550" lon="1.999390">
						<ele>94</ele>
						<time>2024-05-28T12:21:05Z</time>
					</trkpt>
					<trkpt lat="49.508870" lon="1.999290">
						<ele>95</ele>
						<time>2024-05-28T12:21:17Z</time>
					</trkpt>
					<trkpt lat="49.508530" lon="1.999280">
						<ele>95</ele>
						<time>2024-05-28T12:21:23Z</time>
					</trkpt>
					<trkpt lat="49.507920" lon="1.999290">
						<ele>96</ele>
						<time>2024-05-28T12:21:34Z</time>
					</trkpt>
					<trkpt lat="49.507200" lon="1.999380">
						<ele>97</ele>
						<time>2024-05-28T12:21:47Z</time>
					</trkpt>
					<trkpt lat="49.506650" lon="1.999450">
						<ele>97</ele>
						<time>2024-05-28T12:21:57Z</time>
					</trkpt>
					<trkpt lat="49.506330" lon="1.999440">
						<ele>97</ele>
						<time>2024-05-28T12:22:02Z</time>
					</trkpt>
					<trkpt lat="49.506130" lon="1.999290">
						<ele>96</ele>
						<time>2024-05-28T12:22:06Z</time>
					</trkpt>
					<trkpt lat="49.505660" lon="1.998520">
						<ele>91</ele>
						<time>2024-05-28T12:22:19Z</time>
					</trkpt>
					<trkpt lat="49.505450" lon="1.998470">
						<ele>90</ele>
						<time>2024-05-28T12:22:22Z</time>
					</trkpt>
					<trkpt lat="49.504020" lon="1.998280">
						<ele>90</ele>
						<time>2024-05-28T12:22:48Z</time>
					</trkpt>
					<trkpt lat="49.503890" lon="1.998210">
						<ele>89</ele>
						<time>2024-05-28T12:22:50Z</time>
					</trkpt>
					<trkpt lat="49.503750" lon="1.997550">
						<ele>85</ele>
						<time>2024-05-28T12:22:58Z</time>
					</trkpt>
					<trkpt lat="49.503730" lon="1.996950">
						<ele>84</ele>
						<time>2024-05-28T12:23:05Z</time>
					</trkpt>
					<trkpt lat="49.503710" lon="1.996910">
						<ele>84</ele>
						<time>2024-05-28T12:23:06Z</time>
					</trkpt>
					<trkpt lat="49.503460" lon="1.996820">
						<ele>83</ele>
						<time>2024-05-28T12:23:11Z</time>
					</trkpt>
					<trkpt lat="49.503060" lon="1.996800">
						<ele>83</ele>
						<time>2024-05-28T12:23:18Z</time>
					</trkpt>
					<trkpt lat="49.502540" lon="1.996360">
						<ele>83</ele>
						<time>2024-05-28T12:23:28Z</time>
					</trkpt>
					<trkpt lat="49.502380" lon="1.996570">
						<ele>83</ele>
						<time>2024-05-28T12:23:32Z</time>
					</trkpt>
					<trkpt lat="49.502250" lon="1.996680">
						<ele>83</ele>
						<time>2024-05-28T12:23:35Z</time>
					</trkpt>
					<trkpt lat="49.502050" lon="1.996800">
						<ele>83</ele>
						<time>2024-05-28T12:23:38Z</time>
					</trkpt>
					<trkpt lat="49.501910" lon="1.996920">
						<ele>83</ele>
						<time>2024-05-28T12:23:41Z</time>
					</trkpt>
					<trkpt lat="49.501770" lon="1.997120">
						<ele>83</ele>
						<time>2024-05-28T12:23:45Z</time>
					</trkpt>
					<trkpt lat="49.501070" lon="1.998870">
						<ele>84</ele>
						<time>2024-05-28T12:24:08Z</time>
					</trkpt>
					<trkpt lat="49.500530" lon="1.999850">
						<ele>85</ele>
						<time>2024-05-28T12:24:23Z</time>
					</trkpt>
					<trkpt lat="49.499990" lon="2.001240">
						<ele>86</ele>
						<time>2024-05-28T12:24:42Z</time>
					</trkpt>
					<trkpt lat="49.498620" lon="1.999820">
						<ele>83</ele>
						<time>2024-05-28T12:25:11Z</time>
					</trkpt>
					<trkpt lat="49.498480" lon="1.999720">
						<ele>82</ele>
						<time>2024-05-28T12:25:14Z</time>
					</trkpt>
					<trkpt lat="49.497660" lon="1.999620">
						<ele>80</ele>
						<time>2024-05-28T12:25:29Z</time>
					</trkpt>
					<trkpt lat="49.496840" lon="1.999420">
						<ele>80</ele>
						<time>2024-05-28T12:25:43Z</time>
					</trkpt>
					<trkpt lat="49.496650" lon="1.999390">
						<ele>80</ele>
						<time>2024-05-28T12:25:47Z</time>
					</trkpt>
					<trkpt lat="49.496140" lon="1.999440">
						<ele>81</ele>
						<time>2024-05-28T12:25:56Z</time>
					</trkpt>
					<trkpt lat="49.496060" lon="1.999420">
						<ele>81</ele>
						<time>2024-05-28T12:25:57Z</time>
					</trkpt>
					<trkpt lat="49.495620" lon="1.999150">
						<ele>81</ele>
						<time>2024-05-28T12:26:06Z</time>
					</trkpt>
					<trkpt lat="49.495000" lon="1.998690">
						<ele>82</ele>
						<time>2024-05-28T12:26:18Z</time>
					</trkpt>
					<trkpt lat="49.493850" lon="1.997970">
						<ele>82</ele>
						<time>2024-05-28T12:26:40Z</time>
					</trkpt>
					<trkpt lat="49.493240" lon="1.997330">
						<ele>82</ele>
						<time>2024-05-28T12:26:53Z</time>
					</trkpt>
					<trkpt lat="49.492720" lon="1.996780">
						<ele>81</ele>
						<time>2024-05-28T12:27:05Z</time>
					</trkpt>
					<trkpt lat="49.492650" lon="1.996710">
						<ele>81</ele>
						<time>2024-05-28T12:27:06Z</time>
					</trkpt>
					<trkpt lat="49.492580" lon="1.996600">
						<ele>80</ele>
						<time>2024-05-28T12:27:08Z</time>
					</trkpt>
					<trkpt lat="49.492530" lon="1.996480">
						<ele>80</ele>
						<time>2024-05-28T12:27:09Z</time>
					</trkpt>
					<trkpt lat="49.492500" lon="1.996320">
						<ele>80</ele>
						<time>2024-05-28T12:27:11Z</time>
					</trkpt>
					<trkpt lat="49.492520" lon="1.996080">
						<ele>79</ele>
						<time>2024-05-28T12:27:14Z</time>
					</trkpt>
					<trkpt lat="49.492150" lon="1.996680">
						<ele>80</ele>
						<time>2024-05-28T12:27:24Z</time>
					</trkpt>
					<trkpt lat="49.491620" lon="1.997500">
						<ele>79</ele>
						<time>2024-05-28T12:27:37Z</time>
					</trkpt>
					<trkpt lat="49.491120" lon="1.998410">
						<ele>80</ele>
						<time>2024-05-28T12:27:51Z</time>
					</trkpt>
					<trkpt lat="49.490620" lon="1.999250">
						<ele>79</ele>
						<time>2024-05-28T12:28:04Z</time>
					</trkpt>
					<trkpt lat="49.489950" lon="2.000630">
						<ele>80</ele>
						<time>2024-05-28T12:28:24Z</time>
					</trkpt>
					<trkpt lat="49.489720" lon="2.001150">
						<ele>80</ele>
						<time>2024-05-28T12:28:31Z</time>
					</trkpt>
					<trkpt lat="49.489620" lon="2.001460">
						<ele>81</ele>
						<time>2024-05-28T12:28:35Z</time>
					</trkpt>
					<trkpt lat="49.489430" lon="2.002340">
						<ele>82</ele>
						<time>2024-05-28T12:28:46Z</time>
					</trkpt>
					<trkpt lat="49.489280" lon="2.002850">
						<ele>82</ele>
						<time>2024-05-28T12:28:52Z</time>
					</trkpt>
					<trkpt lat="49.489030" lon="2.003510">
						<ele>83</ele>
						<time>2024-05-28T12:29:01Z</time>
					</trkpt>
					<trkpt lat="49.489000" lon="2.003570">
						<ele>83</ele>
						<time>2024-05-28T12:29:02Z</time>
					</trkpt>
					<trkpt lat="49.488960" lon="2.003620">
						<ele>83</ele>
						<time>2024-05-28T12:29:03Z</time>
					</trkpt>
					<trkpt lat="49.488810" lon="2.004240">
						<ele>83</ele>
						<time>2024-05-28T12:29:11Z</time>
					</trkpt>
					<trkpt lat="49.488780" lon="2.004510">
						<ele>83</ele>
						<time>2024-05-28T12:29:14Z</time>
					</trkpt>
					<trkpt lat="49.488750" lon="2.005050">
						<ele>81</ele>
						<time>2024-05-28T12:29:20Z</time>
					</trkpt>
					<trkpt lat="49.488740" lon="2.005920">
						<ele>79</ele>
						<time>2024-05-28T12:29:30Z</time>
					</trkpt>
					<trkpt lat="49.488750" lon="2.007780">
						<ele>78</ele>
						<time>2024-05-28T12:29:52Z</time>
					</trkpt>
					<trkpt lat="49.488740" lon="2.008140">
						<ele>78</ele>
						<time>2024-05-28T12:29:56Z</time>
					</trkpt>
					<trkpt lat="49.488650" lon="2.008780">
						<ele>79</ele>
						<time>2024-05-28T12:30:03Z</time>
					</trkpt>
					<trkpt lat="49.488470" lon="2.009720">
						<ele>78</ele>
						<time>2024-05-28T12:30:15Z</time>
					</trkpt>
					<trkpt lat="49.488410" lon="2.009950">
						<ele>78</ele>
						<time>2024-05-28T12:30:18Z</time>
					</trkpt>
					<trkpt lat="49.488310" lon="2.010230">
						<ele>78</ele>
						<time>2024-05-28T12:30:21Z</time>
					</trkpt>
					<trkpt lat="49.488220" lon="2.010440">
						<ele>79</ele>
						<time>2024-05-28T12:30:24Z</time>
					</trkpt>
					<trkpt lat="49.488160" lon="2.010650">
						<ele>79</ele>
						<time>2024-05-28T12:30:27Z</time>
					</trkpt>
					<trkpt lat="49.488110" lon="2.010730">
						<ele>79</ele>
						<time>2024-05-28T12:30:28Z</time>
					</trkpt>
					<trkpt lat="49.488160" lon="2.011180">
						<ele>79</ele>
						<time>2024-05-28T12:30:33Z</time>
					</trkpt>
					<trkpt lat="49.488310" lon="2.012210">
						<ele>78</ele>
						<time>2024-05-28T12:30:46Z</time>
					</trkpt>
					<trkpt lat="49.488500" lon="2.012800">
						<ele>79</ele>
						<time>2024-05-28T12:30:53Z</time>
					</trkpt>
					<trkpt lat="49.488650" lon="2.013340">
						<ele>80</ele>
						<time>2024-05-28T12:31:00Z</time>
					</trkpt>
					<trkpt lat="49.488700" lon="2.013700">
						<ele>81</ele>
						<time>2024-05-28T12:31:04Z</time>
					</trkpt>
					<trkpt lat="49.488850" lon="2.015540">
						<ele>79</ele>
						<time>2024-05-28T12:31:26Z</time>
					</trkpt>
					<trkpt lat="49.488860" lon="2.016060">
						<ele>78</ele>
						<time>2024-05-28T12:31:32Z</time>
					</trkpt>
					<trkpt lat="49.488790" lon="2.017720">
						<ele>77</ele>
						<time>2024-05-28T12:31:51Z</time>
					</trkpt>
					<trkpt lat="49.488790" lon="2.018070">
						<ele>77</ele>
						<time>2024-05-28T12:31:55Z</time>
					</trkpt>
					<trkpt lat="49.488820" lon="2.018210">
						<ele>77</ele>
						<time>2024-05-28T12:31:57Z</time>
					</trkpt>
					<trkpt lat="49.488910" lon="2.018480">
						<ele>76</ele>
						<time>2024-05-28T12:32:00Z</time>
					</trkpt>
					<trkpt lat="49.488980" lon="2.018750">
						<ele>76</ele>
						<time>2024-05-28T12:32:04Z</time>
					</trkpt>
					<trkpt lat="49.489240" lon="2.019760">
						<ele>75</ele>
						<time>2024-05-28T12:32:16Z</time>
					</trkpt>
					<trkpt lat="49.489310" lon="2.020110">
						<ele>75</ele>
						<time>2024-05-28T12:32:20Z</time>
					</trkpt>
					<trkpt lat="49.489320" lon="2.020670">
						<ele>75</ele>
						<time>2024-05-28T12:32:27Z</time>
					</trkpt>
					<trkpt lat="49.489300" lon="2.021930">
						<ele>77</ele>
						<time>2024-05-28T12:32:41Z</time>
					</trkpt>
					<trkpt lat="49.489260" lon="2.022440">
						<ele>76</ele>
						<time>2024-05-28T12:32:47Z</time>
					</trkpt>
					<trkpt lat="49.489150" lon="2.022780">
						<ele>76</ele>
						<time>2024-05-28T12:32:52Z</time>
					</trkpt>
					<trkpt lat="49.489140" lon="2.023030">
						<ele>77</ele>
						<time>2024-05-28T12:32:55Z</time>
					</trkpt>
					<trkpt lat="49.489200" lon="2.023280">
						<ele>77</ele>
						<time>2024-05-28T12:32:58Z</time>
					</trkpt>
					<trkpt lat="49.489210" lon="2.023620">
						<ele>78</ele>
						<time>2024-05-28T12:33:02Z</time>
					</trkpt>
					<trkpt lat="49.489190" lon="2.023660">
						<ele>78</ele>
						<time>2024-05-28T12:33:02Z</time>
					</trkpt>
					<trkpt lat="49.489160" lon="2.023780">
						<ele>78</ele>
						<time>2024-05-28T12:33:04Z</time>
					</trkpt>
					<trkpt lat="49.488930" lon="2.024150">
						<ele>78</ele>
						<time>2024-05-28T12:33:10Z</time>
					</trkpt>
					<trkpt lat="49.488090" lon="2.024890">
						<ele>77</ele>
						<time>2024-05-28T12:33:27Z</time>
					</trkpt>
					<trkpt lat="49.487770" lon="2.025180">
						<ele>77</ele>
						<time>2024-05-28T12:33:33Z</time>
					</trkpt>
					<trkpt lat="49.487640" lon="2.025350">
						<ele>77</ele>
						<time>2024-05-28T12:33:36Z</time>
					</trkpt>
					<trkpt lat="49.487470" lon="2.025570">
						<ele>77</ele>
						<time>2024-05-28T12:33:40Z</time>
					</trkpt>
					<trkpt lat="49.487330" lon="2.025850">
						<ele>78</ele>
						<time>2024-05-28T12:33:45Z</time>
					</trkpt>
					<trkpt lat="49.487020" lon="2.026750">
						<ele>79</ele>
						<time>2024-05-28T12:33:56Z</time>
					</trkpt>
					<trkpt lat="49.486750" lon="2.027480">
						<ele>81</ele>
						<time>2024-05-28T12:34:06Z</time>
					</trkpt>
					<trkpt lat="49.485980" lon="2.029410">
						<ele>79</ele>
						<time>2024-05-28T12:34:32Z</time>
					</trkpt>
					<trkpt lat="49.485070" lon="2.032060">
						<ele>79</ele>
						<time>2024-05-28T12:35:07Z</time>
					</trkpt>
					<trkpt lat="49.484220" lon="2.034220">
						<ele>83</ele>
						<time>2024-05-28T12:35:36Z</time>
					</trkpt>
					<trkpt lat="49.482860" lon="2.037980">
						<ele>81</ele>
						<time>2024-05-28T12:36:26Z</time>
					</trkpt>
					<trkpt lat="49.482620" lon="2.038760">
						<ele>80</ele>
						<time>2024-05-28T12:36:36Z</time>
					</trkpt>
					<trkpt lat="49.482120" lon="2.040630">
						<ele>82</ele>
						<time>2024-05-28T12:36:59Z</time>
					</trkpt>
					<trkpt lat="49.481560" lon="2.042360">
						<ele>82</ele>
						<time>2024-05-28T12:37:21Z</time>
					</trkpt>
					<trkpt lat="49.481350" lon="2.042930">
						<ele>83</ele>
						<time>2024-05-28T12:37:29Z</time>
					</trkpt>
					<trkpt lat="49.481350" lon="2.043010">
						<ele>83</ele>
						<time>2024-05-28T12:37:30Z</time>
					</trkpt>
					<trkpt lat="49.481370" lon="2.043080">
						<ele>84</ele>
						<time>2024-05-28T12:37:31Z</time>
					</trkpt>
					<trkpt lat="49.480120" lon="2.044620">
						<ele>81</ele>
						<time>2024-05-28T12:37:59Z</time>
					</trkpt>
					<trkpt lat="49.479910" lon="2.044830">
						<ele>80</ele>
						<time>2024-05-28T12:38:04Z</time>
					</trkpt>
					<trkpt lat="49.479340" lon="2.045510">
						<ele>79</ele>
						<time>2024-05-28T12:38:17Z</time>
					</trkpt>
					<trkpt lat="49.478690" lon="2.046350">
						<ele>78</ele>
						<time>2024-05-28T12:38:32Z</time>
					</trkpt>
					<trkpt lat="49.478200" lon="2.047030">
						<ele>76</ele>
						<time>2024-05-28T12:38:43Z</time>
					</trkpt>
					<trkpt lat="49.477700" lon="2.047840">
						<ele>76</ele>
						<time>2024-05-28T12:38:56Z</time>
					</trkpt>
					<trkpt lat="49.476850" lon="2.049280">
						<ele>80</ele>
						<time>2024-05-28T12:39:19Z</time>
					</trkpt>
					<trkpt lat="49.475370" lon="2.051580">
						<ele>79</ele>
						<time>2024-05-28T12:39:56Z</time>
					</trkpt>
					<trkpt lat="49.475010" lon="2.052100">
						<ele>78</ele>
						<time>2024-05-28T12:40:05Z</time>
					</trkpt>
					<trkpt lat="49.474700" lon="2.052480">
						<ele>78</ele>
						<time>2024-05-28T12:40:12Z</time>
					</trkpt>
					<trkpt lat="49.474190" lon="2.053010">
						<ele>76</ele>
						<time>2024-05-28T12:40:23Z</time>
					</trkpt>
					<trkpt lat="49.465390" lon="2.060520">
						<ele>72</ele>
						<time>2024-05-28T12:43:22Z</time>
					</trkpt>
					<trkpt lat="49.465360" lon="2.060460">
						<ele>72</ele>
						<time>2024-05-28T12:43:23Z</time>
					</trkpt>
					<trkpt lat="49.465310" lon="2.060410">
						<ele>72</ele>
						<time>2024-05-28T12:43:24Z</time>
					</trkpt>
					<trkpt lat="49.464830" lon="2.060370">
						<ele>71</ele>
						<time>2024-05-28T12:43:33Z</time>
					</trkpt>
					<trkpt lat="49.464390" lon="2.060400">
						<ele>73</ele>
						<time>2024-05-28T12:43:40Z</time>
					</trkpt>
					<trkpt lat="49.463830" lon="2.060470">
						<ele>74</ele>
						<time>2024-05-28T12:43:50Z</time>
					</trkpt>
					<trkpt lat="49.463560" lon="2.060550">
						<ele>75</ele>
						<time>2024-05-28T12:43:55Z</time>
					</trkpt>
					<trkpt lat="49.462340" lon="2.061090">
						<ele>73</ele>
						<time>2024-05-28T12:44:18Z</time>
					</trkpt>
					<trkpt lat="49.460650" lon="2.061410">
						<ele>74</ele>
						<time>2024-05-28T12:44:48Z</time>
					</trkpt>
					<trkpt lat="49.460180" lon="2.061410">
						<ele>74</ele>
						<time>2024-05-28T12:44:57Z</time>
					</trkpt>
					<trkpt lat="49.458900" lon="2.061480">
						<ele>73</ele>
						<time>2024-05-28T12:45:19Z</time>
					</trkpt>
					<trkpt lat="49.457470" lon="2.061650">
						<ele>71</ele>
						<time>2024-05-28T12:45:45Z</time>
					</trkpt>
					<trkpt lat="49.455990" lon="2.062030">
						<ele>73</ele>
						<time>2024-05-28T12:46:12Z</time>
					</trkpt>
					<trkpt lat="49.455560" lon="2.062140">
						<ele>74</ele>
						<time>2024-05-28T12:46:19Z</time>
					</trkpt>
					<trkpt lat="49.454820" lon="2.062210">
						<ele>76</ele>
						<time>2024-05-28T12:46:33Z</time>
					</trkpt>
					<trkpt lat="49.454120" lon="2.062170">
						<ele>79</ele>
						<time>2024-05-28T12:46:45Z</time>
					</trkpt>
					<trkpt lat="49.452670" lon="2.062010">
						<ele>88</ele>
						<time>2024-05-28T12:47:11Z</time>
					</trkpt>
					<trkpt lat="49.452320" lon="2.061970">
						<ele>89</ele>
						<time>2024-05-28T12:47:17Z</time>
					</trkpt>
					<trkpt lat="49.452140" lon="2.061990">
						<ele>89</ele>
						<time>2024-05-28T12:47:20Z</time>
					</trkpt>
					<trkpt lat="49.451860" lon="2.062060">
						<ele>91</ele>
						<time>2024-05-28T12:47:25Z</time>
					</trkpt>
					<trkpt lat="49.451590" lon="2.062170">
						<ele>92</ele>
						<time>2024-05-28T12:47:30Z</time>
					</trkpt>
					<trkpt lat="49.451390" lon="2.062300">
						<ele>93</ele>
						<time>2024-05-28T12:47:34Z</time>
					</trkpt>
					<trkpt lat="49.450960" lon="2.062680">
						<ele>96</ele>
						<time>2024-05-28T12:47:43Z</time>
					</trkpt>
					<trkpt lat="49.450770" lon="2.062890">
						<ele>97</ele>
						<time>2024-05-28T12:47:47Z</time>
					</trkpt>
					<trkpt lat="49.450570" lon="2.063170">
						<ele>98</ele>
						<time>2024-05-28T12:47:52Z</time>
					</trkpt>
					<trkpt lat="49.450440" lon="2.063390">
						<ele>98</ele>
						<time>2024-05-28T12:47:55Z</time>
					</trkpt>
					<trkpt lat="49.450340" lon="2.063620">
						<ele>99</ele>
						<time>2024-05-28T12:47:59Z</time>
					</trkpt>
					<trkpt lat="49.450190" lon="2.064060">
						<ele>100</ele>
						<time>2024-05-28T12:48:04Z</time>
					</trkpt>
					<trkpt lat="49.449900" lon="2.064680">
						<ele>99</ele>
						<time>2024-05-28T12:48:13Z</time>
					</trkpt>
					<trkpt lat="49.449310" lon="2.065740">
						<ele>97</ele>
						<time>2024-05-28T12:48:29Z</time>
					</trkpt>
					<trkpt lat="49.448940" lon="2.066350">
						<ele>93</ele>
						<time>2024-05-28T12:48:39Z</time>
					</trkpt>
					<trkpt lat="49.448590" lon="2.066790">
						<ele>90</ele>
						<time>2024-05-28T12:48:47Z</time>
					</trkpt>
					<trkpt lat="49.447680" lon="2.068020">
						<ele>86</ele>
						<time>2024-05-28T12:49:09Z</time>
					</trkpt>
					<trkpt lat="49.445070" lon="2.072080">
						<ele>76</ele>
						<time>2024-05-28T12:50:15Z</time>
					</trkpt>
					<trkpt lat="49.444990" lon="2.072250">
						<ele>76</ele>
						<time>2024-05-28T12:50:17Z</time>
					</trkpt>
					<trkpt lat="49.444620" lon="2.073460">
						<ele>76</ele>
						<time>2024-05-28T12:50:33Z</time>
					</trkpt>
					<trkpt lat="49.444520" lon="2.073730">
						<ele>76</ele>
						<time>2024-05-28T12:50:36Z</time>
					</trkpt>
					<trkpt lat="49.444400" lon="2.073780">
						<ele>76</ele>
						<time>2024-05-28T12:50:38Z</time>
					</trkpt>
					<trkpt lat="49.443820" lon="2.073720">
						<ele>75</ele>
						<time>2024-05-28T12:50:49Z</time>
					</trkpt>
					<trkpt lat="49.443720" lon="2.073750">
						<ele>75</ele>
						<time>2024-05-28T12:50:51Z</time>
					</trkpt>
					<trkpt lat="49.443640" lon="2.073810">
						<ele>75</ele>
						<time>2024-05-28T12:50:52Z</time>
					</trkpt>
					<trkpt lat="49.443500" lon="2.073970">
						<ele>75</ele>
						<time>2024-05-28T12:50:55Z</time>
					</trkpt>
					<trkpt lat="49.443430" lon="2.074090">
						<ele>75</ele>
						<time>2024-05-28T12:50:57Z</time>
					</trkpt>
					<trkpt lat="49.443370" lon="2.074260">
						<ele>75</ele>
						<time>2024-05-28T12:50:59Z</time>
					</trkpt>
					<trkpt lat="49.443100" lon="2.075640">
						<ele>71</ele>
						<time>2024-05-28T12:51:16Z</time>
					</trkpt>
					<trkpt lat="49.443060" lon="2.075930">
						<ele>71</ele>
						<time>2024-05-28T12:51:19Z</time>
					</trkpt>
					<trkpt lat="49.443000" lon="2.076080">
						<ele>71</ele>
						<time>2024-05-28T12:51:21Z</time>
					</trkpt>
					<trkpt lat="49.442950" lon="2.076100">
						<ele>71</ele>
						<time>2024-05-28T12:51:22Z</time>
					</trkpt>
					<trkpt lat="49.442920" lon="2.076140">
						<ele>71</ele>
						<time>2024-05-28T12:51:23Z</time>
					</trkpt>
					<trkpt lat="49.442680" lon="2.076210">
						<ele>71</ele>
						<time>2024-05-28T12:51:27Z</time>
					</trkpt>
					<trkpt lat="49.442380" lon="2.076240">
						<ele>72</ele>
						<time>2024-05-28T12:51:33Z</time>
					</trkpt>
					<trkpt lat="49.442250" lon="2.076270">
						<ele>72</ele>
						<time>2024-05-28T12:51:35Z</time>
					</trkpt>
					<trkpt lat="49.440000" lon="2.076770">
						<ele>70</ele>
						<time>2024-05-28T12:52:16Z</time>
					</trkpt>
					<trkpt lat="49.439820" lon="2.076760">
						<ele>70</ele>
						<time>2024-05-28T12:52:19Z</time>
					</trkpt>
					<trkpt lat="49.439180" lon="2.076400">
						<ele>72</ele>
						<time>2024-05-28T12:52:31Z</time>
					</trkpt>
					<trkpt lat="49.438980" lon="2.076310">
						<ele>72</ele>
						<time>2024-05-28T12:52:35Z</time>
					</trkpt>
					<trkpt lat="49.438880" lon="2.076290">
						<ele>71</ele>
						<time>2024-05-28T12:52:36Z</time>
					</trkpt>
					<trkpt lat="49.438780" lon="2.076310">
						<ele>71</ele>
						<time>2024-05-28T12:52:38Z</time>
					</trkpt>
					<trkpt lat="49.438690" lon="2.076360">
						<ele>71</ele>
						<time>2024-05-28T12:52:40Z</time>
					</trkpt>
					<trkpt lat="49.438240" lon="2.076700">
						<ele>70</ele>
						<time>2024-05-28T12:52:49Z</time>
					</trkpt>
					<trkpt lat="49.438060" lon="2.076940">
						<ele>70</ele>
						<time>2024-05-28T12:52:53Z</time>
					</trkpt>
					<trkpt lat="49.437860" lon="2.077070">
						<ele>70</ele>
						<time>2024-05-28T12:52:57Z</time>
					</trkpt>
					<trkpt lat="49.437230" lon="2.077870">
						<ele>68</ele>
						<time>2024-05-28T12:53:11Z</time>
					</trkpt>
					<trkpt lat="49.437060" lon="2.077990">
						<ele>68</ele>
						<time>2024-05-28T12:53:15Z</time>
					</trkpt>
					<trkpt lat="49.437090" lon="2.078090">
						<ele>68</ele>
						<time>2024-05-28T12:53:16Z</time>
					</trkpt>
					<trkpt lat="49.437080" lon="2.078240">
						<ele>68</ele>
						<time>2024-05-28T12:53:18Z</time>
					</trkpt>
					<trkpt lat="49.436850" lon="2.080060">
						<ele>72</ele>
						<time>2024-05-28T12:53:39Z</time>
					</trkpt>
					<trkpt lat="49.436690" lon="2.080850">
						<ele>71</ele>
						<time>2024-05-28T12:53:49Z</time>
					</trkpt>
					<trkpt lat="49.436340" lon="2.082160">
						<ele>73</ele>
						<time>2024-05-28T12:54:05Z</time>
					</trkpt>
					<trkpt lat="49.435860" lon="2.082980">
						<ele>72</ele>
						<time>2024-05-28T12:54:18Z</time>
					</trkpt>
					<trkpt lat="49.435770" lon="2.083130">
						<ele>72</ele>
						<time>2024-05-28T12:54:20Z</time>
					</trkpt>
					<trkpt lat="49.435320" lon="2.083830">
						<ele>72</ele>
						<time>2024-05-28T12:54:32Z</time>
					</trkpt>
					<trkpt lat="49.435080" lon="2.084260">
						<ele>71</ele>
						<time>2024-05-28T12:54:38Z</time>
					</trkpt>
					<trkpt lat="49.434390" lon="2.085510">
						<ele>71</ele>
						<time>2024-05-28T12:54:57Z</time>
					</trkpt>
					<trkpt lat="49.434340" lon="2.085660">
						<ele>72</ele>
						<time>2024-05-28T12:54:59Z</time>
					</trkpt>
					<trkpt lat="49.433470" lon="2.084970">
						<ele>70</ele>
						<time>2024-05-28T12:55:17Z</time>
					</trkpt>
					<trkpt lat="49.432840" lon="2.084600">
						<ele>70</ele>
						<time>2024-05-28T12:55:29Z</time>
					</trkpt>
					<trkpt lat="49.431310" lon="2.083740">
						<ele>70</ele>
						<time>2024-05-28T12:55:58Z</time>
					</trkpt>
					<trkpt lat="49.431240" lon="2.083740">
						<ele>70</ele>
						<time>2024-05-28T12:55:59Z</time>
					</trkpt>
					<trkpt lat="49.430250" lon="2.083010">
						<ele>68</ele>
						<time>2024-05-28T12:56:18Z</time>
					</trkpt>
					<trkpt lat="49.429750" lon="2.082560">
						<ele>67</ele>
						<time>2024-05-28T12:56:29Z</time>
					</trkpt>
					<trkpt lat="49.429580" lon="2.082480">
						<ele>67</ele>
						<time>2024-05-28T12:56:32Z</time>
					</trkpt>
					<trkpt lat="49.428930" lon="2.082190">
						<ele>67</ele>
						<time>2024-05-28T12:56:44Z</time>
					</trkpt>
					<trkpt lat="49.428020" lon="2.081760">
						<ele>68</ele>
						<time>2024-05-28T12:57:01Z</time>
					</trkpt>
					<trkpt lat="49.427480" lon="2.081500">
						<ele>68</ele>
						<time>2024-05-28T12:57:11Z</time>
					</trkpt>
					<trkpt lat="49.426810" lon="2.081210">
						<ele>68</ele>
						<time>2024-05-28T12:57:23Z</time>
					</trkpt>
					<trkpt lat="49.426510" lon="2.081160">
						<ele>68</ele>
						<time>2024-05-28T12:57:29Z</time>
					</trkpt>
					<trkpt lat="49.426180" lon="2.081200">
						<ele>68</ele>
						<time>2024-05-28T12:57:35Z</time>
					</trkpt>
					<trkpt lat="49.425890" lon="2.081330">
						<ele>69</ele>
						<time>2024-05-28T12:57:40Z</time>
					</trkpt>
					<trkpt lat="49.425650" lon="2.081520">
						<ele>73</ele>
						<time>2024-05-28T12:57:45Z</time>
					</trkpt>
					<trkpt lat="49.425440" lon="2.081640">
						<ele>78</ele>
						<time>2024-05-28T12:57:49Z</time>
					</trkpt>
					<trkpt lat="49.425380" lon="2.081610">
						<ele>79</ele>
						<time>2024-05-28T12:57:50Z</time>
					</trkpt>
					<trkpt lat="49.425320" lon="2.081630">
						<ele>80</ele>
						<time>2024-05-28T12:57:51Z</time>
					</trkpt>
					<trkpt lat="49.425270" lon="2.081720">
						<ele>81</ele>
						<time>2024-05-28T12:57:52Z</time>
					</trkpt>
					<trkpt lat="49.425250" lon="2.082040">
						<ele>81</ele>
						<time>2024-05-28T12:57:56Z</time>
					</trkpt>
					<trkpt lat="49.425220" lon="2.082200">
						<ele>81</ele>
						<time>2024-05-28T12:57:58Z</time>
					</trkpt>
					<trkpt lat="49.424960" lon="2.082950">
						<ele>80</ele>
						<time>2024-05-28T12:58:08Z</time>
					</trkpt>
					<trkpt lat="49.424900" lon="2.083080">
						<ele>79</ele>
						<time>2024-05-28T12:58:10Z</time>
					</trkpt>
					<trkpt lat="49.424750" lon="2.083400">
						<ele>78</ele>
						<time>2024-05-28T12:58:14Z</time>
					</trkpt>
					<trkpt lat="49.424500" lon="2.083770">
						<ele>77</ele>
						<time>2024-05-28T12:58:20Z</time>
					</trkpt>
					<trkpt lat="49.424080" lon="2.084290">
						<ele>76</ele>
						<time>2024-05-28T12:58:30Z</time>
					</trkpt>
					<trkpt lat="49.423780" lon="2.084690">
						<ele>76</ele>
						<time>2024-05-28T12:58:37Z</time>
					</trkpt>
					<trkpt lat="49.423660" lon="2.084880">
						<ele>76</ele>
						<time>2024-05-28T12:58:40Z</time>
					</trkpt>
					<trkpt lat="49.423380" lon="2.085570">
						<ele>78</ele>
						<time>2024-05-28T12:58:50Z</time>
					</trkpt>
					<trkpt lat="49.423290" lon="2.085520">
						<ele>79</ele>
						<time>2024-05-28T12:58:51Z</time>
					</trkpt>
					<trkpt lat="49.423200" lon="2.085530">
						<ele>80</ele>
						<time>2024-05-28T12:58:53Z</time>
					</trkpt>
					<trkpt lat="49.423150" lon="2.085590">
						<ele>81</ele>
						<time>2024-05-28T12:58:54Z</time>
					</trkpt>
					<trkpt lat="49.423090" lon="2.085690">
						<ele>82</ele>
						<time>2024-05-28T12:58:56Z</time>
					</trkpt>
					<trkpt lat="49.422940" lon="2.086140">
						<ele>82</ele>
						<time>2024-05-28T12:59:01Z</time>
					</trkpt>
					<trkpt lat="49.422850" lon="2.086310">
						<ele>83</ele>
						<time>2024-05-28T12:59:04Z</time>
					</trkpt>
					<trkpt lat="49.422720" lon="2.086470">
						<ele>84</ele>
						<time>2024-05-28T12:59:07Z</time>
					</trkpt>
					<trkpt lat="49.422530" lon="2.086600">
						<ele>86</ele>
						<time>2024-05-28T12:59:11Z</time>
					</trkpt>
					<trkpt lat="49.422360" lon="2.086670">
						<ele>87</ele>
						<time>2024-05-28T12:59:14Z</time>
					</trkpt>
					<trkpt lat="49.421970" lon="2.086710">
						<ele>89</ele>
						<time>2024-05-28T12:59:21Z</time>
					</trkpt>
					<trkpt lat="49.421880" lon="2.086700">
						<ele>90</ele>
						<time>2024-05-28T12:59:22Z</time>
					</trkpt>
					<trkpt lat="49.420350" lon="2.086530">
						<ele>95</ele>
						<time>2024-05-28T12:59:50Z</time>
					</trkpt>
					<trkpt lat="49.419950" lon="2.086560">
						<ele>95</ele>
						<time>2024-05-28T12:59:57Z</time>
					</trkpt>
					<trkpt lat="49.419570" lon="2.086630">
						<ele>96</ele>
						<time>2024-05-28T13:00:03Z</time>
					</trkpt>
					<trkpt lat="49.419210" lon="2.086720">
						<ele>96</ele>
						<time>2024-05-28T13:00:10Z</time>
					</trkpt>
					<trkpt lat="49.418530" lon="2.087110">
						<ele>98</ele>
						<time>2024-05-28T13:00:23Z</time>
					</trkpt>
					<trkpt lat="49.417010" lon="2.088100">
						<ele>94</ele>
						<time>2024-05-28T13:00:52Z</time>
					</trkpt>
					<trkpt lat="49.416560" lon="2.088270">
						<ele>92</ele>
						<time>2024-05-28T13:01:01Z</time>
					</trkpt>
					<trkpt lat="49.415820" lon="2.088510">
						<ele>92</ele>
						<time>2024-05-28T13:01:14Z</time>
					</trkpt>
					<trkpt lat="49.415220" lon="2.088670">
						<ele>96</ele>
						<time>2024-05-28T13:01:25Z</time>
					</trkpt>
					<trkpt lat="49.414970" lon="2.088780">
						<ele>97</ele>
						<time>2024-05-28T13:01:29Z</time>
					</trkpt>
					<trkpt lat="49.414470" lon="2.089160">
						<ele>98</ele>
						<time>2024-05-28T13:01:39Z</time>
					</trkpt>
					<trkpt lat="49.414200" lon="2.089300">
						<ele>99</ele>
						<time>2024-05-28T13:01:44Z</time>
					</trkpt>
					<trkpt lat="49.413330" lon="2.089680">
						<ele>102</ele>
						<time>2024-05-28T13:02:01Z</time>
					</trkpt>
					<trkpt lat="49.411470" lon="2.090330">
						<ele>103</ele>
						<time>2024-05-28T13:02:34Z</time>
					</trkpt>
					<trkpt lat="49.411180" lon="2.090460">
						<ele>103</ele>
						<time>2024-05-28T13:02:40Z</time>
					</trkpt>
					<trkpt lat="49.410620" lon="2.090820">
						<ele>104</ele>
						<time>2024-05-28T13:02:51Z</time>
					</trkpt>
					<trkpt lat="49.410410" lon="2.090850">
						<ele>104</ele>
						<time>2024-05-28T13:02:54Z</time>
					</trkpt>
					<trkpt lat="49.410310" lon="2.090810">
						<ele>104</ele>
						<time>2024-05-28T13:02:56Z</time>
					</trkpt>
					<trkpt lat="49.410190" lon="2.090710">
						<ele>105</ele>
						<time>2024-05-28T13:02:59Z</time>
					</trkpt>
					<trkpt lat="49.409930" lon="2.090360">
						<ele>109</ele>
						<time>2024-05-28T13:03:05Z</time>
					</trkpt>
					<trkpt lat="49.409890" lon="2.090270">
						<ele>110</ele>
						<time>2024-05-28T13:03:06Z</time>
					</trkpt>
					<trkpt lat="49.409850" lon="2.090060">
						<ele>111</ele>
						<time>2024-05-28T13:03:09Z</time>
					</trkpt>
					<trkpt lat="49.409830" lon="2.090000">
						<ele>111</ele>
						<time>2024-05-28T13:03:09Z</time>
					</trkpt>
					<trkpt lat="49.409770" lon="2.089940">
						<ele>111</ele>
						<time>2024-05-28T13:03:11Z</time>
					</trkpt>
					<trkpt lat="49.409700" lon="2.089930">
						<ele>111</ele>
						<time>2024-05-28T13:03:12Z</time>
					</trkpt>
					<trkpt lat="49.409640" lon="2.089960">
						<ele>111</ele>
						<time>2024-05-28T13:03:13Z</time>
					</trkpt>
					<trkpt lat="49.409600" lon="2.090010">
						<ele>110</ele>
						<time>2024-05-28T13:03:14Z</time>
					</trkpt>
					<trkpt lat="49.409490" lon="2.090040">
						<ele>110</ele>
						<time>2024-05-28T13:03:16Z</time>
					</trkpt>
					<trkpt lat="49.409260" lon="2.090020">
						<ele>109</ele>
						<time>2024-05-28T13:03:20Z</time>
					</trkpt>
					<trkpt lat="49.409110" lon="2.089940">
						<ele>109</ele>
						<time>2024-05-28T13:03:23Z</time>
					</trkpt>
					<trkpt lat="49.408660" lon="2.089610">
						<ele>110</ele>
						<time>2024-05-28T13:03:32Z</time>
					</trkpt>
					<trkpt lat="49.408410" lon="2.089470">
						<ele>110</ele>
						<time>2024-05-28T13:03:36Z</time>
					</trkpt>
					<trkpt lat="49.408060" lon="2.089360">
						<ele>112</ele>
						<time>2024-05-28T13:03:43Z</time>
					</trkpt>
					<trkpt lat="49.407500" lon="2.089240">
						<ele>115</ele>
						<time>2024-05-28T13:03:53Z</time>
					</trkpt>
					<trkpt lat="49.407300" lon="2.089220">
						<ele>116</ele>
						<time>2024-05-28T13:03:56Z</time>
					</trkpt>
					<trkpt lat="49.407100" lon="2.089230">
						<ele>117</ele>
						<time>2024-05-28T13:04:00Z</time>
					</trkpt>
					<trkpt lat="49.406280" lon="2.089450">
						<ele>120</ele>
						<time>2024-05-28T13:04:15Z</time>
					</trkpt>
					<trkpt lat="49.405950" lon="2.089460">
						<ele>122</ele>
						<time>2024-05-28T13:04:21Z</time>
					</trkpt>
					<trkpt lat="49.405390" lon="2.089330">
						<ele>123</ele>
						<time>2024-05-28T13:04:31Z</time>
					</trkpt>
					<trkpt lat="49.404410" lon="2.088920">
						<ele>124</ele>
						<time>2024-05-28T13:04:49Z</time>
					</trkpt>
					<trkpt lat="49.403960" lon="2.088770">
						<ele>124</ele>
						<time>2024-05-28T13:04:57Z</time>
					</trkpt>
					<trkpt lat="49.403330" lon="2.088600">
						<ele>125</ele>
						<time>2024-05-28T13:05:08Z</time>
					</trkpt>
					<trkpt lat="49.402930" lon="2.088400">
						<ele>126</ele>
						<time>2024-05-28T13:05:16Z</time>
					</trkpt>
					<trkpt lat="49.402760" lon="2.088240">
						<ele>126</ele>
						<time>2024-05-28T13:05:19Z</time>
					</trkpt>
					<trkpt lat="49.402590" lon="2.088030">
						<ele>127</ele>
						<time>2024-05-28T13:05:23Z</time>
					</trkpt>
					<trkpt lat="49.402060" lon="2.087290">
						<ele>124</ele>
						<time>2024-05-28T13:05:36Z</time>
					</trkpt>
					<trkpt lat="49.401910" lon="2.087050">
						<ele>123</ele>
						<time>2024-05-28T13:05:40Z</time>
					</trkpt>
					<trkpt lat="49.401700" lon="2.086590">
						<ele>122</ele>
						<time>2024-05-28T13:05:46Z</time>
					</trkpt>
					<trkpt lat="49.401110" lon="2.085220">
						<ele>118</ele>
						<time>2024-05-28T13:06:05Z</time>
					</trkpt>
					<trkpt lat="49.400910" lon="2.084810">
						<ele>116</ele>
						<time>2024-05-28T13:06:11Z</time>
					</trkpt>
					<trkpt lat="49.399160" lon="2.081790">
						<ele>103</ele>
						<time>2024-05-28T13:06:58Z</time>
					</trkpt>
					<trkpt lat="49.398820" lon="2.081310">
						<ele>102</ele>
						<time>2024-05-28T13:07:06Z</time>
					</trkpt>
					<trkpt lat="49.397860" lon="2.080090">
						<ele>97</ele>
						<time>2024-05-28T13:07:29Z</time>
					</trkpt>
					<trkpt lat="49.397560" lon="2.079800">
						<ele>95</ele>
						<time>2024-05-28T13:07:35Z</time>
					</trkpt>
					<trkpt lat="49.397310" lon="2.079640">
						<ele>94</ele>
						<time>2024-05-28T13:07:40Z</time>
					</trkpt>
					<trkpt lat="49.397140" lon="2.079580">
						<ele>93</ele>
						<time>2024-05-28T13:07:43Z</time>
					</trkpt>
					<trkpt lat="49.396890" lon="2.079550">
						<ele>92</ele>
						<time>2024-05-28T13:07:47Z</time>
					</trkpt>
					<trkpt lat="49.396700" lon="2.079570">
						<ele>91</ele>
						<time>2024-05-28T13:07:51Z</time>
					</trkpt>
					<trkpt lat="49.396530" lon="2.079620">
						<ele>90</ele>
						<time>2024-05-28T13:07:54Z</time>
					</trkpt>
					<trkpt lat="49.396310" lon="2.079730">
						<ele>89</ele>
						<time>2024-05-28T13:07:58Z</time>
					</trkpt>
					<trkpt lat="49.396060" lon="2.079920">
						<ele>88</ele>
						<time>2024-05-28T13:08:03Z</time>
					</trkpt>
					<trkpt lat="49.395090" lon="2.080820">
						<ele>82</ele>
						<time>2024-05-28T13:08:23Z</time>
					</trkpt>
					<trkpt lat="49.394720" lon="2.081100">
						<ele>81</ele>
						<time>2024-05-28T13:08:30Z</time>
					</trkpt>
					<trkpt lat="49.394500" lon="2.081180">
						<ele>80</ele>
						<time>2024-05-28T13:08:34Z</time>
					</trkpt>
					<trkpt lat="49.391430" lon="2.081160">
						<ele>83</ele>
						<time>2024-05-28T13:09:29Z</time>
					</trkpt>
					<trkpt lat="49.388750" lon="2.081100">
						<ele>81</ele>
						<time>2024-05-28T13:10:17Z</time>
					</trkpt>
					<trkpt lat="49.388480" lon="2.081030">
						<ele>80</ele>
						<time>2024-05-28T13:10:22Z</time>
					</trkpt>
					<trkpt lat="49.388390" lon="2.080970">
						<ele>80</ele>
						<time>2024-05-28T13:10:23Z</time>
					</trkpt>
					<trkpt lat="49.388320" lon="2.080880">
						<ele>80</ele>
						<time>2024-05-28T13:10:25Z</time>
					</trkpt>
					<trkpt lat="49.388260" lon="2.080850">
						<ele>80</ele>
						<time>2024-05-28T13:10:26Z</time>
					</trkpt>
					<trkpt lat="49.388180" lon="2.080880">
						<ele>80</ele>
						<time>2024-05-28T13:10:27Z</time>
					</trkpt>
					<trkpt lat="49.388120" lon="2.080970">
						<ele>81</ele>
						<time>2024-05-28T13:10:29Z</time>
					</trkpt>
					<trkpt lat="49.388020" lon="2.081030">
						<ele>81</ele>
						<time>2024-05-28T13:10:31Z</time>
					</trkpt>
					<trkpt lat="49.387750" lon="2.081070">
						<ele>81</ele>
						<time>2024-05-28T13:10:36Z</time>
					</trkpt>
					<trkpt lat="49.386410" lon="2.081030">
						<ele>84</ele>
						<time>2024-05-28T13:11:00Z</time>
					</trkpt>
					<trkpt lat="49.386260" lon="2.081060">
						<ele>84</ele>
						<time>2024-05-28T13:11:02Z</time>
					</trkpt>
					<trkpt lat="49.385750" lon="2.081220">
						<ele>84</ele>
						<time>2024-05-28T13:11:12Z</time>
					</trkpt>
					<trkpt lat="49.385450" lon="2.081250">
						<ele>84</ele>
						<time>2024-05-28T13:11:17Z</time>
					</trkpt>
					<trkpt lat="49.385110" lon="2.081160">
						<ele>85</ele>
						<time>2024-05-28T13:11:23Z</time>
					</trkpt>
					<trkpt lat="49.383960" lon="2.080650">
						<ele>85</ele>
						<time>2024-05-28T13:11:44Z</time>
					</trkpt>
					<trkpt lat="49.383560" lon="2.080520">
						<ele>86</ele>
						<time>2024-05-28T13:11:52Z</time>
					</trkpt>
					<trkpt lat="49.382130" lon="2.080280">
						<ele>90</ele>
						<time>2024-05-28T13:12:17Z</time>
					</trkpt>
					<trkpt lat="49.381970" lon="2.080270">
						<ele>90</ele>
						<time>2024-05-28T13:12:20Z</time>
					</trkpt>
					<trkpt lat="49.381740" lon="2.080330">
						<ele>91</ele>
						<time>2024-05-28T13:12:24Z</time>
					</trkpt>
					<trkpt lat="49.381280" lon="2.080580">
						<ele>92</ele>
						<time>2024-05-28T13:12:33Z</time>
					</trkpt>
					<trkpt lat="49.381150" lon="2.080600">
						<ele>92</ele>
						<time>2024-05-28T13:12:35Z</time>
					</trkpt>
					<trkpt lat="49.381020" lon="2.080570">
						<ele>92</ele>
						<time>2024-05-28T13:12:38Z</time>
					</trkpt>
					<trkpt lat="49.380870" lon="2.080470">
						<ele>92</ele>
						<time>2024-05-28T13:12:40Z</time>
					</trkpt>
					<trkpt lat="49.380760" lon="2.080360">
						<ele>93</ele>
						<time>2024-05-28T13:12:43Z</time>
					</trkpt>
					<trkpt lat="49.380080" lon="2.079410">
						<ele>94</ele>
						<time>2024-05-28T13:12:59Z</time>
					</trkpt>
					<trkpt lat="49.379720" lon="2.078980">
						<ele>93</ele>
						<time>2024-05-28T13:13:07Z</time>
					</trkpt>
					<trkpt lat="49.379590" lon="2.078880">
						<ele>93</ele>
						<time>2024-05-28T13:13:10Z</time>
					</trkpt>
					<trkpt lat="49.379470" lon="2.078830">
						<ele>93</ele>
						<time>2024-05-28T13:13:12Z</time>
					</trkpt>
					<trkpt lat="49.379290" lon="2.078850">
						<ele>92</ele>
						<time>2024-05-28T13:13:15Z</time>
					</trkpt>
					<trkpt lat="49.378950" lon="2.079010">
						<ele>92</ele>
						<time>2024-05-28T13:13:22Z</time>
					</trkpt>
					<trkpt lat="49.377900" lon="2.079610">
						<ele>89</ele>
						<time>2024-05-28T13:13:42Z</time>
					</trkpt>
					<trkpt lat="49.377730" lon="2.079670">
						<ele>89</ele>
						<time>2024-05-28T13:13:45Z</time>
					</trkpt>
					<trkpt lat="49.377530" lon="2.079710">
						<ele>89</ele>
						<time>2024-05-28T13:13:48Z</time>
					</trkpt>
					<trkpt lat="49.376940" lon="2.079720">
						<ele>89</ele>
						<time>2024-05-28T13:13:59Z</time>
					</trkpt>
					<trkpt lat="49.376600" lon="2.079680">
						<ele>89</ele>
						<time>2024-05-28T13:14:05Z</time>
					</trkpt>
					<trkpt lat="49.376350" lon="2.079580">
						<ele>89</ele>
						<time>2024-05-28T13:14:09Z</time>
					</trkpt>
					<trkpt lat="49.376210" lon="2.079470">
						<ele>89</ele>
						<time>2024-05-28T13:14:12Z</time>
					</trkpt>
					<trkpt lat="49.374460" lon="2.077730">
						<ele>90</ele>
						<time>2024-05-28T13:14:49Z</time>
					</trkpt>
					<trkpt lat="49.374170" lon="2.077540">
						<ele>90</ele>
						<time>2024-05-28T13:14:55Z</time>
					</trkpt>
					<trkpt lat="49.373340" lon="2.077190">
						<ele>90</ele>
						<time>2024-05-28T13:15:10Z</time>
					</trkpt>
					<trkpt lat="49.373190" lon="2.077080">
						<ele>90</ele>
						<time>2024-05-28T13:15:13Z</time>
					</trkpt>
					<trkpt lat="49.372990" lon="2.076890">
						<ele>90</ele>
						<time>2024-05-28T13:15:17Z</time>
					</trkpt>
					<trkpt lat="49.372660" lon="2.076460">
						<ele>91</ele>
						<time>2024-05-28T13:15:25Z</time>
					</trkpt>
					<trkpt lat="49.372470" lon="2.076170">
						<ele>92</ele>
						<time>2024-05-28T13:15:30Z</time>
					</trkpt>
					<trkpt lat="49.371550" lon="2.074430">
						<ele>95</ele>
						<time>2024-05-28T13:15:56Z</time>
					</trkpt>
					<trkpt lat="49.371310" lon="2.074010">
						<ele>96</ele>
						<time>2024-05-28T13:16:02Z</time>
					</trkpt>
					<trkpt lat="49.370510" lon="2.073070">
						<ele>96</ele>
						<time>2024-05-28T13:16:20Z</time>
					</trkpt>
					<trkpt lat="49.369120" lon="2.071710">
						<ele>97</ele>
						<time>2024-05-28T13:16:49Z</time>
					</trkpt>
					<trkpt lat="49.367770" lon="2.070430">
						<ele>97</ele>
						<time>2024-05-28T13:17:18Z</time>
					</trkpt>
					<trkpt lat="49.367590" lon="2.070300">
						<ele>97</ele>
						<time>2024-05-28T13:17:21Z</time>
					</trkpt>
					<trkpt lat="49.367400" lon="2.070200">
						<ele>97</ele>
						<time>2024-05-28T13:17:25Z</time>
					</trkpt>
					<trkpt lat="49.365550" lon="2.069640">
						<ele>97</ele>
						<time>2024-05-28T13:17:58Z</time>
					</trkpt>
					<trkpt lat="49.364580" lon="2.069600">
						<ele>99</ele>
						<time>2024-05-28T13:18:16Z</time>
					</trkpt>
					<trkpt lat="49.364450" lon="2.069570">
						<ele>99</ele>
						<time>2024-05-28T13:18:18Z</time>
					</trkpt>
					<trkpt lat="49.364370" lon="2.069510">
						<ele>100</ele>
						<time>2024-05-28T13:18:20Z</time>
					</trkpt>
					<trkpt lat="49.363940" lon="2.068900">
						<ele>102</ele>
						<time>2024-05-28T13:18:30Z</time>
					</trkpt>
					<trkpt lat="49.363770" lon="2.068560">
						<ele>102</ele>
						<time>2024-05-28T13:18:35Z</time>
					</trkpt>
					<trkpt lat="49.362250" lon="2.065030">
						<ele>105</ele>
						<time>2024-05-28T13:19:24Z</time>
					</trkpt>
					<trkpt lat="49.362130" lon="2.064780">
						<ele>105</ele>
						<time>2024-05-28T13:19:28Z</time>
					</trkpt>
					<trkpt lat="49.361930" lon="2.064460">
						<ele>104</ele>
						<time>2024-05-28T13:19:33Z</time>
					</trkpt>
					<trkpt lat="49.361980" lon="2.064340">
						<ele>104</ele>
						<time>2024-05-28T13:19:34Z</time>
					</trkpt>
					<trkpt lat="49.362000" lon="2.064250">
						<ele>104</ele>
						<time>2024-05-28T13:19:35Z</time>
					</trkpt>
					<trkpt lat="49.361420" lon="2.056450">
						<ele>119</ele>
						<time>2024-05-28T13:21:06Z</time>
					</trkpt>
					<trkpt lat="49.361320" lon="2.055240">
						<ele>120</ele>
						<time>2024-05-28T13:21:21Z</time>
					</trkpt>
					<trkpt lat="49.360860" lon="2.052170">
						<ele>129</ele>
						<time>2024-05-28T13:21:57Z</time>
					</trkpt>
					<trkpt lat="49.360630" lon="2.050510">
						<ele>130</ele>
						<time>2024-05-28T13:22:17Z</time>
					</trkpt>
					<trkpt lat="49.360610" lon="2.050080">
						<ele>131</ele>
						<time>2024-05-28T13:22:22Z</time>
					</trkpt>
					<trkpt lat="49.360730" lon="2.048730">
						<ele>125</ele>
						<time>2024-05-28T13:22:38Z</time>
					</trkpt>
					<trkpt lat="49.360730" lon="2.048220">
						<ele>122</ele>
						<time>2024-05-28T13:22:43Z</time>
					</trkpt>
					<trkpt lat="49.360360" lon="2.044320">
						<ele>122</ele>
						<time>2024-05-28T13:23:29Z</time>
					</trkpt>
					<trkpt lat="49.360250" lon="2.043860">
						<ele>123</ele>
						<time>2024-05-28T13:23:35Z</time>
					</trkpt>
					<trkpt lat="49.360240" lon="2.043660">
						<ele>123</ele>
						<time>2024-05-28T13:23:37Z</time>
					</trkpt>
					<trkpt lat="49.360120" lon="2.043650">
						<ele>124</ele>
						<time>2024-05-28T13:23:39Z</time>
					</trkpt>
					<trkpt lat="49.358430" lon="2.043210">
						<ele>130</ele>
						<time>2024-05-28T13:24:10Z</time>
					</trkpt>
					<trkpt lat="49.358090" lon="2.043080">
						<ele>132</ele>
						<time>2024-05-28T13:24:16Z</time>
					</trkpt>
					<trkpt lat="49.355720" lon="2.041080">
						<ele>140</ele>
						<time>2024-05-28T13:25:04Z</time>
					</trkpt>
					<trkpt lat="49.353990" lon="2.040130">
						<ele>137</ele>
						<time>2024-05-28T13:25:37Z</time>
					</trkpt>
					<trkpt lat="49.353860" lon="2.040080">
						<ele>137</ele>
						<time>2024-05-28T13:25:39Z</time>
					</trkpt>
					<trkpt lat="49.353790" lon="2.040010">
						<ele>137</ele>
						<time>2024-05-28T13:25:41Z</time>
					</trkpt>
					<trkpt lat="49.353660" lon="2.039800">
						<ele>137</ele>
						<time>2024-05-28T13:25:44Z</time>
					</trkpt>
					<trkpt lat="49.353600" lon="2.039920">
						<ele>136</ele>
						<time>2024-05-28T13:25:46Z</time>
					</trkpt>
					<trkpt lat="49.353530" lon="2.039890">
						<ele>136</ele>
						<time>2024-05-28T13:25:47Z</time>
					</trkpt>
					<trkpt lat="49.353210" lon="2.039950">
						<ele>135</ele>
						<time>2024-05-28T13:25:53Z</time>
					</trkpt>
					<trkpt lat="49.353020" lon="2.039950">
						<ele>135</ele>
						<time>2024-05-28T13:25:56Z</time>
					</trkpt>
					<trkpt lat="49.352620" lon="2.039900">
						<ele>134</ele>
						<time>2024-05-28T13:26:03Z</time>
					</trkpt>
					<trkpt lat="49.350930" lon="2.039610">
						<ele>140</ele>
						<time>2024-05-28T13:26:34Z</time>
					</trkpt>
					<trkpt lat="49.350520" lon="2.039510">
						<ele>142</ele>
						<time>2024-05-28T13:26:41Z</time>
					</trkpt>
					<trkpt lat="49.350240" lon="2.039370">
						<ele>143</ele>
						<time>2024-05-28T13:26:46Z</time>
					</trkpt>
					<trkpt lat="49.350030" lon="2.039230">
						<ele>145</ele>
						<time>2024-05-28T13:26:50Z</time>
					</trkpt>
					<trkpt lat="49.349830" lon="2.039070">
						<ele>146</ele>
						<time>2024-05-28T13:26:54Z</time>
					</trkpt>
					<trkpt lat="49.346070" lon="2.035700">
						<ele>168</ele>
						<time>2024-05-28T13:28:12Z</time>
					</trkpt>
					<trkpt lat="49.345580" lon="2.035280">
						<ele>172</ele>
						<time>2024-05-28T13:28:22Z</time>
					</trkpt>
					<trkpt lat="49.345260" lon="2.035060">
						<ele>174</ele>
						<time>2024-05-28T13:28:28Z</time>
					</trkpt>
					<trkpt lat="49.344860" lon="2.034850">
						<ele>179</ele>
						<time>2024-05-28T13:28:36Z</time>
					</trkpt>
					<trkpt lat="49.344570" lon="2.034760">
						<ele>185</ele>
						<time>2024-05-28T13:28:41Z</time>
					</trkpt>
					<trkpt lat="49.344380" lon="2.034780">
						<ele>188</ele>
						<time>2024-05-28T13:28:44Z</time>
					</trkpt>
					<trkpt lat="49.344270" lon="2.034850">
						<ele>189</ele>
						<time>2024-05-28T13:28:46Z</time>
					</trkpt>
					<trkpt lat="49.344170" lon="2.034970">
						<ele>189</ele>
						<time>2024-05-28T13:28:49Z</time>
					</trkpt>
					<trkpt lat="49.344100" lon="2.035130">
						<ele>191</ele>
						<time>2024-05-28T13:28:51Z</time>
					</trkpt>
					<trkpt lat="49.344050" lon="2.035380">
						<ele>192</ele>
						<time>2024-05-28T13:28:54Z</time>
					</trkpt>
					<trkpt lat="49.344070" lon="2.036880">
						<ele>193</ele>
						<time>2024-05-28T13:29:11Z</time>
					</trkpt>
					<trkpt lat="49.344070" lon="2.038320">
						<ele>195</ele>
						<time>2024-05-28T13:29:28Z</time>
					</trkpt>
					<trkpt lat="49.344030" lon="2.040620">
						<ele>201</ele>
						<time>2024-05-28T13:29:55Z</time>
					</trkpt>
					<trkpt lat="49.344020" lon="2.040890">
						<ele>200</ele>
						<time>2024-05-28T13:29:58Z</time>
					</trkpt>
					<trkpt lat="49.343990" lon="2.041130">
						<ele>200</ele>
						<time>2024-05-28T13:30:01Z</time>
					</trkpt>
					<trkpt lat="49.343900" lon="2.041460">
						<ele>200</ele>
						<time>2024-05-28T13:30:05Z</time>
					</trkpt>
					<trkpt lat="49.343810" lon="2.041640">
						<ele>201</ele>
						<time>2024-05-28T13:30:07Z</time>
					</trkpt>
					<trkpt lat="49.343640" lon="2.041810">
						<ele>203</ele>
						<time>2024-05-28T13:30:11Z</time>
					</trkpt>
					<trkpt lat="49.343430" lon="2.041950">
						<ele>206</ele>
						<time>2024-05-28T13:30:15Z</time>
					</trkpt>
					<trkpt lat="49.343220" lon="2.042030">
						<ele>208</ele>
						<time>2024-05-28T13:30:19Z</time>
					</trkpt>
					<trkpt lat="49.343070" lon="2.042040">
						<ele>210</ele>
						<time>2024-05-28T13:30:22Z</time>
					</trkpt>
					<trkpt lat="49.342900" lon="2.042030">
						<ele>212</ele>
						<time>2024-05-28T13:30:25Z</time>
					</trkpt>
					<trkpt lat="49.342720" lon="2.041980">
						<ele>215</ele>
						<time>2024-05-28T13:30:28Z</time>
					</trkpt>
					<trkpt lat="49.342370" lon="2.041840">
						<ele>220</ele>
						<time>2024-05-28T13:30:34Z</time>
					</trkpt>
					<trkpt lat="49.342260" lon="2.041840">
						<ele>221</ele>
						<time>2024-05-28T13:30:36Z</time>
					</trkpt>
					<trkpt lat="49.342150" lon="2.041920">
						<ele>222</ele>
						<time>2024-05-28T13:30:38Z</time>
					</trkpt>
					<trkpt lat="49.342070" lon="2.042050">
						<ele>222</ele>
						<time>2024-05-28T13:30:40Z</time>
					</trkpt>
					<trkpt lat="49.342040" lon="2.042200">
						<ele>222</ele>
						<time>2024-05-28T13:30:42Z</time>
					</trkpt>
					<trkpt lat="49.342050" lon="2.042390">
						<ele>221</ele>
						<time>2024-05-28T13:30:44Z</time>
					</trkpt>
					<trkpt lat="49.342140" lon="2.043150">
						<ele>217</ele>
						<time>2024-05-28T13:30:53Z</time>
					</trkpt>
					<trkpt lat="49.342140" lon="2.043350">
						<ele>216</ele>
						<time>2024-05-28T13:30:56Z</time>
					</trkpt>
					<trkpt lat="49.342090" lon="2.043520">
						<ele>217</ele>
						<time>2024-05-28T13:30:58Z</time>
					</trkpt>
					<trkpt lat="49.341920" lon="2.043810">
						<ele>220</ele>
						<time>2024-05-28T13:31:02Z</time>
					</trkpt>
					<trkpt lat="49.341380" lon="2.044470">
						<ele>224</ele>
						<time>2024-05-28T13:31:15Z</time>
					</trkpt>
					<trkpt lat="49.341100" lon="2.044740">
						<ele>225</ele>
						<time>2024-05-28T13:31:21Z</time>
					</trkpt>
					<trkpt lat="49.340850" lon="2.044860">
						<ele>227</ele>
						<time>2024-05-28T13:31:25Z</time>
					</trkpt>
					<trkpt lat="49.340700" lon="2.044880">
						<ele>228</ele>
						<time>2024-05-28T13:31:28Z</time>
					</trkpt>
					<trkpt lat="49.340570" lon="2.044860">
						<ele>228</ele>
						<time>2024-05-28T13:31:30Z</time>
					</trkpt>
					<trkpt lat="49.340320" lon="2.044760">
						<ele>229</ele>
						<time>2024-05-28T13:31:35Z</time>
					</trkpt>
					<trkpt lat="49.340150" lon="2.044640">
						<ele>229</ele>
						<time>2024-05-28T13:31:38Z</time>
					</trkpt>
					<trkpt lat="49.336590" lon="2.040830">
						<ele>226</ele>
						<time>2024-05-28T13:32:55Z</time>
					</trkpt>
					<trkpt lat="49.336350" lon="2.040620">
						<ele>227</ele>
						<time>2024-05-28T13:33:00Z</time>
					</trkpt>
					<trkpt lat="49.336000" lon="2.040400">
						<ele>227</ele>
						<time>2024-05-28T13:33:07Z</time>
					</trkpt>
					<trkpt lat="49.335720" lon="2.040310">
						<ele>228</ele>
						<time>2024-05-28T13:33:12Z</time>
					</trkpt>
					<trkpt lat="49.334080" lon="2.039890">
						<ele>230</ele>
						<time>2024-05-28T13:33:42Z</time>
					</trkpt>
					<trkpt lat="49.332790" lon="2.039470">
						<ele>229</ele>
						<time>2024-05-28T13:34:05Z</time>
					</trkpt>
					<trkpt lat="49.331950" lon="2.039300">
						<ele>227</ele>
						<time>2024-05-28T13:34:20Z</time>
					</trkpt>
					<trkpt lat="49.331450" lon="2.039130">
						<ele>226</ele>
						<time>2024-05-28T13:34:29Z</time>
					</trkpt>
					<trkpt lat="49.330660" lon="2.039180">
						<ele>225</ele>
						<time>2024-05-28T13:34:43Z</time>
					</trkpt>
					<trkpt lat="49.330170" lon="2.039270">
						<ele>225</ele>
						<time>2024-05-28T13:34:52Z</time>
					</trkpt>
					<trkpt lat="49.329850" lon="2.039420">
						<ele>225</ele>
						<time>2024-05-28T13:34:58Z</time>
					</trkpt>
					<trkpt lat="49.328300" lon="2.040260">
						<ele>218</ele>
						<time>2024-05-28T13:35:27Z</time>
					</trkpt>
					<trkpt lat="49.328040" lon="2.040310">
						<ele>218</ele>
						<time>2024-05-28T13:35:32Z</time>
					</trkpt>
					<trkpt lat="49.327720" lon="2.040270">
						<ele>218</ele>
						<time>2024-05-28T13:35:38Z</time>
					</trkpt>
					<trkpt lat="49.327260" lon="2.040130">
						<ele>218</ele>
						<time>2024-05-28T13:35:46Z</time>
					</trkpt>
					<trkpt lat="49.325360" lon="2.039500">
						<ele>217</ele>
						<time>2024-05-28T13:36:21Z</time>
					</trkpt>
					<trkpt lat="49.325100" lon="2.039390">
						<ele>216</ele>
						<time>2024-05-28T13:36:26Z</time>
					</trkpt>
					<trkpt lat="49.324890" lon="2.039260">
						<ele>216</ele>
						<time>2024-05-28T13:36:30Z</time>
					</trkpt>
					<trkpt lat="49.324660" lon="2.039060">
						<ele>215</ele>
						<time>2024-05-28T13:36:34Z</time>
					</trkpt>
					<trkpt lat="49.323670" lon="2.038120">
						<ele>215</ele>
						<time>2024-05-28T13:36:55Z</time>
					</trkpt>
					<trkpt lat="49.323350" lon="2.037800">
						<ele>216</ele>
						<time>2024-05-28T13:37:02Z</time>
					</trkpt>
					<trkpt lat="49.323150" lon="2.037540">
						<ele>217</ele>
						<time>2024-05-28T13:37:06Z</time>
					</trkpt>
					<trkpt lat="49.322850" lon="2.037070">
						<ele>216</ele>
						<time>2024-05-28T13:37:14Z</time>
					</trkpt>
					<trkpt lat="49.322730" lon="2.036790">
						<ele>216</ele>
						<time>2024-05-28T13:37:18Z</time>
					</trkpt>
					<trkpt lat="49.322600" lon="2.036390">
						<ele>215</ele>
						<time>2024-05-28T13:37:23Z</time>
					</trkpt>
					<trkpt lat="49.322340" lon="2.035400">
						<ele>213</ele>
						<time>2024-05-28T13:37:36Z</time>
					</trkpt>
					<trkpt lat="49.322200" lon="2.034970">
						<ele>212</ele>
						<time>2024-05-28T13:37:41Z</time>
					</trkpt>
					<trkpt lat="49.321960" lon="2.034340">
						<ele>211</ele>
						<time>2024-05-28T13:37:50Z</time>
					</trkpt>
					<trkpt lat="49.321810" lon="2.034020">
						<ele>211</ele>
						<time>2024-05-28T13:37:54Z</time>
					</trkpt>
					<trkpt lat="49.321640" lon="2.033750">
						<ele>211</ele>
						<time>2024-05-28T13:37:58Z</time>
					</trkpt>
					<trkpt lat="49.321480" lon="2.033550">
						<ele>211</ele>
						<time>2024-05-28T13:38:02Z</time>
					</trkpt>
					<trkpt lat="49.321270" lon="2.033340">
						<ele>211</ele>
						<time>2024-05-28T13:38:07Z</time>
					</trkpt>
					<trkpt lat="49.315770" lon="2.028640">
						<ele>199</ele>
						<time>2024-05-28T13:39:59Z</time>
					</trkpt>
					<trkpt lat="49.315460" lon="2.028280">
						<ele>199</ele>
						<time>2024-05-28T13:40:06Z</time>
					</trkpt>
					<trkpt lat="49.315210" lon="2.027860">
						<ele>199</ele>
						<time>2024-05-28T13:40:12Z</time>
					</trkpt>
					<trkpt lat="49.314400" lon="2.026230">
						<ele>196</ele>
						<time>2024-05-28T13:40:36Z</time>
					</trkpt>
					<trkpt lat="49.314170" lon="2.025860">
						<ele>196</ele>
						<time>2024-05-28T13:40:42Z</time>
					</trkpt>
					<trkpt lat="49.313910" lon="2.025500">
						<ele>196</ele>
						<time>2024-05-28T13:40:48Z</time>
					</trkpt>
					<trkpt lat="49.313390" lon="2.024890">
						<ele>195</ele>
						<time>2024-05-28T13:41:00Z</time>
					</trkpt>
					<trkpt lat="49.313160" lon="2.024700">
						<ele>194</ele>
						<time>2024-05-28T13:41:04Z</time>
					</trkpt>
					<trkpt lat="49.312920" lon="2.024580">
						<ele>193</ele>
						<time>2024-05-28T13:41:09Z</time>
					</trkpt>
					<trkpt lat="49.312550" lon="2.024470">
						<ele>193</ele>
						<time>2024-05-28T13:41:16Z</time>
					</trkpt>
					<trkpt lat="49.312420" lon="2.024390">
						<ele>192</ele>
						<time>2024-05-28T13:41:18Z</time>
					</trkpt>
					<trkpt lat="49.312230" lon="2.024200">
						<ele>192</ele>
						<time>2024-05-28T13:41:22Z</time>
					</trkpt>
					<trkpt lat="49.311830" lon="2.023720">
						<ele>190</ele>
						<time>2024-05-28T13:41:31Z</time>
					</trkpt>
					<trkpt lat="49.311090" lon="2.022910">
						<ele>188</ele>
						<time>2024-05-28T13:41:47Z</time>
					</trkpt>
					<trkpt lat="49.310490" lon="2.022480">
						<ele>187</ele>
						<time>2024-05-28T13:41:59Z</time>
					</trkpt>
					<trkpt lat="49.309500" lon="2.021870">
						<ele>186</ele>
						<time>2024-05-28T13:42:18Z</time>
					</trkpt>
					<trkpt lat="49.309430" lon="2.021930">
						<ele>186</ele>
						<time>2024-05-28T13:42:20Z</time>
					</trkpt>
					<trkpt lat="49.308960" lon="2.022270">
						<ele>185</ele>
						<time>2024-05-28T13:42:29Z</time>
					</trkpt>
					<trkpt lat="49.308270" lon="2.022890">
						<ele>182</ele>
						<time>2024-05-28T13:42:43Z</time>
					</trkpt>
					<trkpt lat="49.304900" lon="2.025790">
						<ele>182</ele>
						<time>2024-05-28T13:43:52Z</time>
					</trkpt>
					<trkpt lat="49.304540" lon="2.026280">
						<ele>182</ele>
						<time>2024-05-28T13:44:00Z</time>
					</trkpt>
					<trkpt lat="49.304380" lon="2.026350">
						<ele>182</ele>
						<time>2024-05-28T13:44:03Z</time>
					</trkpt>
					<trkpt lat="49.301780" lon="2.026930">
						<ele>176</ele>
						<time>2024-05-28T13:44:50Z</time>
					</trkpt>
					<trkpt lat="49.300490" lon="2.027220">
						<ele>174</ele>
						<time>2024-05-28T13:45:13Z</time>
					</trkpt>
					<trkpt lat="49.299000" lon="2.027460">
						<ele>171</ele>
						<time>2024-05-28T13:45:40Z</time>
					</trkpt>
					<trkpt lat="49.298410" lon="2.027470">
						<ele>170</ele>
						<time>2024-05-28T13:45:50Z</time>
					</trkpt>
					<trkpt lat="49.298260" lon="2.027520">
						<ele>170</ele>
						<time>2024-05-28T13:45:53Z</time>
					</trkpt>
					<trkpt lat="49.298040" lon="2.027340">
						<ele>169</ele>
						<time>2024-05-28T13:45:58Z</time>
					</trkpt>
					<trkpt lat="49.297560" lon="2.027120">
						<ele>169</ele>
						<time>2024-05-28T13:46:06Z</time>
					</trkpt>
					<trkpt lat="49.297000" lon="2.026910">
						<ele>167</ele>
						<time>2024-05-28T13:46:17Z</time>
					</trkpt>
					<trkpt lat="49.294640" lon="2.030450">
						<ele>163</ele>
						<time>2024-05-28T13:47:15Z</time>
					</trkpt>
					<trkpt lat="49.294360" lon="2.030750">
						<ele>162</ele>
						<time>2024-05-28T13:47:22Z</time>
					</trkpt>
					<trkpt lat="49.294150" lon="2.030910">
						<ele>161</ele>
						<time>2024-05-28T13:47:26Z</time>
					</trkpt>
					<trkpt lat="49.291310" lon="2.032840">
						<ele>157</ele>
						<time>2024-05-28T13:48:21Z</time>
					</trkpt>
					<trkpt lat="49.290620" lon="2.033250">
						<ele>157</ele>
						<time>2024-05-28T13:48:34Z</time>
					</trkpt>
					<trkpt lat="49.289200" lon="2.034230">
						<ele>157</ele>
						<time>2024-05-28T13:49:02Z</time>
					</trkpt>
					<trkpt lat="49.288820" lon="2.034520">
						<ele>156</ele>
						<time>2024-05-28T13:49:09Z</time>
					</trkpt>
					<trkpt lat="49.283230" lon="2.041100">
						<ele>144</ele>
						<time>2024-05-28T13:51:15Z</time>
					</trkpt>
					<trkpt lat="49.282760" lon="2.041760">
						<ele>137</ele>
						<time>2024-05-28T13:51:26Z</time>
					</trkpt>
					<trkpt lat="49.280980" lon="2.044980">
						<ele>121</ele>
						<time>2024-05-28T13:52:15Z</time>
					</trkpt>
					<trkpt lat="49.280660" lon="2.045520">
						<ele>121</ele>
						<time>2024-05-28T13:52:24Z</time>
					</trkpt>
					<trkpt lat="49.280440" lon="2.045790">
						<ele>121</ele>
						<time>2024-05-28T13:52:29Z</time>
					</trkpt>
					<trkpt lat="49.280230" lon="2.045990">
						<ele>122</ele>
						<time>2024-05-28T13:52:33Z</time>
					</trkpt>
					<trkpt lat="49.279980" lon="2.046140">
						<ele>123</ele>
						<time>2024-05-28T13:52:38Z</time>
					</trkpt>
					<trkpt lat="49.279640" lon="2.046260">
						<ele>125</ele>
						<time>2024-05-28T13:52:44Z</time>
					</trkpt>
					<trkpt lat="49.279290" lon="2.046270">
						<ele>126</ele>
						<time>2024-05-28T13:52:50Z</time>
					</trkpt>
					<trkpt lat="49.278080" lon="2.046190">
						<ele>131</ele>
						<time>2024-05-28T13:53:12Z</time>
					</trkpt>
					<trkpt lat="49.277370" lon="2.046110">
						<ele>132</ele>
						<time>2024-05-28T13:53:24Z</time>
					</trkpt>
					<trkpt lat="49.277240" lon="2.046120">
						<ele>133</ele>
						<time>2024-05-28T13:53:27Z</time>
					</trkpt>
					<trkpt lat="49.277120" lon="2.046210">
						<ele>135</ele>
						<time>2024-05-28T13:53:29Z</time>
					</trkpt>
					<trkpt lat="49.277070" lon="2.046300">
						<ele>136</ele>
						<time>2024-05-28T13:53:31Z</time>
					</trkpt>
					<trkpt lat="49.277070" lon="2.046520">
						<ele>139</ele>
						<time>2024-05-28T13:53:33Z</time>
					</trkpt>
					<trkpt lat="49.277110" lon="2.046610">
						<ele>140</ele>
						<time>2024-05-28T13:53:34Z</time>
					</trkpt>
					<trkpt lat="49.277860" lon="2.047420">
						<ele>143</ele>
						<time>2024-05-28T13:53:51Z</time>
					</trkpt>
					<trkpt lat="49.277960" lon="2.047630">
						<ele>143</ele>
						<time>2024-05-28T13:53:54Z</time>
					</trkpt>
					<trkpt lat="49.277990" lon="2.047920">
						<ele>144</ele>
						<time>2024-05-28T13:53:57Z</time>
					</trkpt>
					<trkpt lat="49.278020" lon="2.049310">
						<ele>146</ele>
						<time>2024-05-28T13:54:13Z</time>
					</trkpt>
					<trkpt lat="49.278010" lon="2.049560">
						<ele>146</ele>
						<time>2024-05-28T13:54:16Z</time>
					</trkpt>
					<trkpt lat="49.277960" lon="2.049750">
						<ele>146</ele>
						<time>2024-05-28T13:54:18Z</time>
					</trkpt>
					<trkpt lat="49.277780" lon="2.049990">
						<ele>146</ele>
						<time>2024-05-28T13:54:23Z</time>
					</trkpt>
					<trkpt lat="49.277560" lon="2.050140">
						<ele>147</ele>
						<time>2024-05-28T13:54:27Z</time>
					</trkpt>
					<trkpt lat="49.277460" lon="2.050180">
						<ele>148</ele>
						<time>2024-05-28T13:54:29Z</time>
					</trkpt>
					<trkpt lat="49.276470" lon="2.050260">
						<ele>148</ele>
						<time>2024-05-28T13:54:47Z</time>
					</trkpt>
					<trkpt lat="49.276250" lon="2.050330">
						<ele>147</ele>
						<time>2024-05-28T13:54:51Z</time>
					</trkpt>
					<trkpt lat="49.276030" lon="2.050490">
						<ele>146</ele>
						<time>2024-05-28T13:54:55Z</time>
					</trkpt>
					<trkpt lat="49.271540" lon="2.055860">
						<ele>136</ele>
						<time>2024-05-28T13:56:36Z</time>
					</trkpt>
					<trkpt lat="49.269270" lon="2.058550">
						<ele>137</ele>
						<time>2024-05-28T13:57:27Z</time>
					</trkpt>
					<trkpt lat="49.267260" lon="2.060140">
						<ele>137</ele>
						<time>2024-05-28T13:58:07Z</time>
					</trkpt>
					<trkpt lat="49.264860" lon="2.062000">
						<ele>132</ele>
						<time>2024-05-28T13:58:55Z</time>
					</trkpt>
					<trkpt lat="49.264660" lon="2.062190">
						<ele>132</ele>
						<time>2024-05-28T13:59:00Z</time>
					</trkpt>
					<trkpt lat="49.264530" lon="2.062400">
						<ele>132</ele>
						<time>2024-05-28T13:59:03Z</time>
					</trkpt>
					<trkpt lat="49.264380" lon="2.062730">
						<ele>132</ele>
						<time>2024-05-28T13:59:08Z</time>
					</trkpt>
					<trkpt lat="49.263880" lon="2.064810">
						<ele>130</ele>
						<time>2024-05-28T13:59:33Z</time>
					</trkpt>
					<trkpt lat="49.263320" lon="2.066320">
						<ele>134</ele>
						<time>2024-05-28T13:59:53Z</time>
					</trkpt>
					<trkpt lat="49.263290" lon="2.066450">
						<ele>135</ele>
						<time>2024-05-28T13:59:55Z</time>
					</trkpt>
					<trkpt lat="49.263180" lon="2.067330">
						<ele>136</ele>
						<time>2024-05-28T14:00:05Z</time>
					</trkpt>
					<trkpt lat="49.263090" lon="2.068870">
						<ele>137</ele>
						<time>2024-05-28T14:00:23Z</time>
					</trkpt>
					<trkpt lat="49.263110" lon="2.069420">
						<ele>137</ele>
						<time>2024-05-28T14:00:30Z</time>
					</trkpt>
					<trkpt lat="49.263220" lon="2.070340">
						<ele>136</ele>
						<time>2024-05-28T14:00:41Z</time>
					</trkpt>
					<trkpt lat="49.263330" lon="2.071530">
						<ele>136</ele>
						<time>2024-05-28T14:00:55Z</time>
					</trkpt>
					<trkpt lat="49.263360" lon="2.071960">
						<ele>136</ele>
						<time>2024-05-28T14:01:00Z</time>
					</trkpt>
					<trkpt lat="49.263400" lon="2.072130">
						<ele>135</ele>
						<time>2024-05-28T14:01:02Z</time>
					</trkpt>
					<trkpt lat="49.263640" lon="2.075030">
						<ele>133</ele>
						<time>2024-05-28T14:01:36Z</time>
					</trkpt>
					<trkpt lat="49.263590" lon="2.075710">
						<ele>134</ele>
						<time>2024-05-28T14:01:44Z</time>
					</trkpt>
					<trkpt lat="49.263420" lon="2.077620">
						<ele>131</ele>
						<time>2024-05-28T14:02:06Z</time>
					</trkpt>
					<trkpt lat="49.263200" lon="2.079240">
						<ele>134</ele>
						<time>2024-05-28T14:02:25Z</time>
					</trkpt>
					<trkpt lat="49.262590" lon="2.079160">
						<ele>134</ele>
						<time>2024-05-28T14:02:36Z</time>
					</trkpt>
					<trkpt lat="49.262270" lon="2.079160">
						<ele>134</ele>
						<time>2024-05-28T14:02:42Z</time>
					</trkpt>
					<trkpt lat="49.261280" lon="2.079290">
						<ele>134</ele>
						<time>2024-05-28T14:02:59Z</time>
					</trkpt>
					<trkpt lat="49.259660" lon="2.078820">
						<ele>132</ele>
						<time>2024-05-28T14:03:29Z</time>
					</trkpt>
					<trkpt lat="49.259430" lon="2.078800">
						<ele>131</ele>
						<time>2024-05-28T14:03:33Z</time>
					</trkpt>
					<trkpt lat="49.259050" lon="2.078840">
						<ele>131</ele>
						<time>2024-05-28T14:03:40Z</time>
					</trkpt>
					<trkpt lat="49.259030" lon="2.078760">
						<ele>130</ele>
						<time>2024-05-28T14:03:41Z</time>
					</trkpt>
					<trkpt lat="49.258990" lon="2.078700">
						<ele>130</ele>
						<time>2024-05-28T14:03:42Z</time>
					</trkpt>
					<trkpt lat="49.258930" lon="2.078680">
						<ele>130</ele>
						<time>2024-05-28T14:03:43Z</time>
					</trkpt>
					<trkpt lat="49.258880" lon="2.078710">
						<ele>130</ele>
						<time>2024-05-28T14:03:44Z</time>
					</trkpt>
					<trkpt lat="49.258840" lon="2.078770">
						<ele>130</ele>
						<time>2024-05-28T14:03:45Z</time>
					</trkpt>
					<trkpt lat="49.258820" lon="2.078850">
						<ele>130</ele>
						<time>2024-05-28T14:03:46Z</time>
					</trkpt>
					<trkpt lat="49.257530" lon="2.078980">
						<ele>128</ele>
						<time>2024-05-28T14:04:09Z</time>
					</trkpt>
					<trkpt lat="49.256430" lon="2.079160">
						<ele>128</ele>
						<time>2024-05-28T14:04:28Z</time>
					</trkpt>
					<trkpt lat="49.256230" lon="2.079160">
						<ele>127</ele>
						<time>2024-05-28T14:04:32Z</time>
					</trkpt>
					<trkpt lat="49.256000" lon="2.079130">
						<ele>127</ele>
						<time>2024-05-28T14:04:36Z</time>
					</trkpt>
					<trkpt lat="49.254390" lon="2.078570">
						<ele>125</ele>
						<time>2024-05-28T14:05:05Z</time>
					</trkpt>
					<trkpt lat="49.253840" lon="2.078460">
						<ele>125</ele>
						<time>2024-05-28T14:05:15Z</time>
					</trkpt>
					<trkpt lat="49.253390" lon="2.078430">
						<ele>125</ele>
						<time>2024-05-28T14:05:23Z</time>
					</trkpt>
					<trkpt lat="49.252910" lon="2.078470">
						<ele>124</ele>
						<time>2024-05-28T14:05:32Z</time>
					</trkpt>
					<trkpt lat="49.250410" lon="2.078770">
						<ele>119</ele>
						<time>2024-05-28T14:06:17Z</time>
					</trkpt>
					<trkpt lat="49.250030" lon="2.078790">
						<ele>118</ele>
						<time>2024-05-28T14:06:23Z</time>
					</trkpt>
					<trkpt lat="49.249400" lon="2.078690">
						<ele>116</ele>
						<time>2024-05-28T14:06:35Z</time>
					</trkpt>
					<trkpt lat="49.248120" lon="2.078400">
						<ele>112</ele>
						<time>2024-05-28T14:06:58Z</time>
					</trkpt>
					<trkpt lat="49.247500" lon="2.078400">
						<ele>113</ele>
						<time>2024-05-28T14:07:09Z</time>
					</trkpt>
					<trkpt lat="49.247030" lon="2.078470">
						<ele>115</ele>
						<time>2024-05-28T14:07:17Z</time>
					</trkpt>
					<trkpt lat="49.245720" lon="2.078840">
						<ele>115</ele>
						<time>2024-05-28T14:07:41Z</time>
					</trkpt>
					<trkpt lat="49.245580" lon="2.078800">
						<ele>115</ele>
						<time>2024-05-28T14:07:43Z</time>
					</trkpt>
					<trkpt lat="49.245480" lon="2.078740">
						<ele>115</ele>
						<time>2024-05-28T14:07:45Z</time>
					</trkpt>
					<trkpt lat="49.245380" lon="2.078660">
						<ele>115</ele>
						<time>2024-05-28T14:07:47Z</time>
					</trkpt>
					<trkpt lat="49.245300" lon="2.078660">
						<ele>115</ele>
						<time>2024-05-28T14:07:49Z</time>
					</trkpt>
					<trkpt lat="49.245210" lon="2.078690">
						<ele>115</ele>
						<time>2024-05-28T14:07:50Z</time>
					</trkpt>
					<trkpt lat="49.245140" lon="2.078870">
						<ele>115</ele>
						<time>2024-05-28T14:07:53Z</time>
					</trkpt>
					<trkpt lat="49.245060" lon="2.078980">
						<ele>115</ele>
						<time>2024-05-28T14:07:55Z</time>
					</trkpt>
					<trkpt lat="49.244970" lon="2.079060">
						<ele>115</ele>
						<time>2024-05-28T14:07:56Z</time>
					</trkpt>
					<trkpt lat="49.243500" lon="2.079330">
						<ele>117</ele>
						<time>2024-05-28T14:08:23Z</time>
					</trkpt>
					<trkpt lat="49.243000" lon="2.079390">
						<ele>119</ele>
						<time>2024-05-28T14:08:32Z</time>
					</trkpt>
					<trkpt lat="49.242110" lon="2.079330">
						<ele>124</ele>
						<time>2024-05-28T14:08:48Z</time>
					</trkpt>
					<trkpt lat="49.241450" lon="2.079230">
						<ele>127</ele>
						<time>2024-05-28T14:08:59Z</time>
					</trkpt>
					<trkpt lat="49.241050" lon="2.079090">
						<ele>128</ele>
						<time>2024-05-28T14:09:07Z</time>
					</trkpt>
					<trkpt lat="49.240340" lon="2.078720">
						<ele>127</ele>
						<time>2024-05-28T14:09:20Z</time>
					</trkpt>
					<trkpt lat="49.238480" lon="2.077340">
						<ele>118</ele>
						<time>2024-05-28T14:09:57Z</time>
					</trkpt>
					<trkpt lat="49.238180" lon="2.077190">
						<ele>116</ele>
						<time>2024-05-28T14:10:02Z</time>
					</trkpt>
					<trkpt lat="49.238080" lon="2.077120">
						<ele>116</ele>
						<time>2024-05-28T14:10:04Z</time>
					</trkpt>
					<trkpt lat="49.237990" lon="2.076980">
						<ele>115</ele>
						<time>2024-05-28T14:10:07Z</time>
					</trkpt>
					<trkpt lat="49.237780" lon="2.076770">
						<ele>114</ele>
						<time>2024-05-28T14:10:11Z</time>
					</trkpt>
					<trkpt lat="49.237500" lon="2.076530">
						<ele>113</ele>
						<time>2024-05-28T14:10:17Z</time>
					</trkpt>
					<trkpt lat="49.237100" lon="2.076240">
						<ele>112</ele>
						<time>2024-05-28T14:10:25Z</time>
					</trkpt>
					<trkpt lat="49.236310" lon="2.079040">
						<ele>110</ele>
						<time>2024-05-28T14:11:00Z</time>
					</trkpt>
					<trkpt lat="49.236020" lon="2.079890">
						<ele>110</ele>
						<time>2024-05-28T14:11:11Z</time>
					</trkpt>
					<trkpt lat="49.235430" lon="2.081360">
						<ele>111</ele>
						<time>2024-05-28T14:11:31Z</time>
					</trkpt>
					<trkpt lat="49.234650" lon="2.081210">
						<ele>110</ele>
						<time>2024-05-28T14:11:45Z</time>
					</trkpt>
					<trkpt lat="49.234110" lon="2.081160">
						<ele>108</ele>
						<time>2024-05-28T14:11:55Z</time>
					</trkpt>
					<trkpt lat="49.233970" lon="2.081200">
						<ele>108</ele>
						<time>2024-05-28T14:11:57Z</time>
					</trkpt>
					<trkpt lat="49.233720" lon="2.081340">
						<ele>107</ele>
						<time>2024-05-28T14:12:02Z</time>
					</trkpt>
					<trkpt lat="49.229770" lon="2.084210">
						<ele>103</ele>
						<time>2024-05-28T14:13:20Z</time>
					</trkpt>
					<trkpt lat="49.229100" lon="2.084670">
						<ele>102</ele>
						<time>2024-05-28T14:13:33Z</time>
					</trkpt>
					<trkpt lat="49.228760" lon="2.084850">
						<ele>102</ele>
						<time>2024-05-28T14:13:39Z</time>
					</trkpt>
					<trkpt lat="49.227480" lon="2.085370">
						<ele>102</ele>
						<time>2024-05-28T14:14:03Z</time>
					</trkpt>
					<trkpt lat="49.225680" lon="2.086240">
						<ele>101</ele>
						<time>2024-05-28T14:14:37Z</time>
					</trkpt>
					<trkpt lat="49.225200" lon="2.086500">
						<ele>101</ele>
						<time>2024-05-28T14:14:46Z</time>
					</trkpt>
					<trkpt lat="49.223670" lon="2.087410">
						<ele>100</ele>
						<time>2024-05-28T14:15:15Z</time>
					</trkpt>
					<trkpt lat="49.219400" lon="2.090030">
						<ele>99</ele>
						<time>2024-05-28T14:16:37Z</time>
					</trkpt>
					<trkpt lat="49.219100" lon="2.090130">
						<ele>99</ele>
						<time>2024-05-28T14:16:42Z</time>
					</trkpt>
					<trkpt lat="49.217180" lon="2.090990">
						<ele>98</ele>
						<time>2024-05-28T14:17:18Z</time>
					</trkpt>
					<trkpt lat="49.216630" lon="2.091190">
						<ele>97</ele>
						<time>2024-05-28T14:17:28Z</time>
					</trkpt>
					<trkpt lat="49.216440" lon="2.091280">
						<ele>97</ele>
						<time>2024-05-28T14:17:31Z</time>
					</trkpt>
					<trkpt lat="49.216300" lon="2.091400">
						<ele>97</ele>
						<time>2024-05-28T14:17:34Z</time>
					</trkpt>
					<trkpt lat="49.216070" lon="2.091720">
						<ele>97</ele>
						<time>2024-05-28T14:17:40Z</time>
					</trkpt>
					<trkpt lat="49.215260" lon="2.092980">
						<ele>97</ele>
						<time>2024-05-28T14:18:00Z</time>
					</trkpt>
					<trkpt lat="49.214940" lon="2.093590">
						<ele>97</ele>
						<time>2024-05-28T14:18:09Z</time>
					</trkpt>
					<trkpt lat="49.214730" lon="2.094140">
						<ele>97</ele>
						<time>2024-05-28T14:18:17Z</time>
					</trkpt>
					<trkpt lat="49.214380" lon="2.095250">
						<ele>95</ele>
						<time>2024-05-28T14:18:31Z</time>
					</trkpt>
					<trkpt lat="49.214130" lon="2.096120">
						<ele>95</ele>
						<time>2024-05-28T14:18:42Z</time>
					</trkpt>
					<trkpt lat="49.213980" lon="2.096500">
						<ele>95</ele>
						<time>2024-05-28T14:18:47Z</time>
					</trkpt>
					<trkpt lat="49.213830" lon="2.096740">
						<ele>95</ele>
						<time>2024-05-28T14:18:51Z</time>
					</trkpt>
					<trkpt lat="49.213640" lon="2.096990">
						<ele>95</ele>
						<time>2024-05-28T14:18:56Z</time>
					</trkpt>
					<trkpt lat="49.210120" lon="2.100930">
						<ele>90</ele>
						<time>2024-05-28T14:20:13Z</time>
					</trkpt>
					<trkpt lat="49.209920" lon="2.101230">
						<ele>90</ele>
						<time>2024-05-28T14:20:18Z</time>
					</trkpt>
					<trkpt lat="49.208090" lon="2.104460">
						<ele>93</ele>
						<time>2024-05-28T14:21:08Z</time>
					</trkpt>
					<trkpt lat="49.207320" lon="2.105750">
						<ele>95</ele>
						<time>2024-05-28T14:21:28Z</time>
					</trkpt>
					<trkpt lat="49.206890" lon="2.106600">
						<ele>96</ele>
						<time>2024-05-28T14:21:41Z</time>
					</trkpt>
					<trkpt lat="49.206600" lon="2.107310">
						<ele>96</ele>
						<time>2024-05-28T14:21:50Z</time>
					</trkpt>
					<trkpt lat="49.206280" lon="2.108240">
						<ele>96</ele>
						<time>2024-05-28T14:22:03Z</time>
					</trkpt>
					<trkpt lat="49.205810" lon="2.109240">
						<ele>97</ele>
						<time>2024-05-28T14:22:17Z</time>
					</trkpt>
					<trkpt lat="49.205750" lon="2.109460">
						<ele>97</ele>
						<time>2024-05-28T14:22:20Z</time>
					</trkpt>
					<trkpt lat="49.205580" lon="2.110380">
						<ele>96</ele>
						<time>2024-05-28T14:22:31Z</time>
					</trkpt>
					<trkpt lat="49.205500" lon="2.110680">
						<ele>96</ele>
						<time>2024-05-28T14:22:35Z</time>
					</trkpt>
					<trkpt lat="49.204550" lon="2.112400">
						<ele>95</ele>
						<time>2024-05-28T14:23:01Z</time>
					</trkpt>
					<trkpt lat="49.204400" lon="2.112720">
						<ele>95</ele>
						<time>2024-05-28T14:23:05Z</time>
					</trkpt>
					<trkpt lat="49.204080" lon="2.113570">
						<ele>96</ele>
						<time>2024-05-28T14:23:17Z</time>
					</trkpt>
					<trkpt lat="49.203960" lon="2.113800">
						<ele>95</ele>
						<time>2024-05-28T14:23:20Z</time>
					</trkpt>
					<trkpt lat="49.203870" lon="2.113940">
						<ele>95</ele>
						<time>2024-05-28T14:23:22Z</time>
					</trkpt>
					<trkpt lat="49.203520" lon="2.114370">
						<ele>97</ele>
						<time>2024-05-28T14:23:30Z</time>
					</trkpt>
					<trkpt lat="49.203080" lon="2.114990">
						<ele>98</ele>
						<time>2024-05-28T14:23:41Z</time>
					</trkpt>
					<trkpt lat="49.203020" lon="2.115590">
						<ele>97</ele>
						<time>2024-05-28T14:23:48Z</time>
					</trkpt>
					<trkpt lat="49.202960" lon="2.115840">
						<ele>96</ele>
						<time>2024-05-28T14:23:51Z</time>
					</trkpt>
					<trkpt lat="49.202930" lon="2.116150">
						<ele>97</ele>
						<time>2024-05-28T14:23:55Z</time>
					</trkpt>
					<trkpt lat="49.202940" lon="2.116360">
						<ele>97</ele>
						<time>2024-05-28T14:23:57Z</time>
					</trkpt>
					<trkpt lat="49.202930" lon="2.116710">
						<ele>98</ele>
						<time>2024-05-28T14:24:01Z</time>
					</trkpt>
					<trkpt lat="49.202790" lon="2.116800">
						<ele>98</ele>
						<time>2024-05-28T14:24:04Z</time>
					</trkpt>
					<trkpt lat="49.202510" lon="2.117270">
						<ele>100</ele>
						<time>2024-05-28T14:24:12Z</time>
					</trkpt>
					<trkpt lat="49.202280" lon="2.117750">
						<ele>101</ele>
						<time>2024-05-28T14:24:18Z</time>
					</trkpt>
					<trkpt lat="49.202140" lon="2.117830">
						<ele>102</ele>
						<time>2024-05-28T14:24:21Z</time>
					</trkpt>
					<trkpt lat="49.201900" lon="2.117810">
						<ele>103</ele>
						<time>2024-05-28T14:24:25Z</time>
					</trkpt>
					<trkpt lat="49.201640" lon="2.117660">
						<ele>105</ele>
						<time>2024-05-28T14:24:30Z</time>
					</trkpt>
					<trkpt lat="49.201470" lon="2.117640">
						<ele>105</ele>
						<time>2024-05-28T14:24:33Z</time>
					</trkpt>
					<trkpt lat="49.201080" lon="2.117660">
						<ele>105</ele>
						<time>2024-05-28T14:24:40Z</time>
					</trkpt>
					<trkpt lat="49.200980" lon="2.117760">
						<ele>105</ele>
						<time>2024-05-28T14:24:42Z</time>
					</trkpt>
					<trkpt lat="49.200950" lon="2.117720">
						<ele>105</ele>
						<time>2024-05-28T14:24:43Z</time>
					</trkpt>
					<trkpt lat="49.200630" lon="2.117600">
						<ele>104</ele>
						<time>2024-05-28T14:24:49Z</time>
					</trkpt>
					<trkpt lat="49.200020" lon="2.117520">
						<ele>103</ele>
						<time>2024-05-28T14:25:00Z</time>
					</trkpt>
					<trkpt lat="49.199920" lon="2.117480">
						<ele>103</ele>
						<time>2024-05-28T14:25:02Z</time>
					</trkpt>
					<trkpt lat="49.199740" lon="2.117350">
						<ele>104</ele>
						<time>2024-05-28T14:25:05Z</time>
					</trkpt>
					<trkpt lat="49.198740" lon="2.116380">
						<ele>103</ele>
						<time>2024-05-28T14:25:26Z</time>
					</trkpt>
					<trkpt lat="49.198230" lon="2.115960">
						<ele>100</ele>
						<time>2024-05-28T14:25:37Z</time>
					</trkpt>
					<trkpt lat="49.197960" lon="2.115360">
						<ele>97</ele>
						<time>2024-05-28T14:25:45Z</time>
					</trkpt>
					<trkpt lat="49.197780" lon="2.114800">
						<ele>93</ele>
						<time>2024-05-28T14:25:52Z</time>
					</trkpt>
					<trkpt lat="49.197700" lon="2.114190">
						<ele>90</ele>
						<time>2024-05-28T14:26:00Z</time>
					</trkpt>
					<trkpt lat="49.197610" lon="2.113970">
						<ele>89</ele>
						<time>2024-05-28T14:26:03Z</time>
					</trkpt>
					<trkpt lat="49.197090" lon="2.113460">
						<ele>85</ele>
						<time>2024-05-28T14:26:14Z</time>
					</trkpt>
					<trkpt lat="49.195860" lon="2.112430">
						<ele>79</ele>
						<time>2024-05-28T14:26:39Z</time>
					</trkpt>
					<trkpt lat="49.194270" lon="2.111180">
						<ele>73</ele>
						<time>2024-05-28T14:27:10Z</time>
					</trkpt>
					<trkpt lat="49.194090" lon="2.111060">
						<ele>73</ele>
						<time>2024-05-28T14:27:14Z</time>
					</trkpt>
					<trkpt lat="49.193130" lon="2.110660">
						<ele>70</ele>
						<time>2024-05-28T14:27:32Z</time>
					</trkpt>
					<trkpt lat="49.192720" lon="2.110370">
						<ele>69</ele>
						<time>2024-05-28T14:27:40Z</time>
					</trkpt>
					<trkpt lat="49.191500" lon="2.109420">
						<ele>65</ele>
						<time>2024-05-28T14:28:04Z</time>
					</trkpt>
					<trkpt lat="49.190950" lon="2.109100">
						<ele>66</ele>
						<time>2024-05-28T14:28:14Z</time>
					</trkpt>
					<trkpt lat="49.189110" lon="2.108950">
						<ele>66</ele>
						<time>2024-05-28T14:28:47Z</time>
					</trkpt>
					<trkpt lat="49.187280" lon="2.108840">
						<ele>70</ele>
						<time>2024-05-28T14:29:20Z</time>
					</trkpt>
					<trkpt lat="49.186610" lon="2.108810">
						<ele>74</ele>
						<time>2024-05-28T14:29:32Z</time>
					</trkpt>
					<trkpt lat="49.186160" lon="2.108700">
						<ele>78</ele>
						<time>2024-05-28T14:29:40Z</time>
					</trkpt>
					<trkpt lat="49.185540" lon="2.108330">
						<ele>80</ele>
						<time>2024-05-28T14:29:52Z</time>
					</trkpt>
					<trkpt lat="49.185220" lon="2.108330">
						<ele>82</ele>
						<time>2024-05-28T14:29:57Z</time>
					</trkpt>
					<trkpt lat="49.184920" lon="2.108430">
						<ele>83</ele>
						<time>2024-05-28T14:30:03Z</time>
					</trkpt>
					<trkpt lat="49.183870" lon="2.109290">
						<ele>85</ele>
						<time>2024-05-28T14:30:24Z</time>
					</trkpt>
					<trkpt lat="49.183330" lon="2.109540">
						<ele>83</ele>
						<time>2024-05-28T14:30:34Z</time>
					</trkpt>
					<trkpt lat="49.182840" lon="2.109860">
						<ele>81</ele>
						<time>2024-05-28T14:30:44Z</time>
					</trkpt>
					<trkpt lat="49.182370" lon="2.110390">
						<ele>79</ele>
						<time>2024-05-28T14:30:54Z</time>
					</trkpt>
					<trkpt lat="49.182140" lon="2.110780">
						<ele>79</ele>
						<time>2024-05-28T14:31:00Z</time>
					</trkpt>
					<trkpt lat="49.182070" lon="2.109520">
						<ele>73</ele>
						<time>2024-05-28T14:31:15Z</time>
					</trkpt>
					<trkpt lat="49.182320" lon="2.106500">
						<ele>66</ele>
						<time>2024-05-28T14:31:50Z</time>
					</trkpt>
					<trkpt lat="49.182110" lon="2.105890">
						<ele>66</ele>
						<time>2024-05-28T14:31:58Z</time>
					</trkpt>
					<trkpt lat="49.182010" lon="2.105390">
						<ele>67</ele>
						<time>2024-05-28T14:32:04Z</time>
					</trkpt>
					<trkpt lat="49.181930" lon="2.105150">
						<ele>67</ele>
						<time>2024-05-28T14:32:07Z</time>
					</trkpt>
					<trkpt lat="49.181730" lon="2.104650">
						<ele>68</ele>
						<time>2024-05-28T14:32:14Z</time>
					</trkpt>
					<trkpt lat="49.181520" lon="2.104390">
						<ele>69</ele>
						<time>2024-05-28T14:32:19Z</time>
					</trkpt>
					<trkpt lat="49.181440" lon="2.104250">
						<ele>70</ele>
						<time>2024-05-28T14:32:21Z</time>
					</trkpt>
					<trkpt lat="49.181290" lon="2.103860">
						<ele>72</ele>
						<time>2024-05-28T14:32:26Z</time>
					</trkpt>
					<trkpt lat="49.181200" lon="2.103730">
						<ele>73</ele>
						<time>2024-05-28T14:32:29Z</time>
					</trkpt>
					<trkpt lat="49.180980" lon="2.103650">
						<ele>74</ele>
						<time>2024-05-28T14:32:33Z</time>
					</trkpt>
					<trkpt lat="49.180750" lon="2.103670">
						<ele>75</ele>
						<time>2024-05-28T14:32:37Z</time>
					</trkpt>
					<trkpt lat="49.179980" lon="2.103990">
						<ele>79</ele>
						<time>2024-05-28T14:32:51Z</time>
					</trkpt>
					<trkpt lat="49.179770" lon="2.104040">
						<ele>82</ele>
						<time>2024-05-28T14:32:55Z</time>
					</trkpt>
					<trkpt lat="49.179460" lon="2.104040">
						<ele>87</ele>
						<time>2024-05-28T14:33:00Z</time>
					</trkpt>
					<trkpt lat="49.179610" lon="2.103400">
						<ele>90</ele>
						<time>2024-05-28T14:33:08Z</time>
					</trkpt>
					<trkpt lat="49.179810" lon="2.102810">
						<ele>94</ele>
						<time>2024-05-28T14:33:16Z</time>
					</trkpt>
					<trkpt lat="49.180020" lon="2.102470">
						<ele>96</ele>
						<time>2024-05-28T14:33:21Z</time>
					</trkpt>
					<trkpt lat="49.180440" lon="2.101960">
						<ele>95</ele>
						<time>2024-05-28T14:33:31Z</time>
					</trkpt>
					<trkpt lat="49.180610" lon="2.101730">
						<ele>95</ele>
						<time>2024-05-28T14:33:35Z</time>
					</trkpt>
					<trkpt lat="49.180730" lon="2.101500">
						<ele>94</ele>
						<time>2024-05-28T14:33:38Z</time>
					</trkpt>
					<trkpt lat="49.180950" lon="2.101030">
						<ele>94</ele>
						<time>2024-05-28T14:33:45Z</time>
					</trkpt>
					<trkpt lat="49.181050" lon="2.100760">
						<ele>95</ele>
						<time>2024-05-28T14:33:49Z</time>
					</trkpt>
					<trkpt lat="49.181160" lon="2.100340">
						<ele>97</ele>
						<time>2024-05-28T14:33:54Z</time>
					</trkpt>
					<trkpt lat="49.181200" lon="2.099930">
						<ele>100</ele>
						<time>2024-05-28T14:33:59Z</time>
					</trkpt>
					<trkpt lat="49.181180" lon="2.099570">
						<ele>103</ele>
						<time>2024-05-28T14:34:03Z</time>
					</trkpt>
					<trkpt lat="49.181140" lon="2.099400">
						<ele>104</ele>
						<time>2024-05-28T14:34:05Z</time>
					</trkpt>
					<trkpt lat="49.181080" lon="2.099260">
						<ele>105</ele>
						<time>2024-05-28T14:34:07Z</time>
					</trkpt>
					<trkpt lat="49.180990" lon="2.099100">
						<ele>106</ele>
						<time>2024-05-28T14:34:09Z</time>
					</trkpt>
					<trkpt lat="49.180710" lon="2.098710">
						<ele>108</ele>
						<time>2024-05-28T14:34:16Z</time>
					</trkpt>
					<trkpt lat="49.180470" lon="2.098430">
						<ele>108</ele>
						<time>2024-05-28T14:34:22Z</time>
					</trkpt>
					<trkpt lat="49.177600" lon="2.095920">
						<ele>102</ele>
						<time>2024-05-28T14:35:20Z</time>
					</trkpt>
					<trkpt lat="49.177430" lon="2.095710">
						<ele>101</ele>
						<time>2024-05-28T14:35:24Z</time>
					</trkpt>
					<trkpt lat="49.177360" lon="2.095550">
						<ele>101</ele>
						<time>2024-05-28T14:35:27Z</time>
					</trkpt>
					<trkpt lat="49.177350" lon="2.095480">
						<ele>101</ele>
						<time>2024-05-28T14:35:27Z</time>
					</trkpt>
					<trkpt lat="49.177280" lon="2.095440">
						<ele>101</ele>
						<time>2024-05-28T14:35:29Z</time>
					</trkpt>
					<trkpt lat="49.177220" lon="2.095360">
						<ele>101</ele>
						<time>2024-05-28T14:35:30Z</time>
					</trkpt>
					<trkpt lat="49.176470" lon="2.094110">
						<ele>104</ele>
						<time>2024-05-28T14:35:50Z</time>
					</trkpt>
					<trkpt lat="49.176260" lon="2.093820">
						<ele>104</ele>
						<time>2024-05-28T14:35:55Z</time>
					</trkpt>
					<trkpt lat="49.175000" lon="2.092480">
						<ele>107</ele>
						<time>2024-05-28T14:36:22Z</time>
					</trkpt>
					<trkpt lat="49.173320" lon="2.090760">
						<ele>115</ele>
						<time>2024-05-28T14:36:58Z</time>
					</trkpt>
					<trkpt lat="49.168390" lon="2.086050">
						<ele>115</ele>
						<time>2024-05-28T14:38:42Z</time>
					</trkpt>
					<trkpt lat="49.167210" lon="2.085030">
						<ele>117</ele>
						<time>2024-05-28T14:39:06Z</time>
					</trkpt>
					<trkpt lat="49.166090" lon="2.084450">
						<ele>115</ele>
						<time>2024-05-28T14:39:27Z</time>
					</trkpt>
					<trkpt lat="49.163920" lon="2.083320">
						<ele>109</ele>
						<time>2024-05-28T14:40:08Z</time>
					</trkpt>
					<trkpt lat="49.163020" lon="2.082830">
						<ele>108</ele>
						<time>2024-05-28T14:40:24Z</time>
					</trkpt>
					<trkpt lat="49.162380" lon="2.082220">
						<ele>107</ele>
						<time>2024-05-28T14:40:38Z</time>
					</trkpt>
					<trkpt lat="49.159800" lon="2.079460">
						<ele>103</ele>
						<time>2024-05-28T14:41:34Z</time>
					</trkpt>
					<trkpt lat="49.159460" lon="2.079130">
						<ele>102</ele>
						<time>2024-05-28T14:41:41Z</time>
					</trkpt>
					<trkpt lat="49.159200" lon="2.078930">
						<ele>102</ele>
						<time>2024-05-28T14:41:46Z</time>
					</trkpt>
					<trkpt lat="49.159070" lon="2.078900">
						<ele>102</ele>
						<time>2024-05-28T14:41:49Z</time>
					</trkpt>
					<trkpt lat="49.158890" lon="2.078890">
						<ele>101</ele>
						<time>2024-05-28T14:41:52Z</time>
					</trkpt>
					<trkpt lat="49.158580" lon="2.078990">
						<ele>101</ele>
						<time>2024-05-28T14:41:57Z</time>
					</trkpt>
					<trkpt lat="49.155110" lon="2.080580">
						<ele>94</ele>
						<time>2024-05-28T14:43:02Z</time>
					</trkpt>
					<trkpt lat="49.154860" lon="2.080580">
						<ele>92</ele>
						<time>2024-05-28T14:43:06Z</time>
					</trkpt>
					<trkpt lat="49.154660" lon="2.080450">
						<ele>91</ele>
						<time>2024-05-28T14:43:10Z</time>
					</trkpt>
					<trkpt lat="49.154520" lon="2.080310">
						<ele>90</ele>
						<time>2024-05-28T14:43:13Z</time>
					</trkpt>
					<trkpt lat="49.154430" lon="2.079850">
						<ele>88</ele>
						<time>2024-05-28T14:43:19Z</time>
					</trkpt>
					<trkpt lat="49.154350" lon="2.079020">
						<ele>86</ele>
						<time>2024-05-28T14:43:29Z</time>
					</trkpt>
					<trkpt lat="49.154240" lon="2.078660">
						<ele>85</ele>
						<time>2024-05-28T14:43:33Z</time>
					</trkpt>
					<trkpt lat="49.153890" lon="2.077950">
						<ele>82</ele>
						<time>2024-05-28T14:43:44Z</time>
					</trkpt>
					<trkpt lat="49.153830" lon="2.077710">
						<ele>81</ele>
						<time>2024-05-28T14:43:47Z</time>
					</trkpt>
					<trkpt lat="49.153850" lon="2.077280">
						<ele>80</ele>
						<time>2024-05-28T14:43:52Z</time>
					</trkpt>
					<trkpt lat="49.153980" lon="2.076510">
						<ele>79</ele>
						<time>2024-05-28T14:44:01Z</time>
					</trkpt>
					<trkpt lat="49.154020" lon="2.076270">
						<ele>79</ele>
						<time>2024-05-28T14:44:04Z</time>
					</trkpt>
					<trkpt lat="49.153980" lon="2.076210">
						<ele>78</ele>
						<time>2024-05-28T14:44:05Z</time>
					</trkpt>
					<trkpt lat="49.153830" lon="2.076750">
						<ele>78</ele>
						<time>2024-05-28T14:44:11Z</time>
					</trkpt>
					<trkpt lat="49.153740" lon="2.077070">
						<ele>78</ele>
						<time>2024-05-28T14:44:16Z</time>
					</trkpt>
					<trkpt lat="49.153690" lon="2.077180">
						<ele>77</ele>
						<time>2024-05-28T14:44:17Z</time>
					</trkpt>
					<trkpt lat="49.153360" lon="2.077730">
						<ele>74</ele>
						<time>2024-05-28T14:44:26Z</time>
					</trkpt>
					<trkpt lat="49.153200" lon="2.077910">
						<ele>74</ele>
						<time>2024-05-28T14:44:29Z</time>
					</trkpt>
					<trkpt lat="49.153070" lon="2.077990">
						<ele>74</ele>
						<time>2024-05-28T14:44:32Z</time>
					</trkpt>
					<trkpt lat="49.152650" lon="2.078160">
						<ele>73</ele>
						<time>2024-05-28T14:44:40Z</time>
					</trkpt>
					<trkpt lat="49.152510" lon="2.078230">
						<ele>73</ele>
						<time>2024-05-28T14:44:42Z</time>
					</trkpt>
					<trkpt lat="49.151740" lon="2.078770">
						<ele>74</ele>
						<time>2024-05-28T14:44:57Z</time>
					</trkpt>
					<trkpt lat="49.151390" lon="2.079060">
						<ele>74</ele>
						<time>2024-05-28T14:45:04Z</time>
					</trkpt>
					<trkpt lat="49.150900" lon="2.079360">
						<ele>74</ele>
						<time>2024-05-28T14:45:14Z</time>
					</trkpt>
					<trkpt lat="49.150430" lon="2.079690">
						<ele>75</ele>
						<time>2024-05-28T14:45:23Z</time>
					</trkpt>
					<trkpt lat="49.150030" lon="2.079880">
						<ele>74</ele>
						<time>2024-05-28T14:45:30Z</time>
					</trkpt>
					<trkpt lat="49.149460" lon="2.080070">
						<ele>75</ele>
						<time>2024-05-28T14:45:41Z</time>
					</trkpt>
					<trkpt lat="49.149060" lon="2.080180">
						<ele>76</ele>
						<time>2024-05-28T14:45:48Z</time>
					</trkpt>
					<trkpt lat="49.148350" lon="2.080320">
						<ele>78</ele>
						<time>2024-05-28T14:46:01Z</time>
					</trkpt>
					<trkpt lat="49.148080" lon="2.080310">
						<ele>78</ele>
						<time>2024-05-28T14:46:06Z</time>
					</trkpt>
					<trkpt lat="49.147570" lon="2.079960">
						<ele>76</ele>
						<time>2024-05-28T14:46:15Z</time>
					</trkpt>
					<trkpt lat="49.147170" lon="2.079590">
						<ele>73</ele>
						<time>2024-05-28T14:46:24Z</time>
					</trkpt>
					<trkpt lat="49.147020" lon="2.079540">
						<ele>73</ele>
						<time>2024-05-28T14:46:27Z</time>
					</trkpt>
					<trkpt lat="49.146400" lon="2.079480">
						<ele>70</ele>
						<time>2024-05-28T14:46:38Z</time>
					</trkpt>
					<trkpt lat="49.146260" lon="2.079560">
						<ele>70</ele>
						<time>2024-05-28T14:46:40Z</time>
					</trkpt>
					<trkpt lat="49.145860" lon="2.079880">
						<ele>68</ele>
						<time>2024-05-28T14:46:48Z</time>
					</trkpt>
					<trkpt lat="49.145760" lon="2.079990">
						<ele>67</ele>
						<time>2024-05-28T14:46:50Z</time>
					</trkpt>
					<trkpt lat="49.145670" lon="2.080140">
						<ele>68</ele>
						<time>2024-05-28T14:46:53Z</time>
					</trkpt>
					<trkpt lat="49.145600" lon="2.080280">
						<ele>68</ele>
						<time>2024-05-28T14:46:55Z</time>
					</trkpt>
					<trkpt lat="49.145290" lon="2.081030">
						<ele>68</ele>
						<time>2024-05-28T14:47:05Z</time>
					</trkpt>
					<trkpt lat="49.145260" lon="2.081150">
						<ele>68</ele>
						<time>2024-05-28T14:47:07Z</time>
					</trkpt>
					<trkpt lat="49.145250" lon="2.081280">
						<ele>68</ele>
						<time>2024-05-28T14:47:08Z</time>
					</trkpt>
					<trkpt lat="49.145370" lon="2.082330">
						<ele>71</ele>
						<time>2024-05-28T14:47:21Z</time>
					</trkpt>
					<trkpt lat="49.145470" lon="2.082890">
						<ele>72</ele>
						<time>2024-05-28T14:47:27Z</time>
					</trkpt>
					<trkpt lat="49.145420" lon="2.083260">
						<ele>71</ele>
						<time>2024-05-28T14:47:32Z</time>
					</trkpt>
					<trkpt lat="49.145390" lon="2.083340">
						<ele>70</ele>
						<time>2024-05-28T14:47:33Z</time>
					</trkpt>
					<trkpt lat="49.145320" lon="2.083350">
						<ele>69</ele>
						<time>2024-05-28T14:47:34Z</time>
					</trkpt>
					<trkpt lat="49.144920" lon="2.083210">
						<ele>63</ele>
						<time>2024-05-28T14:47:41Z</time>
					</trkpt>
					<trkpt lat="49.143560" lon="2.082640">
						<ele>70</ele>
						<time>2024-05-28T14:48:07Z</time>
					</trkpt>
					<trkpt lat="49.143840" lon="2.084780">
						<ele>73</ele>
						<time>2024-05-28T14:48:32Z</time>
					</trkpt>
					<trkpt lat="49.143780" lon="2.085650">
						<ele>73</ele>
						<time>2024-05-28T14:48:42Z</time>
					</trkpt>
					<trkpt lat="49.143580" lon="2.086570">
						<ele>73</ele>
						<time>2024-05-28T14:48:53Z</time>
					</trkpt>
					<trkpt lat="49.143490" lon="2.087740">
						<ele>71</ele>
						<time>2024-05-28T14:49:07Z</time>
					</trkpt>
					<trkpt lat="49.143370" lon="2.088840">
						<ele>71</ele>
						<time>2024-05-28T14:49:20Z</time>
					</trkpt>
					<trkpt lat="49.143330" lon="2.089610">
						<ele>71</ele>
						<time>2024-05-28T14:49:29Z</time>
					</trkpt>
					<trkpt lat="49.143170" lon="2.090980">
						<ele>73</ele>
						<time>2024-05-28T14:49:45Z</time>
					</trkpt>
					<trkpt lat="49.143180" lon="2.091620">
						<ele>70</ele>
						<time>2024-05-28T14:49:53Z</time>
					</trkpt>
					<trkpt lat="49.142970" lon="2.092690">
						<ele>68</ele>
						<time>2024-05-28T14:50:06Z</time>
					</trkpt>
					<trkpt lat="49.142790" lon="2.093540">
						<ele>67</ele>
						<time>2024-05-28T14:50:16Z</time>
					</trkpt>
					<trkpt lat="49.142490" lon="2.094430">
						<ele>67</ele>
						<time>2024-05-28T14:50:28Z</time>
					</trkpt>
					<trkpt lat="49.142190" lon="2.094820">
						<ele>70</ele>
						<time>2024-05-28T14:50:35Z</time>
					</trkpt>
					<trkpt lat="49.141980" lon="2.095180">
						<ele>71</ele>
						<time>2024-05-28T14:50:40Z</time>
					</trkpt>
					<trkpt lat="49.141850" lon="2.095360">
						<ele>72</ele>
						<time>2024-05-28T14:50:44Z</time>
					</trkpt>
					<trkpt lat="49.141650" lon="2.095500">
						<ele>73</ele>
						<time>2024-05-28T14:50:47Z</time>
					</trkpt>
					<trkpt lat="49.141310" lon="2.095560">
						<ele>70</ele>
						<time>2024-05-28T14:50:54Z</time>
					</trkpt>
					<trkpt lat="49.141020" lon="2.095490">
						<ele>68</ele>
						<time>2024-05-28T14:50:59Z</time>
					</trkpt>
					<trkpt lat="49.140870" lon="2.095430">
						<ele>68</ele>
						<time>2024-05-28T14:51:01Z</time>
					</trkpt>
					<trkpt lat="49.140690" lon="2.095510">
						<ele>66</ele>
						<time>2024-05-28T14:51:05Z</time>
					</trkpt>
					<trkpt lat="49.140330" lon="2.096160">
						<ele>63</ele>
						<time>2024-05-28T14:51:15Z</time>
					</trkpt>
					<trkpt lat="49.140040" lon="2.096750">
						<ele>69</ele>
						<time>2024-05-28T14:51:23Z</time>
					</trkpt>
					<trkpt lat="49.140330" lon="2.097200">
						<ele>69</ele>
						<time>2024-05-28T14:51:31Z</time>
					</trkpt>
					<trkpt lat="49.140620" lon="2.097610">
						<ele>67</ele>
						<time>2024-05-28T14:51:38Z</time>
					</trkpt>
					<trkpt lat="49.141180" lon="2.098260">
						<ele>65</ele>
						<time>2024-05-28T14:51:50Z</time>
					</trkpt>
					<trkpt lat="49.141420" lon="2.098600">
						<ele>64</ele>
						<time>2024-05-28T14:51:56Z</time>
					</trkpt>
					<trkpt lat="49.141580" lon="2.098850">
						<ele>64</ele>
						<time>2024-05-28T14:52:00Z</time>
					</trkpt>
					<trkpt lat="49.141760" lon="2.099230">
						<ele>64</ele>
						<time>2024-05-28T14:52:06Z</time>
					</trkpt>
					<trkpt lat="49.141850" lon="2.099530">
						<ele>65</ele>
						<time>2024-05-28T14:52:09Z</time>
					</trkpt>
					<trkpt lat="49.142000" lon="2.101230">
						<ele>63</ele>
						<time>2024-05-28T14:52:29Z</time>
					</trkpt>
					<trkpt lat="49.142020" lon="2.102020">
						<ele>62</ele>
						<time>2024-05-28T14:52:39Z</time>
					</trkpt>
					<trkpt lat="49.141940" lon="2.103160">
						<ele>63</ele>
						<time>2024-05-28T14:52:52Z</time>
					</trkpt>
					<trkpt lat="49.141800" lon="2.104090">
						<ele>62</ele>
						<time>2024-05-28T14:53:03Z</time>
					</trkpt>
					<trkpt lat="49.141280" lon="2.105500">
						<ele>67</ele>
						<time>2024-05-28T14:53:22Z</time>
					</trkpt>
					<trkpt lat="49.141220" lon="2.105720">
						<ele>68</ele>
						<time>2024-05-28T14:53:25Z</time>
					</trkpt>
					<trkpt lat="49.141180" lon="2.106250">
						<ele>67</ele>
						<time>2024-05-28T14:53:31Z</time>
					</trkpt>
					<trkpt lat="49.140990" lon="2.107840">
						<ele>63</ele>
						<time>2024-05-28T14:53:50Z</time>
					</trkpt>
					<trkpt lat="49.140680" lon="2.109500">
						<ele>60</ele>
						<time>2024-05-28T14:54:10Z</time>
					</trkpt>
					<trkpt lat="49.140650" lon="2.109760">
						<ele>59</ele>
						<time>2024-05-28T14:54:13Z</time>
					</trkpt>
					<trkpt lat="49.140540" lon="2.110140">
						<ele>58</ele>
						<time>2024-05-28T14:54:18Z</time>
					</trkpt>
					<trkpt lat="49.140430" lon="2.110450">
						<ele>58</ele>
						<time>2024-05-28T14:54:22Z</time>
					</trkpt>
					<trkpt lat="49.139980" lon="2.111320">
						<ele>55</ele>
						<time>2024-05-28T14:54:35Z</time>
					</trkpt>
					<trkpt lat="49.139300" lon="2.110740">
						<ele>60</ele>
						<time>2024-05-28T14:54:49Z</time>
					</trkpt>
					<trkpt lat="49.138330" lon="2.109780">
						<ele>67</ele>
						<time>2024-05-28T14:55:09Z</time>
					</trkpt>
					<trkpt lat="49.136950" lon="2.108780">
						<ele>73</ele>
						<time>2024-05-28T14:55:36Z</time>
					</trkpt>
					<trkpt lat="49.136630" lon="2.108570">
						<ele>73</ele>
						<time>2024-05-28T14:55:42Z</time>
					</trkpt>
					<trkpt lat="49.136590" lon="2.108780">
						<ele>72</ele>
						<time>2024-05-28T14:55:45Z</time>
					</trkpt>
					<trkpt lat="49.136620" lon="2.109160">
						<ele>70</ele>
						<time>2024-05-28T14:55:49Z</time>
					</trkpt>
					<trkpt lat="49.136590" lon="2.108780">
						<ele>72</ele>
						<time>2024-05-28T14:55:54Z</time>
					</trkpt>
					<trkpt lat="49.136630" lon="2.108570">
						<ele>73</ele>
						<time>2024-05-28T14:55:56Z</time>
					</trkpt>
					<trkpt lat="49.135950" lon="2.108140">
						<ele>76</ele>
						<time>2024-05-28T14:56:10Z</time>
					</trkpt>
					<trkpt lat="49.135570" lon="2.107810">
						<ele>79</ele>
						<time>2024-05-28T14:56:17Z</time>
					</trkpt>
					<trkpt lat="49.134640" lon="2.107250">
						<ele>82</ele>
						<time>2024-05-28T14:56:35Z</time>
					</trkpt>
					<trkpt lat="49.134040" lon="2.106910">
						<ele>82</ele>
						<time>2024-05-28T14:56:47Z</time>
					</trkpt>
					<trkpt lat="49.132990" lon="2.106210">
						<ele>83</ele>
						<time>2024-05-28T14:57:07Z</time>
					</trkpt>
					<trkpt lat="49.132890" lon="2.106170">
						<ele>83</ele>
						<time>2024-05-28T14:57:09Z</time>
					</trkpt>
					<trkpt lat="49.131980" lon="2.106390">
						<ele>84</ele>
						<time>2024-05-28T14:57:25Z</time>
					</trkpt>
					<trkpt lat="49.131740" lon="2.106500">
						<ele>84</ele>
						<time>2024-05-28T14:57:30Z</time>
					</trkpt>
					<trkpt lat="49.131660" lon="2.106570">
						<ele>84</ele>
						<time>2024-05-28T14:57:31Z</time>
					</trkpt>
					<trkpt lat="49.131560" lon="2.106710">
						<ele>85</ele>
						<time>2024-05-28T14:57:34Z</time>
					</trkpt>
					<trkpt lat="49.131470" lon="2.106930">
						<ele>86</ele>
						<time>2024-05-28T14:57:37Z</time>
					</trkpt>
					<trkpt lat="49.131290" lon="2.107510">
						<ele>88</ele>
						<time>2024-05-28T14:57:44Z</time>
					</trkpt>
					<trkpt lat="49.131220" lon="2.107640">
						<ele>88</ele>
						<time>2024-05-28T14:57:46Z</time>
					</trkpt>
					<trkpt lat="49.131180" lon="2.107710">
						<ele>88</ele>
						<time>2024-05-28T14:57:47Z</time>
					</trkpt>
					<trkpt lat="49.131080" lon="2.107750">
						<ele>88</ele>
						<time>2024-05-28T14:57:49Z</time>
					</trkpt>
					<trkpt lat="49.130970" lon="2.107750">
						<ele>88</ele>
						<time>2024-05-28T14:57:51Z</time>
					</trkpt>
					<trkpt lat="49.130640" lon="2.107650">
						<ele>88</ele>
						<time>2024-05-28T14:57:57Z</time>
					</trkpt>
					<trkpt lat="49.130310" lon="2.107490">
						<ele>90</ele>
						<time>2024-05-28T14:58:03Z</time>
					</trkpt>
					<trkpt lat="49.129360" lon="2.106790">
						<ele>94</ele>
						<time>2024-05-28T14:58:22Z</time>
					</trkpt>
					<trkpt lat="49.129160" lon="2.106600">
						<ele>95</ele>
						<time>2024-05-28T14:58:26Z</time>
					</trkpt>
					<trkpt lat="49.128610" lon="2.106020">
						<ele>95</ele>
						<time>2024-05-28T14:58:38Z</time>
					</trkpt>
					<trkpt lat="49.128200" lon="2.105770">
						<ele>97</ele>
						<time>2024-05-28T14:58:46Z</time>
					</trkpt>
					<trkpt lat="49.127930" lon="2.105650">
						<ele>98</ele>
						<time>2024-05-28T14:58:51Z</time>
					</trkpt>
					<trkpt lat="49.127320" lon="2.105450">
						<ele>101</ele>
						<time>2024-05-28T14:59:02Z</time>
					</trkpt>
					<trkpt lat="49.126460" lon="2.105120">
						<ele>103</ele>
						<time>2024-05-28T14:59:18Z</time>
					</trkpt>
					<trkpt lat="49.126120" lon="2.104960">
						<ele>104</ele>
						<time>2024-05-28T14:59:24Z</time>
					</trkpt>
					<trkpt lat="49.125750" lon="2.104710">
						<ele>105</ele>
						<time>2024-05-28T14:59:31Z</time>
					</trkpt>
					<trkpt lat="49.124340" lon="2.103610">
						<ele>109</ele>
						<time>2024-05-28T14:59:59Z</time>
					</trkpt>
					<trkpt lat="49.123980" lon="2.103480">
						<ele>110</ele>
						<time>2024-05-28T15:00:06Z</time>
					</trkpt>
					<trkpt lat="49.123690" lon="2.103450">
						<ele>110</ele>
						<time>2024-05-28T15:00:11Z</time>
					</trkpt>
					<trkpt lat="49.122980" lon="2.103440">
						<ele>110</ele>
						<time>2024-05-28T15:00:24Z</time>
					</trkpt>
					<trkpt lat="49.122560" lon="2.103370">
						<ele>111</ele>
						<time>2024-05-28T15:00:31Z</time>
					</trkpt>
					<trkpt lat="49.121980" lon="2.103080">
						<ele>112</ele>
						<time>2024-05-28T15:00:42Z</time>
					</trkpt>
					<trkpt lat="49.119870" lon="2.101880">
						<ele>120</ele>
						<time>2024-05-28T15:01:22Z</time>
					</trkpt>
					<trkpt lat="49.119210" lon="2.101590">
						<ele>123</ele>
						<time>2024-05-28T15:01:34Z</time>
					</trkpt>
					<trkpt lat="49.115840" lon="2.100900">
						<ele>113</ele>
						<time>2024-05-28T15:02:35Z</time>
					</trkpt>
					<trkpt lat="49.113620" lon="2.100590">
						<ele>107</ele>
						<time>2024-05-28T15:03:15Z</time>
					</trkpt>
					<trkpt lat="49.113040" lon="2.100430">
						<ele>106</ele>
						<time>2024-05-28T15:03:25Z</time>
					</trkpt>
					<trkpt lat="49.112320" lon="2.100110">
						<ele>104</ele>
						<time>2024-05-28T15:03:38Z</time>
					</trkpt>
					<trkpt lat="49.111630" lon="2.099860">
						<ele>103</ele>
						<time>2024-05-28T15:03:51Z</time>
					</trkpt>
					<trkpt lat="49.107390" lon="2.098480">
						<ele>100</ele>
						<time>2024-05-28T15:05:08Z</time>
					</trkpt>
					<trkpt lat="49.105690" lon="2.097900">
						<ele>101</ele>
						<time>2024-05-28T15:05:39Z</time>
					</trkpt>
					<trkpt lat="49.104880" lon="2.097510">
						<ele>101</ele>
						<time>2024-05-28T15:05:54Z</time>
					</trkpt>
					<trkpt lat="49.104490" lon="2.097340">
						<ele>100</ele>
						<time>2024-05-28T15:06:02Z</time>
					</trkpt>
					<trkpt lat="49.103750" lon="2.097150">
						<ele>100</ele>
						<time>2024-05-28T15:06:15Z</time>
					</trkpt>
					<trkpt lat="49.102980" lon="2.096900">
						<ele>99</ele>
						<time>2024-05-28T15:06:29Z</time>
					</trkpt>
					<trkpt lat="49.102360" lon="2.096610">
						<ele>99</ele>
						<time>2024-05-28T15:06:40Z</time>
					</trkpt>
					<trkpt lat="49.101520" lon="2.096290">
						<ele>101</ele>
						<time>2024-05-28T15:06:56Z</time>
					</trkpt>
					<trkpt lat="49.100850" lon="2.096090">
						<ele>101</ele>
						<time>2024-05-28T15:07:08Z</time>
					</trkpt>
					<trkpt lat="49.100450" lon="2.096070">
						<ele>100</ele>
						<time>2024-05-28T15:07:15Z</time>
					</trkpt>
					<trkpt lat="49.099410" lon="2.096220">
						<ele>99</ele>
						<time>2024-05-28T15:07:34Z</time>
					</trkpt>
					<trkpt lat="49.099110" lon="2.096210">
						<ele>99</ele>
						<time>2024-05-28T15:07:39Z</time>
					</trkpt>
					<trkpt lat="49.099080" lon="2.096190">
						<ele>99</ele>
						<time>2024-05-28T15:07:40Z</time>
					</trkpt>
					<trkpt lat="49.099000" lon="2.096220">
						<ele>100</ele>
						<time>2024-05-28T15:07:41Z</time>
					</trkpt>
					<trkpt lat="49.098940" lon="2.096220">
						<ele>100</ele>
						<time>2024-05-28T15:07:42Z</time>
					</trkpt>
					<trkpt lat="49.098450" lon="2.096120">
						<ele>100</ele>
						<time>2024-05-28T15:07:51Z</time>
					</trkpt>
					<trkpt lat="49.098260" lon="2.096060">
						<ele>101</ele>
						<time>2024-05-28T15:07:54Z</time>
					</trkpt>
					<trkpt lat="49.097510" lon="2.095710">
						<ele>101</ele>
						<time>2024-05-28T15:08:08Z</time>
					</trkpt>
					<trkpt lat="49.097100" lon="2.095560">
						<ele>101</ele>
						<time>2024-05-28T15:08:16Z</time>
					</trkpt>
					<trkpt lat="49.096180" lon="2.095320">
						<ele>103</ele>
						<time>2024-05-28T15:08:32Z</time>
					</trkpt>
					<trkpt lat="49.096030" lon="2.095310">
						<ele>103</ele>
						<time>2024-05-28T15:08:35Z</time>
					</trkpt>
					<trkpt lat="49.095950" lon="2.095370">
						<ele>104</ele>
						<time>2024-05-28T15:08:37Z</time>
					</trkpt>
					<trkpt lat="49.095900" lon="2.095320">
						<ele>104</ele>
						<time>2024-05-28T15:08:38Z</time>
					</trkpt>
					<trkpt lat="49.095680" lon="2.095290">
						<ele>104</ele>
						<time>2024-05-28T15:08:42Z</time>
					</trkpt>
					<trkpt lat="49.095230" lon="2.095200">
						<ele>103</ele>
						<time>2024-05-28T15:08:50Z</time>
					</trkpt>
					<trkpt lat="49.095100" lon="2.095230">
						<ele>104</ele>
						<time>2024-05-28T15:08:52Z</time>
					</trkpt>
					<trkpt lat="49.095020" lon="2.095300">
						<ele>104</ele>
						<time>2024-05-28T15:08:54Z</time>
					</trkpt>
					<trkpt lat="49.094990" lon="2.095380">
						<ele>104</ele>
						<time>2024-05-28T15:08:55Z</time>
					</trkpt>
					<trkpt lat="49.094950" lon="2.095440">
						<ele>104</ele>
						<time>2024-05-28T15:08:56Z</time>
					</trkpt>
					<trkpt lat="49.094880" lon="2.095460">
						<ele>104</ele>
						<time>2024-05-28T15:08:57Z</time>
					</trkpt>
					<trkpt lat="49.094630" lon="2.095370">
						<ele>104</ele>
						<time>2024-05-28T15:09:02Z</time>
					</trkpt>
					<trkpt lat="49.094000" lon="2.095620">
						<ele>105</ele>
						<time>2024-05-28T15:09:13Z</time>
					</trkpt>
					<trkpt lat="49.093550" lon="2.095900">
						<ele>104</ele>
						<time>2024-05-28T15:09:22Z</time>
					</trkpt>
					<trkpt lat="49.093210" lon="2.096200">
						<ele>103</ele>
						<time>2024-05-28T15:09:29Z</time>
					</trkpt>
					<trkpt lat="49.092830" lon="2.096670">
						<ele>103</ele>
						<time>2024-05-28T15:09:38Z</time>
					</trkpt>
					<trkpt lat="49.092570" lon="2.096880">
						<ele>102</ele>
						<time>2024-05-28T15:09:43Z</time>
					</trkpt>
					<trkpt lat="49.092310" lon="2.097010">
						<ele>102</ele>
						<time>2024-05-28T15:09:48Z</time>
					</trkpt>
					<trkpt lat="49.091980" lon="2.097090">
						<ele>101</ele>
						<time>2024-05-28T15:09:54Z</time>
					</trkpt>
					<trkpt lat="49.091530" lon="2.097250">
						<ele>101</ele>
						<time>2024-05-28T15:10:02Z</time>
					</trkpt>
					<trkpt lat="49.090460" lon="2.097780">
						<ele>100</ele>
						<time>2024-05-28T15:10:22Z</time>
					</trkpt>
					<trkpt lat="49.089850" lon="2.098070">
						<ele>100</ele>
						<time>2024-05-28T15:10:33Z</time>
					</trkpt>
					<trkpt lat="49.089780" lon="2.098090">
						<ele>100</ele>
						<time>2024-05-28T15:10:34Z</time>
					</trkpt>
					<trkpt lat="49.089450" lon="2.098170">
						<ele>99</ele>
						<time>2024-05-28T15:10:40Z</time>
					</trkpt>
					<trkpt lat="49.088180" lon="2.098470">
						<ele>97</ele>
						<time>2024-05-28T15:11:03Z</time>
					</trkpt>
					<trkpt lat="49.088120" lon="2.098510">
						<ele>96</ele>
						<time>2024-05-28T15:11:04Z</time>
					</trkpt>
					<trkpt lat="49.087920" lon="2.098710">
						<ele>96</ele>
						<time>2024-05-28T15:11:09Z</time>
					</trkpt>
					<trkpt lat="49.087330" lon="2.099550">
						<ele>93</ele>
						<time>2024-05-28T15:11:23Z</time>
					</trkpt>
					<trkpt lat="49.087290" lon="2.099750">
						<ele>92</ele>
						<time>2024-05-28T15:11:26Z</time>
					</trkpt>
					<trkpt lat="49.087290" lon="2.099930">
						<ele>92</ele>
						<time>2024-05-28T15:11:28Z</time>
					</trkpt>
					<trkpt lat="49.087610" lon="2.101240">
						<ele>90</ele>
						<time>2024-05-28T15:11:44Z</time>
					</trkpt>
					<trkpt lat="49.087560" lon="2.101410">
						<ele>90</ele>
						<time>2024-05-28T15:11:46Z</time>
					</trkpt>
					<trkpt lat="49.086430" lon="2.101930">
						<ele>85</ele>
						<time>2024-05-28T15:12:07Z</time>
					</trkpt>
					<trkpt lat="49.085630" lon="2.102590">
						<ele>83</ele>
						<time>2024-05-28T15:12:23Z</time>
					</trkpt>
					<trkpt lat="49.085520" lon="2.102630">
						<ele>83</ele>
						<time>2024-05-28T15:12:25Z</time>
					</trkpt>
					<trkpt lat="49.085430" lon="2.102720">
						<ele>84</ele>
						<time>2024-05-28T15:12:27Z</time>
					</trkpt>
					<trkpt lat="49.085390" lon="2.102790">
						<ele>84</ele>
						<time>2024-05-28T15:12:28Z</time>
					</trkpt>
					<trkpt lat="49.084920" lon="2.103150">
						<ele>87</ele>
						<time>2024-05-28T15:12:38Z</time>
					</trkpt>
					<trkpt lat="49.084080" lon="2.104040">
						<ele>92</ele>
						<time>2024-05-28T15:12:56Z</time>
					</trkpt>
					<trkpt lat="49.083780" lon="2.104420">
						<ele>94</ele>
						<time>2024-05-28T15:13:03Z</time>
					</trkpt>
					<trkpt lat="49.082560" lon="2.105650">
						<ele>98</ele>
						<time>2024-05-28T15:13:29Z</time>
					</trkpt>
					<trkpt lat="49.080930" lon="2.107180">
						<ele>100</ele>
						<time>2024-05-28T15:14:03Z</time>
					</trkpt>
					<trkpt lat="49.079600" lon="2.108110">
						<ele>102</ele>
						<time>2024-05-28T15:14:29Z</time>
					</trkpt>
					<trkpt lat="49.079520" lon="2.108220">
						<ele>101</ele>
						<time>2024-05-28T15:14:31Z</time>
					</trkpt>
					<trkpt lat="49.077530" lon="2.106840">
						<ele>98</ele>
						<time>2024-05-28T15:15:10Z</time>
					</trkpt>
					<trkpt lat="49.077270" lon="2.106610">
						<ele>98</ele>
						<time>2024-05-28T15:15:15Z</time>
					</trkpt>
					<trkpt lat="49.076920" lon="2.106190">
						<ele>97</ele>
						<time>2024-05-28T15:15:23Z</time>
					</trkpt>
					<trkpt lat="49.076020" lon="2.104920">
						<ele>94</ele>
						<time>2024-05-28T15:15:45Z</time>
					</trkpt>
					<trkpt lat="49.075820" lon="2.104700">
						<ele>94</ele>
						<time>2024-05-28T15:15:49Z</time>
					</trkpt>
					<trkpt lat="49.075720" lon="2.104630">
						<ele>93</ele>
						<time>2024-05-28T15:15:51Z</time>
					</trkpt>
					<trkpt lat="49.075620" lon="2.104650">
						<ele>93</ele>
						<time>2024-05-28T15:15:53Z</time>
					</trkpt>
					<trkpt lat="49.074720" lon="2.104900">
						<ele>93</ele>
						<time>2024-05-28T15:16:09Z</time>
					</trkpt>
					<trkpt lat="49.074590" lon="2.104910">
						<ele>92</ele>
						<time>2024-05-28T15:16:11Z</time>
					</trkpt>
					<trkpt lat="49.074400" lon="2.104880">
						<ele>91</ele>
						<time>2024-05-28T15:16:15Z</time>
					</trkpt>
					<trkpt lat="49.074280" lon="2.104800">
						<ele>90</ele>
						<time>2024-05-28T15:16:17Z</time>
					</trkpt>
					<trkpt lat="49.074210" lon="2.104720">
						<ele>90</ele>
						<time>2024-05-28T15:16:19Z</time>
					</trkpt>
					<trkpt lat="49.074100" lon="2.104570">
						<ele>89</ele>
						<time>2024-05-28T15:16:21Z</time>
					</trkpt>
					<trkpt lat="49.072450" lon="2.101720">
						<ele>80</ele>
						<time>2024-05-28T15:17:06Z</time>
					</trkpt>
					<trkpt lat="49.072240" lon="2.101390">
						<ele>79</ele>
						<time>2024-05-28T15:17:11Z</time>
					</trkpt>
					<trkpt lat="49.072070" lon="2.101170">
						<ele>78</ele>
						<time>2024-05-28T15:17:15Z</time>
					</trkpt>
					<trkpt lat="49.071790" lon="2.100910">
						<ele>77</ele>
						<time>2024-05-28T15:17:21Z</time>
					</trkpt>
					<trkpt lat="49.071450" lon="2.100710">
						<ele>76</ele>
						<time>2024-05-28T15:17:27Z</time>
					</trkpt>
					<trkpt lat="49.071230" lon="2.100640">
						<ele>76</ele>
						<time>2024-05-28T15:17:31Z</time>
					</trkpt>
					<trkpt lat="49.071030" lon="2.100630">
						<ele>75</ele>
						<time>2024-05-28T15:17:35Z</time>
					</trkpt>
					<trkpt lat="49.070840" lon="2.100650">
						<ele>75</ele>
						<time>2024-05-28T15:17:38Z</time>
					</trkpt>
					<trkpt lat="49.070620" lon="2.100710">
						<ele>72</ele>
						<time>2024-05-28T15:17:42Z</time>
					</trkpt>
					<trkpt lat="49.070410" lon="2.100820">
						<ele>70</ele>
						<time>2024-05-28T15:17:46Z</time>
					</trkpt>
					<trkpt lat="49.069740" lon="2.101180">
						<ele>67</ele>
						<time>2024-05-28T15:17:59Z</time>
					</trkpt>
					<trkpt lat="49.069510" lon="2.101350">
						<ele>66</ele>
						<time>2024-05-28T15:18:03Z</time>
					</trkpt>
					<trkpt lat="49.069170" lon="2.101710">
						<ele>65</ele>
						<time>2024-05-28T15:18:11Z</time>
					</trkpt>
					<trkpt lat="49.069060" lon="2.101910">
						<ele>65</ele>
						<time>2024-05-28T15:18:14Z</time>
					</trkpt>
					<trkpt lat="49.067580" lon="2.105140">
						<ele>56</ele>
						<time>2024-05-28T15:19:00Z</time>
					</trkpt>
					<trkpt lat="49.067500" lon="2.105260">
						<ele>57</ele>
						<time>2024-05-28T15:19:02Z</time>
					</trkpt>
					<trkpt lat="49.067320" lon="2.105420">
						<ele>58</ele>
						<time>2024-05-28T15:19:05Z</time>
					</trkpt>
					<trkpt lat="49.067170" lon="2.105470">
						<ele>58</ele>
						<time>2024-05-28T15:19:08Z</time>
					</trkpt>
					<trkpt lat="49.067090" lon="2.105470">
						<ele>58</ele>
						<time>2024-05-28T15:19:10Z</time>
					</trkpt>
					<trkpt lat="49.066930" lon="2.105410">
						<ele>56</ele>
						<time>2024-05-28T15:19:13Z</time>
					</trkpt>
					<trkpt lat="49.066580" lon="2.105130">
						<ele>52</ele>
						<time>2024-05-28T15:19:20Z</time>
					</trkpt>
					<trkpt lat="49.066470" lon="2.105090">
						<ele>51</ele>
						<time>2024-05-28T15:19:22Z</time>
					</trkpt>
					<trkpt lat="49.066230" lon="2.105090">
						<ele>49</ele>
						<time>2024-05-28T15:19:26Z</time>
					</trkpt>
					<trkpt lat="49.065580" lon="2.105290">
						<ele>47</ele>
						<time>2024-05-28T15:19:38Z</time>
					</trkpt>
					<trkpt lat="49.065430" lon="2.105320">
						<ele>47</ele>
						<time>2024-05-28T15:19:40Z</time>
					</trkpt>
					<trkpt lat="49.065340" lon="2.105390">
						<ele>47</ele>
						<time>2024-05-28T15:19:42Z</time>
					</trkpt>
					<trkpt lat="49.065290" lon="2.105390">
						<ele>47</ele>
						<time>2024-05-28T15:19:43Z</time>
					</trkpt>
					<trkpt lat="49.065060" lon="2.105300">
						<ele>46</ele>
						<time>2024-05-28T15:19:47Z</time>
					</trkpt>
					<trkpt lat="49.064430" lon="2.105240">
						<ele>45</ele>
						<time>2024-05-28T15:19:58Z</time>
					</trkpt>
					<trkpt lat="49.063990" lon="2.105140">
						<ele>45</ele>
						<time>2024-05-28T15:20:06Z</time>
					</trkpt>
					<trkpt lat="49.062560" lon="2.104670">
						<ele>43</ele>
						<time>2024-05-28T15:20:32Z</time>
					</trkpt>
					<trkpt lat="49.062410" lon="2.104660">
						<ele>43</ele>
						<time>2024-05-28T15:20:35Z</time>
					</trkpt>
					<trkpt lat="49.061030" lon="2.104950">
						<ele>40</ele>
						<time>2024-05-28T15:21:00Z</time>
					</trkpt>
					<trkpt lat="49.060860" lon="2.105080">
						<ele>39</ele>
						<time>2024-05-28T15:21:03Z</time>
					</trkpt>
					<trkpt lat="49.059980" lon="2.106600">
						<ele>36</ele>
						<time>2024-05-28T15:21:27Z</time>
					</trkpt>
					<trkpt lat="49.059850" lon="2.106740">
						<ele>36</ele>
						<time>2024-05-28T15:21:30Z</time>
					</trkpt>
					<trkpt lat="49.059790" lon="2.106770">
						<ele>37</ele>
						<time>2024-05-28T15:21:31Z</time>
					</trkpt>
					<trkpt lat="49.059680" lon="2.106790">
						<ele>38</ele>
						<time>2024-05-28T15:21:33Z</time>
					</trkpt>
					<trkpt lat="49.059520" lon="2.106720">
						<ele>38</ele>
						<time>2024-05-28T15:21:36Z</time>
					</trkpt>
					<trkpt lat="49.059410" lon="2.106600">
						<ele>38</ele>
						<time>2024-05-28T15:21:38Z</time>
					</trkpt>
					<trkpt lat="49.058530" lon="2.105180">
						<ele>37</ele>
						<time>2024-05-28T15:22:01Z</time>
					</trkpt>
					<trkpt lat="49.058430" lon="2.105010">
						<ele>35</ele>
						<time>2024-05-28T15:22:04Z</time>
					</trkpt>
					<trkpt lat="49.058380" lon="2.104950">
						<ele>35</ele>
						<time>2024-05-28T15:22:05Z</time>
					</trkpt>
					<trkpt lat="49.058290" lon="2.104810">
						<ele>35</ele>
						<time>2024-05-28T15:22:07Z</time>
					</trkpt>
					<trkpt lat="49.058160" lon="2.104530">
						<ele>36</ele>
						<time>2024-05-28T15:22:11Z</time>
					</trkpt>
					<trkpt lat="49.058080" lon="2.104420">
						<ele>36</ele>
						<time>2024-05-28T15:22:13Z</time>
					</trkpt>
					<trkpt lat="49.057650" lon="2.104270">
						<ele>34</ele>
						<time>2024-05-28T15:22:21Z</time>
					</trkpt>
					<trkpt lat="49.057600" lon="2.104230">
						<ele>34</ele>
						<time>2024-05-28T15:22:22Z</time>
					</trkpt>
					<trkpt lat="49.057410" lon="2.104170">
						<ele>33</ele>
						<time>2024-05-28T15:22:25Z</time>
					</trkpt>
					<trkpt lat="49.056980" lon="2.103960">
						<ele>32</ele>
						<time>2024-05-28T15:22:33Z</time>
					</trkpt>
					<trkpt lat="49.056670" lon="2.104120">
						<ele>30</ele>
						<time>2024-05-28T15:22:39Z</time>
					</trkpt>
					<trkpt lat="49.056220" lon="2.104470">
						<ele>32</ele>
						<time>2024-05-28T15:22:48Z</time>
					</trkpt>
					<trkpt lat="49.055710" lon="2.104800">
						<ele>31</ele>
						<time>2024-05-28T15:22:58Z</time>
					</trkpt>
					<trkpt lat="49.054570" lon="2.105010">
						<ele>27</ele>
						<time>2024-05-28T15:23:18Z</time>
					</trkpt>
					<trkpt lat="49.053400" lon="2.105150">
						<ele>26</ele>
						<time>2024-05-28T15:23:39Z</time>
					</trkpt>
					<trkpt lat="49.052530" lon="2.105300">
						<ele>26</ele>
						<time>2024-05-28T15:23:55Z</time>
					</trkpt>
					<trkpt lat="49.052340" lon="2.105330">
						<ele>26</ele>
						<time>2024-05-28T15:23:58Z</time>
					</trkpt>
					<trkpt lat="49.052240" lon="2.105320">
						<ele>26</ele>
						<time>2024-05-28T15:24:00Z</time>
					</trkpt>
					<trkpt lat="49.051920" lon="2.105370">
						<ele>25</ele>
						<time>2024-05-28T15:24:06Z</time>
					</trkpt>
					<trkpt lat="49.051830" lon="2.105410">
						<ele>25</ele>
						<time>2024-05-28T15:24:07Z</time>
					</trkpt>
					<trkpt lat="49.051130" lon="2.105510">
						<ele>24</ele>
						<time>2024-05-28T15:24:20Z</time>
					</trkpt>
					<trkpt lat="49.050960" lon="2.105510">
						<ele>24</ele>
						<time>2024-05-28T15:24:23Z</time>
					</trkpt>
					<trkpt lat="49.050930" lon="2.105490">
						<ele>24</ele>
						<time>2024-05-28T15:24:24Z</time>
					</trkpt>
					<trkpt lat="49.050100" lon="2.104030">
						<ele>24</ele>
						<time>2024-05-28T15:24:46Z</time>
					</trkpt>
					<trkpt lat="49.050020" lon="2.103830">
						<ele>24</ele>
						<time>2024-05-28T15:24:49Z</time>
					</trkpt>
					<trkpt lat="49.049910" lon="2.103570">
						<ele>24</ele>
						<time>2024-05-28T15:24:52Z</time>
					</trkpt>
					<trkpt lat="49.049510" lon="2.102910">
						<ele>26</ele>
						<time>2024-05-28T15:25:03Z</time>
					</trkpt>
					<trkpt lat="49.049370" lon="2.102730">
						<ele>27</ele>
						<time>2024-05-28T15:25:06Z</time>
					</trkpt>
					<trkpt lat="49.048720" lon="2.101600">
						<ele>29</ele>
						<time>2024-05-28T15:25:24Z</time>
					</trkpt>
					<trkpt lat="49.048580" lon="2.101230">
						<ele>31</ele>
						<time>2024-05-28T15:25:29Z</time>
					</trkpt>
					<trkpt lat="49.048410" lon="2.101420">
						<ele>28</ele>
						<time>2024-05-28T15:25:32Z</time>
					</trkpt>
					<trkpt lat="49.048390" lon="2.101460">
						<ele>28</ele>
						<time>2024-05-28T15:25:33Z</time>
					</trkpt>
					<trkpt lat="49.047910" lon="2.102580">
						<ele>24</ele>
						<time>2024-05-28T15:25:49Z</time>
					</trkpt>
					<trkpt lat="49.047880" lon="2.102660">
						<ele>25</ele>
						<time>2024-05-28T15:25:50Z</time>
					</trkpt>
					<trkpt lat="49.047790" lon="2.102750">
						<ele>26</ele>
						<time>2024-05-28T15:25:52Z</time>
					</trkpt>
					<trkpt lat="49.047770" lon="2.102750">
						<ele>26</ele>
						<time>2024-05-28T15:25:52Z</time>
					</trkpt>
					<trkpt lat="49.047720" lon="2.102720">
						<ele>26</ele>
						<time>2024-05-28T15:25:53Z</time>
					</trkpt>
					<trkpt lat="49.047640" lon="2.102640">
						<ele>26</ele>
						<time>2024-05-28T15:25:55Z</time>
					</trkpt>
					<trkpt lat="49.047390" lon="2.102330">
						<ele>25</ele>
						<time>2024-05-28T15:26:00Z</time>
					</trkpt>
					<trkpt lat="49.047200" lon="2.102160">
						<ele>25</ele>
						<time>2024-05-28T15:26:04Z</time>
					</trkpt>
					<trkpt lat="49.046470" lon="2.101670">
						<ele>24</ele>
						<time>2024-05-28T15:26:18Z</time>
					</trkpt>
					<trkpt lat="49.045840" lon="2.101230">
						<ele>23</ele>
						<time>2024-05-28T15:26:31Z</time>
					</trkpt>
					<trkpt lat="49.045480" lon="2.101000">
						<ele>23</ele>
						<time>2024-05-28T15:26:38Z</time>
					</trkpt>
					<trkpt lat="49.045400" lon="2.101000">
						<ele>23</ele>
						<time>2024-05-28T15:26:39Z</time>
					</trkpt>
					<trkpt lat="49.045370" lon="2.100910">
						<ele>23</ele>
						<time>2024-05-28T15:26:40Z</time>
					</trkpt>
					<trkpt lat="49.045330" lon="2.100870">
						<ele>22</ele>
						<time>2024-05-28T15:26:41Z</time>
					</trkpt>
					<trkpt lat="49.044860" lon="2.100460">
						<ele>23</ele>
						<time>2024-05-28T15:26:51Z</time>
					</trkpt>
					<trkpt lat="49.044100" lon="2.099860">
						<ele>22</ele>
						<time>2024-05-28T15:27:06Z</time>
					</trkpt>
					<trkpt lat="49.043600" lon="2.099500">
						<ele>23</ele>
						<time>2024-05-28T15:27:16Z</time>
					</trkpt>
					<trkpt lat="49.043430" lon="2.099400">
						<ele>23</ele>
						<time>2024-05-28T15:27:19Z</time>
					</trkpt>
					<trkpt lat="49.043420" lon="2.099390">
						<ele>23</ele>
						<time>2024-05-28T15:27:19Z</time>
					</trkpt>
					<trkpt lat="49.043250" lon="2.099310">
						<ele>23</ele>
						<time>2024-05-28T15:27:23Z</time>
					</trkpt>
					<trkpt lat="49.042300" lon="2.099040">
						<ele>24</ele>
						<time>2024-05-28T15:27:40Z</time>
					</trkpt>
					<trkpt lat="49.041720" lon="2.098920">
						<ele>24</ele>
						<time>2024-05-28T15:27:50Z</time>
					</trkpt>
					<trkpt lat="49.040130" lon="2.098840">
						<ele>23</ele>
						<time>2024-05-28T15:28:18Z</time>
					</trkpt>
					<trkpt lat="49.039630" lon="2.098770">
						<ele>24</ele>
						<time>2024-05-28T15:28:27Z</time>
					</trkpt>
					<trkpt lat="49.039150" lon="2.098770">
						<ele>26</ele>
						<time>2024-05-28T15:28:36Z</time>
					</trkpt>
					<trkpt lat="49.038850" lon="2.098820">
						<ele>25</ele>
						<time>2024-05-28T15:28:41Z</time>
					</trkpt>
					<trkpt lat="49.038540" lon="2.098910">
						<ele>26</ele>
						<time>2024-05-28T15:28:47Z</time>
					</trkpt>
					<trkpt lat="49.037840" lon="2.098930">
						<ele>25</ele>
						<time>2024-05-28T15:28:59Z</time>
					</trkpt>
					<trkpt lat="49.037630" lon="2.098890">
						<ele>25</ele>
						<time>2024-05-28T15:29:03Z</time>
					</trkpt>
					<trkpt lat="49.036980" lon="2.098660">
						<ele>24</ele>
						<time>2024-05-28T15:29:15Z</time>
					</trkpt>
					<trkpt lat="49.036540" lon="2.098460">
						<ele>25</ele>
						<time>2024-05-28T15:29:23Z</time>
					</trkpt>
					<trkpt lat="49.036100" lon="2.098170">
						<ele>26</ele>
						<time>2024-05-28T15:29:32Z</time>
					</trkpt>
					<trkpt lat="49.035550" lon="2.097650">
						<ele>26</ele>
						<time>2024-05-28T15:29:43Z</time>
					</trkpt>
					<trkpt lat="49.035260" lon="2.097430">
						<ele>26</ele>
						<time>2024-05-28T15:29:49Z</time>
					</trkpt>
					<trkpt lat="49.035220" lon="2.097390">
						<ele>25</ele>
						<time>2024-05-28T15:29:50Z</time>
					</trkpt>
					<trkpt lat="49.035110" lon="2.097280">
						<ele>25</ele>
						<time>2024-05-28T15:29:52Z</time>
					</trkpt>
					<trkpt lat="49.034870" lon="2.097120">
						<ele>25</ele>
						<time>2024-05-28T15:29:57Z</time>
					</trkpt>
					<trkpt lat="49.031220" lon="2.094150">
						<ele>23</ele>
						<time>2024-05-28T15:31:10Z</time>
					</trkpt>
					<trkpt lat="49.030990" lon="2.093980">
						<ele>23</ele>
						<time>2024-05-28T15:31:15Z</time>
					</trkpt>
					<trkpt lat="49.030720" lon="2.093840">
						<ele>24</ele>
						<time>2024-05-28T15:31:20Z</time>
					</trkpt>
					<trkpt lat="49.029320" lon="2.093260">
						<ele>25</ele>
						<time>2024-05-28T15:31:46Z</time>
					</trkpt>
					<trkpt lat="49.029300" lon="2.093360">
						<ele>25</ele>
						<time>2024-05-28T15:31:47Z</time>
					</trkpt>
					<trkpt lat="49.029310" lon="2.093630">
						<ele>27</ele>
						<time>2024-05-28T15:31:50Z</time>
					</trkpt>
					<trkpt lat="49.029290" lon="2.093750">
						<ele>28</ele>
						<time>2024-05-28T15:31:52Z</time>
					</trkpt>
					<trkpt lat="49.029090" lon="2.093920">
						<ele>29</ele>
						<time>2024-05-28T15:31:56Z</time>
					</trkpt>
					<trkpt lat="49.029060" lon="2.093920">
						<ele>29</ele>
						<time>2024-05-28T15:31:56Z</time>
					</trkpt>
					<trkpt lat="49.028950" lon="2.093770">
						<ele>27</ele>
						<time>2024-05-28T15:31:59Z</time>
					</trkpt>
					<trkpt lat="49.027630" lon="2.096310">
						<ele>27</ele>
						<time>2024-05-28T15:32:37Z</time>
					</trkpt>
					<trkpt lat="49.027540" lon="2.096490">
						<ele>28</ele>
						<time>2024-05-28T15:32:39Z</time>
					</trkpt>
					<trkpt lat="49.027200" lon="2.097060">
						<ele>29</ele>
						<time>2024-05-28T15:32:48Z</time>
					</trkpt>
					<trkpt lat="49.026900" lon="2.097420">
						<ele>29</ele>
						<time>2024-05-28T15:32:55Z</time>
					</trkpt>
					<trkpt lat="49.026790" lon="2.097450">
						<ele>30</ele>
						<time>2024-05-28T15:32:57Z</time>
					</trkpt>
					<trkpt lat="49.026710" lon="2.097570">
						<ele>30</ele>
						<time>2024-05-28T15:32:59Z</time>
					</trkpt>
					<trkpt lat="49.026680" lon="2.097660">
						<ele>30</ele>
						<time>2024-05-28T15:33:00Z</time>
					</trkpt>
					<trkpt lat="49.026670" lon="2.097780">
						<ele>31</ele>
						<time>2024-05-28T15:33:02Z</time>
					</trkpt>
					<trkpt lat="49.026710" lon="2.097930">
						<ele>31</ele>
						<time>2024-05-28T15:33:04Z</time>
					</trkpt>
					<trkpt lat="49.026700" lon="2.097990">
						<ele>31</ele>
						<time>2024-05-28T15:33:04Z</time>
					</trkpt>
					<trkpt lat="49.026680" lon="2.098090">
						<ele>31</ele>
						<time>2024-05-28T15:33:06Z</time>
					</trkpt>
					<trkpt lat="49.026510" lon="2.098520">
						<ele>34</ele>
						<time>2024-05-28T15:33:11Z</time>
					</trkpt>
					<trkpt lat="49.025290" lon="2.100980">
						<ele>49</ele>
						<time>2024-05-28T15:33:47Z</time>
					</trkpt>
					<trkpt lat="49.025050" lon="2.101570">
						<ele>50</ele>
						<time>2024-05-28T15:33:55Z</time>
					</trkpt>
					<trkpt lat="49.024830" lon="2.102150">
						<ele>50</ele>
						<time>2024-05-28T15:34:03Z</time>
					</trkpt>
					<trkpt lat="49.024730" lon="2.102350">
						<ele>50</ele>
						<time>2024-05-28T15:34:06Z</time>
					</trkpt>
					<trkpt lat="49.024600" lon="2.102840">
						<ele>51</ele>
						<time>2024-05-28T15:34:12Z</time>
					</trkpt>
					<trkpt lat="49.024410" lon="2.103820">
						<ele>51</ele>
						<time>2024-05-28T15:34:24Z</time>
					</trkpt>
					<trkpt lat="49.024360" lon="2.104080">
						<ele>50</ele>
						<time>2024-05-28T15:34:28Z</time>
					</trkpt>
					<trkpt lat="49.024120" lon="2.105650">
						<ele>51</ele>
						<time>2024-05-28T15:34:46Z</time>
					</trkpt>
					<trkpt lat="49.023580" lon="2.109160">
						<ele>50</ele>
						<time>2024-05-28T15:35:28Z</time>
					</trkpt>
					<trkpt lat="49.023400" lon="2.110000">
						<ele>51</ele>
						<time>2024-05-28T15:35:39Z</time>
					</trkpt>
					<trkpt lat="49.023280" lon="2.110410">
						<ele>51</ele>
						<time>2024-05-28T15:35:44Z</time>
					</trkpt>
					<trkpt lat="49.022790" lon="2.111740">
						<ele>51</ele>
						<time>2024-05-28T15:36:02Z</time>
					</trkpt>
					<trkpt lat="49.022420" lon="2.112460">
						<ele>52</ele>
						<time>2024-05-28T15:36:12Z</time>
					</trkpt>
					<trkpt lat="49.021990" lon="2.113130">
						<ele>53</ele>
						<time>2024-05-28T15:36:23Z</time>
					</trkpt>
					<trkpt lat="49.021340" lon="2.113910">
						<ele>53</ele>
						<time>2024-05-28T15:36:38Z</time>
					</trkpt>
					<trkpt lat="49.021380" lon="2.114110">
						<ele>53</ele>
						<time>2024-05-28T15:36:40Z</time>
					</trkpt>
					<trkpt lat="49.021400" lon="2.115320">
						<ele>52</ele>
						<time>2024-05-28T15:36:55Z</time>
					</trkpt>
					<trkpt lat="49.021460" lon="2.116730">
						<ele>51</ele>
						<time>2024-05-28T15:37:11Z</time>
					</trkpt>
					<trkpt lat="49.021390" lon="2.117730">
						<ele>51</ele>
						<time>2024-05-28T15:37:23Z</time>
					</trkpt>
					<trkpt lat="49.021400" lon="2.118050">
						<ele>52</ele>
						<time>2024-05-28T15:37:27Z</time>
					</trkpt>
					<trkpt lat="49.021530" lon="2.120000">
						<ele>52</ele>
						<time>2024-05-28T15:37:49Z</time>
					</trkpt>
					<trkpt lat="49.021520" lon="2.120630">
						<ele>51</ele>
						<time>2024-05-28T15:37:57Z</time>
					</trkpt>
					<trkpt lat="49.021340" lon="2.122440">
						<ele>52</ele>
						<time>2024-05-28T15:38:18Z</time>
					</trkpt>
					<trkpt lat="49.021360" lon="2.122890">
						<ele>51</ele>
						<time>2024-05-28T15:38:23Z</time>
					</trkpt>
					<trkpt lat="49.021440" lon="2.123970">
						<ele>48</ele>
						<time>2024-05-28T15:38:36Z</time>
					</trkpt>
					<trkpt lat="49.022210" lon="2.129230">
						<ele>49</ele>
						<time>2024-05-28T15:39:39Z</time>
					</trkpt>
					<trkpt lat="49.021250" lon="2.130110">
						<ele>50</ele>
						<time>2024-05-28T15:39:59Z</time>
					</trkpt>
					<trkpt lat="49.020400" lon="2.130960">
						<ele>50</ele>
						<time>2024-05-28T15:40:17Z</time>
					</trkpt>
					<trkpt lat="49.020220" lon="2.131180">
						<ele>50</ele>
						<time>2024-05-28T15:40:21Z</time>
					</trkpt>
					<trkpt lat="49.019360" lon="2.132170">
						<ele>50</ele>
						<time>2024-05-28T15:40:40Z</time>
					</trkpt>
					<trkpt lat="49.016980" lon="2.134840">
						<ele>47</ele>
						<time>2024-05-28T15:41:33Z</time>
					</trkpt>
					<trkpt lat="49.017010" lon="2.134880">
						<ele>47</ele>
						<time>2024-05-28T15:41:34Z</time>
					</trkpt>
					<trkpt lat="49.016460" lon="2.135500">
						<ele>47</ele>
						<time>2024-05-28T15:41:46Z</time>
					</trkpt>
					<trkpt lat="49.015100" lon="2.137050">
						<ele>46</ele>
						<time>2024-05-28T15:42:16Z</time>
					</trkpt>
					<trkpt lat="49.013400" lon="2.139240">
						<ele>51</ele>
						<time>2024-05-28T15:42:56Z</time>
					</trkpt>
					<trkpt lat="49.013080" lon="2.139760">
						<ele>53</ele>
						<time>2024-05-28T15:43:04Z</time>
					</trkpt>
					<trkpt lat="49.012370" lon="2.140710">
						<ele>55</ele>
						<time>2024-05-28T15:43:21Z</time>
					</trkpt>
					<trkpt lat="49.012220" lon="2.140990">
						<ele>56</ele>
						<time>2024-05-28T15:43:25Z</time>
					</trkpt>
					<trkpt lat="49.012040" lon="2.141560">
						<ele>57</ele>
						<time>2024-05-28T15:43:32Z</time>
					</trkpt>
					<trkpt lat="49.011440" lon="2.142480">
						<ele>56</ele>
						<time>2024-05-28T15:43:47Z</time>
					</trkpt>
					<trkpt lat="49.010200" lon="2.144720">
						<ele>60</ele>
						<time>2024-05-28T15:44:22Z</time>
					</trkpt>
					<trkpt lat="49.009990" lon="2.145060">
						<ele>60</ele>
						<time>2024-05-28T15:44:27Z</time>
					</trkpt>
					<trkpt lat="49.009740" lon="2.145430">
						<ele>60</ele>
						<time>2024-05-28T15:44:33Z</time>
					</trkpt>
					<trkpt lat="49.009420" lon="2.146050">
						<ele>59</ele>
						<time>2024-05-28T15:44:42Z</time>
					</trkpt>
					<trkpt lat="49.009140" lon="2.146540">
						<ele>60</ele>
						<time>2024-05-28T15:44:50Z</time>
					</trkpt>
					<trkpt lat="49.008990" lon="2.146780">
						<ele>61</ele>
						<time>2024-05-28T15:44:54Z</time>
					</trkpt>
					<trkpt lat="49.008340" lon="2.148010">
						<ele>65</ele>
						<time>2024-05-28T15:45:12Z</time>
					</trkpt>
					<trkpt lat="49.007900" lon="2.148770">
						<ele>66</ele>
						<time>2024-05-28T15:45:24Z</time>
					</trkpt>
					<trkpt lat="49.007440" lon="2.149800">
						<ele>67</ele>
						<time>2024-05-28T15:45:39Z</time>
					</trkpt>
					<trkpt lat="49.007410" lon="2.149790">
						<ele>67</ele>
						<time>2024-05-28T15:45:39Z</time>
					</trkpt>
					<trkpt lat="49.007370" lon="2.149810">
						<ele>67</ele>
						<time>2024-05-28T15:45:40Z</time>
					</trkpt>
					<trkpt lat="49.007250" lon="2.150050">
						<ele>67</ele>
						<time>2024-05-28T15:45:44Z</time>
					</trkpt>
					<trkpt lat="49.007200" lon="2.150120">
						<ele>67</ele>
						<time>2024-05-28T15:45:45Z</time>
					</trkpt>
					<trkpt lat="49.007100" lon="2.150150">
						<ele>67</ele>
						<time>2024-05-28T15:45:47Z</time>
					</trkpt>
					<trkpt lat="49.007020" lon="2.150150">
						<ele>67</ele>
						<time>2024-05-28T15:45:48Z</time>
					</trkpt>
					<trkpt lat="49.006890" lon="2.150070">
						<ele>67</ele>
						<time>2024-05-28T15:45:51Z</time>
					</trkpt>
					<trkpt lat="49.006690" lon="2.150440">
						<ele>68</ele>
						<time>2024-05-28T15:45:56Z</time>
					</trkpt>
					<trkpt lat="49.006630" lon="2.150510">
						<ele>68</ele>
						<time>2024-05-28T15:45:57Z</time>
					</trkpt>
					<trkpt lat="49.006680" lon="2.150630">
						<ele>68</ele>
						<time>2024-05-28T15:45:59Z</time>
					</trkpt>
					<trkpt lat="49.006730" lon="2.151030">
						<ele>69</ele>
						<time>2024-05-28T15:46:04Z</time>
					</trkpt>
					<trkpt lat="49.006720" lon="2.151230">
						<ele>69</ele>
						<time>2024-05-28T15:46:06Z</time>
					</trkpt>
					<trkpt lat="49.006610" lon="2.151490">
						<ele>70</ele>
						<time>2024-05-28T15:46:10Z</time>
					</trkpt>
					<trkpt lat="49.006600" lon="2.151680">
						<ele>70</ele>
						<time>2024-05-28T15:46:12Z</time>
					</trkpt>
					<trkpt lat="49.006490" lon="2.151520">
						<ele>70</ele>
						<time>2024-05-28T15:46:15Z</time>
					</trkpt>
					<trkpt lat="49.006460" lon="2.151360">
						<ele>70</ele>
						<time>2024-05-28T15:46:17Z</time>
					</trkpt>
					<trkpt lat="49.006450" lon="2.151040">
						<ele>69</ele>
						<time>2024-05-28T15:46:20Z</time>
					</trkpt>
					<trkpt lat="49.006410" lon="2.150790">
						<ele>69</ele>
						<time>2024-05-28T15:46:23Z</time>
					</trkpt>
					<trkpt lat="49.006180" lon="2.150160">
						<ele>70</ele>
						<time>2024-05-28T15:46:32Z</time>
					</trkpt>
					<trkpt lat="49.005830" lon="2.149240">
						<ele>67</ele>
						<time>2024-05-28T15:46:44Z</time>
					</trkpt>
					<trkpt lat="49.005590" lon="2.148470">
						<ele>66</ele>
						<time>2024-05-28T15:46:54Z</time>
					</trkpt>
					<trkpt lat="49.005310" lon="2.147830">
						<ele>66</ele>
						<time>2024-05-28T15:47:03Z</time>
					</trkpt>
					<trkpt lat="49.005090" lon="2.147520">
						<ele>65</ele>
						<time>2024-05-28T15:47:09Z</time>
					</trkpt>
					<trkpt lat="49.004990" lon="2.147470">
						<ele>65</ele>
						<time>2024-05-28T15:47:10Z</time>
					</trkpt>
					<trkpt lat="49.004910" lon="2.147460">
						<ele>65</ele>
						<time>2024-05-28T15:47:12Z</time>
					</trkpt>
					<trkpt lat="49.004770" lon="2.147480">
						<ele>65</ele>
						<time>2024-05-28T15:47:14Z</time>
					</trkpt>
					<trkpt lat="49.004150" lon="2.147800">
						<ele>66</ele>
						<time>2024-05-28T15:47:26Z</time>
					</trkpt>
					<trkpt lat="49.003520" lon="2.148090">
						<ele>69</ele>
						<time>2024-05-28T15:47:38Z</time>
					</trkpt>
					<trkpt lat="49.003200" lon="2.148280">
						<ele>70</ele>
						<time>2024-05-28T15:47:44Z</time>
					</trkpt>
					<trkpt lat="49.002410" lon="2.148780">
						<ele>71</ele>
						<time>2024-05-28T15:47:59Z</time>
					</trkpt>
					<trkpt lat="49.000990" lon="2.149920">
						<ele>68</ele>
						<time>2024-05-28T15:48:28Z</time>
					</trkpt>
					<trkpt lat="49.000890" lon="2.149980">
						<ele>67</ele>
						<time>2024-05-28T15:48:29Z</time>
					</trkpt>
					<trkpt lat="48.999960" lon="2.151030">
						<ele>67</ele>
						<time>2024-05-28T15:48:50Z</time>
					</trkpt>
					<trkpt lat="48.999850" lon="2.151090">
						<ele>67</ele>
						<time>2024-05-28T15:48:52Z</time>
					</trkpt>
					<trkpt lat="48.999800" lon="2.151070">
						<ele>67</ele>
						<time>2024-05-28T15:48:53Z</time>
					</trkpt>
					<trkpt lat="48.999780" lon="2.151020">
						<ele>67</ele>
						<time>2024-05-28T15:48:54Z</time>
					</trkpt>
					<trkpt lat="48.999740" lon="2.150990">
						<ele>67</ele>
						<time>2024-05-28T15:48:55Z</time>
					</trkpt>
					<trkpt lat="48.999690" lon="2.150990">
						<ele>67</ele>
						<time>2024-05-28T15:48:55Z</time>
					</trkpt>
					<trkpt lat="48.999650" lon="2.151030">
						<ele>67</ele>
						<time>2024-05-28T15:48:56Z</time>
					</trkpt>
					<trkpt lat="48.999630" lon="2.151110">
						<ele>67</ele>
						<time>2024-05-28T15:48:57Z</time>
					</trkpt>
					<trkpt lat="48.999630" lon="2.151590">
						<ele>67</ele>
						<time>2024-05-28T15:49:03Z</time>
					</trkpt>
					<trkpt lat="48.999660" lon="2.151660">
						<ele>67</ele>
						<time>2024-05-28T15:49:04Z</time>
					</trkpt>
					<trkpt lat="48.999710" lon="2.151690">
						<ele>67</ele>
						<time>2024-05-28T15:49:05Z</time>
					</trkpt>
					<trkpt lat="48.999750" lon="2.151850">
						<ele>67</ele>
						<time>2024-05-28T15:49:07Z</time>
					</trkpt>
					<trkpt lat="48.999800" lon="2.152160">
						<ele>67</ele>
						<time>2024-05-28T15:49:11Z</time>
					</trkpt>
					<trkpt lat="48.999840" lon="2.153870">
						<ele>67</ele>
						<time>2024-05-28T15:49:31Z</time>
					</trkpt>
					<trkpt lat="48.999850" lon="2.155070">
						<ele>68</ele>
						<time>2024-05-28T15:49:45Z</time>
					</trkpt>
					<trkpt lat="48.999840" lon="2.157140">
						<ele>69</ele>
						<time>2024-05-28T15:50:09Z</time>
					</trkpt>
					<trkpt lat="48.999790" lon="2.157650">
						<ele>69</ele>
						<time>2024-05-28T15:50:15Z</time>
					</trkpt>
					<trkpt lat="48.999690" lon="2.158230">
						<ele>69</ele>
						<time>2024-05-28T15:50:22Z</time>
					</trkpt>
					<trkpt lat="48.999580" lon="2.158610">
						<ele>69</ele>
						<time>2024-05-28T15:50:27Z</time>
					</trkpt>
					<trkpt lat="48.999450" lon="2.158930">
						<ele>69</ele>
						<time>2024-05-28T15:50:31Z</time>
					</trkpt>
					<trkpt lat="48.998740" lon="2.160460">
						<ele>69</ele>
						<time>2024-05-28T15:50:53Z</time>
					</trkpt>
					<trkpt lat="48.998530" lon="2.160830">
						<ele>69</ele>
						<time>2024-05-28T15:50:59Z</time>
					</trkpt>
					<trkpt lat="48.998400" lon="2.161180">
						<ele>69</ele>
						<time>2024-05-28T15:51:03Z</time>
					</trkpt>
					<trkpt lat="48.998340" lon="2.161240">
						<ele>69</ele>
						<time>2024-05-28T15:51:05Z</time>
					</trkpt>
					<trkpt lat="48.998320" lon="2.161350">
						<ele>70</ele>
						<time>2024-05-28T15:51:06Z</time>
					</trkpt>
					<trkpt lat="48.998270" lon="2.161480">
						<ele>70</ele>
						<time>2024-05-28T15:51:08Z</time>
					</trkpt>
					<trkpt lat="48.998100" lon="2.161730">
						<ele>71</ele>
						<time>2024-05-28T15:51:12Z</time>
					</trkpt>
					<trkpt lat="48.997910" lon="2.162090">
						<ele>71</ele>
						<time>2024-05-28T15:51:17Z</time>
					</trkpt>
					<trkpt lat="48.997070" lon="2.163910">
						<ele>73</ele>
						<time>2024-05-28T15:51:43Z</time>
					</trkpt>
					<trkpt lat="48.996680" lon="2.164810">
						<ele>73</ele>
						<time>2024-05-28T15:51:56Z</time>
					</trkpt>
					<trkpt lat="48.996290" lon="2.165810">
						<ele>75</ele>
						<time>2024-05-28T15:52:09Z</time>
					</trkpt>
					<trkpt lat="48.996210" lon="2.165990">
						<ele>75</ele>
						<time>2024-05-28T15:52:12Z</time>
					</trkpt>
					<trkpt lat="48.996130" lon="2.166100">
						<ele>75</ele>
						<time>2024-05-28T15:52:14Z</time>
					</trkpt>
					<trkpt lat="48.996100" lon="2.166110">
						<ele>75</ele>
						<time>2024-05-28T15:52:14Z</time>
					</trkpt>
					<trkpt lat="48.996080" lon="2.166160">
						<ele>75</ele>
						<time>2024-05-28T15:52:15Z</time>
					</trkpt>
					<trkpt lat="48.996080" lon="2.166240">
						<ele>75</ele>
						<time>2024-05-28T15:52:16Z</time>
					</trkpt>
					<trkpt lat="48.996130" lon="2.166270">
						<ele>75</ele>
						<time>2024-05-28T15:52:17Z</time>
					</trkpt>
					<trkpt lat="48.996120" lon="2.166530">
						<ele>75</ele>
						<time>2024-05-28T15:52:20Z</time>
					</trkpt>
					<trkpt lat="48.995890" lon="2.168090">
						<ele>77</ele>
						<time>2024-05-28T15:52:39Z</time>
					</trkpt>
					<trkpt lat="48.995870" lon="2.168430">
						<ele>77</ele>
						<time>2024-05-28T15:52:43Z</time>
					</trkpt>
					<trkpt lat="48.995730" lon="2.169490">
						<ele>79</ele>
						<time>2024-05-28T15:52:55Z</time>
					</trkpt>
					<trkpt lat="48.995700" lon="2.169560">
						<ele>79</ele>
						<time>2024-05-28T15:52:56Z</time>
					</trkpt>
					<trkpt lat="48.995510" lon="2.171100">
						<ele>82</ele>
						<time>2024-05-28T15:53:14Z</time>
					</trkpt>
					<trkpt lat="48.995420" lon="2.171680">
						<ele>83</ele>
						<time>2024-05-28T15:53:21Z</time>
					</trkpt>
					<trkpt lat="48.994980" lon="2.173150">
						<ele>85</ele>
						<time>2024-05-28T15:53:40Z</time>
					</trkpt>
					<trkpt lat="48.994890" lon="2.173130">
						<ele>85</ele>
						<time>2024-05-28T15:53:42Z</time>
					</trkpt>
					<trkpt lat="48.994850" lon="2.173160">
						<ele>85</ele>
						<time>2024-05-28T15:53:43Z</time>
					</trkpt>
					<trkpt lat="48.994810" lon="2.173230">
						<ele>85</ele>
						<time>2024-05-28T15:53:44Z</time>
					</trkpt>
					<trkpt lat="48.994790" lon="2.173350">
						<ele>85</ele>
						<time>2024-05-28T15:53:45Z</time>
					</trkpt>
					<trkpt lat="48.994850" lon="2.173480">
						<ele>85</ele>
						<time>2024-05-28T15:53:47Z</time>
					</trkpt>
					<trkpt lat="48.994260" lon="2.175320">
						<ele>84</ele>
						<time>2024-05-28T15:54:11Z</time>
					</trkpt>
					<trkpt lat="48.993720" lon="2.177020">
						<ele>83</ele>
						<time>2024-05-28T15:54:33Z</time>
					</trkpt>
					<trkpt lat="48.993610" lon="2.177160">
						<ele>83</ele>
						<time>2024-05-28T15:54:36Z</time>
					</trkpt>
					<trkpt lat="48.993300" lon="2.177420">
						<ele>83</ele>
						<time>2024-05-28T15:54:42Z</time>
					</trkpt>
					<trkpt lat="48.992560" lon="2.177860">
						<ele>85</ele>
						<time>2024-05-28T15:54:56Z</time>
					</trkpt>
					<trkpt lat="48.992360" lon="2.178050">
						<ele>86</ele>
						<time>2024-05-28T15:55:00Z</time>
					</trkpt>
					<trkpt lat="48.992040" lon="2.178430">
						<ele>87</ele>
						<time>2024-05-28T15:55:07Z</time>
					</trkpt>
					<trkpt lat="48.991840" lon="2.178740">
						<ele>88</ele>
						<time>2024-05-28T15:55:13Z</time>
					</trkpt>
					<trkpt lat="48.991670" lon="2.179070">
						<ele>89</ele>
						<time>2024-05-28T15:55:17Z</time>
					</trkpt>
					<trkpt lat="48.991360" lon="2.179870">
						<ele>90</ele>
						<time>2024-05-28T15:55:28Z</time>
					</trkpt>
					<trkpt lat="48.991160" lon="2.180510">
						<ele>89</ele>
						<time>2024-05-28T15:55:37Z</time>
					</trkpt>
					<trkpt lat="48.991030" lon="2.180990">
						<ele>89</ele>
						<time>2024-05-28T15:55:43Z</time>
					</trkpt>
					<trkpt lat="48.990830" lon="2.181930">
						<ele>88</ele>
						<time>2024-05-28T15:55:54Z</time>
					</trkpt>
					<trkpt lat="48.990690" lon="2.182770">
						<ele>86</ele>
						<time>2024-05-28T15:56:04Z</time>
					</trkpt>
					<trkpt lat="48.990570" lon="2.183370">
						<ele>86</ele>
						<time>2024-05-28T15:56:12Z</time>
					</trkpt>
					<trkpt lat="48.990490" lon="2.183670">
						<ele>85</ele>
						<time>2024-05-28T15:56:15Z</time>
					</trkpt>
					<trkpt lat="48.990280" lon="2.184250">
						<ele>84</ele>
						<time>2024-05-28T15:56:23Z</time>
					</trkpt>
					<trkpt lat="48.990070" lon="2.184790">
						<ele>83</ele>
						<time>2024-05-28T15:56:30Z</time>
					</trkpt>
					<trkpt lat="48.989890" lon="2.185410">
						<ele>83</ele>
						<time>2024-05-28T15:56:38Z</time>
					</trkpt>
					<trkpt lat="48.989680" lon="2.186230">
						<ele>85</ele>
						<time>2024-05-28T15:56:49Z</time>
					</trkpt>
					<trkpt lat="48.989610" lon="2.186440">
						<ele>86</ele>
						<time>2024-05-28T15:56:51Z</time>
					</trkpt>
					<trkpt lat="48.989030" lon="2.187550">
						<ele>95</ele>
						<time>2024-05-28T15:57:08Z</time>
					</trkpt>
					<trkpt lat="48.988440" lon="2.187540">
						<ele>102</ele>
						<time>2024-05-28T15:57:18Z</time>
					</trkpt>
					<trkpt lat="48.987320" lon="2.187460">
						<ele>112</ele>
						<time>2024-05-28T15:57:38Z</time>
					</trkpt>
					<trkpt lat="48.987250" lon="2.187650">
						<ele>113</ele>
						<time>2024-05-28T15:57:41Z</time>
					</trkpt>
					<trkpt lat="48.987040" lon="2.188340">
						<ele>119</ele>
						<time>2024-05-28T15:57:50Z</time>
					</trkpt>
					<trkpt lat="48.986860" lon="2.188850">
						<ele>122</ele>
						<time>2024-05-28T15:57:57Z</time>
					</trkpt>
					<trkpt lat="48.986800" lon="2.188890">
						<ele>123</ele>
						<time>2024-05-28T15:57:58Z</time>
					</trkpt>
					<trkpt lat="48.986700" lon="2.188920">
						<ele>124</ele>
						<time>2024-05-28T15:58:00Z</time>
					</trkpt>
					<trkpt lat="48.986070" lon="2.188570">
						<ele>129</ele>
						<time>2024-05-28T15:58:12Z</time>
					</trkpt>
					<trkpt lat="48.985850" lon="2.188500">
						<ele>130</ele>
						<time>2024-05-28T15:58:16Z</time>
					</trkpt>
					<trkpt lat="48.985480" lon="2.188450">
						<ele>131</ele>
						<time>2024-05-28T15:58:22Z</time>
					</trkpt>
					<trkpt lat="48.985450" lon="2.188640">
						<ele>131</ele>
						<time>2024-05-28T15:58:24Z</time>
					</trkpt>
					<trkpt lat="48.985480" lon="2.188450">
						<ele>131</ele>
						<time>2024-05-28T15:58:27Z</time>
					</trkpt>
					<trkpt lat="48.985190" lon="2.188450">
						<ele>131</ele>
						<time>2024-05-28T15:58:32Z</time>
					</trkpt>
					<trkpt lat="48.985070" lon="2.188480">
						<ele>131</ele>
						<time>2024-05-28T15:58:34Z</time>
					</trkpt>
					<trkpt lat="48.983280" lon="2.189110">
						<ele>120</ele>
						<time>2024-05-28T15:59:07Z</time>
					</trkpt>
					<trkpt lat="48.983060" lon="2.189260">
						<ele>119</ele>
						<time>2024-05-28T15:59:11Z</time>
					</trkpt>
					<trkpt lat="48.982400" lon="2.189840">
						<ele>118</ele>
						<time>2024-05-28T15:59:25Z</time>
					</trkpt>
					<trkpt lat="48.982170" lon="2.189990">
						<ele>118</ele>
						<time>2024-05-28T15:59:29Z</time>
					</trkpt>
					<trkpt lat="48.981320" lon="2.190290">
						<ele>117</ele>
						<time>2024-05-28T15:59:45Z</time>
					</trkpt>
					<trkpt lat="48.981080" lon="2.190420">
						<ele>116</ele>
						<time>2024-05-28T15:59:49Z</time>
					</trkpt>
					<trkpt lat="48.980790" lon="2.190660">
						<ele>116</ele>
						<time>2024-05-28T15:59:55Z</time>
					</trkpt>
					<trkpt lat="48.980660" lon="2.190790">
						<ele>115</ele>
						<time>2024-05-28T15:59:58Z</time>
					</trkpt>
					<trkpt lat="48.979920" lon="2.191900">
						<ele>112</ele>
						<time>2024-05-28T16:00:16Z</time>
					</trkpt>
					<trkpt lat="48.979660" lon="2.192220">
						<ele>111</ele>
						<time>2024-05-28T16:00:22Z</time>
					</trkpt>
					<trkpt lat="48.979420" lon="2.192570">
						<ele>111</ele>
						<time>2024-05-28T16:00:28Z</time>
					</trkpt>
					<trkpt lat="48.979270" lon="2.192830">
						<ele>110</ele>
						<time>2024-05-28T16:00:32Z</time>
					</trkpt>
					<trkpt lat="48.979130" lon="2.193120">
						<ele>110</ele>
						<time>2024-05-28T16:00:36Z</time>
					</trkpt>
					<trkpt lat="48.978900" lon="2.193670">
						<ele>109</ele>
						<time>2024-05-28T16:00:44Z</time>
					</trkpt>
					<trkpt lat="48.978440" lon="2.194680">
						<ele>111</ele>
						<time>2024-05-28T16:00:58Z</time>
					</trkpt>
					<trkpt lat="48.978120" lon="2.195350">
						<ele>112</ele>
						<time>2024-05-28T16:01:08Z</time>
					</trkpt>
					<trkpt lat="48.977960" lon="2.195800">
						<ele>114</ele>
						<time>2024-05-28T16:01:14Z</time>
					</trkpt>
					<trkpt lat="48.977830" lon="2.195900">
						<ele>115</ele>
						<time>2024-05-28T16:01:16Z</time>
					</trkpt>
					<trkpt lat="48.977400" lon="2.196060">
						<ele>117</ele>
						<time>2024-05-28T16:01:24Z</time>
					</trkpt>
					<trkpt lat="48.977170" lon="2.196090">
						<ele>117</ele>
						<time>2024-05-28T16:01:28Z</time>
					</trkpt>
					<trkpt lat="48.976910" lon="2.196060">
						<ele>116</ele>
						<time>2024-05-28T16:01:33Z</time>
					</trkpt>
					<trkpt lat="48.976820" lon="2.196080">
						<ele>116</ele>
						<time>2024-05-28T16:01:35Z</time>
					</trkpt>
					<trkpt lat="48.976660" lon="2.196430">
						<ele>119</ele>
						<time>2024-05-28T16:01:40Z</time>
					</trkpt>
					<trkpt lat="48.976590" lon="2.196640">
						<ele>120</ele>
						<time>2024-05-28T16:01:42Z</time>
					</trkpt>
					<trkpt lat="48.976560" lon="2.196930">
						<ele>120</ele>
						<time>2024-05-28T16:01:46Z</time>
					</trkpt>
					<trkpt lat="48.976510" lon="2.197810">
						<ele>118</ele>
						<time>2024-05-28T16:01:56Z</time>
					</trkpt>
					<trkpt lat="48.976370" lon="2.197800">
						<ele>117</ele>
						<time>2024-05-28T16:01:59Z</time>
					</trkpt>
					<trkpt lat="48.976140" lon="2.197680">
						<ele>115</ele>
						<time>2024-05-28T16:02:03Z</time>
					</trkpt>
					<trkpt lat="48.975360" lon="2.197340">
						<ele>108</ele>
						<time>2024-05-28T16:02:17Z</time>
					</trkpt>
					<trkpt lat="48.975340" lon="2.197280">
						<ele>108</ele>
						<time>2024-05-28T16:02:18Z</time>
					</trkpt>
					<trkpt lat="48.975300" lon="2.197260">
						<ele>108</ele>
						<time>2024-05-28T16:02:19Z</time>
					</trkpt>
					<trkpt lat="48.975220" lon="2.197280">
						<ele>107</ele>
						<time>2024-05-28T16:02:20Z</time>
					</trkpt>
					<trkpt lat="48.975210" lon="2.197330">
						<ele>107</ele>
						<time>2024-05-28T16:02:21Z</time>
					</trkpt>
					<trkpt lat="48.975220" lon="2.197390">
						<ele>107</ele>
						<time>2024-05-28T16:02:22Z</time>
					</trkpt>
					<trkpt lat="48.974990" lon="2.197540">
						<ele>106</ele>
						<time>2024-05-28T16:02:26Z</time>
					</trkpt>
					<trkpt lat="48.974670" lon="2.197850">
						<ele>103</ele>
						<time>2024-05-28T16:02:33Z</time>
					</trkpt>
					<trkpt lat="48.974480" lon="2.198110">
						<ele>102</ele>
						<time>2024-05-28T16:02:38Z</time>
					</trkpt>
					<trkpt lat="48.974350" lon="2.198380">
						<ele>101</ele>
						<time>2024-05-28T16:02:41Z</time>
					</trkpt>
					<trkpt lat="48.974120" lon="2.199140">
						<ele>98</ele>
						<time>2024-05-28T16:02:51Z</time>
					</trkpt>
					<trkpt lat="48.973290" lon="2.198400">
						<ele>96</ele>
						<time>2024-05-28T16:03:08Z</time>
					</trkpt>
					<trkpt lat="48.971420" lon="2.196830">
						<ele>83</ele>
						<time>2024-05-28T16:03:46Z</time>
					</trkpt>
					<trkpt lat="48.971030" lon="2.197870">
						<ele>80</ele>
						<time>2024-05-28T16:04:00Z</time>
					</trkpt>
					<trkpt lat="48.970830" lon="2.198380">
						<ele>79</ele>
						<time>2024-05-28T16:04:07Z</time>
					</trkpt>
					<trkpt lat="48.970790" lon="2.198530">
						<ele>79</ele>
						<time>2024-05-28T16:04:09Z</time>
					</trkpt>
					<trkpt lat="48.970760" lon="2.198520">
						<ele>79</ele>
						<time>2024-05-28T16:04:10Z</time>
					</trkpt>
					<trkpt lat="48.970720" lon="2.198540">
						<ele>78</ele>
						<time>2024-05-28T16:04:10Z</time>
					</trkpt>
					<trkpt lat="48.970700" lon="2.198600">
						<ele>78</ele>
						<time>2024-05-28T16:04:11Z</time>
					</trkpt>
					<trkpt lat="48.970710" lon="2.198660">
						<ele>78</ele>
						<time>2024-05-28T16:04:12Z</time>
					</trkpt>
					<trkpt lat="48.970740" lon="2.198710">
						<ele>78</ele>
						<time>2024-05-28T16:04:13Z</time>
					</trkpt>
					<trkpt lat="48.970390" lon="2.199660">
						<ele>76</ele>
						<time>2024-05-28T16:04:25Z</time>
					</trkpt>
					<trkpt lat="48.967690" lon="2.205520">
						<ele>69</ele>
						<time>2024-05-28T16:05:49Z</time>
					</trkpt>
					<trkpt lat="48.967420" lon="2.206050">
						<ele>70</ele>
						<time>2024-05-28T16:05:57Z</time>
					</trkpt>
					<trkpt lat="48.967230" lon="2.206290">
						<ele>69</ele>
						<time>2024-05-28T16:06:01Z</time>
					</trkpt>
					<trkpt lat="48.967170" lon="2.206320">
						<ele>69</ele>
						<time>2024-05-28T16:06:02Z</time>
					</trkpt>
					<trkpt lat="48.967150" lon="2.206380">
						<ele>69</ele>
						<time>2024-05-28T16:06:03Z</time>
					</trkpt>
					<trkpt lat="48.967160" lon="2.206440">
						<ele>69</ele>
						<time>2024-05-28T16:06:04Z</time>
					</trkpt>
					<trkpt lat="48.967120" lon="2.206760">
						<ele>68</ele>
						<time>2024-05-28T16:06:08Z</time>
					</trkpt>
					<trkpt lat="48.966710" lon="2.207580">
						<ele>65</ele>
						<time>2024-05-28T16:06:20Z</time>
					</trkpt>
					<trkpt lat="48.966300" lon="2.208440">
						<ele>65</ele>
						<time>2024-05-28T16:06:32Z</time>
					</trkpt>
					<trkpt lat="48.965410" lon="2.210180">
						<ele>66</ele>
						<time>2024-05-28T16:06:58Z</time>
					</trkpt>
					<trkpt lat="48.965380" lon="2.210230">
						<ele>66</ele>
						<time>2024-05-28T16:06:59Z</time>
					</trkpt>
					<trkpt lat="48.965270" lon="2.210290">
						<ele>66</ele>
						<time>2024-05-28T16:07:01Z</time>
					</trkpt>
					<trkpt lat="48.964960" lon="2.210440">
						<ele>66</ele>
						<time>2024-05-28T16:07:07Z</time>
					</trkpt>
					<trkpt lat="48.965040" lon="2.210600">
						<ele>66</ele>
						<time>2024-05-28T16:07:09Z</time>
					</trkpt>
					<trkpt lat="48.965060" lon="2.210690">
						<ele>66</ele>
						<time>2024-05-28T16:07:10Z</time>
					</trkpt>
					<trkpt lat="48.965050" lon="2.210780">
						<ele>66</ele>
						<time>2024-05-28T16:07:11Z</time>
					</trkpt>
					<trkpt lat="48.964910" lon="2.211020">
						<ele>66</ele>
						<time>2024-05-28T16:07:15Z</time>
					</trkpt>
					<trkpt lat="48.964850" lon="2.211040">
						<ele>66</ele>
						<time>2024-05-28T16:07:16Z</time>
					</trkpt>
					<trkpt lat="48.964680" lon="2.211030">
						<ele>66</ele>
						<time>2024-05-28T16:07:19Z</time>
					</trkpt>
					<trkpt lat="48.964700" lon="2.211240">
						<ele>66</ele>
						<time>2024-05-28T16:07:21Z</time>
					</trkpt>
					<trkpt lat="48.964670" lon="2.211420">
						<ele>66</ele>
						<time>2024-05-28T16:07:24Z</time>
					</trkpt>
					<trkpt lat="48.964580" lon="2.211620">
						<ele>66</ele>
						<time>2024-05-28T16:07:26Z</time>
					</trkpt>
					<trkpt lat="48.964000" lon="2.212730">
						<ele>67</ele>
						<time>2024-05-28T16:07:43Z</time>
					</trkpt>
					<trkpt lat="48.963730" lon="2.213310">
						<ele>68</ele>
						<time>2024-05-28T16:07:51Z</time>
					</trkpt>
					<trkpt lat="48.963740" lon="2.213440">
						<ele>69</ele>
						<time>2024-05-28T16:07:53Z</time>
					</trkpt>
					<trkpt lat="48.963730" lon="2.213480">
						<ele>69</ele>
						<time>2024-05-28T16:07:53Z</time>
					</trkpt>
					<trkpt lat="48.963470" lon="2.214320">
						<ele>69</ele>
						<time>2024-05-28T16:08:04Z</time>
					</trkpt>
					<trkpt lat="48.963130" lon="2.215700">
						<ele>69</ele>
						<time>2024-05-28T16:08:21Z</time>
					</trkpt>
					<trkpt lat="48.962330" lon="2.219060">
						<ele>67</ele>
						<time>2024-05-28T16:09:03Z</time>
					</trkpt>
					<trkpt lat="48.961740" lon="2.221390">
						<ele>68</ele>
						<time>2024-05-28T16:09:32Z</time>
					</trkpt>
					<trkpt lat="48.961110" lon="2.223200">
						<ele>67</ele>
						<time>2024-05-28T16:09:56Z</time>
					</trkpt>
					<trkpt lat="48.960350" lon="2.225240">
						<ele>64</ele>
						<time>2024-05-28T16:10:24Z</time>
					</trkpt>
					<trkpt lat="48.960080" lon="2.225920">
						<ele>62</ele>
						<time>2024-05-28T16:10:33Z</time>
					</trkpt>
					<trkpt lat="48.960020" lon="2.226080">
						<ele>62</ele>
						<time>2024-05-28T16:10:35Z</time>
					</trkpt>
					<trkpt lat="48.959910" lon="2.226300">
						<ele>61</ele>
						<time>2024-05-28T16:10:38Z</time>
					</trkpt>
					<trkpt lat="48.959660" lon="2.226730">
						<ele>60</ele>
						<time>2024-05-28T16:10:45Z</time>
					</trkpt>
					<trkpt lat="48.959490" lon="2.226990">
						<ele>60</ele>
						<time>2024-05-28T16:10:49Z</time>
					</trkpt>
					<trkpt lat="48.958170" lon="2.228810">
						<ele>59</ele>
						<time>2024-05-28T16:11:21Z</time>
					</trkpt>
					<trkpt lat="48.957030" lon="2.230310">
						<ele>59</ele>
						<time>2024-05-28T16:11:48Z</time>
					</trkpt>
					<trkpt lat="48.956960" lon="2.230320">
						<ele>59</ele>
						<time>2024-05-28T16:11:49Z</time>
					</trkpt>
					<trkpt lat="48.956470" lon="2.230930">
						<ele>62</ele>
						<time>2024-05-28T16:12:00Z</time>
					</trkpt>
					<trkpt lat="48.956430" lon="2.231040">
						<ele>62</ele>
						<time>2024-05-28T16:12:02Z</time>
					</trkpt>
					<trkpt lat="48.956350" lon="2.231070">
						<ele>63</ele>
						<time>2024-05-28T16:12:03Z</time>
					</trkpt>
					<trkpt lat="48.955980" lon="2.231470">
						<ele>66</ele>
						<time>2024-05-28T16:12:11Z</time>
					</trkpt>
					<trkpt lat="48.955450" lon="2.232100">
						<ele>66</ele>
						<time>2024-05-28T16:12:23Z</time>
					</trkpt>
					<trkpt lat="48.955310" lon="2.232290">
						<ele>65</ele>
						<time>2024-05-28T16:12:27Z</time>
					</trkpt>
					<trkpt lat="48.955100" lon="2.232530">
						<ele>64</ele>
						<time>2024-05-28T16:12:31Z</time>
					</trkpt>
					<trkpt lat="48.954780" lon="2.233020">
						<ele>62</ele>
						<time>2024-05-28T16:12:39Z</time>
					</trkpt>
					<trkpt lat="48.953910" lon="2.233940">
						<ele>58</ele>
						<time>2024-05-28T16:12:58Z</time>
					</trkpt>
					<trkpt lat="48.953450" lon="2.234370">
						<ele>56</ele>
						<time>2024-05-28T16:13:08Z</time>
					</trkpt>
					<trkpt lat="48.953060" lon="2.234700">
						<ele>54</ele>
						<time>2024-05-28T16:13:16Z</time>
					</trkpt>
					<trkpt lat="48.952790" lon="2.234850">
						<ele>53</ele>
						<time>2024-05-28T16:13:21Z</time>
					</trkpt>
					<trkpt lat="48.952670" lon="2.234930">
						<ele>52</ele>
						<time>2024-05-28T16:13:23Z</time>
					</trkpt>
					<trkpt lat="48.952380" lon="2.235210">
						<ele>51</ele>
						<time>2024-05-28T16:13:29Z</time>
					</trkpt>
					<trkpt lat="48.952120" lon="2.235480">
						<ele>51</ele>
						<time>2024-05-28T16:13:35Z</time>
					</trkpt>
					<trkpt lat="48.950710" lon="2.236640">
						<ele>49</ele>
						<time>2024-05-28T16:14:03Z</time>
					</trkpt>
					<trkpt lat="48.949850" lon="2.237280">
						<ele>48</ele>
						<time>2024-05-28T16:14:21Z</time>
					</trkpt>
					<trkpt lat="48.949230" lon="2.237580">
						<ele>49</ele>
						<time>2024-05-28T16:14:32Z</time>
					</trkpt>
					<trkpt lat="48.948980" lon="2.237590">
						<ele>48</ele>
						<time>2024-05-28T16:14:37Z</time>
					</trkpt>
					<trkpt lat="48.948410" lon="2.237760">
						<ele>47</ele>
						<time>2024-05-28T16:14:47Z</time>
					</trkpt>
					<trkpt lat="48.948380" lon="2.237740">
						<ele>47</ele>
						<time>2024-05-28T16:14:47Z</time>
					</trkpt>
					<trkpt lat="48.948330" lon="2.237780">
						<ele>47</ele>
						<time>2024-05-28T16:14:48Z</time>
					</trkpt>
					<trkpt lat="48.946820" lon="2.238110">
						<ele>54</ele>
						<time>2024-05-28T16:15:16Z</time>
					</trkpt>
					<trkpt lat="48.946500" lon="2.238240">
						<ele>54</ele>
						<time>2024-05-28T16:15:21Z</time>
					</trkpt>
					<trkpt lat="48.946080" lon="2.238520">
						<ele>52</ele>
						<time>2024-05-28T16:15:30Z</time>
					</trkpt>
					<trkpt lat="48.945730" lon="2.238920">
						<ele>51</ele>
						<time>2024-05-28T16:15:37Z</time>
					</trkpt>
					<trkpt lat="48.945710" lon="2.239010">
						<ele>51</ele>
						<time>2024-05-28T16:15:39Z</time>
					</trkpt>
					<trkpt lat="48.945630" lon="2.239120">
						<ele>51</ele>
						<time>2024-05-28T16:15:40Z</time>
					</trkpt>
					<trkpt lat="48.943710" lon="2.241620">
						<ele>46</ele>
						<time>2024-05-28T16:16:25Z</time>
					</trkpt>
					<trkpt lat="48.942720" lon="2.243070">
						<ele>41</ele>
						<time>2024-05-28T16:16:50Z</time>
					</trkpt>
					<trkpt lat="48.942570" lon="2.243120">
						<ele>41</ele>
						<time>2024-05-28T16:16:53Z</time>
					</trkpt>
					<trkpt lat="48.942210" lon="2.243620">
						<ele>39</ele>
						<time>2024-05-28T16:17:01Z</time>
					</trkpt>
					<trkpt lat="48.941960" lon="2.244020">
						<ele>39</ele>
						<time>2024-05-28T16:17:08Z</time>
					</trkpt>
					<trkpt lat="48.941620" lon="2.244360">
						<ele>38</ele>
						<time>2024-05-28T16:17:15Z</time>
					</trkpt>
					<trkpt lat="48.941340" lon="2.244600">
						<ele>37</ele>
						<time>2024-05-28T16:17:21Z</time>
					</trkpt>
					<trkpt lat="48.940870" lon="2.244900">
						<ele>38</ele>
						<time>2024-05-28T16:17:30Z</time>
					</trkpt>
					<trkpt lat="48.940500" lon="2.245060">
						<ele>35</ele>
						<time>2024-05-28T16:17:37Z</time>
					</trkpt>
					<trkpt lat="48.940110" lon="2.245170">
						<ele>33</ele>
						<time>2024-05-28T16:17:44Z</time>
					</trkpt>
					<trkpt lat="48.939760" lon="2.244640">
						<ele>32</ele>
						<time>2024-05-28T16:17:52Z</time>
					</trkpt>
					<trkpt lat="48.939180" lon="2.243690">
						<ele>30</ele>
						<time>2024-05-28T16:18:08Z</time>
					</trkpt>
					<trkpt lat="48.938740" lon="2.243020">
						<ele>30</ele>
						<time>2024-05-28T16:18:19Z</time>
					</trkpt>
					<trkpt lat="48.938550" lon="2.242700">
						<ele>30</ele>
						<time>2024-05-28T16:18:24Z</time>
					</trkpt>
					<trkpt lat="48.937120" lon="2.240110">
						<ele>29</ele>
						<time>2024-05-28T16:19:03Z</time>
					</trkpt>
					<trkpt lat="48.937190" lon="2.240030">
						<ele>29</ele>
						<time>2024-05-28T16:19:05Z</time>
					</trkpt>
					<trkpt lat="48.937120" lon="2.240110">
						<ele>29</ele>
						<time>2024-05-28T16:19:06Z</time>
					</trkpt>
					<trkpt lat="48.936070" lon="2.238180">
						<ele>30</ele>
						<time>2024-05-28T16:19:36Z</time>
					</trkpt>
					<trkpt lat="48.934200" lon="2.239980">
						<ele>27</ele>
						<time>2024-05-28T16:20:15Z</time>
					</trkpt>
					<trkpt lat="48.933790" lon="2.240470">
						<ele>26</ele>
						<time>2024-05-28T16:20:24Z</time>
					</trkpt>
					<trkpt lat="48.932130" lon="2.242860">
						<ele>25</ele>
						<time>2024-05-28T16:21:05Z</time>
					</trkpt>
					<trkpt lat="48.931450" lon="2.243810">
						<ele>28</ele>
						<time>2024-05-28T16:21:21Z</time>
					</trkpt>
					<trkpt lat="48.931290" lon="2.243950">
						<ele>28</ele>
						<time>2024-05-28T16:21:25Z</time>
					</trkpt>
					<trkpt lat="48.931060" lon="2.244140">
						<ele>28</ele>
						<time>2024-05-28T16:21:29Z</time>
					</trkpt>
					<trkpt lat="48.930890" lon="2.244400">
						<ele>27</ele>
						<time>2024-05-28T16:21:34Z</time>
					</trkpt>
					<trkpt lat="48.930830" lon="2.244550">
						<ele>27</ele>
						<time>2024-05-28T16:21:36Z</time>
					</trkpt>
					<trkpt lat="48.930660" lon="2.244870">
						<ele>27</ele>
						<time>2024-05-28T16:21:40Z</time>
					</trkpt>
					<trkpt lat="48.930410" lon="2.245270">
						<ele>27</ele>
						<time>2024-05-28T16:21:47Z</time>
					</trkpt>
					<trkpt lat="48.929790" lon="2.246010">
						<ele>26</ele>
						<time>2024-05-28T16:22:01Z</time>
					</trkpt>
					<trkpt lat="48.929750" lon="2.245970">
						<ele>26</ele>
						<time>2024-05-28T16:22:02Z</time>
					</trkpt>
					<trkpt lat="48.929390" lon="2.246240">
						<ele>25</ele>
						<time>2024-05-28T16:22:09Z</time>
					</trkpt>
					<trkpt lat="48.929170" lon="2.246340">
						<ele>24</ele>
						<time>2024-05-28T16:22:13Z</time>
					</trkpt>
					<trkpt lat="48.928830" lon="2.246470">
						<ele>25</ele>
						<time>2024-05-28T16:22:19Z</time>
					</trkpt>
					<trkpt lat="48.928640" lon="2.246530">
						<ele>25</ele>
						<time>2024-05-28T16:22:23Z</time>
					</trkpt>
					<trkpt lat="48.928650" lon="2.246620">
						<ele>25</ele>
						<time>2024-05-28T16:22:24Z</time>
					</trkpt>
					<trkpt lat="48.928120" lon="2.246800">
						<ele>25</ele>
						<time>2024-05-28T16:22:33Z</time>
					</trkpt>
					<trkpt lat="48.926610" lon="2.247190">
						<ele>31</ele>
						<time>2024-05-28T16:23:01Z</time>
					</trkpt>
					<trkpt lat="48.926190" lon="2.247200">
						<ele>31</ele>
						<time>2024-05-28T16:23:08Z</time>
					</trkpt>
					<trkpt lat="48.925660" lon="2.247180">
						<ele>31</ele>
						<time>2024-05-28T16:23:18Z</time>
					</trkpt>
					<trkpt lat="48.925500" lon="2.247200">
						<ele>32</ele>
						<time>2024-05-28T16:23:20Z</time>
					</trkpt>
					<trkpt lat="48.924360" lon="2.247790">
						<ele>35</ele>
						<time>2024-05-28T16:23:42Z</time>
					</trkpt>
					<trkpt lat="48.923970" lon="2.248110">
						<ele>37</ele>
						<time>2024-05-28T16:23:50Z</time>
					</trkpt>
					<trkpt lat="48.923770" lon="2.248380">
						<ele>38</ele>
						<time>2024-05-28T16:23:55Z</time>
					</trkpt>
					<trkpt lat="48.923670" lon="2.248580">
						<ele>39</ele>
						<time>2024-05-28T16:23:57Z</time>
					</trkpt>
					<trkpt lat="48.923240" lon="2.249620">
						<ele>41</ele>
						<time>2024-05-28T16:24:12Z</time>
					</trkpt>
					<trkpt lat="48.923190" lon="2.249620">
						<ele>41</ele>
						<time>2024-05-28T16:24:13Z</time>
					</trkpt>
					<trkpt lat="48.923150" lon="2.249680">
						<ele>41</ele>
						<time>2024-05-28T16:24:14Z</time>
					</trkpt>
					<trkpt lat="48.922910" lon="2.249870">
						<ele>43</ele>
						<time>2024-05-28T16:24:19Z</time>
					</trkpt>
					<trkpt lat="48.922990" lon="2.250640">
						<ele>43</ele>
						<time>2024-05-28T16:24:28Z</time>
					</trkpt>
					<trkpt lat="48.923020" lon="2.251260">
						<ele>44</ele>
						<time>2024-05-28T16:24:35Z</time>
					</trkpt>
					<trkpt lat="48.923040" lon="2.252200">
						<ele>44</ele>
						<time>2024-05-28T16:24:46Z</time>
					</trkpt>
					<trkpt lat="48.922980" lon="2.252290">
						<ele>43</ele>
						<time>2024-05-28T16:24:47Z</time>
					</trkpt>
					<trkpt lat="48.922910" lon="2.252350">
						<ele>43</ele>
						<time>2024-05-28T16:24:49Z</time>
					</trkpt>
					<trkpt lat="48.922750" lon="2.252410">
						<ele>43</ele>
						<time>2024-05-28T16:24:52Z</time>
					</trkpt>
					<trkpt lat="48.922500" lon="2.252500">
						<ele>43</ele>
						<time>2024-05-28T16:24:56Z</time>
					</trkpt>
					<trkpt lat="48.922090" lon="2.252530">
						<ele>44</ele>
						<time>2024-05-28T16:25:04Z</time>
					</trkpt>
					<trkpt lat="48.922010" lon="2.252550">
						<ele>44</ele>
						<time>2024-05-28T16:25:05Z</time>
					</trkpt>
					<trkpt lat="48.921960" lon="2.252630">
						<ele>44</ele>
						<time>2024-05-28T16:25:06Z</time>
					</trkpt>
					<trkpt lat="48.921230" lon="2.252640">
						<ele>45</ele>
						<time>2024-05-28T16:25:19Z</time>
					</trkpt>
					<trkpt lat="48.920730" lon="2.252670">
						<ele>46</ele>
						<time>2024-05-28T16:25:28Z</time>
					</trkpt>
					<trkpt lat="48.920700" lon="2.252650">
						<ele>46</ele>
						<time>2024-05-28T16:25:29Z</time>
					</trkpt>
					<trkpt lat="48.920470" lon="2.252640">
						<ele>45</ele>
						<time>2024-05-28T16:25:33Z</time>
					</trkpt>
					<trkpt lat="48.920180" lon="2.252660">
						<ele>45</ele>
						<time>2024-05-28T16:25:38Z</time>
					</trkpt>
					<trkpt lat="48.918980" lon="2.252650">
						<ele>43</ele>
						<time>2024-05-28T16:25:59Z</time>
					</trkpt>
					<trkpt lat="48.918290" lon="2.252680">
						<ele>39</ele>
						<time>2024-05-28T16:26:12Z</time>
					</trkpt>
					<trkpt lat="48.915490" lon="2.252780">
						<ele>41</ele>
						<time>2024-05-28T16:27:02Z</time>
					</trkpt>
					<trkpt lat="48.915270" lon="2.252830">
						<ele>41</ele>
						<time>2024-05-28T16:27:06Z</time>
					</trkpt>
					<trkpt lat="48.914510" lon="2.252890">
						<ele>42</ele>
						<time>2024-05-28T16:27:19Z</time>
					</trkpt>
					<trkpt lat="48.914180" lon="2.252950">
						<ele>42</ele>
						<time>2024-05-28T16:27:25Z</time>
					</trkpt>
					<trkpt lat="48.913880" lon="2.253030">
						<ele>41</ele>
						<time>2024-05-28T16:27:30Z</time>
					</trkpt>
					<trkpt lat="48.913810" lon="2.253020">
						<ele>41</ele>
						<time>2024-05-28T16:27:32Z</time>
					</trkpt>
					<trkpt lat="48.913630" lon="2.253070">
						<ele>41</ele>
						<time>2024-05-28T16:27:35Z</time>
					</trkpt>
					<trkpt lat="48.913360" lon="2.253230">
						<ele>40</ele>
						<time>2024-05-28T16:27:40Z</time>
					</trkpt>
					<trkpt lat="48.913310" lon="2.253320">
						<ele>40</ele>
						<time>2024-05-28T16:27:41Z</time>
					</trkpt>
					<trkpt lat="48.911730" lon="2.254330">
						<ele>43</ele>
						<time>2024-05-28T16:28:12Z</time>
					</trkpt>
					<trkpt lat="48.911170" lon="2.254630">
						<ele>45</ele>
						<time>2024-05-28T16:28:22Z</time>
					</trkpt>
					<trkpt lat="48.908120" lon="2.255490">
						<ele>46</ele>
						<time>2024-05-28T16:29:18Z</time>
					</trkpt>
					<trkpt lat="48.907870" lon="2.255540">
						<ele>46</ele>
						<time>2024-05-28T16:29:22Z</time>
					</trkpt>
					<trkpt lat="48.906050" lon="2.255750">
						<ele>46</ele>
						<time>2024-05-28T16:29:55Z</time>
					</trkpt>
					<trkpt lat="48.905860" lon="2.255750">
						<ele>46</ele>
						<time>2024-05-28T16:29:58Z</time>
					</trkpt>
					<trkpt lat="48.905660" lon="2.255700">
						<ele>46</ele>
						<time>2024-05-28T16:30:02Z</time>
					</trkpt>
					<trkpt lat="48.905500" lon="2.255710">
						<ele>46</ele>
						<time>2024-05-28T16:30:04Z</time>
					</trkpt>
					<trkpt lat="48.905410" lon="2.255660">
						<ele>47</ele>
						<time>2024-05-28T16:30:06Z</time>
					</trkpt>
					<trkpt lat="48.905340" lon="2.255670">
						<ele>47</ele>
						<time>2024-05-28T16:30:07Z</time>
					</trkpt>
					<trkpt lat="48.905250" lon="2.255770">
						<ele>47</ele>
						<time>2024-05-28T16:30:09Z</time>
					</trkpt>
					<trkpt lat="48.905210" lon="2.255930">
						<ele>46</ele>
						<time>2024-05-28T16:30:11Z</time>
					</trkpt>
					<trkpt lat="48.905210" lon="2.256000">
						<ele>46</ele>
						<time>2024-05-28T16:30:12Z</time>
					</trkpt>
					<trkpt lat="48.904650" lon="2.256530">
						<ele>45</ele>
						<time>2024-05-28T16:30:24Z</time>
					</trkpt>
					<trkpt lat="48.904600" lon="2.256660">
						<ele>45</ele>
						<time>2024-05-28T16:30:26Z</time>
					</trkpt>
					<trkpt lat="48.904550" lon="2.256710">
						<ele>46</ele>
						<time>2024-05-28T16:30:27Z</time>
					</trkpt>
					<trkpt lat="48.901080" lon="2.260090">
						<ele>42</ele>
						<time>2024-05-28T16:31:40Z</time>
					</trkpt>
					<trkpt lat="48.900860" lon="2.260250">
						<ele>43</ele>
						<time>2024-05-28T16:31:44Z</time>
					</trkpt>
					<trkpt lat="48.900510" lon="2.260620">
						<ele>46</ele>
						<time>2024-05-28T16:31:52Z</time>
					</trkpt>
					<trkpt lat="48.900410" lon="2.260770">
						<ele>46</ele>
						<time>2024-05-28T16:31:55Z</time>
					</trkpt>
					<trkpt lat="48.898750" lon="2.262410">
						<ele>47</ele>
						<time>2024-05-28T16:32:30Z</time>
					</trkpt>
					<trkpt lat="48.897540" lon="2.263630">
						<ele>45</ele>
						<time>2024-05-28T16:32:56Z</time>
					</trkpt>
					<trkpt lat="48.897450" lon="2.263660">
						<ele>44</ele>
						<time>2024-05-28T16:32:57Z</time>
					</trkpt>
					<trkpt lat="48.897210" lon="2.263920">
						<ele>41</ele>
						<time>2024-05-28T16:33:02Z</time>
					</trkpt>
					<trkpt lat="48.897090" lon="2.264070">
						<ele>39</ele>
						<time>2024-05-28T16:33:05Z</time>
					</trkpt>
					<trkpt lat="48.896690" lon="2.264360">
						<ele>34</ele>
						<time>2024-05-28T16:33:13Z</time>
					</trkpt>
					<trkpt lat="48.896510" lon="2.264520">
						<ele>34</ele>
						<time>2024-05-28T16:33:17Z</time>
					</trkpt>
					<trkpt lat="48.895360" lon="2.265700">
						<ele>35</ele>
						<time>2024-05-28T16:33:41Z</time>
					</trkpt>
					<trkpt lat="48.895310" lon="2.265730">
						<ele>35</ele>
						<time>2024-05-28T16:33:42Z</time>
					</trkpt>
					<trkpt lat="48.895220" lon="2.265660">
						<ele>35</ele>
						<time>2024-05-28T16:33:44Z</time>
					</trkpt>
					<trkpt lat="48.895140" lon="2.265560">
						<ele>35</ele>
						<time>2024-05-28T16:33:46Z</time>
					</trkpt>
					<trkpt lat="48.894750" lon="2.264760">
						<ele>32</ele>
						<time>2024-05-28T16:33:58Z</time>
					</trkpt>
					<trkpt lat="48.893960" lon="2.263450">
						<ele>30</ele>
						<time>2024-05-28T16:34:19Z</time>
					</trkpt>
					<trkpt lat="48.893270" lon="2.262530">
						<ele>26</ele>
						<time>2024-05-28T16:34:35Z</time>
					</trkpt>
					<trkpt lat="48.892640" lon="2.262040">
						<ele>21</ele>
						<time>2024-05-28T16:34:47Z</time>
					</trkpt>
					<trkpt lat="48.892600" lon="2.262030">
						<ele>21</ele>
						<time>2024-05-28T16:34:48Z</time>
					</trkpt>
					<trkpt lat="48.892550" lon="2.262060">
						<ele>21</ele>
						<time>2024-05-28T16:34:49Z</time>
					</trkpt>
					<trkpt lat="48.892390" lon="2.262250">
						<ele>24</ele>
						<time>2024-05-28T16:34:53Z</time>
					</trkpt>
					</trkseg>
				</trk>
			</gpx>